<?xml version="1.0" encoding="UTF-8" standalone="no" ?>
<gpx xmlns="http://www.topografix.com/GPX/1/1" xmlns:xsi="http://www.w3.org/2001/XMLSchema-instance" xsi:schemaLocation="http://www.topografix.com/GPX/1/1 http://www.topografix.com/GPX/1/1/gpx.xsd" version="1.1" creator="VisuGPX - https://www.visugpx.com">
  <metadata>
    <name>Cyclo-2022-4</name>
    <desc><![CDATA[File with points/tracks from Locus Map/4.10.0]]></desc>
  </metadata>
  <trk>
    <name><![CDATA[Cyclo-2022-4]]></name>
    <extensions>
      <line xmlns="http://www.topografix.com/GPX/gpx_style/0/2">
        <color>FF0000</color>
        <opacity>0.78</opacity>
        <width>3.0</width>
      </line>
    </extensions>
    <trkseg>
      <trkpt lat="46.71805" lon="2.49095">
        <ele>160.78</ele>
        <time>2022-07-26T06:50:36.397Z</time>
      </trkpt>
      <trkpt lat="46.71799" lon="2.49105">
        <ele>160.78</ele>
        <time>2022-07-26T06:50:45.000Z</time>
      </trkpt>
      <trkpt lat="46.7179" lon="2.49098">
        <ele>160.78</ele>
        <time>2022-07-26T06:50:51.000Z</time>
      </trkpt>
      <trkpt lat="46.71782" lon="2.49087">
        <ele>160.78</ele>
        <time>2022-07-26T06:50:56.000Z</time>
      </trkpt>
      <trkpt lat="46.71772" lon="2.49075">
        <ele>160.78</ele>
        <time>2022-07-26T06:51:01.000Z</time>
      </trkpt>
      <trkpt lat="46.71763" lon="2.49061">
        <ele>160.78</ele>
        <time>2022-07-26T06:51:06.000Z</time>
      </trkpt>
      <trkpt lat="46.7176" lon="2.49045">
        <ele>160.78</ele>
        <time>2022-07-26T06:51:12.258Z</time>
      </trkpt>
      <trkpt lat="46.71761" lon="2.49027">
        <ele>160.78</ele>
        <time>2022-07-26T06:51:17.000Z</time>
      </trkpt>
      <trkpt lat="46.71765" lon="2.48994">
        <ele>160.78</ele>
        <time>2022-07-26T06:51:22.000Z</time>
      </trkpt>
      <trkpt lat="46.71769" lon="2.48952">
        <ele>160.78</ele>
        <time>2022-07-26T06:51:27.000Z</time>
      </trkpt>
      <trkpt lat="46.71774" lon="2.48911">
        <ele>160.78</ele>
        <time>2022-07-26T06:51:32.000Z</time>
      </trkpt>
      <trkpt lat="46.7178" lon="2.4887">
        <ele>160.78</ele>
        <time>2022-07-26T06:51:37.000Z</time>
      </trkpt>
      <trkpt lat="46.71782" lon="2.48829">
        <ele>160.78</ele>
        <time>2022-07-26T06:51:42.000Z</time>
      </trkpt>
      <trkpt lat="46.71784" lon="2.488">
        <ele>160.78</ele>
        <time>2022-07-26T06:51:47.000Z</time>
      </trkpt>
      <trkpt lat="46.71785" lon="2.48773">
        <ele>160.78</ele>
        <time>2022-07-26T06:51:52.000Z</time>
      </trkpt>
      <trkpt lat="46.71801" lon="2.48749">
        <ele>160.78</ele>
        <time>2022-07-26T06:51:57.000Z</time>
      </trkpt>
      <trkpt lat="46.71826" lon="2.48742">
        <ele>160.78</ele>
        <time>2022-07-26T06:52:02.000Z</time>
      </trkpt>
      <trkpt lat="46.71845" lon="2.48739">
        <ele>160.78</ele>
        <time>2022-07-26T06:52:07.000Z</time>
      </trkpt>
      <trkpt lat="46.71866" lon="2.48736">
        <ele>118.25</ele>
        <time>2022-07-26T06:52:12.000Z</time>
      </trkpt>
      <trkpt lat="46.71885" lon="2.48736">
        <ele>103.58</ele>
        <time>2022-07-26T06:52:16.097Z</time>
      </trkpt>
      <trkpt lat="46.71899" lon="2.48742">
        <ele>104.16</ele>
        <time>2022-07-26T06:52:20.499Z</time>
      </trkpt>
      <trkpt lat="46.71912" lon="2.48752">
        <ele>104.55</ele>
        <time>2022-07-26T06:52:24.999Z</time>
      </trkpt>
      <trkpt lat="46.71925" lon="2.48759">
        <ele>104.05</ele>
        <time>2022-07-26T06:52:30.000Z</time>
      </trkpt>
      <trkpt lat="46.71944" lon="2.48773">
        <ele>105.33</ele>
        <time>2022-07-26T06:52:35.000Z</time>
      </trkpt>
      <trkpt lat="46.71967" lon="2.48777">
        <ele>105.21</ele>
        <time>2022-07-26T06:52:39.206Z</time>
      </trkpt>
      <trkpt lat="46.71985" lon="2.48782">
        <ele>106.37</ele>
        <time>2022-07-26T06:52:43.685Z</time>
      </trkpt>
      <trkpt lat="46.7201" lon="2.48786">
        <ele>106.53</ele>
        <time>2022-07-26T06:52:50.000Z</time>
      </trkpt>
      <trkpt lat="46.72035" lon="2.48794">
        <ele>107.26</ele>
        <time>2022-07-26T06:52:54.459Z</time>
      </trkpt>
      <trkpt lat="46.7205" lon="2.488">
        <ele>107.79</ele>
        <time>2022-07-26T06:52:59.000Z</time>
      </trkpt>
      <trkpt lat="46.7207" lon="2.4881">
        <ele>108.23</ele>
        <time>2022-07-26T06:53:03.022Z</time>
      </trkpt>
      <trkpt lat="46.72083" lon="2.48818">
        <ele>107.74</ele>
        <time>2022-07-26T06:53:08.000Z</time>
      </trkpt>
      <trkpt lat="46.72102" lon="2.48826">
        <ele>107.12</ele>
        <time>2022-07-26T06:53:13.000Z</time>
      </trkpt>
      <trkpt lat="46.72123" lon="2.48836">
        <ele>106.98</ele>
        <time>2022-07-26T06:53:18.000Z</time>
      </trkpt>
      <trkpt lat="46.72141" lon="2.48851">
        <ele>107.01</ele>
        <time>2022-07-26T06:53:23.000Z</time>
      </trkpt>
      <trkpt lat="46.72156" lon="2.48871">
        <ele>105.8</ele>
        <time>2022-07-26T06:53:28.000Z</time>
      </trkpt>
      <trkpt lat="46.72174" lon="2.48895">
        <ele>105.65</ele>
        <time>2022-07-26T06:53:32.598Z</time>
      </trkpt>
      <trkpt lat="46.72184" lon="2.48908">
        <ele>105.86</ele>
        <time>2022-07-26T06:53:37.000Z</time>
      </trkpt>
      <trkpt lat="46.722" lon="2.48932">
        <ele>105.54</ele>
        <time>2022-07-26T06:53:41.096Z</time>
      </trkpt>
      <trkpt lat="46.72212" lon="2.48951">
        <ele>105.55</ele>
        <time>2022-07-26T06:53:45.656Z</time>
      </trkpt>
      <trkpt lat="46.72218" lon="2.48966">
        <ele>107.36</ele>
        <time>2022-07-26T06:53:50.000Z</time>
      </trkpt>
      <trkpt lat="46.72235" lon="2.48984">
        <ele>108.06</ele>
        <time>2022-07-26T06:53:56.000Z</time>
      </trkpt>
      <trkpt lat="46.7224" lon="2.48997">
        <ele>108.86</ele>
        <time>2022-07-26T06:55:38.000Z</time>
      </trkpt>
      <trkpt lat="46.7225" lon="2.49015">
        <ele>108.81</ele>
        <time>2022-07-26T06:55:43.000Z</time>
      </trkpt>
      <trkpt lat="46.72259" lon="2.49035">
        <ele>107.7</ele>
        <time>2022-07-26T06:55:47.615Z</time>
      </trkpt>
      <trkpt lat="46.72267" lon="2.49048">
        <ele>106.39</ele>
        <time>2022-07-26T06:55:52.000Z</time>
      </trkpt>
      <trkpt lat="46.72279" lon="2.49067">
        <ele>106.39</ele>
        <time>2022-07-26T06:55:57.000Z</time>
      </trkpt>
      <trkpt lat="46.72296" lon="2.49084">
        <ele>150.74</ele>
        <time>2022-07-26T06:56:01.504Z</time>
      </trkpt>
      <trkpt lat="46.72309" lon="2.49099">
        <ele>107.18</ele>
        <time>2022-07-26T06:56:05.551Z</time>
      </trkpt>
      <trkpt lat="46.7232" lon="2.49108">
        <ele>107.12</ele>
        <time>2022-07-26T06:56:10.000Z</time>
      </trkpt>
      <trkpt lat="46.7234" lon="2.49128">
        <ele>107.63</ele>
        <time>2022-07-26T06:56:15.000Z</time>
      </trkpt>
      <trkpt lat="46.72356" lon="2.49143">
        <ele>108.42</ele>
        <time>2022-07-26T06:56:20.000Z</time>
      </trkpt>
      <trkpt lat="46.72377" lon="2.49161">
        <ele>108.57</ele>
        <time>2022-07-26T06:56:24.597Z</time>
      </trkpt>
      <trkpt lat="46.72387" lon="2.4917">
        <ele>108.63</ele>
        <time>2022-07-26T06:56:29.000Z</time>
      </trkpt>
      <trkpt lat="46.7241" lon="2.49177">
        <ele>107.96</ele>
        <time>2022-07-26T06:56:35.000Z</time>
      </trkpt>
      <trkpt lat="46.72428" lon="2.49183">
        <ele>107.89</ele>
        <time>2022-07-26T06:56:40.000Z</time>
      </trkpt>
      <trkpt lat="46.72446" lon="2.49189">
        <ele>107.6</ele>
        <time>2022-07-26T06:56:45.000Z</time>
      </trkpt>
      <trkpt lat="46.72471" lon="2.49188">
        <ele>106.59</ele>
        <time>2022-07-26T06:56:51.000Z</time>
      </trkpt>
      <trkpt lat="46.72491" lon="2.49177">
        <ele>106.94</ele>
        <time>2022-07-26T06:56:56.000Z</time>
      </trkpt>
      <trkpt lat="46.72513" lon="2.49166">
        <ele>106.08</ele>
        <time>2022-07-26T06:57:00.119Z</time>
      </trkpt>
      <trkpt lat="46.72529" lon="2.49164">
        <ele>106.13</ele>
        <time>2022-07-26T06:57:06.000Z</time>
      </trkpt>
      <trkpt lat="46.72529" lon="2.49191">
        <ele>106.83</ele>
        <time>2022-07-26T06:57:10.077Z</time>
      </trkpt>
      <trkpt lat="46.72529" lon="2.49208">
        <ele>106.4</ele>
        <time>2022-07-26T06:57:15.000Z</time>
      </trkpt>
      <trkpt lat="46.72529" lon="2.49238">
        <ele>108.42</ele>
        <time>2022-07-26T06:57:19.139Z</time>
      </trkpt>
      <trkpt lat="46.72534" lon="2.49261">
        <ele>107.02</ele>
        <time>2022-07-26T06:57:25.000Z</time>
      </trkpt>
      <trkpt lat="46.72543" lon="2.49282">
        <ele>106.42</ele>
        <time>2022-07-26T06:57:30.000Z</time>
      </trkpt>
      <trkpt lat="46.72554" lon="2.49302">
        <ele>107.34</ele>
        <time>2022-07-26T06:57:34.474Z</time>
      </trkpt>
      <trkpt lat="46.72563" lon="2.49315">
        <ele>110.65</ele>
        <time>2022-07-26T06:57:40.000Z</time>
      </trkpt>
      <trkpt lat="46.72574" lon="2.49306">
        <ele>113.46</ele>
        <time>2022-07-26T06:57:53.000Z</time>
      </trkpt>
      <trkpt lat="46.72578" lon="2.49281">
        <ele>113.07</ele>
        <time>2022-07-26T06:57:57.219Z</time>
      </trkpt>
      <trkpt lat="46.72581" lon="2.49258">
        <ele>111.48</ele>
        <time>2022-07-26T06:58:01.662Z</time>
      </trkpt>
      <trkpt lat="46.72582" lon="2.49234">
        <ele>110.9</ele>
        <time>2022-07-26T06:58:06.038Z</time>
      </trkpt>
      <trkpt lat="46.72584" lon="2.49209">
        <ele>110.39</ele>
        <time>2022-07-26T06:58:12.000Z</time>
      </trkpt>
      <trkpt lat="46.72589" lon="2.49173">
        <ele>109.72</ele>
        <time>2022-07-26T06:58:16.630Z</time>
      </trkpt>
      <trkpt lat="46.72593" lon="2.49149">
        <ele>108.77</ele>
        <time>2022-07-26T06:58:22.000Z</time>
      </trkpt>
      <trkpt lat="46.72595" lon="2.49112">
        <ele>109.93</ele>
        <time>2022-07-26T06:58:28.000Z</time>
      </trkpt>
      <trkpt lat="46.72598" lon="2.49079">
        <ele>110.82</ele>
        <time>2022-07-26T06:58:32.298Z</time>
      </trkpt>
      <trkpt lat="46.72601" lon="2.4906">
        <ele>111.64</ele>
        <time>2022-07-26T06:58:37.000Z</time>
      </trkpt>
      <trkpt lat="46.72605" lon="2.49032">
        <ele>112.38</ele>
        <time>2022-07-26T06:58:42.000Z</time>
      </trkpt>
      <trkpt lat="46.72608" lon="2.49002">
        <ele>112.17</ele>
        <time>2022-07-26T06:58:47.000Z</time>
      </trkpt>
      <trkpt lat="46.72611" lon="2.48966">
        <ele>111.42</ele>
        <time>2022-07-26T06:58:53.000Z</time>
      </trkpt>
      <trkpt lat="46.72616" lon="2.48934">
        <ele>109.63</ele>
        <time>2022-07-26T06:58:58.000Z</time>
      </trkpt>
      <trkpt lat="46.72622" lon="2.48905">
        <ele>108.75</ele>
        <time>2022-07-26T06:59:02.219Z</time>
      </trkpt>
      <trkpt lat="46.72625" lon="2.48881">
        <ele>107.23</ele>
        <time>2022-07-26T06:59:07.000Z</time>
      </trkpt>
      <trkpt lat="46.72627" lon="2.48844">
        <ele>105.63</ele>
        <time>2022-07-26T06:59:12.000Z</time>
      </trkpt>
      <trkpt lat="46.7263" lon="2.48808">
        <ele>104.4</ele>
        <time>2022-07-26T06:59:17.000Z</time>
      </trkpt>
      <trkpt lat="46.72636" lon="2.48773">
        <ele>100.79</ele>
        <time>2022-07-26T06:59:22.000Z</time>
      </trkpt>
      <trkpt lat="46.72638" lon="2.48737">
        <ele>99.75</ele>
        <time>2022-07-26T06:59:27.000Z</time>
      </trkpt>
      <trkpt lat="46.72635" lon="2.48719">
        <ele>101.52</ele>
        <time>2022-07-26T06:59:32.000Z</time>
      </trkpt>
      <trkpt lat="46.72634" lon="2.48741">
        <ele>157.74</ele>
        <time>2022-07-26T06:59:38.000Z</time>
      </trkpt>
      <trkpt lat="46.7263" lon="2.48769">
        <ele>157.79</ele>
        <time>2022-07-26T06:59:42.306Z</time>
      </trkpt>
      <trkpt lat="46.72627" lon="2.48791">
        <ele>157.79</ele>
        <time>2022-07-26T06:59:46.545Z</time>
      </trkpt>
      <trkpt lat="46.72624" lon="2.4881">
        <ele>157.79</ele>
        <time>2022-07-26T06:59:51.000Z</time>
      </trkpt>
      <trkpt lat="46.72621" lon="2.48843">
        <ele>157.79</ele>
        <time>2022-07-26T06:59:56.000Z</time>
      </trkpt>
      <trkpt lat="46.72617" lon="2.48868">
        <ele>157.79</ele>
        <time>2022-07-26T07:00:01.000Z</time>
      </trkpt>
      <trkpt lat="46.72603" lon="2.48895">
        <ele>157.79</ele>
        <time>2022-07-26T07:00:06.000Z</time>
      </trkpt>
      <trkpt lat="46.72613" lon="2.48914">
        <ele>157.79</ele>
        <time>2022-07-26T07:00:11.000Z</time>
      </trkpt>
      <trkpt lat="46.7264" lon="2.48894">
        <ele>157.79</ele>
        <time>2022-07-26T07:00:16.000Z</time>
      </trkpt>
      <trkpt lat="46.72664" lon="2.48874">
        <ele>157.79</ele>
        <time>2022-07-26T07:00:21.000Z</time>
      </trkpt>
      <trkpt lat="46.72688" lon="2.48855">
        <ele>157.79</ele>
        <time>2022-07-26T07:00:26.000Z</time>
      </trkpt>
      <trkpt lat="46.72709" lon="2.48844">
        <ele>157.79</ele>
        <time>2022-07-26T07:00:31.000Z</time>
      </trkpt>
      <trkpt lat="46.7273" lon="2.48844">
        <ele>156.67</ele>
        <time>2022-07-26T07:00:36.000Z</time>
      </trkpt>
      <trkpt lat="46.72748" lon="2.48868">
        <ele>156.6</ele>
        <time>2022-07-26T07:00:40.379Z</time>
      </trkpt>
      <trkpt lat="46.72755" lon="2.48884">
        <ele>156.6</ele>
        <time>2022-07-26T07:00:45.000Z</time>
      </trkpt>
      <trkpt lat="46.72775" lon="2.48884">
        <ele>156.6</ele>
        <time>2022-07-26T07:00:50.000Z</time>
      </trkpt>
      <trkpt lat="46.72791" lon="2.48854">
        <ele>156.6</ele>
        <time>2022-07-26T07:00:55.000Z</time>
      </trkpt>
      <trkpt lat="46.728" lon="2.48822">
        <ele>156.6</ele>
        <time>2022-07-26T07:01:00.000Z</time>
      </trkpt>
      <trkpt lat="46.7282" lon="2.48797">
        <ele>156.6</ele>
        <time>2022-07-26T07:01:05.000Z</time>
      </trkpt>
      <trkpt lat="46.72842" lon="2.48775">
        <ele>156.6</ele>
        <time>2022-07-26T07:01:10.000Z</time>
      </trkpt>
      <trkpt lat="46.72857" lon="2.48743">
        <ele>156.6</ele>
        <time>2022-07-26T07:01:15.000Z</time>
      </trkpt>
      <trkpt lat="46.72873" lon="2.48721">
        <ele>156.6</ele>
        <time>2022-07-26T07:01:20.000Z</time>
      </trkpt>
      <trkpt lat="46.72889" lon="2.48691">
        <ele>156.6</ele>
        <time>2022-07-26T07:01:25.000Z</time>
      </trkpt>
      <trkpt lat="46.72903" lon="2.48659">
        <ele>156.6</ele>
        <time>2022-07-26T07:01:30.000Z</time>
      </trkpt>
      <trkpt lat="46.72915" lon="2.48626">
        <ele>156.6</ele>
        <time>2022-07-26T07:01:35.000Z</time>
      </trkpt>
      <trkpt lat="46.72927" lon="2.48593">
        <ele>156.6</ele>
        <time>2022-07-26T07:01:40.000Z</time>
      </trkpt>
      <trkpt lat="46.72937" lon="2.4856">
        <ele>156.6</ele>
        <time>2022-07-26T07:01:45.000Z</time>
      </trkpt>
      <trkpt lat="46.72946" lon="2.48525">
        <ele>156.6</ele>
        <time>2022-07-26T07:01:50.000Z</time>
      </trkpt>
      <trkpt lat="46.72953" lon="2.48489">
        <ele>156.6</ele>
        <time>2022-07-26T07:01:55.000Z</time>
      </trkpt>
      <trkpt lat="46.72959" lon="2.48455">
        <ele>156.6</ele>
        <time>2022-07-26T07:02:00.000Z</time>
      </trkpt>
      <trkpt lat="46.72963" lon="2.4842">
        <ele>120.83</ele>
        <time>2022-07-26T07:02:05.000Z</time>
      </trkpt>
      <trkpt lat="46.72966" lon="2.48386">
        <ele>108.78</ele>
        <time>2022-07-26T07:02:10.000Z</time>
      </trkpt>
      <trkpt lat="46.72969" lon="2.48351">
        <ele>108.73</ele>
        <time>2022-07-26T07:02:15.000Z</time>
      </trkpt>
      <trkpt lat="46.72972" lon="2.48317">
        <ele>108.13</ele>
        <time>2022-07-26T07:02:20.000Z</time>
      </trkpt>
      <trkpt lat="46.72974" lon="2.48283">
        <ele>108.2</ele>
        <time>2022-07-26T07:02:25.000Z</time>
      </trkpt>
      <trkpt lat="46.72977" lon="2.4825">
        <ele>108.12</ele>
        <time>2022-07-26T07:02:30.000Z</time>
      </trkpt>
      <trkpt lat="46.7298" lon="2.48215">
        <ele>108.18</ele>
        <time>2022-07-26T07:02:35.000Z</time>
      </trkpt>
      <trkpt lat="46.72983" lon="2.48185">
        <ele>107.31</ele>
        <time>2022-07-26T07:02:40.000Z</time>
      </trkpt>
      <trkpt lat="46.7299" lon="2.48148">
        <ele>106.15</ele>
        <time>2022-07-26T07:02:45.000Z</time>
      </trkpt>
      <trkpt lat="46.72998" lon="2.48115">
        <ele>106.42</ele>
        <time>2022-07-26T07:02:50.000Z</time>
      </trkpt>
      <trkpt lat="46.73007" lon="2.48084">
        <ele>106.54</ele>
        <time>2022-07-26T07:02:55.000Z</time>
      </trkpt>
      <trkpt lat="46.73017" lon="2.48053">
        <ele>107.49</ele>
        <time>2022-07-26T07:03:00.000Z</time>
      </trkpt>
      <trkpt lat="46.73028" lon="2.48021">
        <ele>108.4</ele>
        <time>2022-07-26T07:03:05.000Z</time>
      </trkpt>
      <trkpt lat="46.73038" lon="2.47988">
        <ele>108.13</ele>
        <time>2022-07-26T07:03:10.000Z</time>
      </trkpt>
      <trkpt lat="46.73049" lon="2.47954">
        <ele>108.11</ele>
        <time>2022-07-26T07:03:15.000Z</time>
      </trkpt>
      <trkpt lat="46.73061" lon="2.47921">
        <ele>107.3</ele>
        <time>2022-07-26T07:03:20.000Z</time>
      </trkpt>
      <trkpt lat="46.73072" lon="2.47885">
        <ele>106.42</ele>
        <time>2022-07-26T07:03:25.000Z</time>
      </trkpt>
      <trkpt lat="46.73083" lon="2.47849">
        <ele>105.14</ele>
        <time>2022-07-26T07:03:30.000Z</time>
      </trkpt>
      <trkpt lat="46.73095" lon="2.47813">
        <ele>104.68</ele>
        <time>2022-07-26T07:03:35.000Z</time>
      </trkpt>
      <trkpt lat="46.73107" lon="2.47777">
        <ele>102.99</ele>
        <time>2022-07-26T07:03:40.000Z</time>
      </trkpt>
      <trkpt lat="46.73119" lon="2.4774">
        <ele>102.35</ele>
        <time>2022-07-26T07:03:45.000Z</time>
      </trkpt>
      <trkpt lat="46.7313" lon="2.47704">
        <ele>102.51</ele>
        <time>2022-07-26T07:03:50.000Z</time>
      </trkpt>
      <trkpt lat="46.73141" lon="2.47668">
        <ele>101.79</ele>
        <time>2022-07-26T07:03:55.000Z</time>
      </trkpt>
      <trkpt lat="46.73154" lon="2.47632">
        <ele>100.78</ele>
        <time>2022-07-26T07:04:00.000Z</time>
      </trkpt>
      <trkpt lat="46.73165" lon="2.47596">
        <ele>100.95</ele>
        <time>2022-07-26T07:04:05.000Z</time>
      </trkpt>
      <trkpt lat="46.73175" lon="2.47561">
        <ele>101.66</ele>
        <time>2022-07-26T07:04:10.000Z</time>
      </trkpt>
      <trkpt lat="46.73185" lon="2.47528">
        <ele>101.08</ele>
        <time>2022-07-26T07:04:15.000Z</time>
      </trkpt>
      <trkpt lat="46.73194" lon="2.47494">
        <ele>101.35</ele>
        <time>2022-07-26T07:04:20.000Z</time>
      </trkpt>
      <trkpt lat="46.73202" lon="2.47461">
        <ele>99.68</ele>
        <time>2022-07-26T07:04:25.000Z</time>
      </trkpt>
      <trkpt lat="46.73208" lon="2.47427">
        <ele>98.85</ele>
        <time>2022-07-26T07:04:30.000Z</time>
      </trkpt>
      <trkpt lat="46.73216" lon="2.47393">
        <ele>99.2</ele>
        <time>2022-07-26T07:04:35.000Z</time>
      </trkpt>
      <trkpt lat="46.73223" lon="2.47361">
        <ele>99.45</ele>
        <time>2022-07-26T07:04:40.000Z</time>
      </trkpt>
      <trkpt lat="46.73229" lon="2.47332">
        <ele>100.81</ele>
        <time>2022-07-26T07:04:45.000Z</time>
      </trkpt>
      <trkpt lat="46.73235" lon="2.47303">
        <ele>102.53</ele>
        <time>2022-07-26T07:04:51.000Z</time>
      </trkpt>
      <trkpt lat="46.73242" lon="2.47282">
        <ele>103.11</ele>
        <time>2022-07-26T07:04:56.000Z</time>
      </trkpt>
      <trkpt lat="46.73249" lon="2.4726">
        <ele>103.48</ele>
        <time>2022-07-26T07:05:01.000Z</time>
      </trkpt>
      <trkpt lat="46.73255" lon="2.47239">
        <ele>106.12</ele>
        <time>2022-07-26T07:05:06.000Z</time>
      </trkpt>
      <trkpt lat="46.7326" lon="2.47215">
        <ele>108.54</ele>
        <time>2022-07-26T07:05:11.000Z</time>
      </trkpt>
      <trkpt lat="46.73266" lon="2.47191">
        <ele>109.76</ele>
        <time>2022-07-26T07:05:16.000Z</time>
      </trkpt>
      <trkpt lat="46.73268" lon="2.47171">
        <ele>111.55</ele>
        <time>2022-07-26T07:05:21.000Z</time>
      </trkpt>
      <trkpt lat="46.7327" lon="2.47149">
        <ele>112.75</ele>
        <time>2022-07-26T07:05:26.000Z</time>
      </trkpt>
      <trkpt lat="46.73271" lon="2.47127">
        <ele>112.82</ele>
        <time>2022-07-26T07:05:31.000Z</time>
      </trkpt>
      <trkpt lat="46.7327" lon="2.47106">
        <ele>113.7</ele>
        <time>2022-07-26T07:05:36.000Z</time>
      </trkpt>
      <trkpt lat="46.73265" lon="2.47078">
        <ele>112.82</ele>
        <time>2022-07-26T07:05:42.000Z</time>
      </trkpt>
      <trkpt lat="46.73257" lon="2.47053">
        <ele>111.7</ele>
        <time>2022-07-26T07:05:48.000Z</time>
      </trkpt>
      <trkpt lat="46.73246" lon="2.47031">
        <ele>110.73</ele>
        <time>2022-07-26T07:05:52.598Z</time>
      </trkpt>
      <trkpt lat="46.7324" lon="2.47019">
        <ele>110.15</ele>
        <time>2022-07-26T07:05:57.000Z</time>
      </trkpt>
      <trkpt lat="46.73229" lon="2.47001">
        <ele>109.32</ele>
        <time>2022-07-26T07:06:02.000Z</time>
      </trkpt>
      <trkpt lat="46.73216" lon="2.4698">
        <ele>108.87</ele>
        <time>2022-07-26T07:06:07.000Z</time>
      </trkpt>
      <trkpt lat="46.73204" lon="2.4696">
        <ele>109</ele>
        <time>2022-07-26T07:06:12.000Z</time>
      </trkpt>
      <trkpt lat="46.73188" lon="2.46934">
        <ele>110.13</ele>
        <time>2022-07-26T07:06:18.000Z</time>
      </trkpt>
      <trkpt lat="46.73173" lon="2.46909">
        <ele>110.81</ele>
        <time>2022-07-26T07:06:22.082Z</time>
      </trkpt>
      <trkpt lat="46.73162" lon="2.46892">
        <ele>111.3</ele>
        <time>2022-07-26T07:06:27.000Z</time>
      </trkpt>
      <trkpt lat="46.73148" lon="2.4687">
        <ele>111.39</ele>
        <time>2022-07-26T07:06:32.000Z</time>
      </trkpt>
      <trkpt lat="46.73131" lon="2.46842">
        <ele>112.01</ele>
        <time>2022-07-26T07:06:38.000Z</time>
      </trkpt>
      <trkpt lat="46.73116" lon="2.46819">
        <ele>112.44</ele>
        <time>2022-07-26T07:06:43.000Z</time>
      </trkpt>
      <trkpt lat="46.73103" lon="2.46795">
        <ele>112.98</ele>
        <time>2022-07-26T07:06:48.000Z</time>
      </trkpt>
      <trkpt lat="46.73089" lon="2.46774">
        <ele>113.77</ele>
        <time>2022-07-26T07:06:53.000Z</time>
      </trkpt>
      <trkpt lat="46.73076" lon="2.46752">
        <ele>114.97</ele>
        <time>2022-07-26T07:06:58.000Z</time>
      </trkpt>
      <trkpt lat="46.7306" lon="2.46724">
        <ele>115.81</ele>
        <time>2022-07-26T07:07:04.000Z</time>
      </trkpt>
      <trkpt lat="46.73047" lon="2.467">
        <ele>115.34</ele>
        <time>2022-07-26T07:07:09.000Z</time>
      </trkpt>
      <trkpt lat="46.73034" lon="2.46673">
        <ele>114.95</ele>
        <time>2022-07-26T07:07:14.000Z</time>
      </trkpt>
      <trkpt lat="46.73025" lon="2.46648">
        <ele>114.81</ele>
        <time>2022-07-26T07:07:19.000Z</time>
      </trkpt>
      <trkpt lat="46.73011" lon="2.46619">
        <ele>114.87</ele>
        <time>2022-07-26T07:07:24.000Z</time>
      </trkpt>
      <trkpt lat="46.72999" lon="2.46586">
        <ele>114.69</ele>
        <time>2022-07-26T07:07:29.000Z</time>
      </trkpt>
      <trkpt lat="46.72988" lon="2.46556">
        <ele>114.26</ele>
        <time>2022-07-26T07:07:34.000Z</time>
      </trkpt>
      <trkpt lat="46.72977" lon="2.46525">
        <ele>113.96</ele>
        <time>2022-07-26T07:07:39.000Z</time>
      </trkpt>
      <trkpt lat="46.72966" lon="2.46495">
        <ele>113.43</ele>
        <time>2022-07-26T07:07:44.000Z</time>
      </trkpt>
      <trkpt lat="46.72954" lon="2.46464">
        <ele>112.5</ele>
        <time>2022-07-26T07:07:49.000Z</time>
      </trkpt>
      <trkpt lat="46.72943" lon="2.46435">
        <ele>111.28</ele>
        <time>2022-07-26T07:07:54.000Z</time>
      </trkpt>
      <trkpt lat="46.72931" lon="2.46406">
        <ele>110.59</ele>
        <time>2022-07-26T07:07:59.000Z</time>
      </trkpt>
      <trkpt lat="46.72917" lon="2.46376">
        <ele>111.18</ele>
        <time>2022-07-26T07:08:04.000Z</time>
      </trkpt>
      <trkpt lat="46.72901" lon="2.46347">
        <ele>111.8</ele>
        <time>2022-07-26T07:08:09.000Z</time>
      </trkpt>
      <trkpt lat="46.72883" lon="2.46319">
        <ele>112.35</ele>
        <time>2022-07-26T07:08:14.000Z</time>
      </trkpt>
      <trkpt lat="46.72864" lon="2.46293">
        <ele>112.99</ele>
        <time>2022-07-26T07:08:19.000Z</time>
      </trkpt>
      <trkpt lat="46.72844" lon="2.4627">
        <ele>113.29</ele>
        <time>2022-07-26T07:08:24.000Z</time>
      </trkpt>
      <trkpt lat="46.72823" lon="2.46248">
        <ele>114.13</ele>
        <time>2022-07-26T07:08:29.000Z</time>
      </trkpt>
      <trkpt lat="46.72801" lon="2.4623">
        <ele>114.49</ele>
        <time>2022-07-26T07:08:34.000Z</time>
      </trkpt>
      <trkpt lat="46.72779" lon="2.46212">
        <ele>115.18</ele>
        <time>2022-07-26T07:08:39.000Z</time>
      </trkpt>
      <trkpt lat="46.72757" lon="2.46196">
        <ele>115.89</ele>
        <time>2022-07-26T07:08:44.000Z</time>
      </trkpt>
      <trkpt lat="46.72735" lon="2.46181">
        <ele>116.17</ele>
        <time>2022-07-26T07:08:49.000Z</time>
      </trkpt>
      <trkpt lat="46.72713" lon="2.46166">
        <ele>116.51</ele>
        <time>2022-07-26T07:08:54.000Z</time>
      </trkpt>
      <trkpt lat="46.72694" lon="2.46151">
        <ele>116.14</ele>
        <time>2022-07-26T07:08:59.000Z</time>
      </trkpt>
      <trkpt lat="46.72676" lon="2.46138">
        <ele>115.84</ele>
        <time>2022-07-26T07:09:04.000Z</time>
      </trkpt>
      <trkpt lat="46.72658" lon="2.46125">
        <ele>116.64</ele>
        <time>2022-07-26T07:09:09.000Z</time>
      </trkpt>
      <trkpt lat="46.72642" lon="2.46114">
        <ele>117.18</ele>
        <time>2022-07-26T07:09:14.000Z</time>
      </trkpt>
      <trkpt lat="46.72627" lon="2.46102">
        <ele>116.89</ele>
        <time>2022-07-26T07:09:19.000Z</time>
      </trkpt>
      <trkpt lat="46.72613" lon="2.4609">
        <ele>116.98</ele>
        <time>2022-07-26T07:09:24.000Z</time>
      </trkpt>
      <trkpt lat="46.72594" lon="2.46077">
        <ele>117.75</ele>
        <time>2022-07-26T07:09:30.000Z</time>
      </trkpt>
      <trkpt lat="46.72574" lon="2.46064">
        <ele>118.63</ele>
        <time>2022-07-26T07:09:36.000Z</time>
      </trkpt>
      <trkpt lat="46.72559" lon="2.46052">
        <ele>118.61</ele>
        <time>2022-07-26T07:09:41.000Z</time>
      </trkpt>
      <trkpt lat="46.72545" lon="2.46043">
        <ele>118.18</ele>
        <time>2022-07-26T07:09:46.000Z</time>
      </trkpt>
      <trkpt lat="46.72529" lon="2.46032">
        <ele>118.44</ele>
        <time>2022-07-26T07:09:51.000Z</time>
      </trkpt>
      <trkpt lat="46.72513" lon="2.4602">
        <ele>120.01</ele>
        <time>2022-07-26T07:09:56.000Z</time>
      </trkpt>
      <trkpt lat="46.72497" lon="2.46009">
        <ele>120.42</ele>
        <time>2022-07-26T07:10:01.000Z</time>
      </trkpt>
      <trkpt lat="46.72482" lon="2.45999">
        <ele>119.79</ele>
        <time>2022-07-26T07:10:06.000Z</time>
      </trkpt>
      <trkpt lat="46.72467" lon="2.45987">
        <ele>119.53</ele>
        <time>2022-07-26T07:10:11.000Z</time>
      </trkpt>
      <trkpt lat="46.72452" lon="2.45975">
        <ele>120.66</ele>
        <time>2022-07-26T07:10:16.000Z</time>
      </trkpt>
      <trkpt lat="46.7244" lon="2.45957">
        <ele>120.63</ele>
        <time>2022-07-26T07:10:21.000Z</time>
      </trkpt>
      <trkpt lat="46.72431" lon="2.45935">
        <ele>120.63</ele>
        <time>2022-07-26T07:10:26.000Z</time>
      </trkpt>
      <trkpt lat="46.7242" lon="2.45909">
        <ele>119.22</ele>
        <time>2022-07-26T07:10:31.000Z</time>
      </trkpt>
      <trkpt lat="46.72418" lon="2.45873">
        <ele>120.69</ele>
        <time>2022-07-26T07:10:35.642Z</time>
      </trkpt>
      <trkpt lat="46.72417" lon="2.45854">
        <ele>121.24</ele>
        <time>2022-07-26T07:10:40.000Z</time>
      </trkpt>
      <trkpt lat="46.72415" lon="2.45823">
        <ele>121.8</ele>
        <time>2022-07-26T07:10:45.000Z</time>
      </trkpt>
      <trkpt lat="46.72415" lon="2.45794">
        <ele>122.49</ele>
        <time>2022-07-26T07:10:50.000Z</time>
      </trkpt>
      <trkpt lat="46.72416" lon="2.45765">
        <ele>122.79</ele>
        <time>2022-07-26T07:10:55.000Z</time>
      </trkpt>
      <trkpt lat="46.72417" lon="2.45737">
        <ele>123.15</ele>
        <time>2022-07-26T07:11:00.000Z</time>
      </trkpt>
      <trkpt lat="46.7242" lon="2.4571">
        <ele>123.7</ele>
        <time>2022-07-26T07:11:05.000Z</time>
      </trkpt>
      <trkpt lat="46.72422" lon="2.45682">
        <ele>124.29</ele>
        <time>2022-07-26T07:11:10.000Z</time>
      </trkpt>
      <trkpt lat="46.72425" lon="2.45654">
        <ele>124.53</ele>
        <time>2022-07-26T07:11:15.000Z</time>
      </trkpt>
      <trkpt lat="46.72427" lon="2.45626">
        <ele>124.37</ele>
        <time>2022-07-26T07:11:20.000Z</time>
      </trkpt>
      <trkpt lat="46.7243" lon="2.45592">
        <ele>124.8</ele>
        <time>2022-07-26T07:11:26.000Z</time>
      </trkpt>
      <trkpt lat="46.72432" lon="2.45563">
        <ele>124.38</ele>
        <time>2022-07-26T07:11:31.000Z</time>
      </trkpt>
      <trkpt lat="46.72435" lon="2.45537">
        <ele>124.36</ele>
        <time>2022-07-26T07:11:36.000Z</time>
      </trkpt>
      <trkpt lat="46.72437" lon="2.45504">
        <ele>124.06</ele>
        <time>2022-07-26T07:11:41.000Z</time>
      </trkpt>
      <trkpt lat="46.7244" lon="2.45467">
        <ele>122.92</ele>
        <time>2022-07-26T07:11:46.000Z</time>
      </trkpt>
      <trkpt lat="46.72443" lon="2.45425">
        <ele>122.03</ele>
        <time>2022-07-26T07:11:51.000Z</time>
      </trkpt>
      <trkpt lat="46.72447" lon="2.45379">
        <ele>121.34</ele>
        <time>2022-07-26T07:11:56.000Z</time>
      </trkpt>
      <trkpt lat="46.72451" lon="2.45328">
        <ele>120.57</ele>
        <time>2022-07-26T07:12:01.000Z</time>
      </trkpt>
      <trkpt lat="46.72456" lon="2.45275">
        <ele>119.83</ele>
        <time>2022-07-26T07:12:06.000Z</time>
      </trkpt>
      <trkpt lat="46.72462" lon="2.45226">
        <ele>119.5</ele>
        <time>2022-07-26T07:12:11.000Z</time>
      </trkpt>
      <trkpt lat="46.72466" lon="2.45182">
        <ele>120.14</ele>
        <time>2022-07-26T07:12:16.000Z</time>
      </trkpt>
      <trkpt lat="46.72469" lon="2.45141">
        <ele>120.41</ele>
        <time>2022-07-26T07:12:21.000Z</time>
      </trkpt>
      <trkpt lat="46.72472" lon="2.45102">
        <ele>120.97</ele>
        <time>2022-07-26T07:12:26.000Z</time>
      </trkpt>
      <trkpt lat="46.72475" lon="2.45066">
        <ele>121.19</ele>
        <time>2022-07-26T07:12:31.000Z</time>
      </trkpt>
      <trkpt lat="46.72477" lon="2.45036">
        <ele>121.41</ele>
        <time>2022-07-26T07:12:36.000Z</time>
      </trkpt>
      <trkpt lat="46.72479" lon="2.45007">
        <ele>122.2</ele>
        <time>2022-07-26T07:12:41.000Z</time>
      </trkpt>
      <trkpt lat="46.72482" lon="2.44974">
        <ele>123.56</ele>
        <time>2022-07-26T07:12:47.000Z</time>
      </trkpt>
      <trkpt lat="46.72484" lon="2.44947">
        <ele>124.41</ele>
        <time>2022-07-26T07:12:52.000Z</time>
      </trkpt>
      <trkpt lat="46.72486" lon="2.44916">
        <ele>124.32</ele>
        <time>2022-07-26T07:12:56.382Z</time>
      </trkpt>
      <trkpt lat="46.72487" lon="2.44898">
        <ele>124.2</ele>
        <time>2022-07-26T07:13:01.000Z</time>
      </trkpt>
      <trkpt lat="46.72489" lon="2.44868">
        <ele>123.69</ele>
        <time>2022-07-26T07:13:06.000Z</time>
      </trkpt>
      <trkpt lat="46.72491" lon="2.44835">
        <ele>123.46</ele>
        <time>2022-07-26T07:13:11.000Z</time>
      </trkpt>
      <trkpt lat="46.72494" lon="2.448">
        <ele>123.14</ele>
        <time>2022-07-26T07:13:16.000Z</time>
      </trkpt>
      <trkpt lat="46.72496" lon="2.44764">
        <ele>123.63</ele>
        <time>2022-07-26T07:13:21.000Z</time>
      </trkpt>
      <trkpt lat="46.72499" lon="2.44729">
        <ele>123.7</ele>
        <time>2022-07-26T07:13:26.000Z</time>
      </trkpt>
      <trkpt lat="46.72502" lon="2.44694">
        <ele>124.15</ele>
        <time>2022-07-26T07:13:31.000Z</time>
      </trkpt>
      <trkpt lat="46.72505" lon="2.44661">
        <ele>124.89</ele>
        <time>2022-07-26T07:13:36.000Z</time>
      </trkpt>
      <trkpt lat="46.72507" lon="2.4463">
        <ele>125.64</ele>
        <time>2022-07-26T07:13:41.000Z</time>
      </trkpt>
      <trkpt lat="46.7251" lon="2.44598">
        <ele>125.94</ele>
        <time>2022-07-26T07:13:46.000Z</time>
      </trkpt>
      <trkpt lat="46.72511" lon="2.44565">
        <ele>126.07</ele>
        <time>2022-07-26T07:13:50.147Z</time>
      </trkpt>
      <trkpt lat="46.72514" lon="2.44544">
        <ele>125.56</ele>
        <time>2022-07-26T07:13:55.000Z</time>
      </trkpt>
      <trkpt lat="46.72518" lon="2.44513">
        <ele>124.99</ele>
        <time>2022-07-26T07:14:00.000Z</time>
      </trkpt>
      <trkpt lat="46.72521" lon="2.44487">
        <ele>126.45</ele>
        <time>2022-07-26T07:14:05.000Z</time>
      </trkpt>
      <trkpt lat="46.72521" lon="2.44455">
        <ele>126.81</ele>
        <time>2022-07-26T07:14:10.000Z</time>
      </trkpt>
      <trkpt lat="46.72523" lon="2.44423">
        <ele>127.46</ele>
        <time>2022-07-26T07:14:15.000Z</time>
      </trkpt>
      <trkpt lat="46.72526" lon="2.44393">
        <ele>127.91</ele>
        <time>2022-07-26T07:14:20.000Z</time>
      </trkpt>
      <trkpt lat="46.72528" lon="2.44364">
        <ele>127.51</ele>
        <time>2022-07-26T07:14:25.000Z</time>
      </trkpt>
      <trkpt lat="46.72531" lon="2.44334">
        <ele>127.59</ele>
        <time>2022-07-26T07:14:30.000Z</time>
      </trkpt>
      <trkpt lat="46.72534" lon="2.44304">
        <ele>126.89</ele>
        <time>2022-07-26T07:14:35.000Z</time>
      </trkpt>
      <trkpt lat="46.72538" lon="2.44273">
        <ele>127.17</ele>
        <time>2022-07-26T07:14:40.000Z</time>
      </trkpt>
      <trkpt lat="46.7254" lon="2.44242">
        <ele>126.18</ele>
        <time>2022-07-26T07:14:45.000Z</time>
      </trkpt>
      <trkpt lat="46.72539" lon="2.44212">
        <ele>125.02</ele>
        <time>2022-07-26T07:14:50.000Z</time>
      </trkpt>
      <trkpt lat="46.72537" lon="2.44185">
        <ele>124.62</ele>
        <time>2022-07-26T07:14:55.000Z</time>
      </trkpt>
      <trkpt lat="46.72518" lon="2.44168">
        <ele>124.07</ele>
        <time>2022-07-26T07:15:00.000Z</time>
      </trkpt>
      <trkpt lat="46.72503" lon="2.44136">
        <ele>121.94</ele>
        <time>2022-07-26T07:15:05.000Z</time>
      </trkpt>
      <trkpt lat="46.72504" lon="2.44091">
        <ele>120.86</ele>
        <time>2022-07-26T07:15:10.000Z</time>
      </trkpt>
      <trkpt lat="46.72508" lon="2.44044">
        <ele>121.11</ele>
        <time>2022-07-26T07:15:15.000Z</time>
      </trkpt>
      <trkpt lat="46.72507" lon="2.44001">
        <ele>121.41</ele>
        <time>2022-07-26T07:15:20.000Z</time>
      </trkpt>
      <trkpt lat="46.72501" lon="2.43967">
        <ele>121.64</ele>
        <time>2022-07-26T07:15:25.000Z</time>
      </trkpt>
      <trkpt lat="46.72491" lon="2.43942">
        <ele>120.78</ele>
        <time>2022-07-26T07:15:30.000Z</time>
      </trkpt>
      <trkpt lat="46.72479" lon="2.43921">
        <ele>121.04</ele>
        <time>2022-07-26T07:15:35.000Z</time>
      </trkpt>
      <trkpt lat="46.72466" lon="2.43905">
        <ele>121.97</ele>
        <time>2022-07-26T07:15:40.000Z</time>
      </trkpt>
      <trkpt lat="46.72454" lon="2.43888">
        <ele>123.15</ele>
        <time>2022-07-26T07:15:45.000Z</time>
      </trkpt>
      <trkpt lat="46.72441" lon="2.43871">
        <ele>124.72</ele>
        <time>2022-07-26T07:15:50.000Z</time>
      </trkpt>
      <trkpt lat="46.72429" lon="2.43857">
        <ele>126.34</ele>
        <time>2022-07-26T07:15:55.000Z</time>
      </trkpt>
      <trkpt lat="46.72419" lon="2.43843">
        <ele>127.06</ele>
        <time>2022-07-26T07:16:00.000Z</time>
      </trkpt>
      <trkpt lat="46.72407" lon="2.43828">
        <ele>127.37</ele>
        <time>2022-07-26T07:16:05.000Z</time>
      </trkpt>
      <trkpt lat="46.72396" lon="2.43814">
        <ele>127.59</ele>
        <time>2022-07-26T07:16:10.000Z</time>
      </trkpt>
      <trkpt lat="46.72381" lon="2.43793">
        <ele>128.19</ele>
        <time>2022-07-26T07:16:16.000Z</time>
      </trkpt>
      <trkpt lat="46.72368" lon="2.43769">
        <ele>128.94</ele>
        <time>2022-07-26T07:16:22.000Z</time>
      </trkpt>
      <trkpt lat="46.72359" lon="2.43739">
        <ele>128.62</ele>
        <time>2022-07-26T07:16:26.619Z</time>
      </trkpt>
      <trkpt lat="46.72355" lon="2.43717">
        <ele>128.63</ele>
        <time>2022-07-26T07:16:31.159Z</time>
      </trkpt>
      <trkpt lat="46.72353" lon="2.437">
        <ele>129.4</ele>
        <time>2022-07-26T07:16:36.000Z</time>
      </trkpt>
      <trkpt lat="46.72352" lon="2.43677">
        <ele>131.51</ele>
        <time>2022-07-26T07:16:41.000Z</time>
      </trkpt>
      <trkpt lat="46.7235" lon="2.43656">
        <ele>132.63</ele>
        <time>2022-07-26T07:16:46.000Z</time>
      </trkpt>
      <trkpt lat="46.72347" lon="2.4363">
        <ele>133.39</ele>
        <time>2022-07-26T07:16:52.000Z</time>
      </trkpt>
      <trkpt lat="46.72343" lon="2.4361">
        <ele>133.05</ele>
        <time>2022-07-26T07:16:57.000Z</time>
      </trkpt>
      <trkpt lat="46.72336" lon="2.43587">
        <ele>133.04</ele>
        <time>2022-07-26T07:17:01.546Z</time>
      </trkpt>
      <trkpt lat="46.72329" lon="2.43572">
        <ele>133.92</ele>
        <time>2022-07-26T07:17:07.000Z</time>
      </trkpt>
      <trkpt lat="46.72317" lon="2.43552">
        <ele>135.04</ele>
        <time>2022-07-26T07:17:13.000Z</time>
      </trkpt>
      <trkpt lat="46.72304" lon="2.43537">
        <ele>135.63</ele>
        <time>2022-07-26T07:17:17.035Z</time>
      </trkpt>
      <trkpt lat="46.72295" lon="2.43529">
        <ele>135.9</ele>
        <time>2022-07-26T07:17:22.000Z</time>
      </trkpt>
      <trkpt lat="46.72282" lon="2.43519">
        <ele>136.34</ele>
        <time>2022-07-26T07:17:26.336Z</time>
      </trkpt>
      <trkpt lat="46.72271" lon="2.43512">
        <ele>137</ele>
        <time>2022-07-26T07:17:32.000Z</time>
      </trkpt>
      <trkpt lat="46.72258" lon="2.43504">
        <ele>137.41</ele>
        <time>2022-07-26T07:17:37.000Z</time>
      </trkpt>
      <trkpt lat="46.7224" lon="2.43494">
        <ele>137.82</ele>
        <time>2022-07-26T07:17:41.524Z</time>
      </trkpt>
      <trkpt lat="46.72227" lon="2.43486">
        <ele>138.8</ele>
        <time>2022-07-26T07:17:47.000Z</time>
      </trkpt>
      <trkpt lat="46.7221" lon="2.43476">
        <ele>139.09</ele>
        <time>2022-07-26T07:17:52.000Z</time>
      </trkpt>
      <trkpt lat="46.72192" lon="2.43466">
        <ele>138.63</ele>
        <time>2022-07-26T07:17:57.000Z</time>
      </trkpt>
      <trkpt lat="46.72172" lon="2.43455">
        <ele>138.49</ele>
        <time>2022-07-26T07:18:01.021Z</time>
      </trkpt>
      <trkpt lat="46.72156" lon="2.43445">
        <ele>138.62</ele>
        <time>2022-07-26T07:18:06.000Z</time>
      </trkpt>
      <trkpt lat="46.72132" lon="2.43432">
        <ele>138.27</ele>
        <time>2022-07-26T07:18:11.000Z</time>
      </trkpt>
      <trkpt lat="46.72109" lon="2.43418">
        <ele>138.08</ele>
        <time>2022-07-26T07:18:16.000Z</time>
      </trkpt>
      <trkpt lat="46.72091" lon="2.43402">
        <ele>138.1</ele>
        <time>2022-07-26T07:18:21.000Z</time>
      </trkpt>
      <trkpt lat="46.72073" lon="2.43378">
        <ele>138.01</ele>
        <time>2022-07-26T07:18:25.564Z</time>
      </trkpt>
      <trkpt lat="46.72063" lon="2.43355">
        <ele>138.26</ele>
        <time>2022-07-26T07:18:32.000Z</time>
      </trkpt>
      <trkpt lat="46.72054" lon="2.4333">
        <ele>138.6</ele>
        <time>2022-07-26T07:18:37.000Z</time>
      </trkpt>
      <trkpt lat="46.72047" lon="2.43307">
        <ele>139.54</ele>
        <time>2022-07-26T07:18:42.000Z</time>
      </trkpt>
      <trkpt lat="46.72039" lon="2.43283">
        <ele>141.01</ele>
        <time>2022-07-26T07:18:47.000Z</time>
      </trkpt>
      <trkpt lat="46.72032" lon="2.43262">
        <ele>142.49</ele>
        <time>2022-07-26T07:18:52.000Z</time>
      </trkpt>
      <trkpt lat="46.72025" lon="2.43239">
        <ele>143.27</ele>
        <time>2022-07-26T07:18:57.000Z</time>
      </trkpt>
      <trkpt lat="46.7202" lon="2.43217">
        <ele>143.51</ele>
        <time>2022-07-26T07:19:02.000Z</time>
      </trkpt>
      <trkpt lat="46.72016" lon="2.43193">
        <ele>143.85</ele>
        <time>2022-07-26T07:19:07.000Z</time>
      </trkpt>
      <trkpt lat="46.72013" lon="2.4317">
        <ele>145.06</ele>
        <time>2022-07-26T07:19:12.000Z</time>
      </trkpt>
      <trkpt lat="46.72009" lon="2.43147">
        <ele>145.51</ele>
        <time>2022-07-26T07:19:17.000Z</time>
      </trkpt>
      <trkpt lat="46.72006" lon="2.43122">
        <ele>145.84</ele>
        <time>2022-07-26T07:19:22.000Z</time>
      </trkpt>
      <trkpt lat="46.72001" lon="2.43094">
        <ele>146.15</ele>
        <time>2022-07-26T07:19:26.348Z</time>
      </trkpt>
      <trkpt lat="46.71999" lon="2.43078">
        <ele>147.11</ele>
        <time>2022-07-26T07:19:31.000Z</time>
      </trkpt>
      <trkpt lat="46.71995" lon="2.43053">
        <ele>147.1</ele>
        <time>2022-07-26T07:19:36.000Z</time>
      </trkpt>
      <trkpt lat="46.71993" lon="2.43028">
        <ele>148.37</ele>
        <time>2022-07-26T07:19:41.000Z</time>
      </trkpt>
      <trkpt lat="46.71992" lon="2.42996">
        <ele>149.88</ele>
        <time>2022-07-26T07:19:47.000Z</time>
      </trkpt>
      <trkpt lat="46.71995" lon="2.42966">
        <ele>150.41</ele>
        <time>2022-07-26T07:19:51.492Z</time>
      </trkpt>
      <trkpt lat="46.71995" lon="2.42949">
        <ele>150.76</ele>
        <time>2022-07-26T07:19:56.000Z</time>
      </trkpt>
      <trkpt lat="46.71997" lon="2.42924">
        <ele>150.62</ele>
        <time>2022-07-26T07:20:01.000Z</time>
      </trkpt>
      <trkpt lat="46.71993" lon="2.42895">
        <ele>150.65</ele>
        <time>2022-07-26T07:20:07.000Z</time>
      </trkpt>
      <trkpt lat="46.71984" lon="2.42871">
        <ele>149.86</ele>
        <time>2022-07-26T07:20:12.000Z</time>
      </trkpt>
      <trkpt lat="46.71973" lon="2.42851">
        <ele>149.15</ele>
        <time>2022-07-26T07:20:17.000Z</time>
      </trkpt>
      <trkpt lat="46.7196" lon="2.42828">
        <ele>148.12</ele>
        <time>2022-07-26T07:20:23.000Z</time>
      </trkpt>
      <trkpt lat="46.71948" lon="2.42807">
        <ele>147.84</ele>
        <time>2022-07-26T07:20:28.000Z</time>
      </trkpt>
      <trkpt lat="46.71934" lon="2.42781">
        <ele>146.67</ele>
        <time>2022-07-26T07:20:34.000Z</time>
      </trkpt>
      <trkpt lat="46.71924" lon="2.42747">
        <ele>144.77</ele>
        <time>2022-07-26T07:20:39.000Z</time>
      </trkpt>
      <trkpt lat="46.71919" lon="2.42714">
        <ele>145.33</ele>
        <time>2022-07-26T07:20:44.000Z</time>
      </trkpt>
      <trkpt lat="46.71918" lon="2.42685">
        <ele>147.03</ele>
        <time>2022-07-26T07:20:49.000Z</time>
      </trkpt>
      <trkpt lat="46.71913" lon="2.42644">
        <ele>147.36</ele>
        <time>2022-07-26T07:20:55.000Z</time>
      </trkpt>
      <trkpt lat="46.71908" lon="2.42611">
        <ele>147.21</ele>
        <time>2022-07-26T07:20:59.447Z</time>
      </trkpt>
      <trkpt lat="46.71905" lon="2.42592">
        <ele>147.43</ele>
        <time>2022-07-26T07:21:04.000Z</time>
      </trkpt>
      <trkpt lat="46.71899" lon="2.42562">
        <ele>146.73</ele>
        <time>2022-07-26T07:21:09.000Z</time>
      </trkpt>
      <trkpt lat="46.7188" lon="2.42543">
        <ele>146.96</ele>
        <time>2022-07-26T07:21:14.000Z</time>
      </trkpt>
      <trkpt lat="46.71855" lon="2.42538">
        <ele>145.85</ele>
        <time>2022-07-26T07:21:18.693Z</time>
      </trkpt>
      <trkpt lat="46.71834" lon="2.42544">
        <ele>143.83</ele>
        <time>2022-07-26T07:21:23.000Z</time>
      </trkpt>
      <trkpt lat="46.71806" lon="2.42542">
        <ele>143.73</ele>
        <time>2022-07-26T07:21:28.000Z</time>
      </trkpt>
      <trkpt lat="46.71781" lon="2.42537">
        <ele>145.74</ele>
        <time>2022-07-26T07:21:34.000Z</time>
      </trkpt>
      <trkpt lat="46.7175" lon="2.42534">
        <ele>146.61</ele>
        <time>2022-07-26T07:21:39.000Z</time>
      </trkpt>
      <trkpt lat="46.71723" lon="2.42533">
        <ele>148.73</ele>
        <time>2022-07-26T07:21:43.977Z</time>
      </trkpt>
      <trkpt lat="46.71718" lon="2.42511">
        <ele>148.64</ele>
        <time>2022-07-26T07:21:48.000Z</time>
      </trkpt>
      <trkpt lat="46.71712" lon="2.42477">
        <ele>150.5</ele>
        <time>2022-07-26T07:21:53.000Z</time>
      </trkpt>
      <trkpt lat="46.71705" lon="2.42446">
        <ele>153.51</ele>
        <time>2022-07-26T07:21:59.000Z</time>
      </trkpt>
      <trkpt lat="46.71693" lon="2.42421">
        <ele>153.92</ele>
        <time>2022-07-26T07:22:04.000Z</time>
      </trkpt>
      <trkpt lat="46.71679" lon="2.42395">
        <ele>152.34</ele>
        <time>2022-07-26T07:22:09.000Z</time>
      </trkpt>
      <trkpt lat="46.71669" lon="2.42369">
        <ele>150.75</ele>
        <time>2022-07-26T07:22:14.000Z</time>
      </trkpt>
      <trkpt lat="46.71656" lon="2.42338">
        <ele>150.39</ele>
        <time>2022-07-26T07:22:18.549Z</time>
      </trkpt>
      <trkpt lat="46.7165" lon="2.42323">
        <ele>150.3</ele>
        <time>2022-07-26T07:22:23.000Z</time>
      </trkpt>
      <trkpt lat="46.71637" lon="2.42296">
        <ele>149.25</ele>
        <time>2022-07-26T07:22:28.000Z</time>
      </trkpt>
      <trkpt lat="46.7162" lon="2.42271">
        <ele>148.52</ele>
        <time>2022-07-26T07:22:34.000Z</time>
      </trkpt>
      <trkpt lat="46.716" lon="2.42251">
        <ele>148.81</ele>
        <time>2022-07-26T07:22:38.228Z</time>
      </trkpt>
      <trkpt lat="46.71586" lon="2.42237">
        <ele>148.32</ele>
        <time>2022-07-26T07:22:42.294Z</time>
      </trkpt>
      <trkpt lat="46.71574" lon="2.42227">
        <ele>148.92</ele>
        <time>2022-07-26T07:22:47.000Z</time>
      </trkpt>
      <trkpt lat="46.71556" lon="2.42203">
        <ele>149.11</ele>
        <time>2022-07-26T07:22:51.493Z</time>
      </trkpt>
      <trkpt lat="46.71549" lon="2.42187">
        <ele>148.1</ele>
        <time>2022-07-26T07:22:56.000Z</time>
      </trkpt>
      <trkpt lat="46.71541" lon="2.4216">
        <ele>147.89</ele>
        <time>2022-07-26T07:23:01.000Z</time>
      </trkpt>
      <trkpt lat="46.71533" lon="2.42134">
        <ele>148.19</ele>
        <time>2022-07-26T07:23:06.000Z</time>
      </trkpt>
      <trkpt lat="46.71526" lon="2.42105">
        <ele>149.01</ele>
        <time>2022-07-26T07:23:11.000Z</time>
      </trkpt>
      <trkpt lat="46.71519" lon="2.42077">
        <ele>150.35</ele>
        <time>2022-07-26T07:23:16.000Z</time>
      </trkpt>
      <trkpt lat="46.71516" lon="2.42049">
        <ele>151.48</ele>
        <time>2022-07-26T07:23:21.000Z</time>
      </trkpt>
      <trkpt lat="46.71517" lon="2.42024">
        <ele>153.3</ele>
        <time>2022-07-26T07:23:26.000Z</time>
      </trkpt>
      <trkpt lat="46.71518" lon="2.42007">
        <ele>155.4</ele>
        <time>2022-07-26T07:23:31.000Z</time>
      </trkpt>
      <trkpt lat="46.71521" lon="2.41984">
        <ele>155.76</ele>
        <time>2022-07-26T07:23:37.000Z</time>
      </trkpt>
      <trkpt lat="46.71524" lon="2.41963">
        <ele>156.01</ele>
        <time>2022-07-26T07:23:42.000Z</time>
      </trkpt>
      <trkpt lat="46.71524" lon="2.4194">
        <ele>156.72</ele>
        <time>2022-07-26T07:23:47.000Z</time>
      </trkpt>
      <trkpt lat="46.71527" lon="2.41917">
        <ele>157.36</ele>
        <time>2022-07-26T07:23:52.000Z</time>
      </trkpt>
      <trkpt lat="46.71529" lon="2.41895">
        <ele>158.99</ele>
        <time>2022-07-26T07:23:57.000Z</time>
      </trkpt>
      <trkpt lat="46.7153" lon="2.41869">
        <ele>160.25</ele>
        <time>2022-07-26T07:24:01.570Z</time>
      </trkpt>
      <trkpt lat="46.71532" lon="2.41853">
        <ele>161.39</ele>
        <time>2022-07-26T07:24:06.000Z</time>
      </trkpt>
      <trkpt lat="46.71533" lon="2.41829">
        <ele>162.63</ele>
        <time>2022-07-26T07:24:11.000Z</time>
      </trkpt>
      <trkpt lat="46.71534" lon="2.41807">
        <ele>164.85</ele>
        <time>2022-07-26T07:24:16.000Z</time>
      </trkpt>
      <trkpt lat="46.71534" lon="2.41787">
        <ele>163.7</ele>
        <time>2022-07-26T07:24:21.000Z</time>
      </trkpt>
      <trkpt lat="46.71532" lon="2.4176">
        <ele>164.86</ele>
        <time>2022-07-26T07:24:25.354Z</time>
      </trkpt>
      <trkpt lat="46.71531" lon="2.41746">
        <ele>165.35</ele>
        <time>2022-07-26T07:24:30.000Z</time>
      </trkpt>
      <trkpt lat="46.71529" lon="2.41725">
        <ele>165.9</ele>
        <time>2022-07-26T07:24:35.000Z</time>
      </trkpt>
      <trkpt lat="46.71526" lon="2.41704">
        <ele>166.26</ele>
        <time>2022-07-26T07:24:40.000Z</time>
      </trkpt>
      <trkpt lat="46.71522" lon="2.41679">
        <ele>166.26</ele>
        <time>2022-07-26T07:24:46.000Z</time>
      </trkpt>
      <trkpt lat="46.71519" lon="2.41652">
        <ele>165.62</ele>
        <time>2022-07-26T07:24:52.000Z</time>
      </trkpt>
      <trkpt lat="46.71519" lon="2.41624">
        <ele>166.41</ele>
        <time>2022-07-26T07:24:56.589Z</time>
      </trkpt>
      <trkpt lat="46.71521" lon="2.41601">
        <ele>168.32</ele>
        <time>2022-07-26T07:25:03.000Z</time>
      </trkpt>
      <trkpt lat="46.71524" lon="2.41576">
        <ele>169.19</ele>
        <time>2022-07-26T07:25:07.489Z</time>
      </trkpt>
      <trkpt lat="46.71525" lon="2.4156">
        <ele>169.83</ele>
        <time>2022-07-26T07:25:12.000Z</time>
      </trkpt>
      <trkpt lat="46.71529" lon="2.41537">
        <ele>169.73</ele>
        <time>2022-07-26T07:25:17.000Z</time>
      </trkpt>
      <trkpt lat="46.7153" lon="2.41514">
        <ele>168.94</ele>
        <time>2022-07-26T07:25:22.000Z</time>
      </trkpt>
      <trkpt lat="46.71529" lon="2.41489">
        <ele>167.53</ele>
        <time>2022-07-26T07:25:27.000Z</time>
      </trkpt>
      <trkpt lat="46.71527" lon="2.41467">
        <ele>167.09</ele>
        <time>2022-07-26T07:25:32.000Z</time>
      </trkpt>
      <trkpt lat="46.71525" lon="2.41442">
        <ele>167.65</ele>
        <time>2022-07-26T07:25:36.033Z</time>
      </trkpt>
      <trkpt lat="46.71522" lon="2.41425">
        <ele>167.97</ele>
        <time>2022-07-26T07:25:41.000Z</time>
      </trkpt>
      <trkpt lat="46.71517" lon="2.41403">
        <ele>169.53</ele>
        <time>2022-07-26T07:25:46.000Z</time>
      </trkpt>
      <trkpt lat="46.71512" lon="2.41376">
        <ele>169.99</ele>
        <time>2022-07-26T07:25:52.000Z</time>
      </trkpt>
      <trkpt lat="46.71507" lon="2.41352">
        <ele>170.16</ele>
        <time>2022-07-26T07:25:57.000Z</time>
      </trkpt>
      <trkpt lat="46.71501" lon="2.41327">
        <ele>170.07</ele>
        <time>2022-07-26T07:26:02.000Z</time>
      </trkpt>
      <trkpt lat="46.71495" lon="2.41294">
        <ele>170.34</ele>
        <time>2022-07-26T07:26:08.000Z</time>
      </trkpt>
      <trkpt lat="46.71492" lon="2.41261">
        <ele>171.36</ele>
        <time>2022-07-26T07:26:14.000Z</time>
      </trkpt>
      <trkpt lat="46.71488" lon="2.41235">
        <ele>172.66</ele>
        <time>2022-07-26T07:26:19.000Z</time>
      </trkpt>
      <trkpt lat="46.71487" lon="2.41208">
        <ele>173.65</ele>
        <time>2022-07-26T07:26:24.000Z</time>
      </trkpt>
      <trkpt lat="46.71484" lon="2.4118">
        <ele>174.48</ele>
        <time>2022-07-26T07:26:29.000Z</time>
      </trkpt>
      <trkpt lat="46.71482" lon="2.4115">
        <ele>174.45</ele>
        <time>2022-07-26T07:26:33.275Z</time>
      </trkpt>
      <trkpt lat="46.7148" lon="2.41131">
        <ele>174.34</ele>
        <time>2022-07-26T07:26:38.000Z</time>
      </trkpt>
      <trkpt lat="46.71478" lon="2.41105">
        <ele>174.27</ele>
        <time>2022-07-26T07:26:43.000Z</time>
      </trkpt>
      <trkpt lat="46.71474" lon="2.4107">
        <ele>174.54</ele>
        <time>2022-07-26T07:26:49.000Z</time>
      </trkpt>
      <trkpt lat="46.71472" lon="2.41037">
        <ele>174.51</ele>
        <time>2022-07-26T07:26:55.000Z</time>
      </trkpt>
      <trkpt lat="46.7147" lon="2.41009">
        <ele>174.49</ele>
        <time>2022-07-26T07:27:00.000Z</time>
      </trkpt>
      <trkpt lat="46.71468" lon="2.40982">
        <ele>174.22</ele>
        <time>2022-07-26T07:27:05.000Z</time>
      </trkpt>
      <trkpt lat="46.71465" lon="2.40948">
        <ele>173.77</ele>
        <time>2022-07-26T07:27:11.000Z</time>
      </trkpt>
      <trkpt lat="46.71462" lon="2.40919">
        <ele>173.07</ele>
        <time>2022-07-26T07:27:16.000Z</time>
      </trkpt>
      <trkpt lat="46.71459" lon="2.40883">
        <ele>173.04</ele>
        <time>2022-07-26T07:27:22.000Z</time>
      </trkpt>
      <trkpt lat="46.71458" lon="2.40853">
        <ele>173.86</ele>
        <time>2022-07-26T07:27:27.000Z</time>
      </trkpt>
      <trkpt lat="46.71455" lon="2.40825">
        <ele>173.81</ele>
        <time>2022-07-26T07:27:32.000Z</time>
      </trkpt>
      <trkpt lat="46.71452" lon="2.40794">
        <ele>174.29</ele>
        <time>2022-07-26T07:27:37.000Z</time>
      </trkpt>
      <trkpt lat="46.7145" lon="2.40767">
        <ele>174.59</ele>
        <time>2022-07-26T07:27:42.000Z</time>
      </trkpt>
      <trkpt lat="46.71446" lon="2.40735">
        <ele>174.67</ele>
        <time>2022-07-26T07:27:46.066Z</time>
      </trkpt>
      <trkpt lat="46.71443" lon="2.40706">
        <ele>175.39</ele>
        <time>2022-07-26T07:27:52.000Z</time>
      </trkpt>
      <trkpt lat="46.71439" lon="2.40669">
        <ele>175.22</ele>
        <time>2022-07-26T07:27:58.000Z</time>
      </trkpt>
      <trkpt lat="46.71433" lon="2.4064">
        <ele>175.29</ele>
        <time>2022-07-26T07:28:03.000Z</time>
      </trkpt>
      <trkpt lat="46.71426" lon="2.40606">
        <ele>174.48</ele>
        <time>2022-07-26T07:28:07.253Z</time>
      </trkpt>
      <trkpt lat="46.71421" lon="2.40586">
        <ele>174.28</ele>
        <time>2022-07-26T07:28:12.000Z</time>
      </trkpt>
      <trkpt lat="46.71414" lon="2.40553">
        <ele>174.68</ele>
        <time>2022-07-26T07:28:16.171Z</time>
      </trkpt>
      <trkpt lat="46.71409" lon="2.40527">
        <ele>175.14</ele>
        <time>2022-07-26T07:28:20.309Z</time>
      </trkpt>
      <trkpt lat="46.71405" lon="2.40506">
        <ele>175.49</ele>
        <time>2022-07-26T07:28:25.000Z</time>
      </trkpt>
      <trkpt lat="46.71398" lon="2.40476">
        <ele>176.32</ele>
        <time>2022-07-26T07:28:30.000Z</time>
      </trkpt>
      <trkpt lat="46.71392" lon="2.40446">
        <ele>176.12</ele>
        <time>2022-07-26T07:28:35.000Z</time>
      </trkpt>
      <trkpt lat="46.71385" lon="2.40415">
        <ele>176.24</ele>
        <time>2022-07-26T07:28:40.000Z</time>
      </trkpt>
      <trkpt lat="46.71378" lon="2.40381">
        <ele>175.65</ele>
        <time>2022-07-26T07:28:45.000Z</time>
      </trkpt>
      <trkpt lat="46.7137" lon="2.40346">
        <ele>175</ele>
        <time>2022-07-26T07:28:50.000Z</time>
      </trkpt>
      <trkpt lat="46.71357" lon="2.40316">
        <ele>174.55</ele>
        <time>2022-07-26T07:28:55.000Z</time>
      </trkpt>
      <trkpt lat="46.71339" lon="2.40289">
        <ele>175.04</ele>
        <time>2022-07-26T07:29:00.000Z</time>
      </trkpt>
      <trkpt lat="46.71319" lon="2.40264">
        <ele>174.62</ele>
        <time>2022-07-26T07:29:05.000Z</time>
      </trkpt>
      <trkpt lat="46.71297" lon="2.4024">
        <ele>174.15</ele>
        <time>2022-07-26T07:29:10.000Z</time>
      </trkpt>
      <trkpt lat="46.71272" lon="2.40221">
        <ele>173.21</ele>
        <time>2022-07-26T07:29:15.000Z</time>
      </trkpt>
      <trkpt lat="46.71246" lon="2.40215">
        <ele>173.07</ele>
        <time>2022-07-26T07:29:20.000Z</time>
      </trkpt>
      <trkpt lat="46.71221" lon="2.40215">
        <ele>174.02</ele>
        <time>2022-07-26T07:29:25.000Z</time>
      </trkpt>
      <trkpt lat="46.71194" lon="2.40215">
        <ele>174.86</ele>
        <time>2022-07-26T07:29:30.000Z</time>
      </trkpt>
      <trkpt lat="46.71169" lon="2.40203">
        <ele>173.49</ele>
        <time>2022-07-26T07:29:35.000Z</time>
      </trkpt>
      <trkpt lat="46.71145" lon="2.40187">
        <ele>172.98</ele>
        <time>2022-07-26T07:29:40.000Z</time>
      </trkpt>
      <trkpt lat="46.71122" lon="2.40169">
        <ele>172.54</ele>
        <time>2022-07-26T07:29:45.000Z</time>
      </trkpt>
      <trkpt lat="46.711" lon="2.4015">
        <ele>172.69</ele>
        <time>2022-07-26T07:29:50.000Z</time>
      </trkpt>
      <trkpt lat="46.71079" lon="2.40128">
        <ele>173.58</ele>
        <time>2022-07-26T07:29:55.000Z</time>
      </trkpt>
      <trkpt lat="46.71066" lon="2.40097">
        <ele>174.23</ele>
        <time>2022-07-26T07:30:00.000Z</time>
      </trkpt>
      <trkpt lat="46.71064" lon="2.40058">
        <ele>175.15</ele>
        <time>2022-07-26T07:30:05.000Z</time>
      </trkpt>
      <trkpt lat="46.71074" lon="2.40015">
        <ele>174.5</ele>
        <time>2022-07-26T07:30:10.000Z</time>
      </trkpt>
      <trkpt lat="46.71083" lon="2.39967">
        <ele>173.1</ele>
        <time>2022-07-26T07:30:15.000Z</time>
      </trkpt>
      <trkpt lat="46.71082" lon="2.39916">
        <ele>172.54</ele>
        <time>2022-07-26T07:30:20.000Z</time>
      </trkpt>
      <trkpt lat="46.71062" lon="2.3987">
        <ele>171.49</ele>
        <time>2022-07-26T07:30:25.000Z</time>
      </trkpt>
      <trkpt lat="46.71036" lon="2.39822">
        <ele>169.25</ele>
        <time>2022-07-26T07:30:30.000Z</time>
      </trkpt>
      <trkpt lat="46.7103" lon="2.39756">
        <ele>167</ele>
        <time>2022-07-26T07:30:35.000Z</time>
      </trkpt>
      <trkpt lat="46.71015" lon="2.39699">
        <ele>165.04</ele>
        <time>2022-07-26T07:30:40.000Z</time>
      </trkpt>
      <trkpt lat="46.70988" lon="2.39648">
        <ele>162.63</ele>
        <time>2022-07-26T07:30:45.000Z</time>
      </trkpt>
      <trkpt lat="46.70962" lon="2.39601">
        <ele>161.48</ele>
        <time>2022-07-26T07:30:50.000Z</time>
      </trkpt>
      <trkpt lat="46.70938" lon="2.39556">
        <ele>161.09</ele>
        <time>2022-07-26T07:30:55.000Z</time>
      </trkpt>
      <trkpt lat="46.70916" lon="2.39513">
        <ele>161.36</ele>
        <time>2022-07-26T07:31:00.000Z</time>
      </trkpt>
      <trkpt lat="46.70896" lon="2.39471">
        <ele>160.61</ele>
        <time>2022-07-26T07:31:05.000Z</time>
      </trkpt>
      <trkpt lat="46.70881" lon="2.39428">
        <ele>159.13</ele>
        <time>2022-07-26T07:31:10.000Z</time>
      </trkpt>
      <trkpt lat="46.70868" lon="2.39386">
        <ele>158.29</ele>
        <time>2022-07-26T07:31:15.000Z</time>
      </trkpt>
      <trkpt lat="46.70855" lon="2.39345">
        <ele>157.35</ele>
        <time>2022-07-26T07:31:20.000Z</time>
      </trkpt>
      <trkpt lat="46.70844" lon="2.39307">
        <ele>156.48</ele>
        <time>2022-07-26T07:31:25.000Z</time>
      </trkpt>
      <trkpt lat="46.70831" lon="2.39271">
        <ele>155.8</ele>
        <time>2022-07-26T07:31:30.000Z</time>
      </trkpt>
      <trkpt lat="46.70814" lon="2.39239">
        <ele>156.91</ele>
        <time>2022-07-26T07:31:35.000Z</time>
      </trkpt>
      <trkpt lat="46.70793" lon="2.3921">
        <ele>157.73</ele>
        <time>2022-07-26T07:31:40.000Z</time>
      </trkpt>
      <trkpt lat="46.70772" lon="2.3918">
        <ele>157.57</ele>
        <time>2022-07-26T07:31:45.000Z</time>
      </trkpt>
      <trkpt lat="46.7075" lon="2.3915">
        <ele>157.52</ele>
        <time>2022-07-26T07:31:50.000Z</time>
      </trkpt>
      <trkpt lat="46.70727" lon="2.39119">
        <ele>157.19</ele>
        <time>2022-07-26T07:31:55.000Z</time>
      </trkpt>
      <trkpt lat="46.70705" lon="2.39088">
        <ele>156.56</ele>
        <time>2022-07-26T07:32:00.000Z</time>
      </trkpt>
      <trkpt lat="46.70682" lon="2.39056">
        <ele>156.62</ele>
        <time>2022-07-26T07:32:05.000Z</time>
      </trkpt>
      <trkpt lat="46.7066" lon="2.39025">
        <ele>156.67</ele>
        <time>2022-07-26T07:32:10.000Z</time>
      </trkpt>
      <trkpt lat="46.70638" lon="2.38993">
        <ele>155.48</ele>
        <time>2022-07-26T07:32:15.000Z</time>
      </trkpt>
      <trkpt lat="46.70617" lon="2.38961">
        <ele>155.37</ele>
        <time>2022-07-26T07:32:20.000Z</time>
      </trkpt>
      <trkpt lat="46.70594" lon="2.38929">
        <ele>154.7</ele>
        <time>2022-07-26T07:32:25.000Z</time>
      </trkpt>
      <trkpt lat="46.70572" lon="2.38896">
        <ele>155.42</ele>
        <time>2022-07-26T07:32:30.000Z</time>
      </trkpt>
      <trkpt lat="46.70549" lon="2.38861">
        <ele>155.16</ele>
        <time>2022-07-26T07:32:35.000Z</time>
      </trkpt>
      <trkpt lat="46.70525" lon="2.38826">
        <ele>154.36</ele>
        <time>2022-07-26T07:32:40.000Z</time>
      </trkpt>
      <trkpt lat="46.70502" lon="2.38791">
        <ele>153.86</ele>
        <time>2022-07-26T07:32:45.000Z</time>
      </trkpt>
      <trkpt lat="46.7048" lon="2.38758">
        <ele>153.41</ele>
        <time>2022-07-26T07:32:50.000Z</time>
      </trkpt>
      <trkpt lat="46.7046" lon="2.38724">
        <ele>154.1</ele>
        <time>2022-07-26T07:32:55.000Z</time>
      </trkpt>
      <trkpt lat="46.70441" lon="2.38688">
        <ele>154.39</ele>
        <time>2022-07-26T07:33:00.000Z</time>
      </trkpt>
      <trkpt lat="46.70424" lon="2.38652">
        <ele>153.89</ele>
        <time>2022-07-26T07:33:05.000Z</time>
      </trkpt>
      <trkpt lat="46.70407" lon="2.38614">
        <ele>152.73</ele>
        <time>2022-07-26T07:33:10.000Z</time>
      </trkpt>
      <trkpt lat="46.70388" lon="2.38576">
        <ele>153.17</ele>
        <time>2022-07-26T07:33:15.000Z</time>
      </trkpt>
      <trkpt lat="46.70372" lon="2.3854">
        <ele>153.51</ele>
        <time>2022-07-26T07:33:20.000Z</time>
      </trkpt>
      <trkpt lat="46.70359" lon="2.38496">
        <ele>153.41</ele>
        <time>2022-07-26T07:33:25.000Z</time>
      </trkpt>
      <trkpt lat="46.70351" lon="2.38451">
        <ele>153.61</ele>
        <time>2022-07-26T07:33:30.000Z</time>
      </trkpt>
      <trkpt lat="46.70344" lon="2.38407">
        <ele>153.57</ele>
        <time>2022-07-26T07:33:35.000Z</time>
      </trkpt>
      <trkpt lat="46.70336" lon="2.38363">
        <ele>153.03</ele>
        <time>2022-07-26T07:33:40.000Z</time>
      </trkpt>
      <trkpt lat="46.70329" lon="2.38321">
        <ele>151.51</ele>
        <time>2022-07-26T07:33:45.000Z</time>
      </trkpt>
      <trkpt lat="46.70321" lon="2.3828">
        <ele>151.08</ele>
        <time>2022-07-26T07:33:50.000Z</time>
      </trkpt>
      <trkpt lat="46.70314" lon="2.38239">
        <ele>151.7</ele>
        <time>2022-07-26T07:33:55.000Z</time>
      </trkpt>
      <trkpt lat="46.70307" lon="2.38199">
        <ele>152.68</ele>
        <time>2022-07-26T07:34:00.000Z</time>
      </trkpt>
      <trkpt lat="46.703" lon="2.38159">
        <ele>153.38</ele>
        <time>2022-07-26T07:34:05.000Z</time>
      </trkpt>
      <trkpt lat="46.70294" lon="2.38119">
        <ele>153.12</ele>
        <time>2022-07-26T07:34:10.000Z</time>
      </trkpt>
      <trkpt lat="46.70286" lon="2.38079">
        <ele>151.91</ele>
        <time>2022-07-26T07:34:15.000Z</time>
      </trkpt>
      <trkpt lat="46.70277" lon="2.38041">
        <ele>151.11</ele>
        <time>2022-07-26T07:34:20.000Z</time>
      </trkpt>
      <trkpt lat="46.70266" lon="2.38004">
        <ele>150.84</ele>
        <time>2022-07-26T07:34:25.000Z</time>
      </trkpt>
      <trkpt lat="46.70254" lon="2.37968">
        <ele>150.97</ele>
        <time>2022-07-26T07:34:30.000Z</time>
      </trkpt>
      <trkpt lat="46.70241" lon="2.37935">
        <ele>152.05</ele>
        <time>2022-07-26T07:34:35.000Z</time>
      </trkpt>
      <trkpt lat="46.70227" lon="2.37903">
        <ele>154.85</ele>
        <time>2022-07-26T07:34:40.000Z</time>
      </trkpt>
      <trkpt lat="46.70216" lon="2.37872">
        <ele>153.31</ele>
        <time>2022-07-26T07:34:45.000Z</time>
      </trkpt>
      <trkpt lat="46.70206" lon="2.37846">
        <ele>151.91</ele>
        <time>2022-07-26T07:34:50.000Z</time>
      </trkpt>
      <trkpt lat="46.70192" lon="2.37815">
        <ele>151.83</ele>
        <time>2022-07-26T07:34:55.000Z</time>
      </trkpt>
      <trkpt lat="46.70178" lon="2.37787">
        <ele>150.91</ele>
        <time>2022-07-26T07:35:00.000Z</time>
      </trkpt>
      <trkpt lat="46.70165" lon="2.37759">
        <ele>150.61</ele>
        <time>2022-07-26T07:35:05.000Z</time>
      </trkpt>
      <trkpt lat="46.70153" lon="2.3773">
        <ele>153.66</ele>
        <time>2022-07-26T07:35:10.000Z</time>
      </trkpt>
      <trkpt lat="46.7014" lon="2.37702">
        <ele>156.81</ele>
        <time>2022-07-26T07:35:15.000Z</time>
      </trkpt>
      <trkpt lat="46.70126" lon="2.37679">
        <ele>157.94</ele>
        <time>2022-07-26T07:35:20.000Z</time>
      </trkpt>
      <trkpt lat="46.70107" lon="2.37658">
        <ele>157.38</ele>
        <time>2022-07-26T07:35:25.000Z</time>
      </trkpt>
      <trkpt lat="46.70089" lon="2.37645">
        <ele>158.03</ele>
        <time>2022-07-26T07:35:30.000Z</time>
      </trkpt>
      <trkpt lat="46.70069" lon="2.37625">
        <ele>155.8</ele>
        <time>2022-07-26T07:35:35.000Z</time>
      </trkpt>
      <trkpt lat="46.70047" lon="2.37616">
        <ele>155.54</ele>
        <time>2022-07-26T07:35:40.000Z</time>
      </trkpt>
      <trkpt lat="46.70022" lon="2.37607">
        <ele>156.05</ele>
        <time>2022-07-26T07:35:45.000Z</time>
      </trkpt>
      <trkpt lat="46.70001" lon="2.37596">
        <ele>157.7</ele>
        <time>2022-07-26T07:35:50.000Z</time>
      </trkpt>
      <trkpt lat="46.6998" lon="2.3758">
        <ele>160.13</ele>
        <time>2022-07-26T07:35:55.000Z</time>
      </trkpt>
      <trkpt lat="46.69965" lon="2.37556">
        <ele>159.87</ele>
        <time>2022-07-26T07:36:00.000Z</time>
      </trkpt>
      <trkpt lat="46.69958" lon="2.37531">
        <ele>158.41</ele>
        <time>2022-07-26T07:36:05.000Z</time>
      </trkpt>
      <trkpt lat="46.69938" lon="2.37508">
        <ele>160.07</ele>
        <time>2022-07-26T07:36:10.000Z</time>
      </trkpt>
      <trkpt lat="46.69918" lon="2.3749">
        <ele>161.36</ele>
        <time>2022-07-26T07:36:15.000Z</time>
      </trkpt>
      <trkpt lat="46.69898" lon="2.37476">
        <ele>161.8</ele>
        <time>2022-07-26T07:36:19.525Z</time>
      </trkpt>
      <trkpt lat="46.69881" lon="2.37464">
        <ele>162.56</ele>
        <time>2022-07-26T07:36:24.100Z</time>
      </trkpt>
      <trkpt lat="46.69866" lon="2.37454">
        <ele>161.54</ele>
        <time>2022-07-26T07:36:28.610Z</time>
      </trkpt>
      <trkpt lat="46.69851" lon="2.37446">
        <ele>160.96</ele>
        <time>2022-07-26T07:36:33.000Z</time>
      </trkpt>
      <trkpt lat="46.69828" lon="2.37432">
        <ele>161.97</ele>
        <time>2022-07-26T07:36:37.419Z</time>
      </trkpt>
      <trkpt lat="46.69813" lon="2.37422">
        <ele>164.23</ele>
        <time>2022-07-26T07:36:43.000Z</time>
      </trkpt>
      <trkpt lat="46.69796" lon="2.37401">
        <ele>165.69</ele>
        <time>2022-07-26T07:36:48.000Z</time>
      </trkpt>
      <trkpt lat="46.69788" lon="2.37369">
        <ele>165.51</ele>
        <time>2022-07-26T07:36:53.000Z</time>
      </trkpt>
      <trkpt lat="46.69781" lon="2.37335">
        <ele>165.03</ele>
        <time>2022-07-26T07:36:57.339Z</time>
      </trkpt>
      <trkpt lat="46.69771" lon="2.37319">
        <ele>164.67</ele>
        <time>2022-07-26T07:37:02.000Z</time>
      </trkpt>
      <trkpt lat="46.69752" lon="2.373">
        <ele>164.48</ele>
        <time>2022-07-26T07:37:07.000Z</time>
      </trkpt>
      <trkpt lat="46.69734" lon="2.37286">
        <ele>163.61</ele>
        <time>2022-07-26T07:37:12.000Z</time>
      </trkpt>
      <trkpt lat="46.69715" lon="2.37265">
        <ele>162.1</ele>
        <time>2022-07-26T07:37:17.000Z</time>
      </trkpt>
      <trkpt lat="46.69702" lon="2.37243">
        <ele>161.48</ele>
        <time>2022-07-26T07:37:22.000Z</time>
      </trkpt>
      <trkpt lat="46.69693" lon="2.37214">
        <ele>161.32</ele>
        <time>2022-07-26T07:37:27.000Z</time>
      </trkpt>
      <trkpt lat="46.69688" lon="2.37182">
        <ele>162.1</ele>
        <time>2022-07-26T07:37:32.000Z</time>
      </trkpt>
      <trkpt lat="46.69687" lon="2.37145">
        <ele>162.4</ele>
        <time>2022-07-26T07:37:38.000Z</time>
      </trkpt>
      <trkpt lat="46.69694" lon="2.37111">
        <ele>162.56</ele>
        <time>2022-07-26T07:37:42.462Z</time>
      </trkpt>
      <trkpt lat="46.697" lon="2.37094">
        <ele>162.73</ele>
        <time>2022-07-26T07:37:47.000Z</time>
      </trkpt>
      <trkpt lat="46.69712" lon="2.37065">
        <ele>162.41</ele>
        <time>2022-07-26T07:37:51.218Z</time>
      </trkpt>
      <trkpt lat="46.6972" lon="2.37043">
        <ele>163.65</ele>
        <time>2022-07-26T07:37:56.000Z</time>
      </trkpt>
      <trkpt lat="46.69732" lon="2.37012">
        <ele>164.48</ele>
        <time>2022-07-26T07:38:00.495Z</time>
      </trkpt>
      <trkpt lat="46.69741" lon="2.36986">
        <ele>164.49</ele>
        <time>2022-07-26T07:38:06.000Z</time>
      </trkpt>
      <trkpt lat="46.69752" lon="2.3697">
        <ele>164.19</ele>
        <time>2022-07-26T07:38:11.000Z</time>
      </trkpt>
      <trkpt lat="46.69763" lon="2.36943">
        <ele>162.32</ele>
        <time>2022-07-26T07:38:16.000Z</time>
      </trkpt>
      <trkpt lat="46.69772" lon="2.36901">
        <ele>161.44</ele>
        <time>2022-07-26T07:38:21.000Z</time>
      </trkpt>
      <trkpt lat="46.69781" lon="2.36865">
        <ele>162.33</ele>
        <time>2022-07-26T07:38:26.000Z</time>
      </trkpt>
      <trkpt lat="46.69791" lon="2.36829">
        <ele>163.7</ele>
        <time>2022-07-26T07:38:31.000Z</time>
      </trkpt>
      <trkpt lat="46.698" lon="2.36796">
        <ele>165.44</ele>
        <time>2022-07-26T07:38:36.000Z</time>
      </trkpt>
      <trkpt lat="46.69808" lon="2.36768">
        <ele>165.07</ele>
        <time>2022-07-26T07:38:41.000Z</time>
      </trkpt>
      <trkpt lat="46.69815" lon="2.3675">
        <ele>164.96</ele>
        <time>2022-07-26T07:38:47.000Z</time>
      </trkpt>
      <trkpt lat="46.69819" lon="2.36734">
        <ele>164.41</ele>
        <time>2022-07-26T07:38:51.382Z</time>
      </trkpt>
      <trkpt lat="46.69811" lon="2.36748">
        <ele>164.5</ele>
        <time>2022-07-26T07:39:06.000Z</time>
      </trkpt>
      <trkpt lat="46.69808" lon="2.36767">
        <ele>165.23</ele>
        <time>2022-07-26T07:39:11.000Z</time>
      </trkpt>
      <trkpt lat="46.69802" lon="2.36777">
        <ele>159.17</ele>
        <time>2022-07-26T07:39:19.000Z</time>
      </trkpt>
      <trkpt lat="46.69808" lon="2.36764">
        <ele>157</ele>
        <time>2022-07-26T07:44:58.411Z</time>
      </trkpt>
      <trkpt lat="46.69813" lon="2.36748">
        <ele>157.66</ele>
        <time>2022-07-26T07:45:03.000Z</time>
      </trkpt>
      <trkpt lat="46.69823" lon="2.36714">
        <ele>159.47</ele>
        <time>2022-07-26T07:45:08.000Z</time>
      </trkpt>
      <trkpt lat="46.69833" lon="2.36682">
        <ele>161.41</ele>
        <time>2022-07-26T07:45:13.000Z</time>
      </trkpt>
      <trkpt lat="46.69842" lon="2.36649">
        <ele>162.57</ele>
        <time>2022-07-26T07:45:17.261Z</time>
      </trkpt>
      <trkpt lat="46.69847" lon="2.36629">
        <ele>163.88</ele>
        <time>2022-07-26T07:45:22.000Z</time>
      </trkpt>
      <trkpt lat="46.69857" lon="2.36597">
        <ele>164.74</ele>
        <time>2022-07-26T07:45:26.341Z</time>
      </trkpt>
      <trkpt lat="46.69862" lon="2.36578">
        <ele>164.51</ele>
        <time>2022-07-26T07:45:31.000Z</time>
      </trkpt>
      <trkpt lat="46.69874" lon="2.36543">
        <ele>164.14</ele>
        <time>2022-07-26T07:45:37.000Z</time>
      </trkpt>
      <trkpt lat="46.69883" lon="2.36511">
        <ele>162.72</ele>
        <time>2022-07-26T07:45:42.000Z</time>
      </trkpt>
      <trkpt lat="46.69894" lon="2.36477">
        <ele>163.05</ele>
        <time>2022-07-26T07:45:47.000Z</time>
      </trkpt>
      <trkpt lat="46.69908" lon="2.36448">
        <ele>163.06</ele>
        <time>2022-07-26T07:45:52.000Z</time>
      </trkpt>
      <trkpt lat="46.69921" lon="2.36418">
        <ele>162.53</ele>
        <time>2022-07-26T07:45:57.000Z</time>
      </trkpt>
      <trkpt lat="46.69936" lon="2.3639">
        <ele>162.06</ele>
        <time>2022-07-26T07:46:02.000Z</time>
      </trkpt>
      <trkpt lat="46.69951" lon="2.36358">
        <ele>161.77</ele>
        <time>2022-07-26T07:46:07.000Z</time>
      </trkpt>
      <trkpt lat="46.69967" lon="2.36325">
        <ele>160.78</ele>
        <time>2022-07-26T07:46:12.000Z</time>
      </trkpt>
      <trkpt lat="46.69985" lon="2.3629">
        <ele>159.32</ele>
        <time>2022-07-26T07:46:17.000Z</time>
      </trkpt>
      <trkpt lat="46.70004" lon="2.36251">
        <ele>158.9</ele>
        <time>2022-07-26T07:46:22.000Z</time>
      </trkpt>
      <trkpt lat="46.70025" lon="2.36214">
        <ele>158.99</ele>
        <time>2022-07-26T07:46:27.000Z</time>
      </trkpt>
      <trkpt lat="46.70051" lon="2.36184">
        <ele>157.87</ele>
        <time>2022-07-26T07:46:32.000Z</time>
      </trkpt>
      <trkpt lat="46.70085" lon="2.36164">
        <ele>157.03</ele>
        <time>2022-07-26T07:46:37.000Z</time>
      </trkpt>
      <trkpt lat="46.70123" lon="2.36147">
        <ele>157.17</ele>
        <time>2022-07-26T07:46:42.000Z</time>
      </trkpt>
      <trkpt lat="46.70161" lon="2.36129">
        <ele>157.85</ele>
        <time>2022-07-26T07:46:47.000Z</time>
      </trkpt>
      <trkpt lat="46.70194" lon="2.36111">
        <ele>157.69</ele>
        <time>2022-07-26T07:46:52.000Z</time>
      </trkpt>
      <trkpt lat="46.70216" lon="2.36076">
        <ele>156.6</ele>
        <time>2022-07-26T07:46:57.000Z</time>
      </trkpt>
      <trkpt lat="46.70236" lon="2.36045">
        <ele>158.22</ele>
        <time>2022-07-26T07:47:02.000Z</time>
      </trkpt>
      <trkpt lat="46.70253" lon="2.36014">
        <ele>160.15</ele>
        <time>2022-07-26T07:47:07.000Z</time>
      </trkpt>
      <trkpt lat="46.70269" lon="2.35985">
        <ele>160</ele>
        <time>2022-07-26T07:47:12.000Z</time>
      </trkpt>
      <trkpt lat="46.70285" lon="2.35952">
        <ele>161.56</ele>
        <time>2022-07-26T07:47:17.000Z</time>
      </trkpt>
      <trkpt lat="46.70298" lon="2.35926">
        <ele>158.16</ele>
        <time>2022-07-26T07:47:22.000Z</time>
      </trkpt>
      <trkpt lat="46.70311" lon="2.35894">
        <ele>156.01</ele>
        <time>2022-07-26T07:47:27.000Z</time>
      </trkpt>
      <trkpt lat="46.70322" lon="2.35859">
        <ele>156.29</ele>
        <time>2022-07-26T07:47:32.000Z</time>
      </trkpt>
      <trkpt lat="46.70333" lon="2.35827">
        <ele>156.94</ele>
        <time>2022-07-26T07:47:37.000Z</time>
      </trkpt>
      <trkpt lat="46.70345" lon="2.35793">
        <ele>157.96</ele>
        <time>2022-07-26T07:47:42.000Z</time>
      </trkpt>
      <trkpt lat="46.70355" lon="2.35757">
        <ele>159.61</ele>
        <time>2022-07-26T07:47:47.000Z</time>
      </trkpt>
      <trkpt lat="46.70365" lon="2.3572">
        <ele>160.54</ele>
        <time>2022-07-26T07:47:52.000Z</time>
      </trkpt>
      <trkpt lat="46.70375" lon="2.35681">
        <ele>161.05</ele>
        <time>2022-07-26T07:47:57.000Z</time>
      </trkpt>
      <trkpt lat="46.70388" lon="2.35642">
        <ele>162.87</ele>
        <time>2022-07-26T07:48:02.000Z</time>
      </trkpt>
      <trkpt lat="46.70397" lon="2.35601">
        <ele>161.3</ele>
        <time>2022-07-26T07:48:07.000Z</time>
      </trkpt>
      <trkpt lat="46.70415" lon="2.35564">
        <ele>158.58</ele>
        <time>2022-07-26T07:48:12.000Z</time>
      </trkpt>
      <trkpt lat="46.70432" lon="2.3553">
        <ele>158.9</ele>
        <time>2022-07-26T07:48:17.000Z</time>
      </trkpt>
      <trkpt lat="46.70443" lon="2.35491">
        <ele>159.67</ele>
        <time>2022-07-26T07:48:22.000Z</time>
      </trkpt>
      <trkpt lat="46.70449" lon="2.35451">
        <ele>160.59</ele>
        <time>2022-07-26T07:48:27.000Z</time>
      </trkpt>
      <trkpt lat="46.70454" lon="2.35413">
        <ele>160.61</ele>
        <time>2022-07-26T07:48:32.000Z</time>
      </trkpt>
      <trkpt lat="46.70458" lon="2.35375">
        <ele>160.84</ele>
        <time>2022-07-26T07:48:37.000Z</time>
      </trkpt>
      <trkpt lat="46.70463" lon="2.35345">
        <ele>158.98</ele>
        <time>2022-07-26T07:48:42.000Z</time>
      </trkpt>
      <trkpt lat="46.7047" lon="2.35314">
        <ele>158.81</ele>
        <time>2022-07-26T07:48:47.000Z</time>
      </trkpt>
      <trkpt lat="46.70477" lon="2.35283">
        <ele>160.23</ele>
        <time>2022-07-26T07:48:52.000Z</time>
      </trkpt>
      <trkpt lat="46.70485" lon="2.35248">
        <ele>160.98</ele>
        <time>2022-07-26T07:48:57.000Z</time>
      </trkpt>
      <trkpt lat="46.70494" lon="2.35216">
        <ele>161.81</ele>
        <time>2022-07-26T07:49:02.000Z</time>
      </trkpt>
      <trkpt lat="46.70506" lon="2.35187">
        <ele>159.56</ele>
        <time>2022-07-26T07:49:07.000Z</time>
      </trkpt>
      <trkpt lat="46.70525" lon="2.35158">
        <ele>159.14</ele>
        <time>2022-07-26T07:49:12.000Z</time>
      </trkpt>
      <trkpt lat="46.70547" lon="2.35131">
        <ele>159.7</ele>
        <time>2022-07-26T07:49:17.000Z</time>
      </trkpt>
      <trkpt lat="46.70564" lon="2.35098">
        <ele>159.96</ele>
        <time>2022-07-26T07:49:22.000Z</time>
      </trkpt>
      <trkpt lat="46.70579" lon="2.3506">
        <ele>159.86</ele>
        <time>2022-07-26T07:49:27.000Z</time>
      </trkpt>
      <trkpt lat="46.7059" lon="2.35021">
        <ele>159.41</ele>
        <time>2022-07-26T07:49:32.000Z</time>
      </trkpt>
      <trkpt lat="46.70589" lon="2.34978">
        <ele>158.08</ele>
        <time>2022-07-26T07:49:37.000Z</time>
      </trkpt>
      <trkpt lat="46.70578" lon="2.34931">
        <ele>155.97</ele>
        <time>2022-07-26T07:49:42.000Z</time>
      </trkpt>
      <trkpt lat="46.70573" lon="2.3488">
        <ele>154</ele>
        <time>2022-07-26T07:49:47.000Z</time>
      </trkpt>
      <trkpt lat="46.70578" lon="2.34831">
        <ele>154.32</ele>
        <time>2022-07-26T07:49:52.000Z</time>
      </trkpt>
      <trkpt lat="46.70589" lon="2.34782">
        <ele>153.32</ele>
        <time>2022-07-26T07:49:57.000Z</time>
      </trkpt>
      <trkpt lat="46.70601" lon="2.34734">
        <ele>152.48</ele>
        <time>2022-07-26T07:50:02.000Z</time>
      </trkpt>
      <trkpt lat="46.70613" lon="2.34684">
        <ele>151.6</ele>
        <time>2022-07-26T07:50:07.000Z</time>
      </trkpt>
      <trkpt lat="46.70622" lon="2.34635">
        <ele>150.73</ele>
        <time>2022-07-26T07:50:12.000Z</time>
      </trkpt>
      <trkpt lat="46.70628" lon="2.34587">
        <ele>150.1</ele>
        <time>2022-07-26T07:50:17.000Z</time>
      </trkpt>
      <trkpt lat="46.70633" lon="2.34541">
        <ele>150.99</ele>
        <time>2022-07-26T07:50:22.000Z</time>
      </trkpt>
      <trkpt lat="46.70631" lon="2.34498">
        <ele>151.54</ele>
        <time>2022-07-26T07:50:27.000Z</time>
      </trkpt>
      <trkpt lat="46.70629" lon="2.34454">
        <ele>151.66</ele>
        <time>2022-07-26T07:50:32.000Z</time>
      </trkpt>
      <trkpt lat="46.70629" lon="2.34413">
        <ele>152.01</ele>
        <time>2022-07-26T07:50:37.000Z</time>
      </trkpt>
      <trkpt lat="46.70629" lon="2.34373">
        <ele>151.99</ele>
        <time>2022-07-26T07:50:42.000Z</time>
      </trkpt>
      <trkpt lat="46.70631" lon="2.34335">
        <ele>151.76</ele>
        <time>2022-07-26T07:50:47.000Z</time>
      </trkpt>
      <trkpt lat="46.70635" lon="2.343">
        <ele>151.45</ele>
        <time>2022-07-26T07:50:52.000Z</time>
      </trkpt>
      <trkpt lat="46.7064" lon="2.3427">
        <ele>151.29</ele>
        <time>2022-07-26T07:50:57.000Z</time>
      </trkpt>
      <trkpt lat="46.70647" lon="2.34239">
        <ele>151.6</ele>
        <time>2022-07-26T07:51:02.000Z</time>
      </trkpt>
      <trkpt lat="46.70655" lon="2.34207">
        <ele>151.56</ele>
        <time>2022-07-26T07:51:07.000Z</time>
      </trkpt>
      <trkpt lat="46.70663" lon="2.34173">
        <ele>151.24</ele>
        <time>2022-07-26T07:51:11.380Z</time>
      </trkpt>
      <trkpt lat="46.70669" lon="2.34147">
        <ele>152.15</ele>
        <time>2022-07-26T07:51:17.000Z</time>
      </trkpt>
      <trkpt lat="46.70676" lon="2.34115">
        <ele>154.24</ele>
        <time>2022-07-26T07:51:22.000Z</time>
      </trkpt>
      <trkpt lat="46.70683" lon="2.34085">
        <ele>155.15</ele>
        <time>2022-07-26T07:51:27.000Z</time>
      </trkpt>
      <trkpt lat="46.70692" lon="2.3405">
        <ele>156.04</ele>
        <time>2022-07-26T07:51:31.582Z</time>
      </trkpt>
      <trkpt lat="46.70695" lon="2.34031">
        <ele>156.12</ele>
        <time>2022-07-26T07:51:36.000Z</time>
      </trkpt>
      <trkpt lat="46.70701" lon="2.33997">
        <ele>155.55</ele>
        <time>2022-07-26T07:51:42.000Z</time>
      </trkpt>
      <trkpt lat="46.70712" lon="2.33958">
        <ele>156.13</ele>
        <time>2022-07-26T07:51:46.621Z</time>
      </trkpt>
      <trkpt lat="46.70718" lon="2.33932">
        <ele>156.34</ele>
        <time>2022-07-26T07:51:51.217Z</time>
      </trkpt>
      <trkpt lat="46.70721" lon="2.33915">
        <ele>158.29</ele>
        <time>2022-07-26T07:51:56.000Z</time>
      </trkpt>
      <trkpt lat="46.70728" lon="2.33887">
        <ele>160.09</ele>
        <time>2022-07-26T07:52:00.337Z</time>
      </trkpt>
      <trkpt lat="46.70734" lon="2.33865">
        <ele>159.82</ele>
        <time>2022-07-26T07:52:06.000Z</time>
      </trkpt>
      <trkpt lat="46.7074" lon="2.33834">
        <ele>160.02</ele>
        <time>2022-07-26T07:52:12.000Z</time>
      </trkpt>
      <trkpt lat="46.70746" lon="2.33808">
        <ele>160.42</ele>
        <time>2022-07-26T07:52:17.000Z</time>
      </trkpt>
      <trkpt lat="46.70752" lon="2.33784">
        <ele>160.53</ele>
        <time>2022-07-26T07:52:22.000Z</time>
      </trkpt>
      <trkpt lat="46.70758" lon="2.33756">
        <ele>160.42</ele>
        <time>2022-07-26T07:52:27.000Z</time>
      </trkpt>
      <trkpt lat="46.70761" lon="2.33729">
        <ele>160.35</ele>
        <time>2022-07-26T07:52:32.000Z</time>
      </trkpt>
      <trkpt lat="46.70757" lon="2.33697">
        <ele>160.65</ele>
        <time>2022-07-26T07:52:36.425Z</time>
      </trkpt>
      <trkpt lat="46.7075" lon="2.33677">
        <ele>160.57</ele>
        <time>2022-07-26T07:52:42.000Z</time>
      </trkpt>
      <trkpt lat="46.70737" lon="2.33649">
        <ele>160.36</ele>
        <time>2022-07-26T07:52:48.000Z</time>
      </trkpt>
      <trkpt lat="46.70722" lon="2.33623">
        <ele>161.14</ele>
        <time>2022-07-26T07:52:52.539Z</time>
      </trkpt>
      <trkpt lat="46.70714" lon="2.33608">
        <ele>161.3</ele>
        <time>2022-07-26T07:52:57.000Z</time>
      </trkpt>
      <trkpt lat="46.70703" lon="2.33581">
        <ele>161.57</ele>
        <time>2022-07-26T07:53:01.297Z</time>
      </trkpt>
      <trkpt lat="46.70696" lon="2.33557">
        <ele>162.22</ele>
        <time>2022-07-26T07:53:07.000Z</time>
      </trkpt>
      <trkpt lat="46.70688" lon="2.33524">
        <ele>163.61</ele>
        <time>2022-07-26T07:53:13.000Z</time>
      </trkpt>
      <trkpt lat="46.70682" lon="2.33491">
        <ele>163.93</ele>
        <time>2022-07-26T07:53:17.543Z</time>
      </trkpt>
      <trkpt lat="46.7068" lon="2.33475">
        <ele>164.5</ele>
        <time>2022-07-26T07:53:22.000Z</time>
      </trkpt>
      <trkpt lat="46.70678" lon="2.33445">
        <ele>165.02</ele>
        <time>2022-07-26T07:53:26.359Z</time>
      </trkpt>
      <trkpt lat="46.70677" lon="2.33425">
        <ele>166.36</ele>
        <time>2022-07-26T07:53:31.000Z</time>
      </trkpt>
      <trkpt lat="46.70676" lon="2.33395">
        <ele>165.95</ele>
        <time>2022-07-26T07:53:37.000Z</time>
      </trkpt>
      <trkpt lat="46.70677" lon="2.33361">
        <ele>166.63</ele>
        <time>2022-07-26T07:53:41.601Z</time>
      </trkpt>
      <trkpt lat="46.70682" lon="2.33336">
        <ele>168.02</ele>
        <time>2022-07-26T07:53:46.084Z</time>
      </trkpt>
      <trkpt lat="46.7069" lon="2.33316">
        <ele>168.87</ele>
        <time>2022-07-26T07:53:50.092Z</time>
      </trkpt>
      <trkpt lat="46.70701" lon="2.33293">
        <ele>169.16</ele>
        <time>2022-07-26T07:53:56.000Z</time>
      </trkpt>
      <trkpt lat="46.70717" lon="2.33266">
        <ele>168.06</ele>
        <time>2022-07-26T07:54:01.000Z</time>
      </trkpt>
      <trkpt lat="46.70737" lon="2.33241">
        <ele>165.8</ele>
        <time>2022-07-26T07:54:06.000Z</time>
      </trkpt>
      <trkpt lat="46.7076" lon="2.33215">
        <ele>164.23</ele>
        <time>2022-07-26T07:54:11.000Z</time>
      </trkpt>
      <trkpt lat="46.70778" lon="2.33178">
        <ele>163.21</ele>
        <time>2022-07-26T07:54:16.000Z</time>
      </trkpt>
      <trkpt lat="46.70799" lon="2.33139">
        <ele>162.17</ele>
        <time>2022-07-26T07:54:21.000Z</time>
      </trkpt>
      <trkpt lat="46.70825" lon="2.33105">
        <ele>159.71</ele>
        <time>2022-07-26T07:54:26.000Z</time>
      </trkpt>
      <trkpt lat="46.70856" lon="2.33067">
        <ele>156.19</ele>
        <time>2022-07-26T07:54:31.000Z</time>
      </trkpt>
      <trkpt lat="46.7089" lon="2.33024">
        <ele>153.89</ele>
        <time>2022-07-26T07:54:36.000Z</time>
      </trkpt>
      <trkpt lat="46.70925" lon="2.3298">
        <ele>152.78</ele>
        <time>2022-07-26T07:54:41.000Z</time>
      </trkpt>
      <trkpt lat="46.7095" lon="2.32931">
        <ele>151.83</ele>
        <time>2022-07-26T07:54:46.000Z</time>
      </trkpt>
      <trkpt lat="46.70963" lon="2.32876">
        <ele>151.67</ele>
        <time>2022-07-26T07:54:51.000Z</time>
      </trkpt>
      <trkpt lat="46.70974" lon="2.32821">
        <ele>151.98</ele>
        <time>2022-07-26T07:54:56.000Z</time>
      </trkpt>
      <trkpt lat="46.70985" lon="2.32771">
        <ele>152.06</ele>
        <time>2022-07-26T07:55:01.000Z</time>
      </trkpt>
      <trkpt lat="46.70994" lon="2.32725">
        <ele>152.43</ele>
        <time>2022-07-26T07:55:06.000Z</time>
      </trkpt>
      <trkpt lat="46.71003" lon="2.32681">
        <ele>152.54</ele>
        <time>2022-07-26T07:55:11.000Z</time>
      </trkpt>
      <trkpt lat="46.71012" lon="2.32642">
        <ele>153.82</ele>
        <time>2022-07-26T07:55:16.000Z</time>
      </trkpt>
      <trkpt lat="46.71019" lon="2.32608">
        <ele>154.74</ele>
        <time>2022-07-26T07:55:21.000Z</time>
      </trkpt>
      <trkpt lat="46.71025" lon="2.32576">
        <ele>154.83</ele>
        <time>2022-07-26T07:55:26.000Z</time>
      </trkpt>
      <trkpt lat="46.71032" lon="2.32547">
        <ele>155.47</ele>
        <time>2022-07-26T07:55:31.000Z</time>
      </trkpt>
      <trkpt lat="46.71037" lon="2.32513">
        <ele>156.41</ele>
        <time>2022-07-26T07:55:35.400Z</time>
      </trkpt>
      <trkpt lat="46.71044" lon="2.32488">
        <ele>157.45</ele>
        <time>2022-07-26T07:55:39.617Z</time>
      </trkpt>
      <trkpt lat="46.71049" lon="2.32463">
        <ele>158.38</ele>
        <time>2022-07-26T07:55:44.198Z</time>
      </trkpt>
      <trkpt lat="46.71054" lon="2.32442">
        <ele>159.01</ele>
        <time>2022-07-26T07:55:48.224Z</time>
      </trkpt>
      <trkpt lat="46.71058" lon="2.32424">
        <ele>160.05</ele>
        <time>2022-07-26T07:55:53.000Z</time>
      </trkpt>
      <trkpt lat="46.71068" lon="2.32398">
        <ele>161.53</ele>
        <time>2022-07-26T07:55:57.444Z</time>
      </trkpt>
      <trkpt lat="46.71076" lon="2.32378">
        <ele>162.31</ele>
        <time>2022-07-26T07:56:03.000Z</time>
      </trkpt>
      <trkpt lat="46.71088" lon="2.32352">
        <ele>162.65</ele>
        <time>2022-07-26T07:56:07.621Z</time>
      </trkpt>
      <trkpt lat="46.71097" lon="2.32336">
        <ele>162.65</ele>
        <time>2022-07-26T07:56:13.000Z</time>
      </trkpt>
      <trkpt lat="46.71109" lon="2.32315">
        <ele>163.1</ele>
        <time>2022-07-26T07:56:18.000Z</time>
      </trkpt>
      <trkpt lat="46.71123" lon="2.32291">
        <ele>163.55</ele>
        <time>2022-07-26T07:56:24.000Z</time>
      </trkpt>
      <trkpt lat="46.71137" lon="2.32268">
        <ele>164.11</ele>
        <time>2022-07-26T07:56:30.000Z</time>
      </trkpt>
      <trkpt lat="46.71151" lon="2.32246">
        <ele>164.68</ele>
        <time>2022-07-26T07:56:36.000Z</time>
      </trkpt>
      <trkpt lat="46.71164" lon="2.32223">
        <ele>165.01</ele>
        <time>2022-07-26T07:56:40.164Z</time>
      </trkpt>
      <trkpt lat="46.71175" lon="2.32207">
        <ele>164.64</ele>
        <time>2022-07-26T07:56:44.239Z</time>
      </trkpt>
      <trkpt lat="46.71188" lon="2.32191">
        <ele>165.14</ele>
        <time>2022-07-26T07:56:48.564Z</time>
      </trkpt>
      <trkpt lat="46.71201" lon="2.32177">
        <ele>165.79</ele>
        <time>2022-07-26T07:56:52.661Z</time>
      </trkpt>
      <trkpt lat="46.71214" lon="2.32168">
        <ele>163.92</ele>
        <time>2022-07-26T07:56:58.000Z</time>
      </trkpt>
      <trkpt lat="46.71233" lon="2.3215">
        <ele>164.28</ele>
        <time>2022-07-26T07:57:02.383Z</time>
      </trkpt>
      <trkpt lat="46.71248" lon="2.32136">
        <ele>164.04</ele>
        <time>2022-07-26T07:57:08.000Z</time>
      </trkpt>
      <trkpt lat="46.71269" lon="2.32115">
        <ele>164.04</ele>
        <time>2022-07-26T07:57:14.000Z</time>
      </trkpt>
      <trkpt lat="46.71289" lon="2.32096">
        <ele>163.07</ele>
        <time>2022-07-26T07:57:19.000Z</time>
      </trkpt>
      <trkpt lat="46.71308" lon="2.32071">
        <ele>162.48</ele>
        <time>2022-07-26T07:57:24.000Z</time>
      </trkpt>
      <trkpt lat="46.71324" lon="2.3204">
        <ele>163.66</ele>
        <time>2022-07-26T07:57:29.000Z</time>
      </trkpt>
      <trkpt lat="46.7134" lon="2.32007">
        <ele>163.9</ele>
        <time>2022-07-26T07:57:34.000Z</time>
      </trkpt>
      <trkpt lat="46.71354" lon="2.31975">
        <ele>164.31</ele>
        <time>2022-07-26T07:57:39.000Z</time>
      </trkpt>
      <trkpt lat="46.71369" lon="2.31944">
        <ele>164.9</ele>
        <time>2022-07-26T07:57:44.000Z</time>
      </trkpt>
      <trkpt lat="46.71383" lon="2.31914">
        <ele>166.2</ele>
        <time>2022-07-26T07:57:49.000Z</time>
      </trkpt>
      <trkpt lat="46.71397" lon="2.31884">
        <ele>166.56</ele>
        <time>2022-07-26T07:57:54.000Z</time>
      </trkpt>
      <trkpt lat="46.71411" lon="2.31855">
        <ele>167.14</ele>
        <time>2022-07-26T07:57:59.000Z</time>
      </trkpt>
      <trkpt lat="46.71424" lon="2.31827">
        <ele>168.02</ele>
        <time>2022-07-26T07:58:04.000Z</time>
      </trkpt>
      <trkpt lat="46.71437" lon="2.31798">
        <ele>168.69</ele>
        <time>2022-07-26T07:58:09.000Z</time>
      </trkpt>
      <trkpt lat="46.71451" lon="2.31769">
        <ele>168.69</ele>
        <time>2022-07-26T07:58:14.000Z</time>
      </trkpt>
      <trkpt lat="46.71465" lon="2.31739">
        <ele>168.45</ele>
        <time>2022-07-26T07:58:19.000Z</time>
      </trkpt>
      <trkpt lat="46.71479" lon="2.31709">
        <ele>168.5</ele>
        <time>2022-07-26T07:58:24.000Z</time>
      </trkpt>
      <trkpt lat="46.71493" lon="2.31679">
        <ele>168.2</ele>
        <time>2022-07-26T07:58:29.000Z</time>
      </trkpt>
      <trkpt lat="46.71507" lon="2.31649">
        <ele>168.08</ele>
        <time>2022-07-26T07:58:34.000Z</time>
      </trkpt>
      <trkpt lat="46.71522" lon="2.31616">
        <ele>167.88</ele>
        <time>2022-07-26T07:58:39.000Z</time>
      </trkpt>
      <trkpt lat="46.71537" lon="2.31584">
        <ele>167.82</ele>
        <time>2022-07-26T07:58:44.000Z</time>
      </trkpt>
      <trkpt lat="46.71554" lon="2.31551">
        <ele>167.58</ele>
        <time>2022-07-26T07:58:49.000Z</time>
      </trkpt>
      <trkpt lat="46.7157" lon="2.31517">
        <ele>167.87</ele>
        <time>2022-07-26T07:58:54.000Z</time>
      </trkpt>
      <trkpt lat="46.71587" lon="2.31484">
        <ele>166.65</ele>
        <time>2022-07-26T07:58:59.000Z</time>
      </trkpt>
      <trkpt lat="46.71604" lon="2.31451">
        <ele>165.74</ele>
        <time>2022-07-26T07:59:04.000Z</time>
      </trkpt>
      <trkpt lat="46.71622" lon="2.31417">
        <ele>165.14</ele>
        <time>2022-07-26T07:59:09.000Z</time>
      </trkpt>
      <trkpt lat="46.7164" lon="2.31383">
        <ele>164.51</ele>
        <time>2022-07-26T07:59:14.000Z</time>
      </trkpt>
      <trkpt lat="46.71656" lon="2.3135">
        <ele>164.09</ele>
        <time>2022-07-26T07:59:19.000Z</time>
      </trkpt>
      <trkpt lat="46.71673" lon="2.31318">
        <ele>164.08</ele>
        <time>2022-07-26T07:59:24.000Z</time>
      </trkpt>
      <trkpt lat="46.71689" lon="2.31288">
        <ele>164.6</ele>
        <time>2022-07-26T07:59:29.000Z</time>
      </trkpt>
      <trkpt lat="46.71703" lon="2.31261">
        <ele>165.43</ele>
        <time>2022-07-26T07:59:34.000Z</time>
      </trkpt>
      <trkpt lat="46.71718" lon="2.31233">
        <ele>165.55</ele>
        <time>2022-07-26T07:59:39.000Z</time>
      </trkpt>
      <trkpt lat="46.71735" lon="2.31206">
        <ele>166.58</ele>
        <time>2022-07-26T07:59:44.000Z</time>
      </trkpt>
      <trkpt lat="46.71752" lon="2.31183">
        <ele>168.05</ele>
        <time>2022-07-26T07:59:49.000Z</time>
      </trkpt>
      <trkpt lat="46.71767" lon="2.31161">
        <ele>169.91</ele>
        <time>2022-07-26T07:59:54.000Z</time>
      </trkpt>
      <trkpt lat="46.71782" lon="2.31141">
        <ele>171.02</ele>
        <time>2022-07-26T07:59:59.000Z</time>
      </trkpt>
      <trkpt lat="46.71797" lon="2.3112">
        <ele>171.03</ele>
        <time>2022-07-26T08:00:04.000Z</time>
      </trkpt>
      <trkpt lat="46.71816" lon="2.31094">
        <ele>172.86</ele>
        <time>2022-07-26T08:00:08.616Z</time>
      </trkpt>
      <trkpt lat="46.71829" lon="2.31077">
        <ele>173.31</ele>
        <time>2022-07-26T08:00:12.994Z</time>
      </trkpt>
      <trkpt lat="46.71841" lon="2.31062">
        <ele>173.91</ele>
        <time>2022-07-26T08:00:17.393Z</time>
      </trkpt>
      <trkpt lat="46.71849" lon="2.3105">
        <ele>175.22</ele>
        <time>2022-07-26T08:00:22.000Z</time>
      </trkpt>
      <trkpt lat="46.71864" lon="2.31032">
        <ele>176.44</ele>
        <time>2022-07-26T08:00:26.393Z</time>
      </trkpt>
      <trkpt lat="46.71872" lon="2.31021">
        <ele>177.14</ele>
        <time>2022-07-26T08:00:31.000Z</time>
      </trkpt>
      <trkpt lat="46.71884" lon="2.31007">
        <ele>177.16</ele>
        <time>2022-07-26T08:00:36.000Z</time>
      </trkpt>
      <trkpt lat="46.71899" lon="2.30986">
        <ele>176.91</ele>
        <time>2022-07-26T08:00:40.575Z</time>
      </trkpt>
      <trkpt lat="46.71909" lon="2.30972">
        <ele>177.98</ele>
        <time>2022-07-26T08:00:44.631Z</time>
      </trkpt>
      <trkpt lat="46.71918" lon="2.30958">
        <ele>179.21</ele>
        <time>2022-07-26T08:00:49.116Z</time>
      </trkpt>
      <trkpt lat="46.71926" lon="2.30943">
        <ele>180.21</ele>
        <time>2022-07-26T08:00:54.000Z</time>
      </trkpt>
      <trkpt lat="46.71942" lon="2.30943">
        <ele>179.39</ele>
        <time>2022-07-26T08:00:59.000Z</time>
      </trkpt>
      <trkpt lat="46.71949" lon="2.30926">
        <ele>179</ele>
        <time>2022-07-26T08:01:04.000Z</time>
      </trkpt>
      <trkpt lat="46.7195" lon="2.30912">
        <ele>178.58</ele>
        <time>2022-07-26T08:01:09.000Z</time>
      </trkpt>
      <trkpt lat="46.71945" lon="2.30898">
        <ele>181.34</ele>
        <time>2022-07-26T08:01:17.000Z</time>
      </trkpt>
      <trkpt lat="46.71937" lon="2.30877">
        <ele>180.22</ele>
        <time>2022-07-26T08:01:22.000Z</time>
      </trkpt>
      <trkpt lat="46.71926" lon="2.30848">
        <ele>179.31</ele>
        <time>2022-07-26T08:01:28.000Z</time>
      </trkpt>
      <trkpt lat="46.71914" lon="2.30821">
        <ele>181.21</ele>
        <time>2022-07-26T08:01:33.000Z</time>
      </trkpt>
      <trkpt lat="46.71903" lon="2.30798">
        <ele>180.41</ele>
        <time>2022-07-26T08:01:38.000Z</time>
      </trkpt>
      <trkpt lat="46.71897" lon="2.3078">
        <ele>178.31</ele>
        <time>2022-07-26T08:01:43.000Z</time>
      </trkpt>
      <trkpt lat="46.7189" lon="2.30755">
        <ele>178.75</ele>
        <time>2022-07-26T08:01:48.000Z</time>
      </trkpt>
      <trkpt lat="46.71874" lon="2.30719">
        <ele>181.75</ele>
        <time>2022-07-26T08:01:53.000Z</time>
      </trkpt>
      <trkpt lat="46.71865" lon="2.30691">
        <ele>183.1</ele>
        <time>2022-07-26T08:01:58.000Z</time>
      </trkpt>
      <trkpt lat="46.71854" lon="2.30655">
        <ele>183.67</ele>
        <time>2022-07-26T08:02:04.000Z</time>
      </trkpt>
      <trkpt lat="46.71843" lon="2.30618">
        <ele>183.93</ele>
        <time>2022-07-26T08:02:10.000Z</time>
      </trkpt>
      <trkpt lat="46.71832" lon="2.30587">
        <ele>185.23</ele>
        <time>2022-07-26T08:02:15.000Z</time>
      </trkpt>
      <trkpt lat="46.71822" lon="2.30559">
        <ele>184.45</ele>
        <time>2022-07-26T08:02:20.000Z</time>
      </trkpt>
      <trkpt lat="46.7181" lon="2.30524">
        <ele>182.84</ele>
        <time>2022-07-26T08:02:24.320Z</time>
      </trkpt>
      <trkpt lat="46.71802" lon="2.30501">
        <ele>181.72</ele>
        <time>2022-07-26T08:02:29.000Z</time>
      </trkpt>
      <trkpt lat="46.7179" lon="2.30469">
        <ele>181.07</ele>
        <time>2022-07-26T08:02:34.000Z</time>
      </trkpt>
      <trkpt lat="46.71777" lon="2.30434">
        <ele>180.59</ele>
        <time>2022-07-26T08:02:39.000Z</time>
      </trkpt>
      <trkpt lat="46.71763" lon="2.30398">
        <ele>181.52</ele>
        <time>2022-07-26T08:02:44.000Z</time>
      </trkpt>
      <trkpt lat="46.71752" lon="2.30359">
        <ele>182.26</ele>
        <time>2022-07-26T08:02:49.000Z</time>
      </trkpt>
      <trkpt lat="46.71749" lon="2.30319">
        <ele>182.22</ele>
        <time>2022-07-26T08:02:54.000Z</time>
      </trkpt>
      <trkpt lat="46.71748" lon="2.30278">
        <ele>182.26</ele>
        <time>2022-07-26T08:02:59.000Z</time>
      </trkpt>
      <trkpt lat="46.71748" lon="2.30237">
        <ele>181.7</ele>
        <time>2022-07-26T08:03:04.000Z</time>
      </trkpt>
      <trkpt lat="46.71747" lon="2.30192">
        <ele>181.49</ele>
        <time>2022-07-26T08:03:09.000Z</time>
      </trkpt>
      <trkpt lat="46.71745" lon="2.30151">
        <ele>182.07</ele>
        <time>2022-07-26T08:03:14.000Z</time>
      </trkpt>
      <trkpt lat="46.71745" lon="2.30113">
        <ele>180.16</ele>
        <time>2022-07-26T08:03:19.000Z</time>
      </trkpt>
      <trkpt lat="46.71741" lon="2.30072">
        <ele>179.13</ele>
        <time>2022-07-26T08:03:24.000Z</time>
      </trkpt>
      <trkpt lat="46.71732" lon="2.30033">
        <ele>178.83</ele>
        <time>2022-07-26T08:03:29.000Z</time>
      </trkpt>
      <trkpt lat="46.71723" lon="2.29996">
        <ele>178.25</ele>
        <time>2022-07-26T08:03:34.000Z</time>
      </trkpt>
      <trkpt lat="46.71713" lon="2.29958">
        <ele>177.98</ele>
        <time>2022-07-26T08:03:39.000Z</time>
      </trkpt>
      <trkpt lat="46.71702" lon="2.29921">
        <ele>177.92</ele>
        <time>2022-07-26T08:03:44.000Z</time>
      </trkpt>
      <trkpt lat="46.71691" lon="2.29884">
        <ele>177.05</ele>
        <time>2022-07-26T08:03:49.000Z</time>
      </trkpt>
      <trkpt lat="46.71681" lon="2.29848">
        <ele>176.23</ele>
        <time>2022-07-26T08:03:54.000Z</time>
      </trkpt>
      <trkpt lat="46.7167" lon="2.29811">
        <ele>175.24</ele>
        <time>2022-07-26T08:03:59.000Z</time>
      </trkpt>
      <trkpt lat="46.7166" lon="2.29774">
        <ele>174.5</ele>
        <time>2022-07-26T08:04:04.000Z</time>
      </trkpt>
      <trkpt lat="46.71648" lon="2.29736">
        <ele>173.72</ele>
        <time>2022-07-26T08:04:09.000Z</time>
      </trkpt>
      <trkpt lat="46.71639" lon="2.29698">
        <ele>173.77</ele>
        <time>2022-07-26T08:04:14.000Z</time>
      </trkpt>
      <trkpt lat="46.71633" lon="2.29659">
        <ele>173.33</ele>
        <time>2022-07-26T08:04:19.000Z</time>
      </trkpt>
      <trkpt lat="46.71629" lon="2.2962">
        <ele>173.28</ele>
        <time>2022-07-26T08:04:24.000Z</time>
      </trkpt>
      <trkpt lat="46.71625" lon="2.29582">
        <ele>173.48</ele>
        <time>2022-07-26T08:04:29.000Z</time>
      </trkpt>
      <trkpt lat="46.71621" lon="2.29547">
        <ele>173.31</ele>
        <time>2022-07-26T08:04:34.000Z</time>
      </trkpt>
      <trkpt lat="46.71617" lon="2.29511">
        <ele>173.09</ele>
        <time>2022-07-26T08:04:39.000Z</time>
      </trkpt>
      <trkpt lat="46.71614" lon="2.29475">
        <ele>173.93</ele>
        <time>2022-07-26T08:04:44.000Z</time>
      </trkpt>
      <trkpt lat="46.7161" lon="2.29439">
        <ele>174.24</ele>
        <time>2022-07-26T08:04:49.000Z</time>
      </trkpt>
      <trkpt lat="46.71606" lon="2.29404">
        <ele>174.52</ele>
        <time>2022-07-26T08:04:54.000Z</time>
      </trkpt>
      <trkpt lat="46.716" lon="2.29369">
        <ele>176.02</ele>
        <time>2022-07-26T08:04:59.000Z</time>
      </trkpt>
      <trkpt lat="46.71599" lon="2.29341">
        <ele>176.46</ele>
        <time>2022-07-26T08:05:04.000Z</time>
      </trkpt>
      <trkpt lat="46.71599" lon="2.29306">
        <ele>173.86</ele>
        <time>2022-07-26T08:05:08.660Z</time>
      </trkpt>
      <trkpt lat="46.71594" lon="2.29278">
        <ele>174.45</ele>
        <time>2022-07-26T08:05:13.000Z</time>
      </trkpt>
      <trkpt lat="46.71599" lon="2.29241">
        <ele>179.17</ele>
        <time>2022-07-26T08:05:17.457Z</time>
      </trkpt>
      <trkpt lat="46.71608" lon="2.29219">
        <ele>178.81</ele>
        <time>2022-07-26T08:05:22.000Z</time>
      </trkpt>
      <trkpt lat="46.71616" lon="2.29182">
        <ele>180.44</ele>
        <time>2022-07-26T08:05:27.000Z</time>
      </trkpt>
      <trkpt lat="46.71618" lon="2.29144">
        <ele>182.15</ele>
        <time>2022-07-26T08:05:32.000Z</time>
      </trkpt>
      <trkpt lat="46.71611" lon="2.29111">
        <ele>180.71</ele>
        <time>2022-07-26T08:05:37.000Z</time>
      </trkpt>
      <trkpt lat="46.71605" lon="2.29075">
        <ele>176.72</ele>
        <time>2022-07-26T08:05:42.000Z</time>
      </trkpt>
      <trkpt lat="46.71599" lon="2.29042">
        <ele>173.64</ele>
        <time>2022-07-26T08:05:47.000Z</time>
      </trkpt>
      <trkpt lat="46.71589" lon="2.28993">
        <ele>173.35</ele>
        <time>2022-07-26T08:05:52.000Z</time>
      </trkpt>
      <trkpt lat="46.71585" lon="2.2895">
        <ele>176.29</ele>
        <time>2022-07-26T08:05:57.000Z</time>
      </trkpt>
      <trkpt lat="46.71582" lon="2.28908">
        <ele>177.3</ele>
        <time>2022-07-26T08:06:02.000Z</time>
      </trkpt>
      <trkpt lat="46.71578" lon="2.28862">
        <ele>177.03</ele>
        <time>2022-07-26T08:06:07.000Z</time>
      </trkpt>
      <trkpt lat="46.71574" lon="2.28816">
        <ele>176.13</ele>
        <time>2022-07-26T08:06:12.000Z</time>
      </trkpt>
      <trkpt lat="46.71571" lon="2.28771">
        <ele>175.26</ele>
        <time>2022-07-26T08:06:17.000Z</time>
      </trkpt>
      <trkpt lat="46.71568" lon="2.28727">
        <ele>173.62</ele>
        <time>2022-07-26T08:06:22.000Z</time>
      </trkpt>
      <trkpt lat="46.71567" lon="2.2868">
        <ele>171.43</ele>
        <time>2022-07-26T08:06:27.000Z</time>
      </trkpt>
      <trkpt lat="46.71568" lon="2.28632">
        <ele>169.72</ele>
        <time>2022-07-26T08:06:32.000Z</time>
      </trkpt>
      <trkpt lat="46.71574" lon="2.28582">
        <ele>166.94</ele>
        <time>2022-07-26T08:06:37.000Z</time>
      </trkpt>
      <trkpt lat="46.71584" lon="2.28531">
        <ele>164.7</ele>
        <time>2022-07-26T08:06:42.000Z</time>
      </trkpt>
      <trkpt lat="46.71583" lon="2.28476">
        <ele>162.68</ele>
        <time>2022-07-26T08:06:47.000Z</time>
      </trkpt>
      <trkpt lat="46.71576" lon="2.28419">
        <ele>160.79</ele>
        <time>2022-07-26T08:06:52.000Z</time>
      </trkpt>
      <trkpt lat="46.7157" lon="2.28365">
        <ele>160.03</ele>
        <time>2022-07-26T08:06:57.000Z</time>
      </trkpt>
      <trkpt lat="46.7157" lon="2.28319">
        <ele>159.67</ele>
        <time>2022-07-26T08:07:02.000Z</time>
      </trkpt>
      <trkpt lat="46.71573" lon="2.28279">
        <ele>159.69</ele>
        <time>2022-07-26T08:07:07.000Z</time>
      </trkpt>
      <trkpt lat="46.71578" lon="2.28238">
        <ele>158.74</ele>
        <time>2022-07-26T08:07:12.000Z</time>
      </trkpt>
      <trkpt lat="46.71583" lon="2.28197">
        <ele>160.26</ele>
        <time>2022-07-26T08:07:17.000Z</time>
      </trkpt>
      <trkpt lat="46.71587" lon="2.28151">
        <ele>157.21</ele>
        <time>2022-07-26T08:07:22.000Z</time>
      </trkpt>
      <trkpt lat="46.71582" lon="2.28092">
        <ele>154.64</ele>
        <time>2022-07-26T08:07:27.000Z</time>
      </trkpt>
      <trkpt lat="46.71564" lon="2.28031">
        <ele>151.65</ele>
        <time>2022-07-26T08:07:32.000Z</time>
      </trkpt>
      <trkpt lat="46.71545" lon="2.27966">
        <ele>148.93</ele>
        <time>2022-07-26T08:07:37.000Z</time>
      </trkpt>
      <trkpt lat="46.71526" lon="2.279">
        <ele>145.41</ele>
        <time>2022-07-26T08:07:42.000Z</time>
      </trkpt>
      <trkpt lat="46.71507" lon="2.27832">
        <ele>144.25</ele>
        <time>2022-07-26T08:07:47.000Z</time>
      </trkpt>
      <trkpt lat="46.71488" lon="2.27768">
        <ele>142.4</ele>
        <time>2022-07-26T08:07:52.000Z</time>
      </trkpt>
      <trkpt lat="46.71471" lon="2.27711">
        <ele>141.42</ele>
        <time>2022-07-26T08:07:57.000Z</time>
      </trkpt>
      <trkpt lat="46.71454" lon="2.27663">
        <ele>140.61</ele>
        <time>2022-07-26T08:08:02.000Z</time>
      </trkpt>
      <trkpt lat="46.71436" lon="2.2762">
        <ele>138.8</ele>
        <time>2022-07-26T08:08:07.000Z</time>
      </trkpt>
      <trkpt lat="46.71418" lon="2.27578">
        <ele>137.03</ele>
        <time>2022-07-26T08:08:12.000Z</time>
      </trkpt>
      <trkpt lat="46.71403" lon="2.27538">
        <ele>135.69</ele>
        <time>2022-07-26T08:08:17.000Z</time>
      </trkpt>
      <trkpt lat="46.71388" lon="2.27497">
        <ele>134.78</ele>
        <time>2022-07-26T08:08:22.000Z</time>
      </trkpt>
      <trkpt lat="46.71374" lon="2.27456">
        <ele>134.62</ele>
        <time>2022-07-26T08:08:27.000Z</time>
      </trkpt>
      <trkpt lat="46.71358" lon="2.27415">
        <ele>135.06</ele>
        <time>2022-07-26T08:08:32.000Z</time>
      </trkpt>
      <trkpt lat="46.71342" lon="2.27376">
        <ele>135.07</ele>
        <time>2022-07-26T08:08:37.000Z</time>
      </trkpt>
      <trkpt lat="46.71326" lon="2.27339">
        <ele>134.99</ele>
        <time>2022-07-26T08:08:42.000Z</time>
      </trkpt>
      <trkpt lat="46.71311" lon="2.27305">
        <ele>135.45</ele>
        <time>2022-07-26T08:08:47.000Z</time>
      </trkpt>
      <trkpt lat="46.713" lon="2.27271">
        <ele>136.57</ele>
        <time>2022-07-26T08:08:52.000Z</time>
      </trkpt>
      <trkpt lat="46.71298" lon="2.27234">
        <ele>137.4</ele>
        <time>2022-07-26T08:08:57.000Z</time>
      </trkpt>
      <trkpt lat="46.713" lon="2.27199">
        <ele>137.1</ele>
        <time>2022-07-26T08:09:02.000Z</time>
      </trkpt>
      <trkpt lat="46.71302" lon="2.27165">
        <ele>137.04</ele>
        <time>2022-07-26T08:09:07.000Z</time>
      </trkpt>
      <trkpt lat="46.71304" lon="2.27128">
        <ele>136.45</ele>
        <time>2022-07-26T08:09:12.000Z</time>
      </trkpt>
      <trkpt lat="46.71306" lon="2.27088">
        <ele>135.83</ele>
        <time>2022-07-26T08:09:17.000Z</time>
      </trkpt>
      <trkpt lat="46.71308" lon="2.27046">
        <ele>135.7</ele>
        <time>2022-07-26T08:09:22.000Z</time>
      </trkpt>
      <trkpt lat="46.71305" lon="2.26999">
        <ele>134.99</ele>
        <time>2022-07-26T08:09:27.000Z</time>
      </trkpt>
      <trkpt lat="46.71296" lon="2.26955">
        <ele>133.98</ele>
        <time>2022-07-26T08:09:32.000Z</time>
      </trkpt>
      <trkpt lat="46.71281" lon="2.26915">
        <ele>133.3</ele>
        <time>2022-07-26T08:09:37.000Z</time>
      </trkpt>
      <trkpt lat="46.7126" lon="2.26888">
        <ele>132.73</ele>
        <time>2022-07-26T08:09:42.000Z</time>
      </trkpt>
      <trkpt lat="46.7124" lon="2.26865">
        <ele>132.21</ele>
        <time>2022-07-26T08:09:47.000Z</time>
      </trkpt>
      <trkpt lat="46.71221" lon="2.2684">
        <ele>133.56</ele>
        <time>2022-07-26T08:09:52.000Z</time>
      </trkpt>
      <trkpt lat="46.71202" lon="2.26815">
        <ele>133.49</ele>
        <time>2022-07-26T08:09:57.000Z</time>
      </trkpt>
      <trkpt lat="46.71185" lon="2.26791">
        <ele>133.55</ele>
        <time>2022-07-26T08:10:02.000Z</time>
      </trkpt>
      <trkpt lat="46.71167" lon="2.26768">
        <ele>135.08</ele>
        <time>2022-07-26T08:10:07.000Z</time>
      </trkpt>
      <trkpt lat="46.71151" lon="2.26745">
        <ele>135.22</ele>
        <time>2022-07-26T08:10:12.000Z</time>
      </trkpt>
      <trkpt lat="46.71137" lon="2.26725">
        <ele>134.92</ele>
        <time>2022-07-26T08:10:17.000Z</time>
      </trkpt>
      <trkpt lat="46.71119" lon="2.26701">
        <ele>135.42</ele>
        <time>2022-07-26T08:10:21.294Z</time>
      </trkpt>
      <trkpt lat="46.71105" lon="2.26682">
        <ele>136.28</ele>
        <time>2022-07-26T08:10:25.532Z</time>
      </trkpt>
      <trkpt lat="46.71096" lon="2.2667">
        <ele>137</ele>
        <time>2022-07-26T08:10:30.000Z</time>
      </trkpt>
      <trkpt lat="46.71083" lon="2.2665">
        <ele>137.61</ele>
        <time>2022-07-26T08:10:35.000Z</time>
      </trkpt>
      <trkpt lat="46.71069" lon="2.26632">
        <ele>137.96</ele>
        <time>2022-07-26T08:10:40.000Z</time>
      </trkpt>
      <trkpt lat="46.71053" lon="2.2661">
        <ele>138.4</ele>
        <time>2022-07-26T08:10:44.274Z</time>
      </trkpt>
      <trkpt lat="46.71042" lon="2.26593">
        <ele>139.9</ele>
        <time>2022-07-26T08:10:50.000Z</time>
      </trkpt>
      <trkpt lat="46.71029" lon="2.26574">
        <ele>141.1</ele>
        <time>2022-07-26T08:10:55.000Z</time>
      </trkpt>
      <trkpt lat="46.71021" lon="2.26549">
        <ele>141.46</ele>
        <time>2022-07-26T08:11:00.000Z</time>
      </trkpt>
      <trkpt lat="46.71019" lon="2.26522">
        <ele>141.52</ele>
        <time>2022-07-26T08:11:05.000Z</time>
      </trkpt>
      <trkpt lat="46.71017" lon="2.26492">
        <ele>141.14</ele>
        <time>2022-07-26T08:11:09.037Z</time>
      </trkpt>
      <trkpt lat="46.71015" lon="2.26466">
        <ele>140.07</ele>
        <time>2022-07-26T08:11:13.294Z</time>
      </trkpt>
      <trkpt lat="46.71014" lon="2.26445">
        <ele>139.82</ele>
        <time>2022-07-26T08:11:18.000Z</time>
      </trkpt>
      <trkpt lat="46.71011" lon="2.26413">
        <ele>140.93</ele>
        <time>2022-07-26T08:11:22.459Z</time>
      </trkpt>
      <trkpt lat="46.71012" lon="2.26388">
        <ele>140.27</ele>
        <time>2022-07-26T08:11:28.000Z</time>
      </trkpt>
      <trkpt lat="46.71011" lon="2.26354">
        <ele>140.58</ele>
        <time>2022-07-26T08:11:32.574Z</time>
      </trkpt>
      <trkpt lat="46.71012" lon="2.26331">
        <ele>139.89</ele>
        <time>2022-07-26T08:11:38.000Z</time>
      </trkpt>
      <trkpt lat="46.71012" lon="2.26299">
        <ele>140.2</ele>
        <time>2022-07-26T08:11:43.000Z</time>
      </trkpt>
      <trkpt lat="46.71012" lon="2.26264">
        <ele>141.15</ele>
        <time>2022-07-26T08:11:48.000Z</time>
      </trkpt>
      <trkpt lat="46.71012" lon="2.26227">
        <ele>141.86</ele>
        <time>2022-07-26T08:11:54.000Z</time>
      </trkpt>
      <trkpt lat="46.71012" lon="2.26193">
        <ele>142.64</ele>
        <time>2022-07-26T08:11:58.031Z</time>
      </trkpt>
      <trkpt lat="46.71012" lon="2.26167">
        <ele>142.87</ele>
        <time>2022-07-26T08:12:04.000Z</time>
      </trkpt>
      <trkpt lat="46.71012" lon="2.26138">
        <ele>143.59</ele>
        <time>2022-07-26T08:12:09.000Z</time>
      </trkpt>
      <trkpt lat="46.71012" lon="2.26103">
        <ele>143.3</ele>
        <time>2022-07-26T08:12:13.574Z</time>
      </trkpt>
      <trkpt lat="46.71012" lon="2.2608">
        <ele>143.43</ele>
        <time>2022-07-26T08:12:19.000Z</time>
      </trkpt>
      <trkpt lat="46.71012" lon="2.2605">
        <ele>144.14</ele>
        <time>2022-07-26T08:12:24.000Z</time>
      </trkpt>
      <trkpt lat="46.71012" lon="2.26017">
        <ele>144.54</ele>
        <time>2022-07-26T08:12:28.511Z</time>
      </trkpt>
      <trkpt lat="46.71011" lon="2.25994">
        <ele>145.06</ele>
        <time>2022-07-26T08:12:32.527Z</time>
      </trkpt>
      <trkpt lat="46.71012" lon="2.25976">
        <ele>145.38</ele>
        <time>2022-07-26T08:12:37.000Z</time>
      </trkpt>
      <trkpt lat="46.71011" lon="2.25946">
        <ele>145.6</ele>
        <time>2022-07-26T08:12:42.000Z</time>
      </trkpt>
      <trkpt lat="46.71009" lon="2.25912">
        <ele>145.03</ele>
        <time>2022-07-26T08:12:46.549Z</time>
      </trkpt>
      <trkpt lat="46.71008" lon="2.2589">
        <ele>144.29</ele>
        <time>2022-07-26T08:12:51.000Z</time>
      </trkpt>
      <trkpt lat="46.71004" lon="2.25852">
        <ele>142.55</ele>
        <time>2022-07-26T08:12:56.000Z</time>
      </trkpt>
      <trkpt lat="46.71001" lon="2.25806">
        <ele>140.89</ele>
        <time>2022-07-26T08:13:01.000Z</time>
      </trkpt>
      <trkpt lat="46.70997" lon="2.25757">
        <ele>139.27</ele>
        <time>2022-07-26T08:13:06.000Z</time>
      </trkpt>
      <trkpt lat="46.70994" lon="2.25709">
        <ele>138.78</ele>
        <time>2022-07-26T08:13:11.000Z</time>
      </trkpt>
      <trkpt lat="46.70991" lon="2.2566">
        <ele>138.11</ele>
        <time>2022-07-26T08:13:16.000Z</time>
      </trkpt>
      <trkpt lat="46.70988" lon="2.25609">
        <ele>138.29</ele>
        <time>2022-07-26T08:13:21.000Z</time>
      </trkpt>
      <trkpt lat="46.70983" lon="2.2556">
        <ele>138.67</ele>
        <time>2022-07-26T08:13:26.000Z</time>
      </trkpt>
      <trkpt lat="46.70971" lon="2.25511">
        <ele>137.87</ele>
        <time>2022-07-26T08:13:31.000Z</time>
      </trkpt>
      <trkpt lat="46.70955" lon="2.25464">
        <ele>136.5</ele>
        <time>2022-07-26T08:13:36.000Z</time>
      </trkpt>
      <trkpt lat="46.7094" lon="2.2542">
        <ele>135.65</ele>
        <time>2022-07-26T08:13:41.000Z</time>
      </trkpt>
      <trkpt lat="46.70927" lon="2.25378">
        <ele>134.59</ele>
        <time>2022-07-26T08:13:46.000Z</time>
      </trkpt>
      <trkpt lat="46.70915" lon="2.25336">
        <ele>134.11</ele>
        <time>2022-07-26T08:13:51.000Z</time>
      </trkpt>
      <trkpt lat="46.70904" lon="2.25295">
        <ele>134.42</ele>
        <time>2022-07-26T08:13:56.000Z</time>
      </trkpt>
      <trkpt lat="46.70893" lon="2.25252">
        <ele>134.62</ele>
        <time>2022-07-26T08:14:01.000Z</time>
      </trkpt>
      <trkpt lat="46.70882" lon="2.25209">
        <ele>134.62</ele>
        <time>2022-07-26T08:14:06.000Z</time>
      </trkpt>
      <trkpt lat="46.70873" lon="2.25166">
        <ele>135.26</ele>
        <time>2022-07-26T08:14:11.000Z</time>
      </trkpt>
      <trkpt lat="46.70864" lon="2.25124">
        <ele>133.71</ele>
        <time>2022-07-26T08:14:16.000Z</time>
      </trkpt>
      <trkpt lat="46.70855" lon="2.2508">
        <ele>132.63</ele>
        <time>2022-07-26T08:14:21.000Z</time>
      </trkpt>
      <trkpt lat="46.70846" lon="2.25036">
        <ele>131.59</ele>
        <time>2022-07-26T08:14:26.000Z</time>
      </trkpt>
      <trkpt lat="46.70839" lon="2.24993">
        <ele>131.5</ele>
        <time>2022-07-26T08:14:31.000Z</time>
      </trkpt>
      <trkpt lat="46.70829" lon="2.2495">
        <ele>131.23</ele>
        <time>2022-07-26T08:14:36.000Z</time>
      </trkpt>
      <trkpt lat="46.70815" lon="2.24909">
        <ele>131.54</ele>
        <time>2022-07-26T08:14:41.000Z</time>
      </trkpt>
      <trkpt lat="46.70802" lon="2.24869">
        <ele>131.33</ele>
        <time>2022-07-26T08:14:46.000Z</time>
      </trkpt>
      <trkpt lat="46.7079" lon="2.24834">
        <ele>131.78</ele>
        <time>2022-07-26T08:14:51.000Z</time>
      </trkpt>
      <trkpt lat="46.70779" lon="2.248">
        <ele>132.71</ele>
        <time>2022-07-26T08:14:56.000Z</time>
      </trkpt>
      <trkpt lat="46.70769" lon="2.24765">
        <ele>132.32</ele>
        <time>2022-07-26T08:15:01.000Z</time>
      </trkpt>
      <trkpt lat="46.70762" lon="2.24728">
        <ele>132.86</ele>
        <time>2022-07-26T08:15:06.000Z</time>
      </trkpt>
      <trkpt lat="46.70759" lon="2.2469">
        <ele>133.15</ele>
        <time>2022-07-26T08:15:11.000Z</time>
      </trkpt>
      <trkpt lat="46.70758" lon="2.24652">
        <ele>133.27</ele>
        <time>2022-07-26T08:15:16.000Z</time>
      </trkpt>
      <trkpt lat="46.70758" lon="2.24614">
        <ele>133.3</ele>
        <time>2022-07-26T08:15:21.000Z</time>
      </trkpt>
      <trkpt lat="46.70756" lon="2.24578">
        <ele>133.79</ele>
        <time>2022-07-26T08:15:26.000Z</time>
      </trkpt>
      <trkpt lat="46.70752" lon="2.24544">
        <ele>134.39</ele>
        <time>2022-07-26T08:15:31.000Z</time>
      </trkpt>
      <trkpt lat="46.70748" lon="2.24514">
        <ele>135.14</ele>
        <time>2022-07-26T08:15:36.000Z</time>
      </trkpt>
      <trkpt lat="46.70744" lon="2.24479">
        <ele>136.46</ele>
        <time>2022-07-26T08:15:41.000Z</time>
      </trkpt>
      <trkpt lat="46.70738" lon="2.24444">
        <ele>136.43</ele>
        <time>2022-07-26T08:15:47.000Z</time>
      </trkpt>
      <trkpt lat="46.70732" lon="2.24409">
        <ele>135.49</ele>
        <time>2022-07-26T08:15:52.000Z</time>
      </trkpt>
      <trkpt lat="46.70723" lon="2.24373">
        <ele>135.18</ele>
        <time>2022-07-26T08:15:57.000Z</time>
      </trkpt>
      <trkpt lat="46.70714" lon="2.24338">
        <ele>135.49</ele>
        <time>2022-07-26T08:16:02.000Z</time>
      </trkpt>
      <trkpt lat="46.70705" lon="2.24306">
        <ele>136.01</ele>
        <time>2022-07-26T08:16:07.000Z</time>
      </trkpt>
      <trkpt lat="46.707" lon="2.24277">
        <ele>135.75</ele>
        <time>2022-07-26T08:16:12.000Z</time>
      </trkpt>
      <trkpt lat="46.70701" lon="2.24246">
        <ele>136.32</ele>
        <time>2022-07-26T08:16:17.000Z</time>
      </trkpt>
      <trkpt lat="46.70702" lon="2.24221">
        <ele>136.39</ele>
        <time>2022-07-26T08:16:22.000Z</time>
      </trkpt>
      <trkpt lat="46.70704" lon="2.242">
        <ele>136.2</ele>
        <time>2022-07-26T08:16:27.000Z</time>
      </trkpt>
      <trkpt lat="46.70707" lon="2.2418">
        <ele>137.67</ele>
        <time>2022-07-26T08:16:32.000Z</time>
      </trkpt>
      <trkpt lat="46.70706" lon="2.24163">
        <ele>138.3</ele>
        <time>2022-07-26T08:16:38.000Z</time>
      </trkpt>
      <trkpt lat="46.70711" lon="2.24141">
        <ele>139.25</ele>
        <time>2022-07-26T08:16:43.000Z</time>
      </trkpt>
      <trkpt lat="46.70715" lon="2.24121">
        <ele>140.05</ele>
        <time>2022-07-26T08:16:49.000Z</time>
      </trkpt>
      <trkpt lat="46.7071" lon="2.24109">
        <ele>140.21</ele>
        <time>2022-07-26T08:16:55.000Z</time>
      </trkpt>
      <trkpt lat="46.70695" lon="2.24112">
        <ele>137.7</ele>
        <time>2022-07-26T08:17:00.000Z</time>
      </trkpt>
      <trkpt lat="46.70669" lon="2.24111">
        <ele>135.98</ele>
        <time>2022-07-26T08:17:06.000Z</time>
      </trkpt>
      <trkpt lat="46.70643" lon="2.24108">
        <ele>134.4</ele>
        <time>2022-07-26T08:17:11.000Z</time>
      </trkpt>
      <trkpt lat="46.70619" lon="2.24105">
        <ele>132.93</ele>
        <time>2022-07-26T08:17:16.000Z</time>
      </trkpt>
      <trkpt lat="46.70593" lon="2.24105">
        <ele>132.43</ele>
        <time>2022-07-26T08:17:21.000Z</time>
      </trkpt>
      <trkpt lat="46.70566" lon="2.24113">
        <ele>131.82</ele>
        <time>2022-07-26T08:17:26.000Z</time>
      </trkpt>
      <trkpt lat="46.70542" lon="2.2413">
        <ele>131.5</ele>
        <time>2022-07-26T08:17:31.000Z</time>
      </trkpt>
      <trkpt lat="46.70518" lon="2.24152">
        <ele>131.04</ele>
        <time>2022-07-26T08:17:36.000Z</time>
      </trkpt>
      <trkpt lat="46.70492" lon="2.24177">
        <ele>129.85</ele>
        <time>2022-07-26T08:17:41.000Z</time>
      </trkpt>
      <trkpt lat="46.70465" lon="2.24204">
        <ele>129.21</ele>
        <time>2022-07-26T08:17:46.000Z</time>
      </trkpt>
      <trkpt lat="46.70432" lon="2.24223">
        <ele>128.54</ele>
        <time>2022-07-26T08:17:51.000Z</time>
      </trkpt>
      <trkpt lat="46.704" lon="2.24235">
        <ele>127.96</ele>
        <time>2022-07-26T08:17:56.000Z</time>
      </trkpt>
      <trkpt lat="46.70367" lon="2.24249">
        <ele>126.6</ele>
        <time>2022-07-26T08:18:01.000Z</time>
      </trkpt>
      <trkpt lat="46.70334" lon="2.24263">
        <ele>126.1</ele>
        <time>2022-07-26T08:18:06.000Z</time>
      </trkpt>
      <trkpt lat="46.70301" lon="2.24275">
        <ele>125.99</ele>
        <time>2022-07-26T08:18:11.000Z</time>
      </trkpt>
      <trkpt lat="46.70267" lon="2.24288">
        <ele>125.38</ele>
        <time>2022-07-26T08:18:16.000Z</time>
      </trkpt>
      <trkpt lat="46.70232" lon="2.24301">
        <ele>124.96</ele>
        <time>2022-07-26T08:18:21.000Z</time>
      </trkpt>
      <trkpt lat="46.70199" lon="2.24312">
        <ele>123.74</ele>
        <time>2022-07-26T08:18:26.000Z</time>
      </trkpt>
      <trkpt lat="46.70168" lon="2.24313">
        <ele>123.07</ele>
        <time>2022-07-26T08:18:31.000Z</time>
      </trkpt>
      <trkpt lat="46.70136" lon="2.24307">
        <ele>122.75</ele>
        <time>2022-07-26T08:18:36.000Z</time>
      </trkpt>
      <trkpt lat="46.70108" lon="2.24296">
        <ele>123.03</ele>
        <time>2022-07-26T08:18:41.000Z</time>
      </trkpt>
      <trkpt lat="46.70082" lon="2.24288">
        <ele>122.61</ele>
        <time>2022-07-26T08:18:46.000Z</time>
      </trkpt>
      <trkpt lat="46.70057" lon="2.24279">
        <ele>121.17</ele>
        <time>2022-07-26T08:18:51.000Z</time>
      </trkpt>
      <trkpt lat="46.70031" lon="2.24271">
        <ele>121.22</ele>
        <time>2022-07-26T08:18:56.000Z</time>
      </trkpt>
      <trkpt lat="46.7001" lon="2.24267">
        <ele>121.7</ele>
        <time>2022-07-26T08:19:01.000Z</time>
      </trkpt>
      <trkpt lat="46.6999" lon="2.24266">
        <ele>122.88</ele>
        <time>2022-07-26T08:19:06.000Z</time>
      </trkpt>
      <trkpt lat="46.69968" lon="2.24264">
        <ele>123.68</ele>
        <time>2022-07-26T08:19:11.000Z</time>
      </trkpt>
      <trkpt lat="46.69943" lon="2.24262">
        <ele>123.81</ele>
        <time>2022-07-26T08:19:16.000Z</time>
      </trkpt>
      <trkpt lat="46.69917" lon="2.24262">
        <ele>124.25</ele>
        <time>2022-07-26T08:19:21.000Z</time>
      </trkpt>
      <trkpt lat="46.69892" lon="2.24259">
        <ele>123.18</ele>
        <time>2022-07-26T08:19:26.000Z</time>
      </trkpt>
      <trkpt lat="46.69865" lon="2.2426">
        <ele>123.35</ele>
        <time>2022-07-26T08:19:31.000Z</time>
      </trkpt>
      <trkpt lat="46.69836" lon="2.24259">
        <ele>123.01</ele>
        <time>2022-07-26T08:19:36.000Z</time>
      </trkpt>
      <trkpt lat="46.69812" lon="2.24258">
        <ele>123.43</ele>
        <time>2022-07-26T08:19:41.000Z</time>
      </trkpt>
      <trkpt lat="46.69789" lon="2.24258">
        <ele>123.55</ele>
        <time>2022-07-26T08:19:46.000Z</time>
      </trkpt>
      <trkpt lat="46.69764" lon="2.24258">
        <ele>124.14</ele>
        <time>2022-07-26T08:19:51.000Z</time>
      </trkpt>
      <trkpt lat="46.6974" lon="2.24257">
        <ele>124.73</ele>
        <time>2022-07-26T08:19:56.000Z</time>
      </trkpt>
      <trkpt lat="46.69717" lon="2.24255">
        <ele>123.46</ele>
        <time>2022-07-26T08:20:01.000Z</time>
      </trkpt>
      <trkpt lat="46.69694" lon="2.24254">
        <ele>123.59</ele>
        <time>2022-07-26T08:20:06.000Z</time>
      </trkpt>
      <trkpt lat="46.69669" lon="2.2425">
        <ele>124.18</ele>
        <time>2022-07-26T08:20:12.000Z</time>
      </trkpt>
      <trkpt lat="46.69653" lon="2.24225">
        <ele>124.68</ele>
        <time>2022-07-26T08:20:17.000Z</time>
      </trkpt>
      <trkpt lat="46.69637" lon="2.24208">
        <ele>124.83</ele>
        <time>2022-07-26T08:20:22.000Z</time>
      </trkpt>
      <trkpt lat="46.69626" lon="2.24181">
        <ele>124.75</ele>
        <time>2022-07-26T08:20:27.000Z</time>
      </trkpt>
      <trkpt lat="46.69609" lon="2.24159">
        <ele>125.44</ele>
        <time>2022-07-26T08:20:32.000Z</time>
      </trkpt>
      <trkpt lat="46.69592" lon="2.24133">
        <ele>127.09</ele>
        <time>2022-07-26T08:20:38.000Z</time>
      </trkpt>
      <trkpt lat="46.69577" lon="2.24111">
        <ele>127.88</ele>
        <time>2022-07-26T08:20:42.377Z</time>
      </trkpt>
      <trkpt lat="46.69565" lon="2.24093">
        <ele>128.27</ele>
        <time>2022-07-26T08:20:46.576Z</time>
      </trkpt>
      <trkpt lat="46.69553" lon="2.24075">
        <ele>128.19</ele>
        <time>2022-07-26T08:20:51.155Z</time>
      </trkpt>
      <trkpt lat="46.69542" lon="2.24059">
        <ele>128.43</ele>
        <time>2022-07-26T08:20:55.272Z</time>
      </trkpt>
      <trkpt lat="46.69529" lon="2.2404">
        <ele>128.53</ele>
        <time>2022-07-26T08:20:59.621Z</time>
      </trkpt>
      <trkpt lat="46.69521" lon="2.24028">
        <ele>128.31</ele>
        <time>2022-07-26T08:21:04.000Z</time>
      </trkpt>
      <trkpt lat="46.69504" lon="2.24003">
        <ele>127.7</ele>
        <time>2022-07-26T08:21:10.000Z</time>
      </trkpt>
      <trkpt lat="46.69488" lon="2.23979">
        <ele>127.7</ele>
        <time>2022-07-26T08:21:16.000Z</time>
      </trkpt>
      <trkpt lat="46.69475" lon="2.23959">
        <ele>128.43</ele>
        <time>2022-07-26T08:21:21.000Z</time>
      </trkpt>
      <trkpt lat="46.69462" lon="2.2394">
        <ele>128.98</ele>
        <time>2022-07-26T08:21:26.000Z</time>
      </trkpt>
      <trkpt lat="46.69445" lon="2.23917">
        <ele>130.04</ele>
        <time>2022-07-26T08:21:32.000Z</time>
      </trkpt>
      <trkpt lat="46.69431" lon="2.23899">
        <ele>130.4</ele>
        <time>2022-07-26T08:21:37.000Z</time>
      </trkpt>
      <trkpt lat="46.69417" lon="2.23881">
        <ele>130.68</ele>
        <time>2022-07-26T08:21:42.000Z</time>
      </trkpt>
      <trkpt lat="46.69401" lon="2.23861">
        <ele>131.82</ele>
        <time>2022-07-26T08:21:46.357Z</time>
      </trkpt>
      <trkpt lat="46.69391" lon="2.23849">
        <ele>132.47</ele>
        <time>2022-07-26T08:21:51.000Z</time>
      </trkpt>
      <trkpt lat="46.69377" lon="2.2383">
        <ele>132.43</ele>
        <time>2022-07-26T08:21:56.000Z</time>
      </trkpt>
      <trkpt lat="46.69363" lon="2.23812">
        <ele>132.74</ele>
        <time>2022-07-26T08:22:01.000Z</time>
      </trkpt>
      <trkpt lat="46.69349" lon="2.23793">
        <ele>133.2</ele>
        <time>2022-07-26T08:22:06.000Z</time>
      </trkpt>
      <trkpt lat="46.69332" lon="2.23767">
        <ele>133.57</ele>
        <time>2022-07-26T08:22:12.000Z</time>
      </trkpt>
      <trkpt lat="46.69316" lon="2.2374">
        <ele>133.58</ele>
        <time>2022-07-26T08:22:16.435Z</time>
      </trkpt>
      <trkpt lat="46.69303" lon="2.23718">
        <ele>133.53</ele>
        <time>2022-07-26T08:22:21.197Z</time>
      </trkpt>
      <trkpt lat="46.6929" lon="2.23697">
        <ele>133.27</ele>
        <time>2022-07-26T08:22:25.705Z</time>
      </trkpt>
      <trkpt lat="46.69283" lon="2.23683">
        <ele>133.47</ele>
        <time>2022-07-26T08:22:30.000Z</time>
      </trkpt>
      <trkpt lat="46.69267" lon="2.23657">
        <ele>133.8</ele>
        <time>2022-07-26T08:22:34.192Z</time>
      </trkpt>
      <trkpt lat="46.69254" lon="2.23637">
        <ele>133.48</ele>
        <time>2022-07-26T08:22:38.460Z</time>
      </trkpt>
      <trkpt lat="46.69243" lon="2.2362">
        <ele>133.66</ele>
        <time>2022-07-26T08:22:43.000Z</time>
      </trkpt>
      <trkpt lat="46.69228" lon="2.23601">
        <ele>133.06</ele>
        <time>2022-07-26T08:22:47.185Z</time>
      </trkpt>
      <trkpt lat="46.69215" lon="2.23586">
        <ele>131.15</ele>
        <time>2022-07-26T08:22:51.201Z</time>
      </trkpt>
      <trkpt lat="46.69202" lon="2.23571">
        <ele>130.85</ele>
        <time>2022-07-26T08:22:55.358Z</time>
      </trkpt>
      <trkpt lat="46.69192" lon="2.23559">
        <ele>132.57</ele>
        <time>2022-07-26T08:23:00.000Z</time>
      </trkpt>
      <trkpt lat="46.69175" lon="2.23542">
        <ele>133.72</ele>
        <time>2022-07-26T08:23:06.000Z</time>
      </trkpt>
      <trkpt lat="46.69161" lon="2.23525">
        <ele>134.75</ele>
        <time>2022-07-26T08:23:10.076Z</time>
      </trkpt>
      <trkpt lat="46.69149" lon="2.23511">
        <ele>135.5</ele>
        <time>2022-07-26T08:23:14.595Z</time>
      </trkpt>
      <trkpt lat="46.69138" lon="2.23499">
        <ele>136.6</ele>
        <time>2022-07-26T08:23:20.000Z</time>
      </trkpt>
      <trkpt lat="46.69119" lon="2.23486">
        <ele>137.47</ele>
        <time>2022-07-26T08:23:24.521Z</time>
      </trkpt>
      <trkpt lat="46.69107" lon="2.23478">
        <ele>137.59</ele>
        <time>2022-07-26T08:23:30.000Z</time>
      </trkpt>
      <trkpt lat="46.69088" lon="2.23466">
        <ele>137.93</ele>
        <time>2022-07-26T08:23:36.000Z</time>
      </trkpt>
      <trkpt lat="46.69072" lon="2.23456">
        <ele>138.07</ele>
        <time>2022-07-26T08:23:41.000Z</time>
      </trkpt>
      <trkpt lat="46.69055" lon="2.23446">
        <ele>138</ele>
        <time>2022-07-26T08:23:46.000Z</time>
      </trkpt>
      <trkpt lat="46.69038" lon="2.23437">
        <ele>138.39</ele>
        <time>2022-07-26T08:23:51.000Z</time>
      </trkpt>
      <trkpt lat="46.69023" lon="2.23428">
        <ele>138.92</ele>
        <time>2022-07-26T08:23:56.000Z</time>
      </trkpt>
      <trkpt lat="46.69008" lon="2.23418">
        <ele>139.27</ele>
        <time>2022-07-26T08:24:01.000Z</time>
      </trkpt>
      <trkpt lat="46.68993" lon="2.2341">
        <ele>140.12</ele>
        <time>2022-07-26T08:24:06.000Z</time>
      </trkpt>
      <trkpt lat="46.68977" lon="2.23399">
        <ele>140.51</ele>
        <time>2022-07-26T08:24:10.061Z</time>
      </trkpt>
      <trkpt lat="46.68963" lon="2.23389">
        <ele>140.17</ele>
        <time>2022-07-26T08:24:14.338Z</time>
      </trkpt>
      <trkpt lat="46.68951" lon="2.23378">
        <ele>140.82</ele>
        <time>2022-07-26T08:24:18.376Z</time>
      </trkpt>
      <trkpt lat="46.68938" lon="2.23363">
        <ele>142.21</ele>
        <time>2022-07-26T08:24:24.000Z</time>
      </trkpt>
      <trkpt lat="46.68924" lon="2.23337">
        <ele>142.55</ele>
        <time>2022-07-26T08:24:29.000Z</time>
      </trkpt>
      <trkpt lat="46.68913" lon="2.23304">
        <ele>142.25</ele>
        <time>2022-07-26T08:24:34.000Z</time>
      </trkpt>
      <trkpt lat="46.6891" lon="2.23265">
        <ele>141.75</ele>
        <time>2022-07-26T08:24:39.000Z</time>
      </trkpt>
      <trkpt lat="46.68908" lon="2.23222">
        <ele>140.17</ele>
        <time>2022-07-26T08:24:44.000Z</time>
      </trkpt>
      <trkpt lat="46.68903" lon="2.23175">
        <ele>138.63</ele>
        <time>2022-07-26T08:24:49.000Z</time>
      </trkpt>
      <trkpt lat="46.68893" lon="2.23126">
        <ele>138.17</ele>
        <time>2022-07-26T08:24:54.000Z</time>
      </trkpt>
      <trkpt lat="46.68881" lon="2.23076">
        <ele>137.24</ele>
        <time>2022-07-26T08:24:59.000Z</time>
      </trkpt>
      <trkpt lat="46.68869" lon="2.23028">
        <ele>136.75</ele>
        <time>2022-07-26T08:25:04.000Z</time>
      </trkpt>
      <trkpt lat="46.6886" lon="2.22985">
        <ele>137.25</ele>
        <time>2022-07-26T08:25:09.000Z</time>
      </trkpt>
      <trkpt lat="46.6885" lon="2.22946">
        <ele>137.34</ele>
        <time>2022-07-26T08:25:14.000Z</time>
      </trkpt>
      <trkpt lat="46.68837" lon="2.22915">
        <ele>137.42</ele>
        <time>2022-07-26T08:25:19.000Z</time>
      </trkpt>
      <trkpt lat="46.68823" lon="2.22892">
        <ele>137.68</ele>
        <time>2022-07-26T08:25:24.000Z</time>
      </trkpt>
      <trkpt lat="46.68806" lon="2.22874">
        <ele>138.56</ele>
        <time>2022-07-26T08:25:28.411Z</time>
      </trkpt>
      <trkpt lat="46.6879" lon="2.22862">
        <ele>139.65</ele>
        <time>2022-07-26T08:25:34.000Z</time>
      </trkpt>
      <trkpt lat="46.68767" lon="2.22845">
        <ele>139.3</ele>
        <time>2022-07-26T08:25:40.000Z</time>
      </trkpt>
      <trkpt lat="46.68746" lon="2.22829">
        <ele>139.1</ele>
        <time>2022-07-26T08:25:44.548Z</time>
      </trkpt>
      <trkpt lat="46.68733" lon="2.22819">
        <ele>139.34</ele>
        <time>2022-07-26T08:25:49.000Z</time>
      </trkpt>
      <trkpt lat="46.68713" lon="2.22802">
        <ele>139.59</ele>
        <time>2022-07-26T08:25:53.562Z</time>
      </trkpt>
      <trkpt lat="46.68703" lon="2.22789">
        <ele>139.08</ele>
        <time>2022-07-26T08:25:58.000Z</time>
      </trkpt>
      <trkpt lat="46.68686" lon="2.22768">
        <ele>139.49</ele>
        <time>2022-07-26T08:26:03.000Z</time>
      </trkpt>
      <trkpt lat="46.68676" lon="2.22754">
        <ele>138.2</ele>
        <time>2022-07-26T08:26:09.000Z</time>
      </trkpt>
      <trkpt lat="46.68681" lon="2.22769">
        <ele>138.4</ele>
        <time>2022-07-26T08:26:41.000Z</time>
      </trkpt>
      <trkpt lat="46.68694" lon="2.22786">
        <ele>139.24</ele>
        <time>2022-07-26T08:26:47.000Z</time>
      </trkpt>
      <trkpt lat="46.68711" lon="2.22805">
        <ele>139.03</ele>
        <time>2022-07-26T08:26:51.583Z</time>
      </trkpt>
      <trkpt lat="46.68727" lon="2.22819">
        <ele>139.3</ele>
        <time>2022-07-26T08:26:58.000Z</time>
      </trkpt>
      <trkpt lat="46.68739" lon="2.2283">
        <ele>139.67</ele>
        <time>2022-07-26T08:27:04.000Z</time>
      </trkpt>
      <trkpt lat="46.68751" lon="2.22838">
        <ele>139.72</ele>
        <time>2022-07-26T08:29:54.817Z</time>
      </trkpt>
      <trkpt lat="46.68765" lon="2.22847">
        <ele>139.05</ele>
        <time>2022-07-26T08:29:59.519Z</time>
      </trkpt>
      <trkpt lat="46.68775" lon="2.22853">
        <ele>138.11</ele>
        <time>2022-07-26T08:30:04.000Z</time>
      </trkpt>
      <trkpt lat="46.68797" lon="2.22871">
        <ele>135.97</ele>
        <time>2022-07-26T08:30:09.000Z</time>
      </trkpt>
      <trkpt lat="46.68819" lon="2.22895">
        <ele>134.34</ele>
        <time>2022-07-26T08:30:14.000Z</time>
      </trkpt>
      <trkpt lat="46.6884" lon="2.2293">
        <ele>132.81</ele>
        <time>2022-07-26T08:30:19.000Z</time>
      </trkpt>
      <trkpt lat="46.68854" lon="2.22975">
        <ele>133.39</ele>
        <time>2022-07-26T08:30:24.000Z</time>
      </trkpt>
      <trkpt lat="46.68864" lon="2.23019">
        <ele>134.03</ele>
        <time>2022-07-26T08:30:29.000Z</time>
      </trkpt>
      <trkpt lat="46.68876" lon="2.23063">
        <ele>136.64</ele>
        <time>2022-07-26T08:30:34.000Z</time>
      </trkpt>
      <trkpt lat="46.68886" lon="2.23105">
        <ele>136.95</ele>
        <time>2022-07-26T08:30:39.000Z</time>
      </trkpt>
      <trkpt lat="46.68893" lon="2.23135">
        <ele>137.34</ele>
        <time>2022-07-26T08:30:44.000Z</time>
      </trkpt>
      <trkpt lat="46.68898" lon="2.23161">
        <ele>138.14</ele>
        <time>2022-07-26T08:30:49.000Z</time>
      </trkpt>
      <trkpt lat="46.68901" lon="2.23181">
        <ele>137.92</ele>
        <time>2022-07-26T08:30:54.000Z</time>
      </trkpt>
      <trkpt lat="46.68903" lon="2.23206">
        <ele>137.8</ele>
        <time>2022-07-26T08:30:59.000Z</time>
      </trkpt>
      <trkpt lat="46.68905" lon="2.23232">
        <ele>137.68</ele>
        <time>2022-07-26T08:31:05.000Z</time>
      </trkpt>
      <trkpt lat="46.68906" lon="2.23259">
        <ele>137.37</ele>
        <time>2022-07-26T08:31:11.000Z</time>
      </trkpt>
      <trkpt lat="46.68908" lon="2.23284">
        <ele>136.97</ele>
        <time>2022-07-26T08:31:15.179Z</time>
      </trkpt>
      <trkpt lat="46.6891" lon="2.23302">
        <ele>136.82</ele>
        <time>2022-07-26T08:31:19.377Z</time>
      </trkpt>
      <trkpt lat="46.68913" lon="2.23321">
        <ele>136.46</ele>
        <time>2022-07-26T08:31:23.544Z</time>
      </trkpt>
      <trkpt lat="46.68918" lon="2.23333">
        <ele>136.99</ele>
        <time>2022-07-26T08:31:28.000Z</time>
      </trkpt>
      <trkpt lat="46.68928" lon="2.23351">
        <ele>137.35</ele>
        <time>2022-07-26T08:31:33.000Z</time>
      </trkpt>
      <trkpt lat="46.68941" lon="2.2337">
        <ele>140.75</ele>
        <time>2022-07-26T08:31:37.224Z</time>
      </trkpt>
      <trkpt lat="46.68948" lon="2.23383">
        <ele>140.78</ele>
        <time>2022-07-26T08:31:43.000Z</time>
      </trkpt>
      <trkpt lat="46.68962" lon="2.23394">
        <ele>139.35</ele>
        <time>2022-07-26T08:31:48.000Z</time>
      </trkpt>
      <trkpt lat="46.68981" lon="2.23407">
        <ele>138.72</ele>
        <time>2022-07-26T08:31:53.000Z</time>
      </trkpt>
      <trkpt lat="46.69003" lon="2.23418">
        <ele>138.2</ele>
        <time>2022-07-26T08:31:58.000Z</time>
      </trkpt>
      <trkpt lat="46.69027" lon="2.23433">
        <ele>137.66</ele>
        <time>2022-07-26T08:32:03.000Z</time>
      </trkpt>
      <trkpt lat="46.69056" lon="2.23451">
        <ele>137.47</ele>
        <time>2022-07-26T08:32:08.000Z</time>
      </trkpt>
      <trkpt lat="46.6909" lon="2.2347">
        <ele>136.46</ele>
        <time>2022-07-26T08:32:13.000Z</time>
      </trkpt>
      <trkpt lat="46.69124" lon="2.23494">
        <ele>134.19</ele>
        <time>2022-07-26T08:32:18.000Z</time>
      </trkpt>
      <trkpt lat="46.69157" lon="2.23526">
        <ele>133.41</ele>
        <time>2022-07-26T08:32:23.000Z</time>
      </trkpt>
      <trkpt lat="46.69188" lon="2.23561">
        <ele>134.09</ele>
        <time>2022-07-26T08:32:28.000Z</time>
      </trkpt>
      <trkpt lat="46.6922" lon="2.23597">
        <ele>133.83</ele>
        <time>2022-07-26T08:32:33.000Z</time>
      </trkpt>
      <trkpt lat="46.69251" lon="2.23638">
        <ele>133.1</ele>
        <time>2022-07-26T08:32:38.000Z</time>
      </trkpt>
      <trkpt lat="46.69279" lon="2.23682">
        <ele>132.55</ele>
        <time>2022-07-26T08:32:43.000Z</time>
      </trkpt>
      <trkpt lat="46.69305" lon="2.23727">
        <ele>131.42</ele>
        <time>2022-07-26T08:32:48.000Z</time>
      </trkpt>
      <trkpt lat="46.6933" lon="2.2377">
        <ele>130.73</ele>
        <time>2022-07-26T08:32:53.000Z</time>
      </trkpt>
      <trkpt lat="46.69356" lon="2.23809">
        <ele>130.68</ele>
        <time>2022-07-26T08:32:58.000Z</time>
      </trkpt>
      <trkpt lat="46.69385" lon="2.23846">
        <ele>130.15</ele>
        <time>2022-07-26T08:33:03.000Z</time>
      </trkpt>
      <trkpt lat="46.69414" lon="2.23884">
        <ele>129.57</ele>
        <time>2022-07-26T08:33:08.000Z</time>
      </trkpt>
      <trkpt lat="46.69445" lon="2.23924">
        <ele>128.64</ele>
        <time>2022-07-26T08:33:13.000Z</time>
      </trkpt>
      <trkpt lat="46.69476" lon="2.23968">
        <ele>127.92</ele>
        <time>2022-07-26T08:33:18.000Z</time>
      </trkpt>
      <trkpt lat="46.69502" lon="2.24007">
        <ele>127.26</ele>
        <time>2022-07-26T08:33:23.000Z</time>
      </trkpt>
      <trkpt lat="46.69528" lon="2.24048">
        <ele>126.1</ele>
        <time>2022-07-26T08:33:28.000Z</time>
      </trkpt>
      <trkpt lat="46.69556" lon="2.24089">
        <ele>124.77</ele>
        <time>2022-07-26T08:33:33.000Z</time>
      </trkpt>
      <trkpt lat="46.69583" lon="2.24128">
        <ele>123.38</ele>
        <time>2022-07-26T08:33:38.000Z</time>
      </trkpt>
      <trkpt lat="46.6961" lon="2.24166">
        <ele>122.72</ele>
        <time>2022-07-26T08:33:43.000Z</time>
      </trkpt>
      <trkpt lat="46.69637" lon="2.24205">
        <ele>122.14</ele>
        <time>2022-07-26T08:33:48.000Z</time>
      </trkpt>
      <trkpt lat="46.6966" lon="2.24241">
        <ele>121.17</ele>
        <time>2022-07-26T08:33:53.000Z</time>
      </trkpt>
      <trkpt lat="46.69663" lon="2.24254">
        <ele>121.78</ele>
        <time>2022-07-26T08:34:27.000Z</time>
      </trkpt>
      <trkpt lat="46.69676" lon="2.24257">
        <ele>123.03</ele>
        <time>2022-07-26T08:34:32.000Z</time>
      </trkpt>
      <trkpt lat="46.69696" lon="2.24258">
        <ele>123.35</ele>
        <time>2022-07-26T08:34:37.000Z</time>
      </trkpt>
      <trkpt lat="46.69721" lon="2.24259">
        <ele>124.42</ele>
        <time>2022-07-26T08:34:42.000Z</time>
      </trkpt>
      <trkpt lat="46.69747" lon="2.2426">
        <ele>125</ele>
        <time>2022-07-26T08:34:47.000Z</time>
      </trkpt>
      <trkpt lat="46.69775" lon="2.24262">
        <ele>124.83</ele>
        <time>2022-07-26T08:34:52.000Z</time>
      </trkpt>
      <trkpt lat="46.69802" lon="2.24264">
        <ele>125.06</ele>
        <time>2022-07-26T08:34:57.000Z</time>
      </trkpt>
      <trkpt lat="46.69829" lon="2.24265">
        <ele>124.99</ele>
        <time>2022-07-26T08:35:02.000Z</time>
      </trkpt>
      <trkpt lat="46.69854" lon="2.24264">
        <ele>124.96</ele>
        <time>2022-07-26T08:35:07.000Z</time>
      </trkpt>
      <trkpt lat="46.69878" lon="2.24266">
        <ele>124.16</ele>
        <time>2022-07-26T08:35:12.000Z</time>
      </trkpt>
      <trkpt lat="46.69904" lon="2.24267">
        <ele>123.37</ele>
        <time>2022-07-26T08:35:17.000Z</time>
      </trkpt>
      <trkpt lat="46.69931" lon="2.24267">
        <ele>125.07</ele>
        <time>2022-07-26T08:35:22.000Z</time>
      </trkpt>
      <trkpt lat="46.69954" lon="2.24269">
        <ele>125.88</ele>
        <time>2022-07-26T08:35:27.000Z</time>
      </trkpt>
      <trkpt lat="46.69978" lon="2.2427">
        <ele>126.91</ele>
        <time>2022-07-26T08:35:32.000Z</time>
      </trkpt>
      <trkpt lat="46.70005" lon="2.24271">
        <ele>125.95</ele>
        <time>2022-07-26T08:35:37.000Z</time>
      </trkpt>
      <trkpt lat="46.70034" lon="2.24277">
        <ele>124.28</ele>
        <time>2022-07-26T08:35:42.000Z</time>
      </trkpt>
      <trkpt lat="46.70062" lon="2.24285">
        <ele>123.53</ele>
        <time>2022-07-26T08:35:47.000Z</time>
      </trkpt>
      <trkpt lat="46.7009" lon="2.24294">
        <ele>123.76</ele>
        <time>2022-07-26T08:35:52.000Z</time>
      </trkpt>
      <trkpt lat="46.70118" lon="2.24304">
        <ele>124.75</ele>
        <time>2022-07-26T08:35:57.000Z</time>
      </trkpt>
      <trkpt lat="46.70146" lon="2.24313">
        <ele>125.06</ele>
        <time>2022-07-26T08:36:02.000Z</time>
      </trkpt>
      <trkpt lat="46.70173" lon="2.24319">
        <ele>124.85</ele>
        <time>2022-07-26T08:36:07.000Z</time>
      </trkpt>
      <trkpt lat="46.70199" lon="2.24316">
        <ele>124.03</ele>
        <time>2022-07-26T08:36:12.000Z</time>
      </trkpt>
      <trkpt lat="46.70225" lon="2.24309">
        <ele>124.28</ele>
        <time>2022-07-26T08:36:17.000Z</time>
      </trkpt>
      <trkpt lat="46.70249" lon="2.243">
        <ele>124.87</ele>
        <time>2022-07-26T08:36:22.000Z</time>
      </trkpt>
      <trkpt lat="46.70271" lon="2.24291">
        <ele>125.19</ele>
        <time>2022-07-26T08:36:27.000Z</time>
      </trkpt>
      <trkpt lat="46.70289" lon="2.24284">
        <ele>125.44</ele>
        <time>2022-07-26T08:36:32.000Z</time>
      </trkpt>
      <trkpt lat="46.70307" lon="2.24272">
        <ele>126.59</ele>
        <time>2022-07-26T08:36:37.000Z</time>
      </trkpt>
      <trkpt lat="46.70329" lon="2.24268">
        <ele>127.56</ele>
        <time>2022-07-26T08:36:42.000Z</time>
      </trkpt>
      <trkpt lat="46.70351" lon="2.24259">
        <ele>127.57</ele>
        <time>2022-07-26T08:36:48.000Z</time>
      </trkpt>
      <trkpt lat="46.70368" lon="2.24253">
        <ele>127.37</ele>
        <time>2022-07-26T08:36:53.000Z</time>
      </trkpt>
      <trkpt lat="46.70386" lon="2.24245">
        <ele>127.19</ele>
        <time>2022-07-26T08:36:58.000Z</time>
      </trkpt>
      <trkpt lat="46.70402" lon="2.24238">
        <ele>127.4</ele>
        <time>2022-07-26T08:37:03.000Z</time>
      </trkpt>
      <trkpt lat="46.70419" lon="2.24232">
        <ele>126.9</ele>
        <time>2022-07-26T08:37:08.000Z</time>
      </trkpt>
      <trkpt lat="46.70439" lon="2.24225">
        <ele>126.18</ele>
        <time>2022-07-26T08:37:14.000Z</time>
      </trkpt>
      <trkpt lat="46.70455" lon="2.24217">
        <ele>126.99</ele>
        <time>2022-07-26T08:37:18.259Z</time>
      </trkpt>
      <trkpt lat="46.70465" lon="2.24209">
        <ele>127.76</ele>
        <time>2022-07-26T08:37:23.000Z</time>
      </trkpt>
      <trkpt lat="46.70479" lon="2.24196">
        <ele>128.59</ele>
        <time>2022-07-26T08:37:28.000Z</time>
      </trkpt>
      <trkpt lat="46.70492" lon="2.24181">
        <ele>129.2</ele>
        <time>2022-07-26T08:37:33.000Z</time>
      </trkpt>
      <trkpt lat="46.70504" lon="2.24169">
        <ele>129.64</ele>
        <time>2022-07-26T08:37:38.000Z</time>
      </trkpt>
      <trkpt lat="46.70515" lon="2.24158">
        <ele>130.43</ele>
        <time>2022-07-26T08:37:43.000Z</time>
      </trkpt>
      <trkpt lat="46.70528" lon="2.24145">
        <ele>131.51</ele>
        <time>2022-07-26T08:37:47.035Z</time>
      </trkpt>
      <trkpt lat="46.70536" lon="2.24135">
        <ele>131.3</ele>
        <time>2022-07-26T08:37:52.000Z</time>
      </trkpt>
      <trkpt lat="46.7055" lon="2.24125">
        <ele>130.74</ele>
        <time>2022-07-26T08:37:57.000Z</time>
      </trkpt>
      <trkpt lat="46.70564" lon="2.24116">
        <ele>131.52</ele>
        <time>2022-07-26T08:38:02.000Z</time>
      </trkpt>
      <trkpt lat="46.70581" lon="2.24109">
        <ele>132.35</ele>
        <time>2022-07-26T08:38:08.000Z</time>
      </trkpt>
      <trkpt lat="46.70597" lon="2.24106">
        <ele>132.06</ele>
        <time>2022-07-26T08:38:13.000Z</time>
      </trkpt>
      <trkpt lat="46.70616" lon="2.24107">
        <ele>133.82</ele>
        <time>2022-07-26T08:38:19.000Z</time>
      </trkpt>
      <trkpt lat="46.70632" lon="2.2411">
        <ele>135.3</ele>
        <time>2022-07-26T08:38:24.000Z</time>
      </trkpt>
      <trkpt lat="46.70648" lon="2.24114">
        <ele>137.35</ele>
        <time>2022-07-26T08:38:29.000Z</time>
      </trkpt>
      <trkpt lat="46.70665" lon="2.24115">
        <ele>137.63</ele>
        <time>2022-07-26T08:38:34.000Z</time>
      </trkpt>
      <trkpt lat="46.70685" lon="2.24119">
        <ele>138.52</ele>
        <time>2022-07-26T08:38:40.000Z</time>
      </trkpt>
      <trkpt lat="46.70703" lon="2.2412">
        <ele>137.91</ele>
        <time>2022-07-26T08:38:46.000Z</time>
      </trkpt>
      <trkpt lat="46.70714" lon="2.24114">
        <ele>137.67</ele>
        <time>2022-07-26T08:38:51.000Z</time>
      </trkpt>
      <trkpt lat="46.7072" lon="2.2409">
        <ele>139.08</ele>
        <time>2022-07-26T08:38:55.315Z</time>
      </trkpt>
      <trkpt lat="46.70723" lon="2.24077">
        <ele>139.82</ele>
        <time>2022-07-26T08:39:00.000Z</time>
      </trkpt>
      <trkpt lat="46.70727" lon="2.24058">
        <ele>141.48</ele>
        <time>2022-07-26T08:39:05.000Z</time>
      </trkpt>
      <trkpt lat="46.70729" lon="2.24039">
        <ele>141.26</ele>
        <time>2022-07-26T08:39:10.000Z</time>
      </trkpt>
      <trkpt lat="46.70733" lon="2.2402">
        <ele>143.34</ele>
        <time>2022-07-26T08:39:15.000Z</time>
      </trkpt>
      <trkpt lat="46.70736" lon="2.24003">
        <ele>144.47</ele>
        <time>2022-07-26T08:39:20.000Z</time>
      </trkpt>
      <trkpt lat="46.70741" lon="2.23987">
        <ele>144.08</ele>
        <time>2022-07-26T08:39:25.000Z</time>
      </trkpt>
      <trkpt lat="46.70747" lon="2.23967">
        <ele>144.97</ele>
        <time>2022-07-26T08:39:30.000Z</time>
      </trkpt>
      <trkpt lat="46.70752" lon="2.23948">
        <ele>146</ele>
        <time>2022-07-26T08:39:35.000Z</time>
      </trkpt>
      <trkpt lat="46.70758" lon="2.23932">
        <ele>147.29</ele>
        <time>2022-07-26T08:39:40.000Z</time>
      </trkpt>
      <trkpt lat="46.70763" lon="2.23913">
        <ele>147.58</ele>
        <time>2022-07-26T08:39:45.000Z</time>
      </trkpt>
      <trkpt lat="46.70766" lon="2.23894">
        <ele>148.16</ele>
        <time>2022-07-26T08:39:50.000Z</time>
      </trkpt>
      <trkpt lat="46.70767" lon="2.23875">
        <ele>147.96</ele>
        <time>2022-07-26T08:39:55.000Z</time>
      </trkpt>
      <trkpt lat="46.70768" lon="2.23857">
        <ele>147.09</ele>
        <time>2022-07-26T08:40:00.000Z</time>
      </trkpt>
      <trkpt lat="46.70768" lon="2.23836">
        <ele>145.22</ele>
        <time>2022-07-26T08:40:05.000Z</time>
      </trkpt>
      <trkpt lat="46.70769" lon="2.23811">
        <ele>145</ele>
        <time>2022-07-26T08:40:11.000Z</time>
      </trkpt>
      <trkpt lat="46.70769" lon="2.23792">
        <ele>144.65</ele>
        <time>2022-07-26T08:40:16.000Z</time>
      </trkpt>
      <trkpt lat="46.70768" lon="2.23771">
        <ele>144.09</ele>
        <time>2022-07-26T08:40:21.000Z</time>
      </trkpt>
      <trkpt lat="46.70769" lon="2.23744">
        <ele>144.33</ele>
        <time>2022-07-26T08:40:27.000Z</time>
      </trkpt>
      <trkpt lat="46.70772" lon="2.23723">
        <ele>146</ele>
        <time>2022-07-26T08:40:32.000Z</time>
      </trkpt>
      <trkpt lat="46.70778" lon="2.23704">
        <ele>146.39</ele>
        <time>2022-07-26T08:40:37.000Z</time>
      </trkpt>
      <trkpt lat="46.70785" lon="2.23687">
        <ele>146.37</ele>
        <time>2022-07-26T08:40:42.000Z</time>
      </trkpt>
      <trkpt lat="46.70792" lon="2.23664">
        <ele>145.95</ele>
        <time>2022-07-26T08:40:48.000Z</time>
      </trkpt>
      <trkpt lat="46.70798" lon="2.23647">
        <ele>145.97</ele>
        <time>2022-07-26T08:40:52.023Z</time>
      </trkpt>
      <trkpt lat="46.708" lon="2.2363">
        <ele>146.26</ele>
        <time>2022-07-26T08:40:58.000Z</time>
      </trkpt>
      <trkpt lat="46.70803" lon="2.23607">
        <ele>146.79</ele>
        <time>2022-07-26T08:41:04.000Z</time>
      </trkpt>
      <trkpt lat="46.70805" lon="2.2359">
        <ele>147.71</ele>
        <time>2022-07-26T08:41:09.000Z</time>
      </trkpt>
      <trkpt lat="46.70806" lon="2.2357">
        <ele>149.03</ele>
        <time>2022-07-26T08:41:14.000Z</time>
      </trkpt>
      <trkpt lat="46.70808" lon="2.23551">
        <ele>149.55</ele>
        <time>2022-07-26T08:41:19.000Z</time>
      </trkpt>
      <trkpt lat="46.7081" lon="2.23531">
        <ele>150</ele>
        <time>2022-07-26T08:41:25.000Z</time>
      </trkpt>
      <trkpt lat="46.70812" lon="2.23514">
        <ele>151.05</ele>
        <time>2022-07-26T08:41:31.000Z</time>
      </trkpt>
      <trkpt lat="46.70812" lon="2.23497">
        <ele>152.5</ele>
        <time>2022-07-26T08:41:36.000Z</time>
      </trkpt>
      <trkpt lat="46.70815" lon="2.23481">
        <ele>153.08</ele>
        <time>2022-07-26T08:41:40.615Z</time>
      </trkpt>
      <trkpt lat="46.70817" lon="2.23465">
        <ele>153.11</ele>
        <time>2022-07-26T08:41:45.458Z</time>
      </trkpt>
      <trkpt lat="46.70821" lon="2.23449">
        <ele>153.5</ele>
        <time>2022-07-26T08:41:49.695Z</time>
      </trkpt>
      <trkpt lat="46.70823" lon="2.23436">
        <ele>153.31</ele>
        <time>2022-07-26T08:41:55.000Z</time>
      </trkpt>
      <trkpt lat="46.70828" lon="2.23424">
        <ele>154.51</ele>
        <time>2022-07-26T08:42:00.000Z</time>
      </trkpt>
      <trkpt lat="46.70833" lon="2.23409">
        <ele>155.14</ele>
        <time>2022-07-26T08:42:06.000Z</time>
      </trkpt>
      <trkpt lat="46.70839" lon="2.23397">
        <ele>154.84</ele>
        <time>2022-07-26T08:42:11.000Z</time>
      </trkpt>
      <trkpt lat="46.70844" lon="2.23385">
        <ele>155.43</ele>
        <time>2022-07-26T08:42:16.000Z</time>
      </trkpt>
      <trkpt lat="46.7085" lon="2.23373">
        <ele>156.73</ele>
        <time>2022-07-26T08:42:21.000Z</time>
      </trkpt>
      <trkpt lat="46.70856" lon="2.23363">
        <ele>158.44</ele>
        <time>2022-07-26T08:42:26.000Z</time>
      </trkpt>
      <trkpt lat="46.70862" lon="2.2335">
        <ele>159.37</ele>
        <time>2022-07-26T08:42:32.000Z</time>
      </trkpt>
      <trkpt lat="46.70869" lon="2.23338">
        <ele>160.09</ele>
        <time>2022-07-26T08:42:38.000Z</time>
      </trkpt>
      <trkpt lat="46.70875" lon="2.23326">
        <ele>160.95</ele>
        <time>2022-07-26T08:42:44.000Z</time>
      </trkpt>
      <trkpt lat="46.70881" lon="2.23316">
        <ele>161.5</ele>
        <time>2022-07-26T08:42:49.000Z</time>
      </trkpt>
      <trkpt lat="46.70887" lon="2.23304">
        <ele>162.35</ele>
        <time>2022-07-26T08:42:55.000Z</time>
      </trkpt>
      <trkpt lat="46.70894" lon="2.23291">
        <ele>163.18</ele>
        <time>2022-07-26T08:43:01.000Z</time>
      </trkpt>
      <trkpt lat="46.709" lon="2.23279">
        <ele>163.78</ele>
        <time>2022-07-26T08:43:07.000Z</time>
      </trkpt>
      <trkpt lat="46.70906" lon="2.23269">
        <ele>164.75</ele>
        <time>2022-07-26T08:43:12.000Z</time>
      </trkpt>
      <trkpt lat="46.70912" lon="2.23257">
        <ele>165.92</ele>
        <time>2022-07-26T08:43:18.000Z</time>
      </trkpt>
      <trkpt lat="46.70919" lon="2.23245">
        <ele>166.1</ele>
        <time>2022-07-26T08:43:24.000Z</time>
      </trkpt>
      <trkpt lat="46.70925" lon="2.23232">
        <ele>167.14</ele>
        <time>2022-07-26T08:43:30.000Z</time>
      </trkpt>
      <trkpt lat="46.70932" lon="2.2322">
        <ele>168.51</ele>
        <time>2022-07-26T08:43:36.000Z</time>
      </trkpt>
      <trkpt lat="46.70938" lon="2.23207">
        <ele>169.26</ele>
        <time>2022-07-26T08:43:42.000Z</time>
      </trkpt>
      <trkpt lat="46.70943" lon="2.23194">
        <ele>170.05</ele>
        <time>2022-07-26T08:43:48.000Z</time>
      </trkpt>
      <trkpt lat="46.70947" lon="2.23179">
        <ele>170.48</ele>
        <time>2022-07-26T08:43:54.000Z</time>
      </trkpt>
      <trkpt lat="46.70949" lon="2.23165">
        <ele>171.6</ele>
        <time>2022-07-26T08:43:59.000Z</time>
      </trkpt>
      <trkpt lat="46.70951" lon="2.23151">
        <ele>172.55</ele>
        <time>2022-07-26T08:44:04.000Z</time>
      </trkpt>
      <trkpt lat="46.70953" lon="2.23137">
        <ele>173.06</ele>
        <time>2022-07-26T08:44:09.000Z</time>
      </trkpt>
      <trkpt lat="46.70955" lon="2.23123">
        <ele>172.63</ele>
        <time>2022-07-26T08:44:14.000Z</time>
      </trkpt>
      <trkpt lat="46.70956" lon="2.23108">
        <ele>172.28</ele>
        <time>2022-07-26T08:44:19.000Z</time>
      </trkpt>
      <trkpt lat="46.70957" lon="2.2309">
        <ele>173.5</ele>
        <time>2022-07-26T08:44:24.000Z</time>
      </trkpt>
      <trkpt lat="46.70957" lon="2.23071">
        <ele>174.45</ele>
        <time>2022-07-26T08:44:29.000Z</time>
      </trkpt>
      <trkpt lat="46.70957" lon="2.23052">
        <ele>173.9</ele>
        <time>2022-07-26T08:44:34.000Z</time>
      </trkpt>
      <trkpt lat="46.70956" lon="2.23032">
        <ele>174.6</ele>
        <time>2022-07-26T08:44:39.000Z</time>
      </trkpt>
      <trkpt lat="46.70955" lon="2.23009">
        <ele>175.5</ele>
        <time>2022-07-26T08:44:44.000Z</time>
      </trkpt>
      <trkpt lat="46.70953" lon="2.22985">
        <ele>175.5</ele>
        <time>2022-07-26T08:44:49.000Z</time>
      </trkpt>
      <trkpt lat="46.70953" lon="2.22961">
        <ele>175.57</ele>
        <time>2022-07-26T08:44:54.000Z</time>
      </trkpt>
      <trkpt lat="46.70954" lon="2.22934">
        <ele>175.24</ele>
        <time>2022-07-26T08:44:59.000Z</time>
      </trkpt>
      <trkpt lat="46.70961" lon="2.22906">
        <ele>174.68</ele>
        <time>2022-07-26T08:45:04.000Z</time>
      </trkpt>
      <trkpt lat="46.70971" lon="2.22874">
        <ele>174.22</ele>
        <time>2022-07-26T08:45:10.000Z</time>
      </trkpt>
      <trkpt lat="46.70977" lon="2.22851">
        <ele>173.34</ele>
        <time>2022-07-26T08:45:15.000Z</time>
      </trkpt>
      <trkpt lat="46.7098" lon="2.22833">
        <ele>173.3</ele>
        <time>2022-07-26T08:45:20.000Z</time>
      </trkpt>
      <trkpt lat="46.70981" lon="2.22806">
        <ele>175.59</ele>
        <time>2022-07-26T08:45:26.000Z</time>
      </trkpt>
      <trkpt lat="46.70983" lon="2.22792">
        <ele>174.55</ele>
        <time>2022-07-26T08:45:31.000Z</time>
      </trkpt>
      <trkpt lat="46.70986" lon="2.22775">
        <ele>172.7</ele>
        <time>2022-07-26T08:45:36.000Z</time>
      </trkpt>
      <trkpt lat="46.70987" lon="2.22758">
        <ele>175.61</ele>
        <time>2022-07-26T08:45:41.000Z</time>
      </trkpt>
      <trkpt lat="46.7099" lon="2.22741">
        <ele>178.29</ele>
        <time>2022-07-26T08:45:46.000Z</time>
      </trkpt>
      <trkpt lat="46.70993" lon="2.22723">
        <ele>179.42</ele>
        <time>2022-07-26T08:45:51.000Z</time>
      </trkpt>
      <trkpt lat="46.70996" lon="2.22708">
        <ele>179.67</ele>
        <time>2022-07-26T08:45:56.000Z</time>
      </trkpt>
      <trkpt lat="46.70999" lon="2.22693">
        <ele>180.34</ele>
        <time>2022-07-26T08:46:01.000Z</time>
      </trkpt>
      <trkpt lat="46.71002" lon="2.22676">
        <ele>179.09</ele>
        <time>2022-07-26T08:46:06.000Z</time>
      </trkpt>
      <trkpt lat="46.71005" lon="2.22658">
        <ele>177.89</ele>
        <time>2022-07-26T08:46:11.000Z</time>
      </trkpt>
      <trkpt lat="46.71008" lon="2.22644">
        <ele>176.98</ele>
        <time>2022-07-26T08:46:16.000Z</time>
      </trkpt>
      <trkpt lat="46.71011" lon="2.2263">
        <ele>176.96</ele>
        <time>2022-07-26T08:46:21.000Z</time>
      </trkpt>
      <trkpt lat="46.71014" lon="2.22615">
        <ele>178</ele>
        <time>2022-07-26T08:46:26.000Z</time>
      </trkpt>
      <trkpt lat="46.71018" lon="2.22601">
        <ele>179.37</ele>
        <time>2022-07-26T08:46:31.000Z</time>
      </trkpt>
      <trkpt lat="46.71021" lon="2.22587">
        <ele>180.9</ele>
        <time>2022-07-26T08:46:36.000Z</time>
      </trkpt>
      <trkpt lat="46.71026" lon="2.22573">
        <ele>181.69</ele>
        <time>2022-07-26T08:46:41.000Z</time>
      </trkpt>
      <trkpt lat="46.7103" lon="2.22561">
        <ele>182.4</ele>
        <time>2022-07-26T08:46:46.000Z</time>
      </trkpt>
      <trkpt lat="46.71035" lon="2.22549">
        <ele>183.19</ele>
        <time>2022-07-26T08:46:51.000Z</time>
      </trkpt>
      <trkpt lat="46.71039" lon="2.22535">
        <ele>183.8</ele>
        <time>2022-07-26T08:46:56.000Z</time>
      </trkpt>
      <trkpt lat="46.71044" lon="2.2252">
        <ele>184.85</ele>
        <time>2022-07-26T08:47:01.000Z</time>
      </trkpt>
      <trkpt lat="46.71051" lon="2.22502">
        <ele>184.8</ele>
        <time>2022-07-26T08:47:06.000Z</time>
      </trkpt>
      <trkpt lat="46.71059" lon="2.22482">
        <ele>183.47</ele>
        <time>2022-07-26T08:47:10.420Z</time>
      </trkpt>
      <trkpt lat="46.71065" lon="2.22463">
        <ele>182.95</ele>
        <time>2022-07-26T08:47:14.617Z</time>
      </trkpt>
      <trkpt lat="46.71077" lon="2.22443">
        <ele>177.95</ele>
        <time>2022-07-26T08:47:20.000Z</time>
      </trkpt>
      <trkpt lat="46.71084" lon="2.22424">
        <ele>176.87</ele>
        <time>2022-07-26T08:47:25.000Z</time>
      </trkpt>
      <trkpt lat="46.71095" lon="2.22403">
        <ele>179.05</ele>
        <time>2022-07-26T08:47:29.394Z</time>
      </trkpt>
      <trkpt lat="46.71104" lon="2.22389">
        <ele>180.39</ele>
        <time>2022-07-26T08:47:35.000Z</time>
      </trkpt>
      <trkpt lat="46.71114" lon="2.22363">
        <ele>182.87</ele>
        <time>2022-07-26T08:47:40.000Z</time>
      </trkpt>
      <trkpt lat="46.71121" lon="2.22327">
        <ele>183.31</ele>
        <time>2022-07-26T08:47:45.000Z</time>
      </trkpt>
      <trkpt lat="46.71128" lon="2.22287">
        <ele>181.75</ele>
        <time>2022-07-26T08:47:50.000Z</time>
      </trkpt>
      <trkpt lat="46.71135" lon="2.22247">
        <ele>180.69</ele>
        <time>2022-07-26T08:47:55.000Z</time>
      </trkpt>
      <trkpt lat="46.71141" lon="2.2221">
        <ele>178.59</ele>
        <time>2022-07-26T08:48:00.000Z</time>
      </trkpt>
      <trkpt lat="46.71147" lon="2.22175">
        <ele>176.42</ele>
        <time>2022-07-26T08:48:05.000Z</time>
      </trkpt>
      <trkpt lat="46.71153" lon="2.2214">
        <ele>175.88</ele>
        <time>2022-07-26T08:48:10.000Z</time>
      </trkpt>
      <trkpt lat="46.7116" lon="2.22102">
        <ele>176.13</ele>
        <time>2022-07-26T08:48:15.000Z</time>
      </trkpt>
      <trkpt lat="46.71166" lon="2.22063">
        <ele>175.89</ele>
        <time>2022-07-26T08:48:20.000Z</time>
      </trkpt>
      <trkpt lat="46.71171" lon="2.22025">
        <ele>176.96</ele>
        <time>2022-07-26T08:48:25.000Z</time>
      </trkpt>
      <trkpt lat="46.71173" lon="2.21989">
        <ele>179.25</ele>
        <time>2022-07-26T08:48:30.000Z</time>
      </trkpt>
      <trkpt lat="46.71174" lon="2.21954">
        <ele>179.65</ele>
        <time>2022-07-26T08:48:35.000Z</time>
      </trkpt>
      <trkpt lat="46.71175" lon="2.2192">
        <ele>179.61</ele>
        <time>2022-07-26T08:48:40.000Z</time>
      </trkpt>
      <trkpt lat="46.71177" lon="2.21885">
        <ele>179.57</ele>
        <time>2022-07-26T08:48:45.000Z</time>
      </trkpt>
      <trkpt lat="46.71178" lon="2.21849">
        <ele>179.16</ele>
        <time>2022-07-26T08:48:50.000Z</time>
      </trkpt>
      <trkpt lat="46.71179" lon="2.21813">
        <ele>178.23</ele>
        <time>2022-07-26T08:48:55.000Z</time>
      </trkpt>
      <trkpt lat="46.71182" lon="2.21775">
        <ele>178.62</ele>
        <time>2022-07-26T08:49:00.000Z</time>
      </trkpt>
      <trkpt lat="46.71184" lon="2.21738">
        <ele>178.23</ele>
        <time>2022-07-26T08:49:05.000Z</time>
      </trkpt>
      <trkpt lat="46.71186" lon="2.21703">
        <ele>177.1</ele>
        <time>2022-07-26T08:49:10.000Z</time>
      </trkpt>
      <trkpt lat="46.71189" lon="2.21668">
        <ele>176.23</ele>
        <time>2022-07-26T08:49:15.000Z</time>
      </trkpt>
      <trkpt lat="46.71192" lon="2.21633">
        <ele>175.38</ele>
        <time>2022-07-26T08:49:20.000Z</time>
      </trkpt>
      <trkpt lat="46.71194" lon="2.21598">
        <ele>175.04</ele>
        <time>2022-07-26T08:49:25.000Z</time>
      </trkpt>
      <trkpt lat="46.71197" lon="2.21565">
        <ele>174.89</ele>
        <time>2022-07-26T08:49:30.000Z</time>
      </trkpt>
      <trkpt lat="46.712" lon="2.2153">
        <ele>174.37</ele>
        <time>2022-07-26T08:49:35.000Z</time>
      </trkpt>
      <trkpt lat="46.71205" lon="2.21497">
        <ele>174.05</ele>
        <time>2022-07-26T08:49:40.000Z</time>
      </trkpt>
      <trkpt lat="46.71211" lon="2.21467">
        <ele>174.76</ele>
        <time>2022-07-26T08:49:45.000Z</time>
      </trkpt>
      <trkpt lat="46.71218" lon="2.21443">
        <ele>175.58</ele>
        <time>2022-07-26T08:49:50.000Z</time>
      </trkpt>
      <trkpt lat="46.71223" lon="2.21408">
        <ele>176.88</ele>
        <time>2022-07-26T08:49:55.000Z</time>
      </trkpt>
      <trkpt lat="46.7123" lon="2.21373">
        <ele>177.62</ele>
        <time>2022-07-26T08:50:01.000Z</time>
      </trkpt>
      <trkpt lat="46.71236" lon="2.21339">
        <ele>178.07</ele>
        <time>2022-07-26T08:50:07.000Z</time>
      </trkpt>
      <trkpt lat="46.71242" lon="2.21311">
        <ele>178.43</ele>
        <time>2022-07-26T08:50:12.000Z</time>
      </trkpt>
      <trkpt lat="46.71251" lon="2.21284">
        <ele>178.63</ele>
        <time>2022-07-26T08:50:17.000Z</time>
      </trkpt>
      <trkpt lat="46.71259" lon="2.21252">
        <ele>178.23</ele>
        <time>2022-07-26T08:50:21.101Z</time>
      </trkpt>
      <trkpt lat="46.71261" lon="2.21221">
        <ele>178.23</ele>
        <time>2022-07-26T08:50:27.000Z</time>
      </trkpt>
      <trkpt lat="46.71261" lon="2.21192">
        <ele>177.94</ele>
        <time>2022-07-26T08:50:32.000Z</time>
      </trkpt>
      <trkpt lat="46.71257" lon="2.21163">
        <ele>177.45</ele>
        <time>2022-07-26T08:50:37.000Z</time>
      </trkpt>
      <trkpt lat="46.71254" lon="2.21129">
        <ele>176.26</ele>
        <time>2022-07-26T08:50:42.000Z</time>
      </trkpt>
      <trkpt lat="46.71248" lon="2.211">
        <ele>174.83</ele>
        <time>2022-07-26T08:50:47.000Z</time>
      </trkpt>
      <trkpt lat="46.71246" lon="2.21068">
        <ele>174.04</ele>
        <time>2022-07-26T08:50:51.112Z</time>
      </trkpt>
      <trkpt lat="46.71248" lon="2.21045">
        <ele>174.63</ele>
        <time>2022-07-26T08:50:56.000Z</time>
      </trkpt>
      <trkpt lat="46.71256" lon="2.21011">
        <ele>174.5</ele>
        <time>2022-07-26T08:51:01.000Z</time>
      </trkpt>
      <trkpt lat="46.71266" lon="2.20982">
        <ele>174.21</ele>
        <time>2022-07-26T08:51:06.000Z</time>
      </trkpt>
      <trkpt lat="46.71274" lon="2.20952">
        <ele>174.01</ele>
        <time>2022-07-26T08:51:11.000Z</time>
      </trkpt>
      <trkpt lat="46.71289" lon="2.20917">
        <ele>172.94</ele>
        <time>2022-07-26T08:51:16.000Z</time>
      </trkpt>
      <trkpt lat="46.713" lon="2.20874">
        <ele>170.16</ele>
        <time>2022-07-26T08:51:21.000Z</time>
      </trkpt>
      <trkpt lat="46.7131" lon="2.20838">
        <ele>166.63</ele>
        <time>2022-07-26T08:51:26.000Z</time>
      </trkpt>
      <trkpt lat="46.7132" lon="2.20806">
        <ele>169.31</ele>
        <time>2022-07-26T08:51:31.000Z</time>
      </trkpt>
      <trkpt lat="46.71332" lon="2.20774">
        <ele>169.92</ele>
        <time>2022-07-26T08:51:36.000Z</time>
      </trkpt>
      <trkpt lat="46.71348" lon="2.20736">
        <ele>172.01</ele>
        <time>2022-07-26T08:51:41.000Z</time>
      </trkpt>
      <trkpt lat="46.71362" lon="2.207">
        <ele>172.58</ele>
        <time>2022-07-26T08:51:46.000Z</time>
      </trkpt>
      <trkpt lat="46.71372" lon="2.20662">
        <ele>172.87</ele>
        <time>2022-07-26T08:51:51.000Z</time>
      </trkpt>
      <trkpt lat="46.7138" lon="2.20628">
        <ele>173.04</ele>
        <time>2022-07-26T08:51:56.000Z</time>
      </trkpt>
      <trkpt lat="46.71388" lon="2.2059">
        <ele>172.34</ele>
        <time>2022-07-26T08:52:01.000Z</time>
      </trkpt>
      <trkpt lat="46.71395" lon="2.2055">
        <ele>171.83</ele>
        <time>2022-07-26T08:52:06.000Z</time>
      </trkpt>
      <trkpt lat="46.71401" lon="2.20512">
        <ele>170.76</ele>
        <time>2022-07-26T08:52:11.000Z</time>
      </trkpt>
      <trkpt lat="46.71407" lon="2.20475">
        <ele>169.87</ele>
        <time>2022-07-26T08:52:16.000Z</time>
      </trkpt>
      <trkpt lat="46.71413" lon="2.20437">
        <ele>169.41</ele>
        <time>2022-07-26T08:52:21.000Z</time>
      </trkpt>
      <trkpt lat="46.71419" lon="2.204">
        <ele>169.58</ele>
        <time>2022-07-26T08:52:26.000Z</time>
      </trkpt>
      <trkpt lat="46.71424" lon="2.20363">
        <ele>169.92</ele>
        <time>2022-07-26T08:52:31.000Z</time>
      </trkpt>
      <trkpt lat="46.71425" lon="2.20325">
        <ele>170.06</ele>
        <time>2022-07-26T08:52:36.000Z</time>
      </trkpt>
      <trkpt lat="46.71425" lon="2.20286">
        <ele>168.62</ele>
        <time>2022-07-26T08:52:41.000Z</time>
      </trkpt>
      <trkpt lat="46.71425" lon="2.20248">
        <ele>167.84</ele>
        <time>2022-07-26T08:52:46.000Z</time>
      </trkpt>
      <trkpt lat="46.71426" lon="2.20207">
        <ele>168.56</ele>
        <time>2022-07-26T08:52:51.000Z</time>
      </trkpt>
      <trkpt lat="46.71428" lon="2.20169">
        <ele>169.63</ele>
        <time>2022-07-26T08:52:56.000Z</time>
      </trkpt>
      <trkpt lat="46.71432" lon="2.2013">
        <ele>169.84</ele>
        <time>2022-07-26T08:53:01.000Z</time>
      </trkpt>
      <trkpt lat="46.71438" lon="2.20092">
        <ele>170.05</ele>
        <time>2022-07-26T08:53:06.000Z</time>
      </trkpt>
      <trkpt lat="46.71445" lon="2.20053">
        <ele>169.61</ele>
        <time>2022-07-26T08:53:11.000Z</time>
      </trkpt>
      <trkpt lat="46.71454" lon="2.20015">
        <ele>169.85</ele>
        <time>2022-07-26T08:53:16.000Z</time>
      </trkpt>
      <trkpt lat="46.71465" lon="2.19978">
        <ele>170.84</ele>
        <time>2022-07-26T08:53:21.000Z</time>
      </trkpt>
      <trkpt lat="46.71477" lon="2.19941">
        <ele>170.66</ele>
        <time>2022-07-26T08:53:26.000Z</time>
      </trkpt>
      <trkpt lat="46.71488" lon="2.19904">
        <ele>169.55</ele>
        <time>2022-07-26T08:53:31.000Z</time>
      </trkpt>
      <trkpt lat="46.71497" lon="2.19869">
        <ele>169.11</ele>
        <time>2022-07-26T08:53:36.000Z</time>
      </trkpt>
      <trkpt lat="46.71505" lon="2.19833">
        <ele>168.73</ele>
        <time>2022-07-26T08:53:41.000Z</time>
      </trkpt>
      <trkpt lat="46.71511" lon="2.19794">
        <ele>168.17</ele>
        <time>2022-07-26T08:53:46.000Z</time>
      </trkpt>
      <trkpt lat="46.71517" lon="2.19754">
        <ele>167.53</ele>
        <time>2022-07-26T08:53:51.000Z</time>
      </trkpt>
      <trkpt lat="46.71521" lon="2.19713">
        <ele>167.45</ele>
        <time>2022-07-26T08:53:56.000Z</time>
      </trkpt>
      <trkpt lat="46.71524" lon="2.19673">
        <ele>167.36</ele>
        <time>2022-07-26T08:54:01.000Z</time>
      </trkpt>
      <trkpt lat="46.71527" lon="2.19631">
        <ele>166.2</ele>
        <time>2022-07-26T08:54:06.000Z</time>
      </trkpt>
      <trkpt lat="46.71528" lon="2.19589">
        <ele>166.29</ele>
        <time>2022-07-26T08:54:11.000Z</time>
      </trkpt>
      <trkpt lat="46.71529" lon="2.19548">
        <ele>166.1</ele>
        <time>2022-07-26T08:54:16.000Z</time>
      </trkpt>
      <trkpt lat="46.71532" lon="2.19509">
        <ele>165.94</ele>
        <time>2022-07-26T08:54:21.000Z</time>
      </trkpt>
      <trkpt lat="46.71539" lon="2.1947">
        <ele>165.79</ele>
        <time>2022-07-26T08:54:26.000Z</time>
      </trkpt>
      <trkpt lat="46.71549" lon="2.19431">
        <ele>165.87</ele>
        <time>2022-07-26T08:54:31.000Z</time>
      </trkpt>
      <trkpt lat="46.71559" lon="2.19392">
        <ele>165.63</ele>
        <time>2022-07-26T08:54:36.000Z</time>
      </trkpt>
      <trkpt lat="46.71571" lon="2.19353">
        <ele>165.95</ele>
        <time>2022-07-26T08:54:41.000Z</time>
      </trkpt>
      <trkpt lat="46.71583" lon="2.19316">
        <ele>166.99</ele>
        <time>2022-07-26T08:54:46.000Z</time>
      </trkpt>
      <trkpt lat="46.71597" lon="2.1928">
        <ele>167.04</ele>
        <time>2022-07-26T08:54:51.000Z</time>
      </trkpt>
      <trkpt lat="46.7161" lon="2.19243">
        <ele>167.45</ele>
        <time>2022-07-26T08:54:56.000Z</time>
      </trkpt>
      <trkpt lat="46.71621" lon="2.19206">
        <ele>167.48</ele>
        <time>2022-07-26T08:55:01.000Z</time>
      </trkpt>
      <trkpt lat="46.71631" lon="2.19169">
        <ele>167.58</ele>
        <time>2022-07-26T08:55:06.000Z</time>
      </trkpt>
      <trkpt lat="46.71643" lon="2.1913">
        <ele>167.22</ele>
        <time>2022-07-26T08:55:11.000Z</time>
      </trkpt>
      <trkpt lat="46.71655" lon="2.19091">
        <ele>166.51</ele>
        <time>2022-07-26T08:55:16.000Z</time>
      </trkpt>
      <trkpt lat="46.71667" lon="2.19055">
        <ele>166.2</ele>
        <time>2022-07-26T08:55:21.000Z</time>
      </trkpt>
      <trkpt lat="46.7168" lon="2.1902">
        <ele>165.71</ele>
        <time>2022-07-26T08:55:26.000Z</time>
      </trkpt>
      <trkpt lat="46.71694" lon="2.18985">
        <ele>165.17</ele>
        <time>2022-07-26T08:55:31.000Z</time>
      </trkpt>
      <trkpt lat="46.71709" lon="2.1895">
        <ele>164.86</ele>
        <time>2022-07-26T08:55:36.000Z</time>
      </trkpt>
      <trkpt lat="46.71722" lon="2.18916">
        <ele>163.67</ele>
        <time>2022-07-26T08:55:41.000Z</time>
      </trkpt>
      <trkpt lat="46.71737" lon="2.18881">
        <ele>163.43</ele>
        <time>2022-07-26T08:55:46.000Z</time>
      </trkpt>
      <trkpt lat="46.71752" lon="2.18846">
        <ele>162.84</ele>
        <time>2022-07-26T08:55:51.000Z</time>
      </trkpt>
      <trkpt lat="46.71766" lon="2.18811">
        <ele>162.04</ele>
        <time>2022-07-26T08:55:56.000Z</time>
      </trkpt>
      <trkpt lat="46.71781" lon="2.18774">
        <ele>162.09</ele>
        <time>2022-07-26T08:56:01.000Z</time>
      </trkpt>
      <trkpt lat="46.71796" lon="2.18736">
        <ele>159.64</ele>
        <time>2022-07-26T08:56:06.000Z</time>
      </trkpt>
      <trkpt lat="46.71816" lon="2.18687">
        <ele>157.06</ele>
        <time>2022-07-26T08:56:11.000Z</time>
      </trkpt>
      <trkpt lat="46.71836" lon="2.18632">
        <ele>154.31</ele>
        <time>2022-07-26T08:56:16.000Z</time>
      </trkpt>
      <trkpt lat="46.71861" lon="2.18577">
        <ele>150.68</ele>
        <time>2022-07-26T08:56:21.000Z</time>
      </trkpt>
      <trkpt lat="46.71901" lon="2.18576">
        <ele>148.2</ele>
        <time>2022-07-26T08:56:26.000Z</time>
      </trkpt>
      <trkpt lat="46.71937" lon="2.18598">
        <ele>147.63</ele>
        <time>2022-07-26T08:56:31.000Z</time>
      </trkpt>
      <trkpt lat="46.71964" lon="2.18614">
        <ele>149.97</ele>
        <time>2022-07-26T08:56:36.000Z</time>
      </trkpt>
      <trkpt lat="46.71989" lon="2.18617">
        <ele>150.62</ele>
        <time>2022-07-26T08:56:41.000Z</time>
      </trkpt>
      <trkpt lat="46.72012" lon="2.18599">
        <ele>150</ele>
        <time>2022-07-26T08:56:46.000Z</time>
      </trkpt>
      <trkpt lat="46.72038" lon="2.18563">
        <ele>146.41</ele>
        <time>2022-07-26T08:56:51.000Z</time>
      </trkpt>
      <trkpt lat="46.72067" lon="2.18526">
        <ele>144.27</ele>
        <time>2022-07-26T08:56:56.000Z</time>
      </trkpt>
      <trkpt lat="46.72101" lon="2.18491">
        <ele>141.23</ele>
        <time>2022-07-26T08:57:01.000Z</time>
      </trkpt>
      <trkpt lat="46.72141" lon="2.18472">
        <ele>138.17</ele>
        <time>2022-07-26T08:57:06.000Z</time>
      </trkpt>
      <trkpt lat="46.72183" lon="2.1846">
        <ele>136.08</ele>
        <time>2022-07-26T08:57:11.000Z</time>
      </trkpt>
      <trkpt lat="46.72226" lon="2.18451">
        <ele>136.23</ele>
        <time>2022-07-26T08:57:16.000Z</time>
      </trkpt>
      <trkpt lat="46.72268" lon="2.18457">
        <ele>136.15</ele>
        <time>2022-07-26T08:57:21.000Z</time>
      </trkpt>
      <trkpt lat="46.72306" lon="2.18466">
        <ele>134.6</ele>
        <time>2022-07-26T08:57:26.000Z</time>
      </trkpt>
      <trkpt lat="46.72349" lon="2.18458">
        <ele>131.7</ele>
        <time>2022-07-26T08:57:31.000Z</time>
      </trkpt>
      <trkpt lat="46.72399" lon="2.18452">
        <ele>128.89</ele>
        <time>2022-07-26T08:57:36.000Z</time>
      </trkpt>
      <trkpt lat="46.72447" lon="2.18435">
        <ele>126.52</ele>
        <time>2022-07-26T08:57:41.000Z</time>
      </trkpt>
      <trkpt lat="46.7248" lon="2.18394">
        <ele>124.28</ele>
        <time>2022-07-26T08:57:46.000Z</time>
      </trkpt>
      <trkpt lat="46.72514" lon="2.18363">
        <ele>122.7</ele>
        <time>2022-07-26T08:57:51.000Z</time>
      </trkpt>
      <trkpt lat="46.72548" lon="2.18327">
        <ele>119.56</ele>
        <time>2022-07-26T08:57:56.000Z</time>
      </trkpt>
      <trkpt lat="46.72589" lon="2.18301">
        <ele>116.33</ele>
        <time>2022-07-26T08:58:01.000Z</time>
      </trkpt>
      <trkpt lat="46.72629" lon="2.18299">
        <ele>113.93</ele>
        <time>2022-07-26T08:58:06.000Z</time>
      </trkpt>
      <trkpt lat="46.72661" lon="2.18287">
        <ele>110.68</ele>
        <time>2022-07-26T08:58:11.000Z</time>
      </trkpt>
      <trkpt lat="46.72689" lon="2.18274">
        <ele>109.42</ele>
        <time>2022-07-26T08:58:16.000Z</time>
      </trkpt>
      <trkpt lat="46.72714" lon="2.18258">
        <ele>107.82</ele>
        <time>2022-07-26T08:58:21.000Z</time>
      </trkpt>
      <trkpt lat="46.72736" lon="2.18236">
        <ele>107.31</ele>
        <time>2022-07-26T08:58:26.000Z</time>
      </trkpt>
      <trkpt lat="46.72754" lon="2.18209">
        <ele>108.02</ele>
        <time>2022-07-26T08:58:31.000Z</time>
      </trkpt>
      <trkpt lat="46.72767" lon="2.18184">
        <ele>109.04</ele>
        <time>2022-07-26T08:58:36.000Z</time>
      </trkpt>
      <trkpt lat="46.72784" lon="2.18153">
        <ele>108.15</ele>
        <time>2022-07-26T08:58:41.000Z</time>
      </trkpt>
      <trkpt lat="46.72799" lon="2.1812">
        <ele>109.71</ele>
        <time>2022-07-26T08:58:46.000Z</time>
      </trkpt>
      <trkpt lat="46.72815" lon="2.18087">
        <ele>113.13</ele>
        <time>2022-07-26T08:58:51.000Z</time>
      </trkpt>
      <trkpt lat="46.72831" lon="2.18059">
        <ele>114.09</ele>
        <time>2022-07-26T08:58:56.000Z</time>
      </trkpt>
      <trkpt lat="46.72845" lon="2.18028">
        <ele>113.92</ele>
        <time>2022-07-26T08:59:01.000Z</time>
      </trkpt>
      <trkpt lat="46.72855" lon="2.18001">
        <ele>115.28</ele>
        <time>2022-07-26T08:59:06.000Z</time>
      </trkpt>
      <trkpt lat="46.72866" lon="2.17971">
        <ele>116.69</ele>
        <time>2022-07-26T08:59:11.000Z</time>
      </trkpt>
      <trkpt lat="46.7288" lon="2.17944">
        <ele>117.91</ele>
        <time>2022-07-26T08:59:16.000Z</time>
      </trkpt>
      <trkpt lat="46.72897" lon="2.17922">
        <ele>117.53</ele>
        <time>2022-07-26T08:59:21.000Z</time>
      </trkpt>
      <trkpt lat="46.72913" lon="2.17904">
        <ele>120.18</ele>
        <time>2022-07-26T08:59:26.000Z</time>
      </trkpt>
      <trkpt lat="46.7293" lon="2.17885">
        <ele>119.49</ele>
        <time>2022-07-26T08:59:30.435Z</time>
      </trkpt>
      <trkpt lat="46.72949" lon="2.17877">
        <ele>121.18</ele>
        <time>2022-07-26T08:59:34.461Z</time>
      </trkpt>
      <trkpt lat="46.72966" lon="2.1787">
        <ele>121.09</ele>
        <time>2022-07-26T08:59:40.000Z</time>
      </trkpt>
      <trkpt lat="46.72987" lon="2.17863">
        <ele>120.73</ele>
        <time>2022-07-26T08:59:45.000Z</time>
      </trkpt>
      <trkpt lat="46.73012" lon="2.17855">
        <ele>121.96</ele>
        <time>2022-07-26T08:59:49.178Z</time>
      </trkpt>
      <trkpt lat="46.73029" lon="2.17847">
        <ele>122.58</ele>
        <time>2022-07-26T08:59:53.538Z</time>
      </trkpt>
      <trkpt lat="46.73044" lon="2.1783">
        <ele>120.92</ele>
        <time>2022-07-26T08:59:58.002Z</time>
      </trkpt>
      <trkpt lat="46.73055" lon="2.17812">
        <ele>120.42</ele>
        <time>2022-07-26T09:00:03.000Z</time>
      </trkpt>
      <trkpt lat="46.73063" lon="2.17795">
        <ele>118.77</ele>
        <time>2022-07-26T09:00:08.000Z</time>
      </trkpt>
      <trkpt lat="46.7306" lon="2.1778">
        <ele>117.63</ele>
        <time>2022-07-26T09:00:14.000Z</time>
      </trkpt>
      <trkpt lat="46.73044" lon="2.17776">
        <ele>118.76</ele>
        <time>2022-07-26T09:00:25.432Z</time>
      </trkpt>
      <trkpt lat="46.73033" lon="2.17777">
        <ele>119.82</ele>
        <time>2022-07-26T09:00:30.000Z</time>
      </trkpt>
      <trkpt lat="46.73015" lon="2.17778">
        <ele>119.03</ele>
        <time>2022-07-26T09:00:35.000Z</time>
      </trkpt>
      <trkpt lat="46.72993" lon="2.17776">
        <ele>117.58</ele>
        <time>2022-07-26T09:00:40.000Z</time>
      </trkpt>
      <trkpt lat="46.72969" lon="2.17771">
        <ele>115.6</ele>
        <time>2022-07-26T09:00:45.000Z</time>
      </trkpt>
      <trkpt lat="46.72947" lon="2.17765">
        <ele>114.49</ele>
        <time>2022-07-26T09:00:49.060Z</time>
      </trkpt>
      <trkpt lat="46.72932" lon="2.17755">
        <ele>114.73</ele>
        <time>2022-07-26T09:00:54.000Z</time>
      </trkpt>
      <trkpt lat="46.72913" lon="2.17738">
        <ele>116.34</ele>
        <time>2022-07-26T09:00:59.000Z</time>
      </trkpt>
      <trkpt lat="46.729" lon="2.17722">
        <ele>116.61</ele>
        <time>2022-07-26T09:01:04.000Z</time>
      </trkpt>
      <trkpt lat="46.72884" lon="2.17704">
        <ele>116.1</ele>
        <time>2022-07-26T09:01:09.000Z</time>
      </trkpt>
      <trkpt lat="46.7287" lon="2.1769">
        <ele>119.45</ele>
        <time>2022-07-26T09:01:14.000Z</time>
      </trkpt>
      <trkpt lat="46.72857" lon="2.17678">
        <ele>122.13</ele>
        <time>2022-07-26T09:01:19.000Z</time>
      </trkpt>
      <trkpt lat="46.72848" lon="2.17666">
        <ele>124.11</ele>
        <time>2022-07-26T09:01:24.000Z</time>
      </trkpt>
      <trkpt lat="46.72839" lon="2.17655">
        <ele>123.53</ele>
        <time>2022-07-26T09:01:29.000Z</time>
      </trkpt>
      <trkpt lat="46.72831" lon="2.17646">
        <ele>123.51</ele>
        <time>2022-07-26T09:01:34.000Z</time>
      </trkpt>
      <trkpt lat="46.72821" lon="2.17635">
        <ele>124.4</ele>
        <time>2022-07-26T09:01:39.000Z</time>
      </trkpt>
      <trkpt lat="46.72814" lon="2.17626">
        <ele>123.14</ele>
        <time>2022-07-26T09:01:46.000Z</time>
      </trkpt>
      <trkpt lat="46.72808" lon="2.17615">
        <ele>122.07</ele>
        <time>2022-07-26T09:01:51.000Z</time>
      </trkpt>
      <trkpt lat="46.728" lon="2.17606">
        <ele>122.07</ele>
        <time>2022-07-26T09:01:56.000Z</time>
      </trkpt>
      <trkpt lat="46.72792" lon="2.17596">
        <ele>124.05</ele>
        <time>2022-07-26T09:02:01.000Z</time>
      </trkpt>
      <trkpt lat="46.72783" lon="2.17588">
        <ele>126.07</ele>
        <time>2022-07-26T09:02:06.000Z</time>
      </trkpt>
      <trkpt lat="46.72776" lon="2.17581">
        <ele>126.39</ele>
        <time>2022-07-26T09:02:11.000Z</time>
      </trkpt>
      <trkpt lat="46.72769" lon="2.17572">
        <ele>126.31</ele>
        <time>2022-07-26T09:02:16.000Z</time>
      </trkpt>
      <trkpt lat="46.72761" lon="2.17564">
        <ele>126.65</ele>
        <time>2022-07-26T09:02:21.000Z</time>
      </trkpt>
      <trkpt lat="46.72754" lon="2.17556">
        <ele>126.94</ele>
        <time>2022-07-26T09:02:26.000Z</time>
      </trkpt>
      <trkpt lat="46.72747" lon="2.17548">
        <ele>126.69</ele>
        <time>2022-07-26T09:02:31.000Z</time>
      </trkpt>
      <trkpt lat="46.72739" lon="2.17539">
        <ele>125.89</ele>
        <time>2022-07-26T09:02:36.000Z</time>
      </trkpt>
      <trkpt lat="46.72733" lon="2.17529">
        <ele>125.98</ele>
        <time>2022-07-26T09:02:41.000Z</time>
      </trkpt>
      <trkpt lat="46.72728" lon="2.17517">
        <ele>126.53</ele>
        <time>2022-07-26T09:02:46.000Z</time>
      </trkpt>
      <trkpt lat="46.72725" lon="2.17503">
        <ele>128.76</ele>
        <time>2022-07-26T09:02:52.000Z</time>
      </trkpt>
      <trkpt lat="46.72726" lon="2.17489">
        <ele>129.52</ele>
        <time>2022-07-26T09:02:57.000Z</time>
      </trkpt>
      <trkpt lat="46.72728" lon="2.17474">
        <ele>131.04</ele>
        <time>2022-07-26T09:03:03.000Z</time>
      </trkpt>
      <trkpt lat="46.72729" lon="2.1746">
        <ele>131.62</ele>
        <time>2022-07-26T09:03:09.000Z</time>
      </trkpt>
      <trkpt lat="46.72725" lon="2.17445">
        <ele>131.69</ele>
        <time>2022-07-26T09:03:15.000Z</time>
      </trkpt>
      <trkpt lat="46.7272" lon="2.17433">
        <ele>132.01</ele>
        <time>2022-07-26T09:03:21.000Z</time>
      </trkpt>
      <trkpt lat="46.72713" lon="2.17423">
        <ele>131.89</ele>
        <time>2022-07-26T09:03:27.000Z</time>
      </trkpt>
      <trkpt lat="46.72706" lon="2.17414">
        <ele>131.79</ele>
        <time>2022-07-26T09:03:32.000Z</time>
      </trkpt>
      <trkpt lat="46.72698" lon="2.17405">
        <ele>133.03</ele>
        <time>2022-07-26T09:03:38.000Z</time>
      </trkpt>
      <trkpt lat="46.72688" lon="2.17401">
        <ele>134.82</ele>
        <time>2022-07-26T09:03:44.000Z</time>
      </trkpt>
      <trkpt lat="46.72678" lon="2.17399">
        <ele>136.1</ele>
        <time>2022-07-26T09:03:50.000Z</time>
      </trkpt>
      <trkpt lat="46.7267" lon="2.17407">
        <ele>135.42</ele>
        <time>2022-07-26T09:03:57.000Z</time>
      </trkpt>
      <trkpt lat="46.72663" lon="2.17417">
        <ele>136.23</ele>
        <time>2022-07-26T09:04:03.000Z</time>
      </trkpt>
      <trkpt lat="46.72659" lon="2.17422">
        <ele>137.28</ele>
        <time>2022-07-26T09:04:25.000Z</time>
      </trkpt>
      <trkpt lat="46.72666" lon="2.1741">
        <ele>143.38</ele>
        <time>2022-07-26T09:22:07.000Z</time>
      </trkpt>
      <trkpt lat="46.72658" lon="2.17403">
        <ele>139.5</ele>
        <time>2022-07-26T09:22:20.000Z</time>
      </trkpt>
      <trkpt lat="46.72652" lon="2.17414">
        <ele>139.89</ele>
        <time>2022-07-26T09:22:39.000Z</time>
      </trkpt>
      <trkpt lat="46.72655" lon="2.17427">
        <ele>140.99</ele>
        <time>2022-07-26T09:22:52.000Z</time>
      </trkpt>
      <trkpt lat="46.72664" lon="2.17418">
        <ele>143.36</ele>
        <time>2022-07-26T09:37:23.000Z</time>
      </trkpt>
      <trkpt lat="46.72655" lon="2.17423">
        <ele>189.08</ele>
        <time>2022-07-26T10:03:50.000Z</time>
      </trkpt>
      <trkpt lat="46.72661" lon="2.17414">
        <ele>188.99</ele>
        <time>2022-07-26T10:10:24.000Z</time>
      </trkpt>
      <trkpt lat="46.72666" lon="2.17401">
        <ele>189.09</ele>
        <time>2022-07-26T10:11:03.000Z</time>
      </trkpt>
      <trkpt lat="46.72657" lon="2.17401">
        <ele>189.08</ele>
        <time>2022-07-26T10:11:08.000Z</time>
      </trkpt>
      <trkpt lat="46.72667" lon="2.17401">
        <ele>189.09</ele>
        <time>2022-07-26T10:11:22.000Z</time>
      </trkpt>
      <trkpt lat="46.72689" lon="2.17407">
        <ele>189.09</ele>
        <time>2022-07-26T10:11:27.000Z</time>
      </trkpt>
      <trkpt lat="46.72716" lon="2.17432">
        <ele>189.09</ele>
        <time>2022-07-26T10:11:32.000Z</time>
      </trkpt>
      <trkpt lat="46.72731" lon="2.17479">
        <ele>189.09</ele>
        <time>2022-07-26T10:11:37.000Z</time>
      </trkpt>
      <trkpt lat="46.72734" lon="2.17536">
        <ele>189.09</ele>
        <time>2022-07-26T10:11:42.000Z</time>
      </trkpt>
      <trkpt lat="46.72771" lon="2.1758">
        <ele>189.09</ele>
        <time>2022-07-26T10:11:47.000Z</time>
      </trkpt>
      <trkpt lat="46.72808" lon="2.17625">
        <ele>189.09</ele>
        <time>2022-07-26T10:11:52.000Z</time>
      </trkpt>
      <trkpt lat="46.72847" lon="2.17668">
        <ele>189.09</ele>
        <time>2022-07-26T10:11:57.000Z</time>
      </trkpt>
      <trkpt lat="46.72885" lon="2.1771">
        <ele>189.09</ele>
        <time>2022-07-26T10:12:02.000Z</time>
      </trkpt>
      <trkpt lat="46.7292" lon="2.1775">
        <ele>189.09</ele>
        <time>2022-07-26T10:12:07.000Z</time>
      </trkpt>
      <trkpt lat="46.72955" lon="2.17773">
        <ele>189.09</ele>
        <time>2022-07-26T10:12:12.000Z</time>
      </trkpt>
      <trkpt lat="46.72986" lon="2.1778">
        <ele>189.09</ele>
        <time>2022-07-26T10:12:17.000Z</time>
      </trkpt>
      <trkpt lat="46.73013" lon="2.17783">
        <ele>189.09</ele>
        <time>2022-07-26T10:12:22.000Z</time>
      </trkpt>
      <trkpt lat="46.73032" lon="2.17784">
        <ele>138.91</ele>
        <time>2022-07-26T10:12:27.000Z</time>
      </trkpt>
      <trkpt lat="46.7305" lon="2.17781">
        <ele>122.13</ele>
        <time>2022-07-26T10:12:32.000Z</time>
      </trkpt>
      <trkpt lat="46.73072" lon="2.1778">
        <ele>123.01</ele>
        <time>2022-07-26T10:12:37.000Z</time>
      </trkpt>
      <trkpt lat="46.73092" lon="2.17779">
        <ele>124.23</ele>
        <time>2022-07-26T10:12:42.000Z</time>
      </trkpt>
      <trkpt lat="46.7311" lon="2.17779">
        <ele>124.74</ele>
        <time>2022-07-26T10:12:47.000Z</time>
      </trkpt>
      <trkpt lat="46.73129" lon="2.17783">
        <ele>125.63</ele>
        <time>2022-07-26T10:12:52.000Z</time>
      </trkpt>
      <trkpt lat="46.73154" lon="2.17793">
        <ele>124.18</ele>
        <time>2022-07-26T10:12:58.000Z</time>
      </trkpt>
      <trkpt lat="46.73177" lon="2.17807">
        <ele>121.64</ele>
        <time>2022-07-26T10:13:03.000Z</time>
      </trkpt>
      <trkpt lat="46.73203" lon="2.17818">
        <ele>120</ele>
        <time>2022-07-26T10:13:08.000Z</time>
      </trkpt>
      <trkpt lat="46.73232" lon="2.17825">
        <ele>119.4</ele>
        <time>2022-07-26T10:13:13.000Z</time>
      </trkpt>
      <trkpt lat="46.73264" lon="2.17829">
        <ele>119.87</ele>
        <time>2022-07-26T10:13:18.000Z</time>
      </trkpt>
      <trkpt lat="46.73297" lon="2.17833">
        <ele>118.26</ele>
        <time>2022-07-26T10:13:23.000Z</time>
      </trkpt>
      <trkpt lat="46.73327" lon="2.17833">
        <ele>117.43</ele>
        <time>2022-07-26T10:13:28.000Z</time>
      </trkpt>
      <trkpt lat="46.73355" lon="2.17825">
        <ele>119.42</ele>
        <time>2022-07-26T10:13:33.000Z</time>
      </trkpt>
      <trkpt lat="46.73377" lon="2.17817">
        <ele>121.7</ele>
        <time>2022-07-26T10:13:38.000Z</time>
      </trkpt>
      <trkpt lat="46.73394" lon="2.17812">
        <ele>123.16</ele>
        <time>2022-07-26T10:13:43.000Z</time>
      </trkpt>
      <trkpt lat="46.73405" lon="2.17808">
        <ele>124.86</ele>
        <time>2022-07-26T10:13:48.000Z</time>
      </trkpt>
      <trkpt lat="46.73423" lon="2.17802">
        <ele>125.52</ele>
        <time>2022-07-26T10:13:52.447Z</time>
      </trkpt>
      <trkpt lat="46.73432" lon="2.17797">
        <ele>125.75</ele>
        <time>2022-07-26T10:13:57.000Z</time>
      </trkpt>
      <trkpt lat="46.73446" lon="2.1779">
        <ele>125.92</ele>
        <time>2022-07-26T10:14:02.000Z</time>
      </trkpt>
      <trkpt lat="46.73463" lon="2.17786">
        <ele>126.2</ele>
        <time>2022-07-26T10:14:06.264Z</time>
      </trkpt>
      <trkpt lat="46.73475" lon="2.17778">
        <ele>125.64</ele>
        <time>2022-07-26T10:14:10.504Z</time>
      </trkpt>
      <trkpt lat="46.73484" lon="2.17775">
        <ele>125.94</ele>
        <time>2022-07-26T10:14:15.000Z</time>
      </trkpt>
      <trkpt lat="46.73499" lon="2.17778">
        <ele>127.35</ele>
        <time>2022-07-26T10:14:20.000Z</time>
      </trkpt>
      <trkpt lat="46.73516" lon="2.17778">
        <ele>128.27</ele>
        <time>2022-07-26T10:14:24.603Z</time>
      </trkpt>
      <trkpt lat="46.73525" lon="2.17774">
        <ele>129.04</ele>
        <time>2022-07-26T10:14:29.000Z</time>
      </trkpt>
      <trkpt lat="46.73544" lon="2.17768">
        <ele>131.25</ele>
        <time>2022-07-26T10:14:35.000Z</time>
      </trkpt>
      <trkpt lat="46.73562" lon="2.1776">
        <ele>130.97</ele>
        <time>2022-07-26T10:14:41.000Z</time>
      </trkpt>
      <trkpt lat="46.73584" lon="2.17752">
        <ele>129.27</ele>
        <time>2022-07-26T10:14:45.623Z</time>
      </trkpt>
      <trkpt lat="46.73601" lon="2.17742">
        <ele>128.62</ele>
        <time>2022-07-26T10:14:50.667Z</time>
      </trkpt>
      <trkpt lat="46.73623" lon="2.17731">
        <ele>128.82</ele>
        <time>2022-07-26T10:14:56.000Z</time>
      </trkpt>
      <trkpt lat="46.7365" lon="2.17719">
        <ele>128.06</ele>
        <time>2022-07-26T10:15:01.000Z</time>
      </trkpt>
      <trkpt lat="46.7368" lon="2.17706">
        <ele>126.85</ele>
        <time>2022-07-26T10:15:06.000Z</time>
      </trkpt>
      <trkpt lat="46.73709" lon="2.17694">
        <ele>127.76</ele>
        <time>2022-07-26T10:15:11.000Z</time>
      </trkpt>
      <trkpt lat="46.73738" lon="2.17681">
        <ele>128.1</ele>
        <time>2022-07-26T10:15:16.000Z</time>
      </trkpt>
      <trkpt lat="46.73762" lon="2.1767">
        <ele>127.14</ele>
        <time>2022-07-26T10:15:21.000Z</time>
      </trkpt>
      <trkpt lat="46.7378" lon="2.17663">
        <ele>127.2</ele>
        <time>2022-07-26T10:15:26.000Z</time>
      </trkpt>
      <trkpt lat="46.73796" lon="2.17654">
        <ele>126.69</ele>
        <time>2022-07-26T10:15:31.000Z</time>
      </trkpt>
      <trkpt lat="46.73819" lon="2.17649">
        <ele>126.42</ele>
        <time>2022-07-26T10:15:35.351Z</time>
      </trkpt>
      <trkpt lat="46.7383" lon="2.17642">
        <ele>127.02</ele>
        <time>2022-07-26T10:15:40.000Z</time>
      </trkpt>
      <trkpt lat="46.73847" lon="2.17634">
        <ele>127.72</ele>
        <time>2022-07-26T10:15:45.000Z</time>
      </trkpt>
      <trkpt lat="46.73868" lon="2.17625">
        <ele>127.83</ele>
        <time>2022-07-26T10:15:51.000Z</time>
      </trkpt>
      <trkpt lat="46.73888" lon="2.17616">
        <ele>126.97</ele>
        <time>2022-07-26T10:15:55.191Z</time>
      </trkpt>
      <trkpt lat="46.73905" lon="2.17608">
        <ele>126.71</ele>
        <time>2022-07-26T10:15:59.299Z</time>
      </trkpt>
      <trkpt lat="46.73922" lon="2.176">
        <ele>128.24</ele>
        <time>2022-07-26T10:16:05.000Z</time>
      </trkpt>
      <trkpt lat="46.73942" lon="2.1759">
        <ele>127.77</ele>
        <time>2022-07-26T10:16:10.000Z</time>
      </trkpt>
      <trkpt lat="46.73962" lon="2.17579">
        <ele>126.6</ele>
        <time>2022-07-26T10:16:15.000Z</time>
      </trkpt>
      <trkpt lat="46.73982" lon="2.17563">
        <ele>125.34</ele>
        <time>2022-07-26T10:16:20.000Z</time>
      </trkpt>
      <trkpt lat="46.74" lon="2.17539">
        <ele>124.97</ele>
        <time>2022-07-26T10:16:26.000Z</time>
      </trkpt>
      <trkpt lat="46.74012" lon="2.17515">
        <ele>124.37</ele>
        <time>2022-07-26T10:16:31.000Z</time>
      </trkpt>
      <trkpt lat="46.74035" lon="2.17512">
        <ele>122.18</ele>
        <time>2022-07-26T10:16:36.000Z</time>
      </trkpt>
      <trkpt lat="46.74065" lon="2.17524">
        <ele>120.49</ele>
        <time>2022-07-26T10:16:41.000Z</time>
      </trkpt>
      <trkpt lat="46.74102" lon="2.17532">
        <ele>120.25</ele>
        <time>2022-07-26T10:16:46.000Z</time>
      </trkpt>
      <trkpt lat="46.7414" lon="2.17535">
        <ele>120.43</ele>
        <time>2022-07-26T10:16:51.000Z</time>
      </trkpt>
      <trkpt lat="46.74173" lon="2.17533">
        <ele>120.55</ele>
        <time>2022-07-26T10:16:56.000Z</time>
      </trkpt>
      <trkpt lat="46.74203" lon="2.17529">
        <ele>121.16</ele>
        <time>2022-07-26T10:17:01.000Z</time>
      </trkpt>
      <trkpt lat="46.74233" lon="2.17525">
        <ele>120.42</ele>
        <time>2022-07-26T10:17:06.000Z</time>
      </trkpt>
      <trkpt lat="46.74259" lon="2.1752">
        <ele>121.33</ele>
        <time>2022-07-26T10:17:11.000Z</time>
      </trkpt>
      <trkpt lat="46.74283" lon="2.17518">
        <ele>120.29</ele>
        <time>2022-07-26T10:17:16.000Z</time>
      </trkpt>
      <trkpt lat="46.74308" lon="2.17515">
        <ele>120.1</ele>
        <time>2022-07-26T10:17:21.000Z</time>
      </trkpt>
      <trkpt lat="46.74333" lon="2.17511">
        <ele>119.85</ele>
        <time>2022-07-26T10:17:26.000Z</time>
      </trkpt>
      <trkpt lat="46.74358" lon="2.17508">
        <ele>120.89</ele>
        <time>2022-07-26T10:17:31.000Z</time>
      </trkpt>
      <trkpt lat="46.74384" lon="2.17505">
        <ele>119.96</ele>
        <time>2022-07-26T10:17:36.000Z</time>
      </trkpt>
      <trkpt lat="46.74411" lon="2.17502">
        <ele>119.53</ele>
        <time>2022-07-26T10:17:41.000Z</time>
      </trkpt>
      <trkpt lat="46.74438" lon="2.17499">
        <ele>117.97</ele>
        <time>2022-07-26T10:17:46.000Z</time>
      </trkpt>
      <trkpt lat="46.74466" lon="2.17495">
        <ele>118.63</ele>
        <time>2022-07-26T10:17:51.000Z</time>
      </trkpt>
      <trkpt lat="46.74495" lon="2.17489">
        <ele>119.99</ele>
        <time>2022-07-26T10:17:56.000Z</time>
      </trkpt>
      <trkpt lat="46.7452" lon="2.17487">
        <ele>120.55</ele>
        <time>2022-07-26T10:18:01.000Z</time>
      </trkpt>
      <trkpt lat="46.74546" lon="2.17484">
        <ele>119.31</ele>
        <time>2022-07-26T10:18:06.000Z</time>
      </trkpt>
      <trkpt lat="46.7457" lon="2.1748">
        <ele>118.48</ele>
        <time>2022-07-26T10:18:11.000Z</time>
      </trkpt>
      <trkpt lat="46.74597" lon="2.17476">
        <ele>117.37</ele>
        <time>2022-07-26T10:18:16.000Z</time>
      </trkpt>
      <trkpt lat="46.74623" lon="2.17473">
        <ele>117.29</ele>
        <time>2022-07-26T10:18:21.000Z</time>
      </trkpt>
      <trkpt lat="46.7465" lon="2.17471">
        <ele>115.88</ele>
        <time>2022-07-26T10:18:26.000Z</time>
      </trkpt>
      <trkpt lat="46.74675" lon="2.17467">
        <ele>116.72</ele>
        <time>2022-07-26T10:18:31.000Z</time>
      </trkpt>
      <trkpt lat="46.74699" lon="2.1746">
        <ele>116.8</ele>
        <time>2022-07-26T10:18:36.000Z</time>
      </trkpt>
      <trkpt lat="46.74724" lon="2.1745">
        <ele>116.96</ele>
        <time>2022-07-26T10:18:41.000Z</time>
      </trkpt>
      <trkpt lat="46.74748" lon="2.1744">
        <ele>117.86</ele>
        <time>2022-07-26T10:18:46.000Z</time>
      </trkpt>
      <trkpt lat="46.74771" lon="2.1743">
        <ele>118.21</ele>
        <time>2022-07-26T10:18:51.000Z</time>
      </trkpt>
      <trkpt lat="46.74792" lon="2.17418">
        <ele>118.59</ele>
        <time>2022-07-26T10:18:56.000Z</time>
      </trkpt>
      <trkpt lat="46.74812" lon="2.17409">
        <ele>117.16</ele>
        <time>2022-07-26T10:19:01.000Z</time>
      </trkpt>
      <trkpt lat="46.74836" lon="2.17397">
        <ele>165.22</ele>
        <time>2022-07-26T10:19:05.356Z</time>
      </trkpt>
      <trkpt lat="46.74853" lon="2.17388">
        <ele>165.23</ele>
        <time>2022-07-26T10:19:09.558Z</time>
      </trkpt>
      <trkpt lat="46.74868" lon="2.17382">
        <ele>165.23</ele>
        <time>2022-07-26T10:19:14.000Z</time>
      </trkpt>
      <trkpt lat="46.74887" lon="2.17372">
        <ele>165.23</ele>
        <time>2022-07-26T10:19:19.000Z</time>
      </trkpt>
      <trkpt lat="46.74909" lon="2.1736">
        <ele>165.23</ele>
        <time>2022-07-26T10:19:24.000Z</time>
      </trkpt>
      <trkpt lat="46.74927" lon="2.17353">
        <ele>165.23</ele>
        <time>2022-07-26T10:19:29.000Z</time>
      </trkpt>
      <trkpt lat="46.74953" lon="2.17343">
        <ele>165.23</ele>
        <time>2022-07-26T10:19:33.334Z</time>
      </trkpt>
      <trkpt lat="46.74966" lon="2.17344">
        <ele>165.23</ele>
        <time>2022-07-26T10:19:38.000Z</time>
      </trkpt>
      <trkpt lat="46.74985" lon="2.1735">
        <ele>165.23</ele>
        <time>2022-07-26T10:19:42.305Z</time>
      </trkpt>
      <trkpt lat="46.74996" lon="2.17341">
        <ele>165.23</ele>
        <time>2022-07-26T10:19:47.000Z</time>
      </trkpt>
      <trkpt lat="46.75019" lon="2.1733">
        <ele>165.23</ele>
        <time>2022-07-26T10:19:53.000Z</time>
      </trkpt>
      <trkpt lat="46.7504" lon="2.17321">
        <ele>165.23</ele>
        <time>2022-07-26T10:19:58.000Z</time>
      </trkpt>
      <trkpt lat="46.75061" lon="2.17299">
        <ele>165.23</ele>
        <time>2022-07-26T10:20:02.285Z</time>
      </trkpt>
      <trkpt lat="46.75069" lon="2.1728">
        <ele>165.23</ele>
        <time>2022-07-26T10:20:07.000Z</time>
      </trkpt>
      <trkpt lat="46.75077" lon="2.17244">
        <ele>165.23</ele>
        <time>2022-07-26T10:20:11.630Z</time>
      </trkpt>
      <trkpt lat="46.75094" lon="2.17235">
        <ele>165.23</ele>
        <time>2022-07-26T10:20:16.374Z</time>
      </trkpt>
      <trkpt lat="46.75108" lon="2.17243">
        <ele>165.23</ele>
        <time>2022-07-26T10:20:21.000Z</time>
      </trkpt>
      <trkpt lat="46.75132" lon="2.17263">
        <ele>165.24</ele>
        <time>2022-07-26T10:20:25.256Z</time>
      </trkpt>
      <trkpt lat="46.75154" lon="2.17271">
        <ele>165.24</ele>
        <time>2022-07-26T10:20:31.000Z</time>
      </trkpt>
      <trkpt lat="46.75176" lon="2.17284">
        <ele>116.76</ele>
        <time>2022-07-26T10:20:36.000Z</time>
      </trkpt>
      <trkpt lat="46.75197" lon="2.17298">
        <ele>117.33</ele>
        <time>2022-07-26T10:20:41.000Z</time>
      </trkpt>
      <trkpt lat="46.75219" lon="2.17312">
        <ele>116.76</ele>
        <time>2022-07-26T10:20:46.000Z</time>
      </trkpt>
      <trkpt lat="46.75237" lon="2.17325">
        <ele>117.1</ele>
        <time>2022-07-26T10:20:52.000Z</time>
      </trkpt>
      <trkpt lat="46.75248" lon="2.17334">
        <ele>116.22</ele>
        <time>2022-07-26T10:20:57.000Z</time>
      </trkpt>
      <trkpt lat="46.75238" lon="2.17325">
        <ele>163.94</ele>
        <time>2022-07-26T10:26:20.000Z</time>
      </trkpt>
      <trkpt lat="46.75222" lon="2.17311">
        <ele>163.94</ele>
        <time>2022-07-26T10:26:25.000Z</time>
      </trkpt>
      <trkpt lat="46.75208" lon="2.17306">
        <ele>163.94</ele>
        <time>2022-07-26T10:26:30.000Z</time>
      </trkpt>
      <trkpt lat="46.75193" lon="2.17293">
        <ele>163.94</ele>
        <time>2022-07-26T10:26:35.000Z</time>
      </trkpt>
      <trkpt lat="46.75175" lon="2.17281">
        <ele>163.94</ele>
        <time>2022-07-26T10:26:41.000Z</time>
      </trkpt>
      <trkpt lat="46.75159" lon="2.17266">
        <ele>163.94</ele>
        <time>2022-07-26T10:26:46.000Z</time>
      </trkpt>
      <trkpt lat="46.7514" lon="2.17254">
        <ele>163.94</ele>
        <time>2022-07-26T10:26:50.505Z</time>
      </trkpt>
      <trkpt lat="46.75126" lon="2.17246">
        <ele>163.94</ele>
        <time>2022-07-26T10:26:56.000Z</time>
      </trkpt>
      <trkpt lat="46.75104" lon="2.17233">
        <ele>163.94</ele>
        <time>2022-07-26T10:27:02.000Z</time>
      </trkpt>
      <trkpt lat="46.75086" lon="2.17225">
        <ele>163.93</ele>
        <time>2022-07-26T10:27:07.000Z</time>
      </trkpt>
      <trkpt lat="46.75071" lon="2.17244">
        <ele>163.93</ele>
        <time>2022-07-26T10:27:12.000Z</time>
      </trkpt>
      <trkpt lat="46.75063" lon="2.17276">
        <ele>163.93</ele>
        <time>2022-07-26T10:27:17.000Z</time>
      </trkpt>
      <trkpt lat="46.75048" lon="2.17273">
        <ele>163.93</ele>
        <time>2022-07-26T10:27:23.000Z</time>
      </trkpt>
      <trkpt lat="46.75038" lon="2.17273">
        <ele>163.93</ele>
        <time>2022-07-26T10:27:28.000Z</time>
      </trkpt>
      <trkpt lat="46.75029" lon="2.173">
        <ele>163.93</ele>
        <time>2022-07-26T10:27:34.000Z</time>
      </trkpt>
      <trkpt lat="46.75029" lon="2.17304">
        <ele>164.23</ele>
        <time>2022-07-26T10:28:30.000Z</time>
      </trkpt>
      <trkpt lat="46.75106" lon="2.17066">
        <ele>120.48</ele>
        <time>2022-07-26T11:03:34.507Z</time>
      </trkpt>
      <trkpt lat="46.75103" lon="2.17049">
        <ele>120.49</ele>
        <time>2022-07-26T11:03:40.000Z</time>
      </trkpt>
      <trkpt lat="46.75102" lon="2.17029">
        <ele>120.44</ele>
        <time>2022-07-26T11:03:45.000Z</time>
      </trkpt>
      <trkpt lat="46.75103" lon="2.17007">
        <ele>119.59</ele>
        <time>2022-07-26T11:03:51.000Z</time>
      </trkpt>
      <trkpt lat="46.75103" lon="2.16984">
        <ele>120.61</ele>
        <time>2022-07-26T11:03:57.000Z</time>
      </trkpt>
      <trkpt lat="46.75104" lon="2.16968">
        <ele>120.29</ele>
        <time>2022-07-26T11:04:02.000Z</time>
      </trkpt>
      <trkpt lat="46.75104" lon="2.1695">
        <ele>120.72</ele>
        <time>2022-07-26T11:04:07.000Z</time>
      </trkpt>
      <trkpt lat="46.75104" lon="2.16931">
        <ele>122.6</ele>
        <time>2022-07-26T11:04:12.000Z</time>
      </trkpt>
      <trkpt lat="46.75105" lon="2.16914">
        <ele>123.32</ele>
        <time>2022-07-26T11:04:17.000Z</time>
      </trkpt>
      <trkpt lat="46.75105" lon="2.16896">
        <ele>122.64</ele>
        <time>2022-07-26T11:04:22.000Z</time>
      </trkpt>
      <trkpt lat="46.75106" lon="2.16872">
        <ele>121.49</ele>
        <time>2022-07-26T11:04:26.450Z</time>
      </trkpt>
      <trkpt lat="46.75107" lon="2.16858">
        <ele>123.09</ele>
        <time>2022-07-26T11:04:31.000Z</time>
      </trkpt>
      <trkpt lat="46.75107" lon="2.16835">
        <ele>124.74</ele>
        <time>2022-07-26T11:04:35.068Z</time>
      </trkpt>
      <trkpt lat="46.75107" lon="2.16821">
        <ele>125.96</ele>
        <time>2022-07-26T11:04:40.000Z</time>
      </trkpt>
      <trkpt lat="46.75107" lon="2.168">
        <ele>127.28</ele>
        <time>2022-07-26T11:04:45.000Z</time>
      </trkpt>
      <trkpt lat="46.75108" lon="2.16779">
        <ele>128.56</ele>
        <time>2022-07-26T11:04:50.000Z</time>
      </trkpt>
      <trkpt lat="46.75106" lon="2.16756">
        <ele>127.49</ele>
        <time>2022-07-26T11:04:55.000Z</time>
      </trkpt>
      <trkpt lat="46.75104" lon="2.16735">
        <ele>127.06</ele>
        <time>2022-07-26T11:05:00.000Z</time>
      </trkpt>
      <trkpt lat="46.75103" lon="2.1671">
        <ele>126.66</ele>
        <time>2022-07-26T11:05:04.406Z</time>
      </trkpt>
      <trkpt lat="46.75101" lon="2.16696">
        <ele>126.45</ele>
        <time>2022-07-26T11:05:09.000Z</time>
      </trkpt>
      <trkpt lat="46.75099" lon="2.16673">
        <ele>125.41</ele>
        <time>2022-07-26T11:05:13.224Z</time>
      </trkpt>
      <trkpt lat="46.75099" lon="2.16656">
        <ele>124.92</ele>
        <time>2022-07-26T11:05:19.000Z</time>
      </trkpt>
      <trkpt lat="46.75097" lon="2.16636">
        <ele>125.36</ele>
        <time>2022-07-26T11:05:24.000Z</time>
      </trkpt>
      <trkpt lat="46.75098" lon="2.16614">
        <ele>125.56</ele>
        <time>2022-07-26T11:05:29.000Z</time>
      </trkpt>
      <trkpt lat="46.75099" lon="2.16592">
        <ele>125.73</ele>
        <time>2022-07-26T11:05:34.000Z</time>
      </trkpt>
      <trkpt lat="46.751" lon="2.16569">
        <ele>125.52</ele>
        <time>2022-07-26T11:05:39.000Z</time>
      </trkpt>
      <trkpt lat="46.75102" lon="2.16537">
        <ele>125.76</ele>
        <time>2022-07-26T11:05:43.588Z</time>
      </trkpt>
      <trkpt lat="46.75102" lon="2.16518">
        <ele>125.74</ele>
        <time>2022-07-26T11:05:48.000Z</time>
      </trkpt>
      <trkpt lat="46.75104" lon="2.16483">
        <ele>126.51</ele>
        <time>2022-07-26T11:05:52.185Z</time>
      </trkpt>
      <trkpt lat="46.75104" lon="2.1646">
        <ele>127.11</ele>
        <time>2022-07-26T11:05:57.000Z</time>
      </trkpt>
      <trkpt lat="46.75106" lon="2.16424">
        <ele>127.44</ele>
        <time>2022-07-26T11:06:01.420Z</time>
      </trkpt>
      <trkpt lat="46.75106" lon="2.16399">
        <ele>127.87</ele>
        <time>2022-07-26T11:06:07.000Z</time>
      </trkpt>
      <trkpt lat="46.75106" lon="2.16368">
        <ele>128.14</ele>
        <time>2022-07-26T11:06:11.256Z</time>
      </trkpt>
      <trkpt lat="46.75107" lon="2.16347">
        <ele>128.24</ele>
        <time>2022-07-26T11:06:15.566Z</time>
      </trkpt>
      <trkpt lat="46.75107" lon="2.16331">
        <ele>128.61</ele>
        <time>2022-07-26T11:06:20.000Z</time>
      </trkpt>
      <trkpt lat="46.75109" lon="2.16306">
        <ele>129.38</ele>
        <time>2022-07-26T11:06:25.000Z</time>
      </trkpt>
      <trkpt lat="46.7511" lon="2.16283">
        <ele>130.13</ele>
        <time>2022-07-26T11:06:30.000Z</time>
      </trkpt>
      <trkpt lat="46.75109" lon="2.16256">
        <ele>130.42</ele>
        <time>2022-07-26T11:06:34.502Z</time>
      </trkpt>
      <trkpt lat="46.75107" lon="2.16239">
        <ele>130.21</ele>
        <time>2022-07-26T11:06:40.000Z</time>
      </trkpt>
      <trkpt lat="46.75102" lon="2.16218">
        <ele>129.75</ele>
        <time>2022-07-26T11:06:45.000Z</time>
      </trkpt>
      <trkpt lat="46.75098" lon="2.16195">
        <ele>130.55</ele>
        <time>2022-07-26T11:06:50.000Z</time>
      </trkpt>
      <trkpt lat="46.75095" lon="2.16177">
        <ele>131.51</ele>
        <time>2022-07-26T11:06:55.000Z</time>
      </trkpt>
      <trkpt lat="46.7509" lon="2.16157">
        <ele>131.25</ele>
        <time>2022-07-26T11:07:00.000Z</time>
      </trkpt>
      <trkpt lat="46.75086" lon="2.16136">
        <ele>131.59</ele>
        <time>2022-07-26T11:07:05.000Z</time>
      </trkpt>
      <trkpt lat="46.7508" lon="2.16111">
        <ele>131.76</ele>
        <time>2022-07-26T11:07:11.000Z</time>
      </trkpt>
      <trkpt lat="46.75076" lon="2.16091">
        <ele>133.16</ele>
        <time>2022-07-26T11:07:16.000Z</time>
      </trkpt>
      <trkpt lat="46.7507" lon="2.16066">
        <ele>135.19</ele>
        <time>2022-07-26T11:07:22.000Z</time>
      </trkpt>
      <trkpt lat="46.75065" lon="2.16045">
        <ele>136.46</ele>
        <time>2022-07-26T11:07:27.000Z</time>
      </trkpt>
      <trkpt lat="46.7506" lon="2.16024">
        <ele>137.18</ele>
        <time>2022-07-26T11:07:32.000Z</time>
      </trkpt>
      <trkpt lat="46.75055" lon="2.16002">
        <ele>137.02</ele>
        <time>2022-07-26T11:07:37.000Z</time>
      </trkpt>
      <trkpt lat="46.75049" lon="2.15977">
        <ele>137.02</ele>
        <time>2022-07-26T11:07:41.342Z</time>
      </trkpt>
      <trkpt lat="46.75044" lon="2.1596">
        <ele>135.52</ele>
        <time>2022-07-26T11:07:47.000Z</time>
      </trkpt>
      <trkpt lat="46.75038" lon="2.15939">
        <ele>134.68</ele>
        <time>2022-07-26T11:07:52.000Z</time>
      </trkpt>
      <trkpt lat="46.75031" lon="2.15915">
        <ele>134.99</ele>
        <time>2022-07-26T11:07:56.323Z</time>
      </trkpt>
      <trkpt lat="46.75026" lon="2.15899">
        <ele>134.85</ele>
        <time>2022-07-26T11:08:01.000Z</time>
      </trkpt>
      <trkpt lat="46.75017" lon="2.15867">
        <ele>135.14</ele>
        <time>2022-07-26T11:08:05.635Z</time>
      </trkpt>
      <trkpt lat="46.75014" lon="2.1585">
        <ele>135.04</ele>
        <time>2022-07-26T11:08:10.000Z</time>
      </trkpt>
      <trkpt lat="46.75008" lon="2.15815">
        <ele>134.62</ele>
        <time>2022-07-26T11:08:14.243Z</time>
      </trkpt>
      <trkpt lat="46.75005" lon="2.15793">
        <ele>134.69</ele>
        <time>2022-07-26T11:08:19.000Z</time>
      </trkpt>
      <trkpt lat="46.75003" lon="2.1576">
        <ele>134.5</ele>
        <time>2022-07-26T11:08:23.285Z</time>
      </trkpt>
      <trkpt lat="46.74999" lon="2.15737">
        <ele>134.36</ele>
        <time>2022-07-26T11:08:27.563Z</time>
      </trkpt>
      <trkpt lat="46.74996" lon="2.15721">
        <ele>134.04</ele>
        <time>2022-07-26T11:08:32.000Z</time>
      </trkpt>
      <trkpt lat="46.7499" lon="2.15698">
        <ele>134.78</ele>
        <time>2022-07-26T11:08:37.000Z</time>
      </trkpt>
      <trkpt lat="46.74982" lon="2.15674">
        <ele>135.86</ele>
        <time>2022-07-26T11:08:41.377Z</time>
      </trkpt>
      <trkpt lat="46.74977" lon="2.15656">
        <ele>136.62</ele>
        <time>2022-07-26T11:08:45.656Z</time>
      </trkpt>
      <trkpt lat="46.74969" lon="2.15642">
        <ele>137.88</ele>
        <time>2022-07-26T11:08:51.000Z</time>
      </trkpt>
      <trkpt lat="46.7496" lon="2.15623">
        <ele>138.09</ele>
        <time>2022-07-26T11:08:56.000Z</time>
      </trkpt>
      <trkpt lat="46.74948" lon="2.15607">
        <ele>136.79</ele>
        <time>2022-07-26T11:09:01.000Z</time>
      </trkpt>
      <trkpt lat="46.74934" lon="2.15589">
        <ele>138.04</ele>
        <time>2022-07-26T11:09:05.090Z</time>
      </trkpt>
      <trkpt lat="46.74924" lon="2.15577">
        <ele>138.6</ele>
        <time>2022-07-26T11:09:09.104Z</time>
      </trkpt>
      <trkpt lat="46.74912" lon="2.15566">
        <ele>139.03</ele>
        <time>2022-07-26T11:09:13.162Z</time>
      </trkpt>
      <trkpt lat="46.74901" lon="2.15556">
        <ele>139.69</ele>
        <time>2022-07-26T11:09:17.179Z</time>
      </trkpt>
      <trkpt lat="46.74888" lon="2.15544">
        <ele>139.98</ele>
        <time>2022-07-26T11:09:23.000Z</time>
      </trkpt>
      <trkpt lat="46.74869" lon="2.15527">
        <ele>139.77</ele>
        <time>2022-07-26T11:09:29.000Z</time>
      </trkpt>
      <trkpt lat="46.74854" lon="2.15509">
        <ele>139.64</ele>
        <time>2022-07-26T11:09:33.479Z</time>
      </trkpt>
      <trkpt lat="46.74844" lon="2.15494">
        <ele>139.62</ele>
        <time>2022-07-26T11:09:39.000Z</time>
      </trkpt>
      <trkpt lat="46.7483" lon="2.15474">
        <ele>139.69</ele>
        <time>2022-07-26T11:09:43.456Z</time>
      </trkpt>
      <trkpt lat="46.74819" lon="2.1546">
        <ele>139.62</ele>
        <time>2022-07-26T11:09:49.000Z</time>
      </trkpt>
      <trkpt lat="46.74804" lon="2.15441">
        <ele>140.06</ele>
        <time>2022-07-26T11:09:53.122Z</time>
      </trkpt>
      <trkpt lat="46.7479" lon="2.15427">
        <ele>139.35</ele>
        <time>2022-07-26T11:09:57.380Z</time>
      </trkpt>
      <trkpt lat="46.74778" lon="2.15414">
        <ele>139.1</ele>
        <time>2022-07-26T11:10:02.000Z</time>
      </trkpt>
      <trkpt lat="46.7476" lon="2.15392">
        <ele>138.99</ele>
        <time>2022-07-26T11:10:07.000Z</time>
      </trkpt>
      <trkpt lat="46.74748" lon="2.15369">
        <ele>140.37</ele>
        <time>2022-07-26T11:10:12.000Z</time>
      </trkpt>
      <trkpt lat="46.7474" lon="2.15339">
        <ele>141.38</ele>
        <time>2022-07-26T11:10:16.610Z</time>
      </trkpt>
      <trkpt lat="46.74737" lon="2.15324">
        <ele>141.49</ele>
        <time>2022-07-26T11:10:21.000Z</time>
      </trkpt>
      <trkpt lat="46.74733" lon="2.15293">
        <ele>141.43</ele>
        <time>2022-07-26T11:10:26.000Z</time>
      </trkpt>
      <trkpt lat="46.74727" lon="2.15257">
        <ele>139.17</ele>
        <time>2022-07-26T11:10:31.000Z</time>
      </trkpt>
      <trkpt lat="46.7472" lon="2.15217">
        <ele>137.95</ele>
        <time>2022-07-26T11:10:36.000Z</time>
      </trkpt>
      <trkpt lat="46.74713" lon="2.15175">
        <ele>136.65</ele>
        <time>2022-07-26T11:10:41.000Z</time>
      </trkpt>
      <trkpt lat="46.74706" lon="2.15135">
        <ele>136.32</ele>
        <time>2022-07-26T11:10:46.000Z</time>
      </trkpt>
      <trkpt lat="46.74698" lon="2.15095">
        <ele>137.18</ele>
        <time>2022-07-26T11:10:51.000Z</time>
      </trkpt>
      <trkpt lat="46.74692" lon="2.15054">
        <ele>136.97</ele>
        <time>2022-07-26T11:10:56.000Z</time>
      </trkpt>
      <trkpt lat="46.74687" lon="2.1502">
        <ele>136.26</ele>
        <time>2022-07-26T11:11:01.000Z</time>
      </trkpt>
      <trkpt lat="46.74681" lon="2.14984">
        <ele>137.97</ele>
        <time>2022-07-26T11:11:06.000Z</time>
      </trkpt>
      <trkpt lat="46.74675" lon="2.14948">
        <ele>139.79</ele>
        <time>2022-07-26T11:11:11.000Z</time>
      </trkpt>
      <trkpt lat="46.7467" lon="2.14918">
        <ele>140.32</ele>
        <time>2022-07-26T11:11:16.000Z</time>
      </trkpt>
      <trkpt lat="46.74666" lon="2.14891">
        <ele>140.79</ele>
        <time>2022-07-26T11:11:21.000Z</time>
      </trkpt>
      <trkpt lat="46.74661" lon="2.14864">
        <ele>140.95</ele>
        <time>2022-07-26T11:11:25.696Z</time>
      </trkpt>
      <trkpt lat="46.74657" lon="2.14849">
        <ele>139.76</ele>
        <time>2022-07-26T11:11:30.000Z</time>
      </trkpt>
      <trkpt lat="46.74653" lon="2.14826">
        <ele>139.65</ele>
        <time>2022-07-26T11:11:35.000Z</time>
      </trkpt>
      <trkpt lat="46.74649" lon="2.14798">
        <ele>141.01</ele>
        <time>2022-07-26T11:11:39.440Z</time>
      </trkpt>
      <trkpt lat="46.74646" lon="2.14784">
        <ele>141.22</ele>
        <time>2022-07-26T11:11:44.000Z</time>
      </trkpt>
      <trkpt lat="46.74642" lon="2.14757">
        <ele>142.01</ele>
        <time>2022-07-26T11:11:48.300Z</time>
      </trkpt>
      <trkpt lat="46.74638" lon="2.14735">
        <ele>142.76</ele>
        <time>2022-07-26T11:11:54.000Z</time>
      </trkpt>
      <trkpt lat="46.74634" lon="2.1471">
        <ele>143.43</ele>
        <time>2022-07-26T11:11:59.000Z</time>
      </trkpt>
      <trkpt lat="46.7463" lon="2.14682">
        <ele>143.56</ele>
        <time>2022-07-26T11:12:03.343Z</time>
      </trkpt>
      <trkpt lat="46.74627" lon="2.14665">
        <ele>143.55</ele>
        <time>2022-07-26T11:12:08.000Z</time>
      </trkpt>
      <trkpt lat="46.74622" lon="2.1464">
        <ele>144</ele>
        <time>2022-07-26T11:12:13.000Z</time>
      </trkpt>
      <trkpt lat="46.74618" lon="2.14612">
        <ele>144.61</ele>
        <time>2022-07-26T11:12:17.519Z</time>
      </trkpt>
      <trkpt lat="46.74614" lon="2.1459">
        <ele>145.03</ele>
        <time>2022-07-26T11:12:22.145Z</time>
      </trkpt>
      <trkpt lat="46.7461" lon="2.1457">
        <ele>145.44</ele>
        <time>2022-07-26T11:12:26.480Z</time>
      </trkpt>
      <trkpt lat="46.74607" lon="2.14548">
        <ele>145.51</ele>
        <time>2022-07-26T11:12:31.061Z</time>
      </trkpt>
      <trkpt lat="46.74603" lon="2.14526">
        <ele>146.84</ele>
        <time>2022-07-26T11:12:37.000Z</time>
      </trkpt>
      <trkpt lat="46.74599" lon="2.14501">
        <ele>147.75</ele>
        <time>2022-07-26T11:12:42.000Z</time>
      </trkpt>
      <trkpt lat="46.74595" lon="2.14477">
        <ele>148.14</ele>
        <time>2022-07-26T11:12:47.000Z</time>
      </trkpt>
      <trkpt lat="46.7459" lon="2.14453">
        <ele>147.85</ele>
        <time>2022-07-26T11:12:52.000Z</time>
      </trkpt>
      <trkpt lat="46.74583" lon="2.14424">
        <ele>147.36</ele>
        <time>2022-07-26T11:12:56.555Z</time>
      </trkpt>
      <trkpt lat="46.74579" lon="2.14409">
        <ele>146.95</ele>
        <time>2022-07-26T11:13:01.000Z</time>
      </trkpt>
      <trkpt lat="46.74569" lon="2.14387">
        <ele>147.03</ele>
        <time>2022-07-26T11:13:06.000Z</time>
      </trkpt>
      <trkpt lat="46.74556" lon="2.14366">
        <ele>147.55</ele>
        <time>2022-07-26T11:13:11.000Z</time>
      </trkpt>
      <trkpt lat="46.74544" lon="2.14346">
        <ele>148.17</ele>
        <time>2022-07-26T11:13:16.000Z</time>
      </trkpt>
      <trkpt lat="46.74531" lon="2.14325">
        <ele>148.94</ele>
        <time>2022-07-26T11:13:21.000Z</time>
      </trkpt>
      <trkpt lat="46.74522" lon="2.14302">
        <ele>149.34</ele>
        <time>2022-07-26T11:13:25.322Z</time>
      </trkpt>
      <trkpt lat="46.74516" lon="2.14283">
        <ele>149.5</ele>
        <time>2022-07-26T11:13:29.741Z</time>
      </trkpt>
      <trkpt lat="46.7451" lon="2.14264">
        <ele>150.08</ele>
        <time>2022-07-26T11:13:34.076Z</time>
      </trkpt>
      <trkpt lat="46.74506" lon="2.14244">
        <ele>150.42</ele>
        <time>2022-07-26T11:13:38.335Z</time>
      </trkpt>
      <trkpt lat="46.74504" lon="2.14222">
        <ele>149.07</ele>
        <time>2022-07-26T11:13:43.000Z</time>
      </trkpt>
      <trkpt lat="46.74501" lon="2.14197">
        <ele>149.55</ele>
        <time>2022-07-26T11:13:47.171Z</time>
      </trkpt>
      <trkpt lat="46.74499" lon="2.1418">
        <ele>149.54</ele>
        <time>2022-07-26T11:13:52.000Z</time>
      </trkpt>
      <trkpt lat="46.74494" lon="2.1415">
        <ele>149.2</ele>
        <time>2022-07-26T11:13:56.495Z</time>
      </trkpt>
      <trkpt lat="46.74489" lon="2.14128">
        <ele>148.15</ele>
        <time>2022-07-26T11:14:01.000Z</time>
      </trkpt>
      <trkpt lat="46.74479" lon="2.14092">
        <ele>146.25</ele>
        <time>2022-07-26T11:14:06.000Z</time>
      </trkpt>
      <trkpt lat="46.74467" lon="2.14051">
        <ele>144.49</ele>
        <time>2022-07-26T11:14:11.000Z</time>
      </trkpt>
      <trkpt lat="46.74453" lon="2.14">
        <ele>142.38</ele>
        <time>2022-07-26T11:14:16.000Z</time>
      </trkpt>
      <trkpt lat="46.74437" lon="2.13941">
        <ele>140.87</ele>
        <time>2022-07-26T11:14:21.000Z</time>
      </trkpt>
      <trkpt lat="46.74414" lon="2.13886">
        <ele>139.27</ele>
        <time>2022-07-26T11:14:26.000Z</time>
      </trkpt>
      <trkpt lat="46.74391" lon="2.1384">
        <ele>139.65</ele>
        <time>2022-07-26T11:14:31.000Z</time>
      </trkpt>
      <trkpt lat="46.74372" lon="2.13804">
        <ele>140.93</ele>
        <time>2022-07-26T11:14:36.000Z</time>
      </trkpt>
      <trkpt lat="46.74359" lon="2.13777">
        <ele>140.95</ele>
        <time>2022-07-26T11:14:41.000Z</time>
      </trkpt>
      <trkpt lat="46.74347" lon="2.13753">
        <ele>140.57</ele>
        <time>2022-07-26T11:14:46.000Z</time>
      </trkpt>
      <trkpt lat="46.74334" lon="2.13728">
        <ele>140.94</ele>
        <time>2022-07-26T11:14:50.112Z</time>
      </trkpt>
      <trkpt lat="46.74325" lon="2.13711">
        <ele>141.07</ele>
        <time>2022-07-26T11:14:55.000Z</time>
      </trkpt>
      <trkpt lat="46.74315" lon="2.1369">
        <ele>141.48</ele>
        <time>2022-07-26T11:15:00.000Z</time>
      </trkpt>
      <trkpt lat="46.74304" lon="2.13668">
        <ele>141.07</ele>
        <time>2022-07-26T11:15:05.000Z</time>
      </trkpt>
      <trkpt lat="46.74293" lon="2.13645">
        <ele>142.19</ele>
        <time>2022-07-26T11:15:10.000Z</time>
      </trkpt>
      <trkpt lat="46.74282" lon="2.13624">
        <ele>142.4</ele>
        <time>2022-07-26T11:15:15.000Z</time>
      </trkpt>
      <trkpt lat="46.7427" lon="2.13601">
        <ele>143</ele>
        <time>2022-07-26T11:15:20.000Z</time>
      </trkpt>
      <trkpt lat="46.74257" lon="2.13578">
        <ele>143.49</ele>
        <time>2022-07-26T11:15:25.000Z</time>
      </trkpt>
      <trkpt lat="46.74244" lon="2.13554">
        <ele>143.74</ele>
        <time>2022-07-26T11:15:30.000Z</time>
      </trkpt>
      <trkpt lat="46.74232" lon="2.1353">
        <ele>143.81</ele>
        <time>2022-07-26T11:15:35.000Z</time>
      </trkpt>
      <trkpt lat="46.74223" lon="2.13505">
        <ele>144.58</ele>
        <time>2022-07-26T11:15:40.000Z</time>
      </trkpt>
      <trkpt lat="46.74219" lon="2.13474">
        <ele>144.54</ele>
        <time>2022-07-26T11:15:44.590Z</time>
      </trkpt>
      <trkpt lat="46.74216" lon="2.13459">
        <ele>144.81</ele>
        <time>2022-07-26T11:15:49.000Z</time>
      </trkpt>
      <trkpt lat="46.74214" lon="2.13423">
        <ele>144.32</ele>
        <time>2022-07-26T11:15:53.530Z</time>
      </trkpt>
      <trkpt lat="46.74213" lon="2.13404">
        <ele>144.28</ele>
        <time>2022-07-26T11:15:58.000Z</time>
      </trkpt>
      <trkpt lat="46.74212" lon="2.13375">
        <ele>144.89</ele>
        <time>2022-07-26T11:16:03.000Z</time>
      </trkpt>
      <trkpt lat="46.7421" lon="2.13346">
        <ele>146.31</ele>
        <time>2022-07-26T11:16:08.000Z</time>
      </trkpt>
      <trkpt lat="46.74205" lon="2.13312">
        <ele>146.05</ele>
        <time>2022-07-26T11:16:14.000Z</time>
      </trkpt>
      <trkpt lat="46.74202" lon="2.13279">
        <ele>145.89</ele>
        <time>2022-07-26T11:16:18.591Z</time>
      </trkpt>
      <trkpt lat="46.742" lon="2.13263">
        <ele>145.86</ele>
        <time>2022-07-26T11:16:23.000Z</time>
      </trkpt>
      <trkpt lat="46.74197" lon="2.13233">
        <ele>145.97</ele>
        <time>2022-07-26T11:16:27.511Z</time>
      </trkpt>
      <trkpt lat="46.74194" lon="2.13211">
        <ele>146.72</ele>
        <time>2022-07-26T11:16:31.610Z</time>
      </trkpt>
      <trkpt lat="46.74193" lon="2.13194">
        <ele>147.68</ele>
        <time>2022-07-26T11:16:36.000Z</time>
      </trkpt>
      <trkpt lat="46.74189" lon="2.13166">
        <ele>148.27</ele>
        <time>2022-07-26T11:16:41.000Z</time>
      </trkpt>
      <trkpt lat="46.74185" lon="2.13135">
        <ele>148.27</ele>
        <time>2022-07-26T11:16:47.000Z</time>
      </trkpt>
      <trkpt lat="46.74181" lon="2.13107">
        <ele>148.57</ele>
        <time>2022-07-26T11:16:52.000Z</time>
      </trkpt>
      <trkpt lat="46.74177" lon="2.13078">
        <ele>148.52</ele>
        <time>2022-07-26T11:16:56.025Z</time>
      </trkpt>
      <trkpt lat="46.74173" lon="2.13054">
        <ele>148.74</ele>
        <time>2022-07-26T11:17:00.607Z</time>
      </trkpt>
      <trkpt lat="46.74168" lon="2.13032">
        <ele>149.03</ele>
        <time>2022-07-26T11:17:04.665Z</time>
      </trkpt>
      <trkpt lat="46.74165" lon="2.13012">
        <ele>150.01</ele>
        <time>2022-07-26T11:17:10.000Z</time>
      </trkpt>
      <trkpt lat="46.7416" lon="2.12987">
        <ele>150.27</ele>
        <time>2022-07-26T11:17:15.000Z</time>
      </trkpt>
      <trkpt lat="46.74154" lon="2.12959">
        <ele>151.15</ele>
        <time>2022-07-26T11:17:19.175Z</time>
      </trkpt>
      <trkpt lat="46.7415" lon="2.12941">
        <ele>151.28</ele>
        <time>2022-07-26T11:17:24.000Z</time>
      </trkpt>
      <trkpt lat="46.74144" lon="2.12913">
        <ele>151.2</ele>
        <time>2022-07-26T11:17:28.407Z</time>
      </trkpt>
      <trkpt lat="46.7414" lon="2.12896">
        <ele>151.46</ele>
        <time>2022-07-26T11:17:33.000Z</time>
      </trkpt>
      <trkpt lat="46.74135" lon="2.12871">
        <ele>152.26</ele>
        <time>2022-07-26T11:17:38.000Z</time>
      </trkpt>
      <trkpt lat="46.74129" lon="2.12845">
        <ele>152.42</ele>
        <time>2022-07-26T11:17:43.000Z</time>
      </trkpt>
      <trkpt lat="46.74123" lon="2.12815">
        <ele>152.27</ele>
        <time>2022-07-26T11:17:49.000Z</time>
      </trkpt>
      <trkpt lat="46.74116" lon="2.1279">
        <ele>153.14</ele>
        <time>2022-07-26T11:17:54.000Z</time>
      </trkpt>
      <trkpt lat="46.74108" lon="2.12762">
        <ele>153.71</ele>
        <time>2022-07-26T11:17:58.430Z</time>
      </trkpt>
      <trkpt lat="46.74104" lon="2.12748">
        <ele>153.69</ele>
        <time>2022-07-26T11:18:03.000Z</time>
      </trkpt>
      <trkpt lat="46.74097" lon="2.12723">
        <ele>153.61</ele>
        <time>2022-07-26T11:18:07.109Z</time>
      </trkpt>
      <trkpt lat="46.74091" lon="2.127">
        <ele>154.24</ele>
        <time>2022-07-26T11:18:11.631Z</time>
      </trkpt>
      <trkpt lat="46.74085" lon="2.1268">
        <ele>154.34</ele>
        <time>2022-07-26T11:18:17.000Z</time>
      </trkpt>
      <trkpt lat="46.74077" lon="2.12649">
        <ele>154.82</ele>
        <time>2022-07-26T11:18:23.000Z</time>
      </trkpt>
      <trkpt lat="46.74071" lon="2.12625">
        <ele>155.34</ele>
        <time>2022-07-26T11:18:28.000Z</time>
      </trkpt>
      <trkpt lat="46.74061" lon="2.12589">
        <ele>154.42</ele>
        <time>2022-07-26T11:18:34.000Z</time>
      </trkpt>
      <trkpt lat="46.74051" lon="2.12555">
        <ele>153.4</ele>
        <time>2022-07-26T11:18:39.000Z</time>
      </trkpt>
      <trkpt lat="46.74042" lon="2.12521">
        <ele>152.31</ele>
        <time>2022-07-26T11:18:44.000Z</time>
      </trkpt>
      <trkpt lat="46.74031" lon="2.12481">
        <ele>152.33</ele>
        <time>2022-07-26T11:18:49.000Z</time>
      </trkpt>
      <trkpt lat="46.74022" lon="2.12444">
        <ele>152.22</ele>
        <time>2022-07-26T11:18:54.000Z</time>
      </trkpt>
      <trkpt lat="46.74014" lon="2.12408">
        <ele>151.05</ele>
        <time>2022-07-26T11:18:59.000Z</time>
      </trkpt>
      <trkpt lat="46.74006" lon="2.12374">
        <ele>151.07</ele>
        <time>2022-07-26T11:19:04.000Z</time>
      </trkpt>
      <trkpt lat="46.73999" lon="2.12343">
        <ele>151.99</ele>
        <time>2022-07-26T11:19:09.000Z</time>
      </trkpt>
      <trkpt lat="46.73993" lon="2.12313">
        <ele>153.3</ele>
        <time>2022-07-26T11:19:14.000Z</time>
      </trkpt>
      <trkpt lat="46.73987" lon="2.12281">
        <ele>154.06</ele>
        <time>2022-07-26T11:19:20.000Z</time>
      </trkpt>
      <trkpt lat="46.7398" lon="2.12255">
        <ele>155.64</ele>
        <time>2022-07-26T11:19:25.000Z</time>
      </trkpt>
      <trkpt lat="46.73974" lon="2.12223">
        <ele>156.16</ele>
        <time>2022-07-26T11:19:31.000Z</time>
      </trkpt>
      <trkpt lat="46.73968" lon="2.12191">
        <ele>155.67</ele>
        <time>2022-07-26T11:19:37.000Z</time>
      </trkpt>
      <trkpt lat="46.73962" lon="2.1216">
        <ele>156.1</ele>
        <time>2022-07-26T11:19:41.284Z</time>
      </trkpt>
      <trkpt lat="46.73958" lon="2.12142">
        <ele>157.08</ele>
        <time>2022-07-26T11:19:46.000Z</time>
      </trkpt>
      <trkpt lat="46.73953" lon="2.12111">
        <ele>157.4</ele>
        <time>2022-07-26T11:19:50.405Z</time>
      </trkpt>
      <trkpt lat="46.73946" lon="2.12082">
        <ele>157.25</ele>
        <time>2022-07-26T11:19:55.530Z</time>
      </trkpt>
      <trkpt lat="46.73941" lon="2.12056">
        <ele>157.88</ele>
        <time>2022-07-26T11:20:00.444Z</time>
      </trkpt>
      <trkpt lat="46.73934" lon="2.12022">
        <ele>158.31</ele>
        <time>2022-07-26T11:20:07.000Z</time>
      </trkpt>
      <trkpt lat="46.73928" lon="2.11989">
        <ele>158.15</ele>
        <time>2022-07-26T11:20:12.000Z</time>
      </trkpt>
      <trkpt lat="46.73922" lon="2.11958">
        <ele>157.85</ele>
        <time>2022-07-26T11:20:17.000Z</time>
      </trkpt>
      <trkpt lat="46.73916" lon="2.11925">
        <ele>157.69</ele>
        <time>2022-07-26T11:20:22.000Z</time>
      </trkpt>
      <trkpt lat="46.73909" lon="2.11891">
        <ele>157.18</ele>
        <time>2022-07-26T11:20:27.000Z</time>
      </trkpt>
      <trkpt lat="46.73902" lon="2.11857">
        <ele>155.85</ele>
        <time>2022-07-26T11:20:32.000Z</time>
      </trkpt>
      <trkpt lat="46.73891" lon="2.11821">
        <ele>155.19</ele>
        <time>2022-07-26T11:20:37.000Z</time>
      </trkpt>
      <trkpt lat="46.73884" lon="2.11778">
        <ele>154.59</ele>
        <time>2022-07-26T11:20:42.000Z</time>
      </trkpt>
      <trkpt lat="46.73872" lon="2.11725">
        <ele>152.75</ele>
        <time>2022-07-26T11:20:47.000Z</time>
      </trkpt>
      <trkpt lat="46.7386" lon="2.11671">
        <ele>151.6</ele>
        <time>2022-07-26T11:20:52.000Z</time>
      </trkpt>
      <trkpt lat="46.73847" lon="2.11615">
        <ele>150.04</ele>
        <time>2022-07-26T11:20:57.000Z</time>
      </trkpt>
      <trkpt lat="46.73835" lon="2.11559">
        <ele>148.63</ele>
        <time>2022-07-26T11:21:02.000Z</time>
      </trkpt>
      <trkpt lat="46.73822" lon="2.11504">
        <ele>148.07</ele>
        <time>2022-07-26T11:21:07.000Z</time>
      </trkpt>
      <trkpt lat="46.73812" lon="2.11454">
        <ele>148.04</ele>
        <time>2022-07-26T11:21:12.000Z</time>
      </trkpt>
      <trkpt lat="46.73807" lon="2.11405">
        <ele>147.57</ele>
        <time>2022-07-26T11:21:17.000Z</time>
      </trkpt>
      <trkpt lat="46.73804" lon="2.1136">
        <ele>146.92</ele>
        <time>2022-07-26T11:21:22.000Z</time>
      </trkpt>
      <trkpt lat="46.73801" lon="2.11319">
        <ele>147.61</ele>
        <time>2022-07-26T11:21:27.000Z</time>
      </trkpt>
      <trkpt lat="46.73796" lon="2.11279">
        <ele>147.99</ele>
        <time>2022-07-26T11:21:32.000Z</time>
      </trkpt>
      <trkpt lat="46.73791" lon="2.11243">
        <ele>148.17</ele>
        <time>2022-07-26T11:21:37.000Z</time>
      </trkpt>
      <trkpt lat="46.73786" lon="2.11209">
        <ele>148.71</ele>
        <time>2022-07-26T11:21:42.000Z</time>
      </trkpt>
      <trkpt lat="46.73781" lon="2.11177">
        <ele>148.76</ele>
        <time>2022-07-26T11:21:47.000Z</time>
      </trkpt>
      <trkpt lat="46.73775" lon="2.11144">
        <ele>148.22</ele>
        <time>2022-07-26T11:21:52.000Z</time>
      </trkpt>
      <trkpt lat="46.73769" lon="2.11109">
        <ele>148.24</ele>
        <time>2022-07-26T11:21:57.000Z</time>
      </trkpt>
      <trkpt lat="46.73763" lon="2.11075">
        <ele>148.2</ele>
        <time>2022-07-26T11:22:02.000Z</time>
      </trkpt>
      <trkpt lat="46.73756" lon="2.11039">
        <ele>147.56</ele>
        <time>2022-07-26T11:22:07.000Z</time>
      </trkpt>
      <trkpt lat="46.73751" lon="2.11004">
        <ele>147.06</ele>
        <time>2022-07-26T11:22:12.000Z</time>
      </trkpt>
      <trkpt lat="46.73745" lon="2.10967">
        <ele>146.42</ele>
        <time>2022-07-26T11:22:17.000Z</time>
      </trkpt>
      <trkpt lat="46.73738" lon="2.10926">
        <ele>145.66</ele>
        <time>2022-07-26T11:22:22.000Z</time>
      </trkpt>
      <trkpt lat="46.7373" lon="2.10882">
        <ele>144.15</ele>
        <time>2022-07-26T11:22:27.000Z</time>
      </trkpt>
      <trkpt lat="46.73717" lon="2.10837">
        <ele>141.66</ele>
        <time>2022-07-26T11:22:32.000Z</time>
      </trkpt>
      <trkpt lat="46.73704" lon="2.10789">
        <ele>141.33</ele>
        <time>2022-07-26T11:22:37.000Z</time>
      </trkpt>
      <trkpt lat="46.73692" lon="2.10741">
        <ele>141.43</ele>
        <time>2022-07-26T11:22:42.000Z</time>
      </trkpt>
      <trkpt lat="46.73679" lon="2.10697">
        <ele>141.58</ele>
        <time>2022-07-26T11:22:47.000Z</time>
      </trkpt>
      <trkpt lat="46.73668" lon="2.10655">
        <ele>142.19</ele>
        <time>2022-07-26T11:22:52.000Z</time>
      </trkpt>
      <trkpt lat="46.73658" lon="2.10615">
        <ele>142.21</ele>
        <time>2022-07-26T11:22:57.000Z</time>
      </trkpt>
      <trkpt lat="46.73648" lon="2.10578">
        <ele>141.64</ele>
        <time>2022-07-26T11:23:02.000Z</time>
      </trkpt>
      <trkpt lat="46.73638" lon="2.10543">
        <ele>141.46</ele>
        <time>2022-07-26T11:23:07.000Z</time>
      </trkpt>
      <trkpt lat="46.7363" lon="2.10509">
        <ele>141.18</ele>
        <time>2022-07-26T11:23:12.000Z</time>
      </trkpt>
      <trkpt lat="46.73623" lon="2.10476">
        <ele>140.16</ele>
        <time>2022-07-26T11:23:17.000Z</time>
      </trkpt>
      <trkpt lat="46.73615" lon="2.10448">
        <ele>139.51</ele>
        <time>2022-07-26T11:23:22.000Z</time>
      </trkpt>
      <trkpt lat="46.73608" lon="2.10414">
        <ele>139.33</ele>
        <time>2022-07-26T11:23:28.000Z</time>
      </trkpt>
      <trkpt lat="46.73597" lon="2.10379">
        <ele>141.09</ele>
        <time>2022-07-26T11:23:32.330Z</time>
      </trkpt>
      <trkpt lat="46.73591" lon="2.10354">
        <ele>142.23</ele>
        <time>2022-07-26T11:23:38.000Z</time>
      </trkpt>
      <trkpt lat="46.73585" lon="2.10326">
        <ele>143.74</ele>
        <time>2022-07-26T11:23:43.000Z</time>
      </trkpt>
      <trkpt lat="46.73572" lon="2.1029">
        <ele>144.34</ele>
        <time>2022-07-26T11:23:47.535Z</time>
      </trkpt>
      <trkpt lat="46.73565" lon="2.10265">
        <ele>145.39</ele>
        <time>2022-07-26T11:23:53.000Z</time>
      </trkpt>
      <trkpt lat="46.73557" lon="2.10232">
        <ele>146.38</ele>
        <time>2022-07-26T11:23:57.382Z</time>
      </trkpt>
      <trkpt lat="46.73551" lon="2.10207">
        <ele>146.84</ele>
        <time>2022-07-26T11:24:01.562Z</time>
      </trkpt>
      <trkpt lat="46.73548" lon="2.10185">
        <ele>147.12</ele>
        <time>2022-07-26T11:24:06.000Z</time>
      </trkpt>
      <trkpt lat="46.73542" lon="2.10151">
        <ele>146.9</ele>
        <time>2022-07-26T11:24:11.000Z</time>
      </trkpt>
      <trkpt lat="46.73537" lon="2.10116">
        <ele>146.58</ele>
        <time>2022-07-26T11:24:16.000Z</time>
      </trkpt>
      <trkpt lat="46.73532" lon="2.10075">
        <ele>146.23</ele>
        <time>2022-07-26T11:24:21.000Z</time>
      </trkpt>
      <trkpt lat="46.73528" lon="2.10033">
        <ele>145.98</ele>
        <time>2022-07-26T11:24:26.000Z</time>
      </trkpt>
      <trkpt lat="46.73525" lon="2.09992">
        <ele>145.21</ele>
        <time>2022-07-26T11:24:31.000Z</time>
      </trkpt>
      <trkpt lat="46.73522" lon="2.09953">
        <ele>145.29</ele>
        <time>2022-07-26T11:24:36.000Z</time>
      </trkpt>
      <trkpt lat="46.73518" lon="2.09915">
        <ele>145.08</ele>
        <time>2022-07-26T11:24:41.000Z</time>
      </trkpt>
      <trkpt lat="46.73515" lon="2.09877">
        <ele>144.23</ele>
        <time>2022-07-26T11:24:46.000Z</time>
      </trkpt>
      <trkpt lat="46.73512" lon="2.09841">
        <ele>144.35</ele>
        <time>2022-07-26T11:24:51.000Z</time>
      </trkpt>
      <trkpt lat="46.7351" lon="2.09808">
        <ele>145.55</ele>
        <time>2022-07-26T11:24:56.000Z</time>
      </trkpt>
      <trkpt lat="46.73507" lon="2.09775">
        <ele>147.69</ele>
        <time>2022-07-26T11:25:01.000Z</time>
      </trkpt>
      <trkpt lat="46.73506" lon="2.09739">
        <ele>147.77</ele>
        <time>2022-07-26T11:25:07.000Z</time>
      </trkpt>
      <trkpt lat="46.73507" lon="2.09699">
        <ele>148.97</ele>
        <time>2022-07-26T11:25:13.000Z</time>
      </trkpt>
      <trkpt lat="46.73507" lon="2.09666">
        <ele>149.36</ele>
        <time>2022-07-26T11:25:18.000Z</time>
      </trkpt>
      <trkpt lat="46.73507" lon="2.09633">
        <ele>149.54</ele>
        <time>2022-07-26T11:25:23.000Z</time>
      </trkpt>
      <trkpt lat="46.73507" lon="2.09599">
        <ele>149.91</ele>
        <time>2022-07-26T11:25:28.000Z</time>
      </trkpt>
      <trkpt lat="46.73506" lon="2.09563">
        <ele>148.66</ele>
        <time>2022-07-26T11:25:33.000Z</time>
      </trkpt>
      <trkpt lat="46.73505" lon="2.09527">
        <ele>147.47</ele>
        <time>2022-07-26T11:25:38.000Z</time>
      </trkpt>
      <trkpt lat="46.73505" lon="2.09491">
        <ele>147.82</ele>
        <time>2022-07-26T11:25:43.000Z</time>
      </trkpt>
      <trkpt lat="46.73504" lon="2.09457">
        <ele>148.01</ele>
        <time>2022-07-26T11:25:48.000Z</time>
      </trkpt>
      <trkpt lat="46.73502" lon="2.09422">
        <ele>147.48</ele>
        <time>2022-07-26T11:25:53.000Z</time>
      </trkpt>
      <trkpt lat="46.73499" lon="2.09388">
        <ele>147.09</ele>
        <time>2022-07-26T11:25:58.000Z</time>
      </trkpt>
      <trkpt lat="46.73497" lon="2.09354">
        <ele>147.37</ele>
        <time>2022-07-26T11:26:03.000Z</time>
      </trkpt>
      <trkpt lat="46.73494" lon="2.09323">
        <ele>147.83</ele>
        <time>2022-07-26T11:26:08.000Z</time>
      </trkpt>
      <trkpt lat="46.7349" lon="2.09291">
        <ele>148.5</ele>
        <time>2022-07-26T11:26:14.000Z</time>
      </trkpt>
      <trkpt lat="46.73489" lon="2.09253">
        <ele>149.48</ele>
        <time>2022-07-26T11:26:18.411Z</time>
      </trkpt>
      <trkpt lat="46.73488" lon="2.09228">
        <ele>149.91</ele>
        <time>2022-07-26T11:26:24.000Z</time>
      </trkpt>
      <trkpt lat="46.73485" lon="2.092">
        <ele>150.91</ele>
        <time>2022-07-26T11:26:29.000Z</time>
      </trkpt>
      <trkpt lat="46.73483" lon="2.09167">
        <ele>150.83</ele>
        <time>2022-07-26T11:26:33.243Z</time>
      </trkpt>
      <trkpt lat="46.73482" lon="2.09145">
        <ele>150.54</ele>
        <time>2022-07-26T11:26:38.000Z</time>
      </trkpt>
      <trkpt lat="46.73483" lon="2.0911">
        <ele>150.56</ele>
        <time>2022-07-26T11:26:42.143Z</time>
      </trkpt>
      <trkpt lat="46.73484" lon="2.09085">
        <ele>152</ele>
        <time>2022-07-26T11:26:46.230Z</time>
      </trkpt>
      <trkpt lat="46.73485" lon="2.09066">
        <ele>152.33</ele>
        <time>2022-07-26T11:26:51.000Z</time>
      </trkpt>
      <trkpt lat="46.73488" lon="2.09037">
        <ele>151.77</ele>
        <time>2022-07-26T11:26:56.000Z</time>
      </trkpt>
      <trkpt lat="46.7349" lon="2.09003">
        <ele>151.68</ele>
        <time>2022-07-26T11:27:00.468Z</time>
      </trkpt>
      <trkpt lat="46.73491" lon="2.08984">
        <ele>152.1</ele>
        <time>2022-07-26T11:27:05.000Z</time>
      </trkpt>
      <trkpt lat="46.73493" lon="2.08956">
        <ele>153</ele>
        <time>2022-07-26T11:27:10.000Z</time>
      </trkpt>
      <trkpt lat="46.73495" lon="2.08926">
        <ele>153.08</ele>
        <time>2022-07-26T11:27:14.210Z</time>
      </trkpt>
      <trkpt lat="46.73496" lon="2.08901">
        <ele>153.55</ele>
        <time>2022-07-26T11:27:18.490Z</time>
      </trkpt>
      <trkpt lat="46.73497" lon="2.08878">
        <ele>154.3</ele>
        <time>2022-07-26T11:27:24.000Z</time>
      </trkpt>
      <trkpt lat="46.73499" lon="2.08844">
        <ele>154.56</ele>
        <time>2022-07-26T11:27:28.669Z</time>
      </trkpt>
      <trkpt lat="46.735" lon="2.08822">
        <ele>154.25</ele>
        <time>2022-07-26T11:27:34.000Z</time>
      </trkpt>
      <trkpt lat="46.73502" lon="2.08791">
        <ele>154.63</ele>
        <time>2022-07-26T11:27:38.107Z</time>
      </trkpt>
      <trkpt lat="46.73501" lon="2.08765">
        <ele>154.66</ele>
        <time>2022-07-26T11:27:42.643Z</time>
      </trkpt>
      <trkpt lat="46.735" lon="2.08739">
        <ele>154.8</ele>
        <time>2022-07-26T11:27:47.063Z</time>
      </trkpt>
      <trkpt lat="46.73497" lon="2.08717">
        <ele>155.03</ele>
        <time>2022-07-26T11:27:52.000Z</time>
      </trkpt>
      <trkpt lat="46.73489" lon="2.0868">
        <ele>154.59</ele>
        <time>2022-07-26T11:27:58.000Z</time>
      </trkpt>
      <trkpt lat="46.73477" lon="2.08647">
        <ele>152.8</ele>
        <time>2022-07-26T11:28:03.000Z</time>
      </trkpt>
      <trkpt lat="46.73462" lon="2.08609">
        <ele>150.72</ele>
        <time>2022-07-26T11:28:08.000Z</time>
      </trkpt>
      <trkpt lat="46.73444" lon="2.08567">
        <ele>147.97</ele>
        <time>2022-07-26T11:28:13.000Z</time>
      </trkpt>
      <trkpt lat="46.73427" lon="2.08519">
        <ele>145.66</ele>
        <time>2022-07-26T11:28:18.000Z</time>
      </trkpt>
      <trkpt lat="46.73414" lon="2.08471">
        <ele>144.89</ele>
        <time>2022-07-26T11:28:23.000Z</time>
      </trkpt>
      <trkpt lat="46.73408" lon="2.0843">
        <ele>145.12</ele>
        <time>2022-07-26T11:28:28.000Z</time>
      </trkpt>
      <trkpt lat="46.73405" lon="2.08389">
        <ele>145.43</ele>
        <time>2022-07-26T11:28:33.000Z</time>
      </trkpt>
      <trkpt lat="46.73403" lon="2.08346">
        <ele>145.78</ele>
        <time>2022-07-26T11:28:38.000Z</time>
      </trkpt>
      <trkpt lat="46.734" lon="2.08305">
        <ele>146.53</ele>
        <time>2022-07-26T11:28:43.000Z</time>
      </trkpt>
      <trkpt lat="46.73398" lon="2.08271">
        <ele>146.97</ele>
        <time>2022-07-26T11:28:48.000Z</time>
      </trkpt>
      <trkpt lat="46.73396" lon="2.08242">
        <ele>146.79</ele>
        <time>2022-07-26T11:28:53.000Z</time>
      </trkpt>
      <trkpt lat="46.73394" lon="2.0821">
        <ele>146.82</ele>
        <time>2022-07-26T11:28:57.095Z</time>
      </trkpt>
      <trkpt lat="46.73393" lon="2.08185">
        <ele>147.06</ele>
        <time>2022-07-26T11:29:01.693Z</time>
      </trkpt>
      <trkpt lat="46.73392" lon="2.08164">
        <ele>147.55</ele>
        <time>2022-07-26T11:29:07.000Z</time>
      </trkpt>
      <trkpt lat="46.7339" lon="2.08129">
        <ele>147.96</ele>
        <time>2022-07-26T11:29:11.391Z</time>
      </trkpt>
      <trkpt lat="46.73389" lon="2.0811">
        <ele>147.56</ele>
        <time>2022-07-26T11:29:16.000Z</time>
      </trkpt>
      <trkpt lat="46.73387" lon="2.08074">
        <ele>147.83</ele>
        <time>2022-07-26T11:29:22.000Z</time>
      </trkpt>
      <trkpt lat="46.73386" lon="2.08042">
        <ele>148.79</ele>
        <time>2022-07-26T11:29:27.000Z</time>
      </trkpt>
      <trkpt lat="46.73384" lon="2.08012">
        <ele>149.76</ele>
        <time>2022-07-26T11:29:31.153Z</time>
      </trkpt>
      <trkpt lat="46.73381" lon="2.07995">
        <ele>152.28</ele>
        <time>2022-07-26T11:29:35.452Z</time>
      </trkpt>
      <trkpt lat="46.73382" lon="2.0797">
        <ele>151.61</ele>
        <time>2022-07-26T11:29:40.000Z</time>
      </trkpt>
      <trkpt lat="46.73385" lon="2.07928">
        <ele>147.22</ele>
        <time>2022-07-26T11:29:44.656Z</time>
      </trkpt>
      <trkpt lat="46.73387" lon="2.07908">
        <ele>144.95</ele>
        <time>2022-07-26T11:29:49.000Z</time>
      </trkpt>
      <trkpt lat="46.73391" lon="2.07884">
        <ele>143.72</ele>
        <time>2022-07-26T11:29:54.000Z</time>
      </trkpt>
      <trkpt lat="46.73392" lon="2.07848">
        <ele>147.93</ele>
        <time>2022-07-26T11:29:59.000Z</time>
      </trkpt>
      <trkpt lat="46.73395" lon="2.07813">
        <ele>149.17</ele>
        <time>2022-07-26T11:30:04.000Z</time>
      </trkpt>
      <trkpt lat="46.73399" lon="2.07775">
        <ele>150.15</ele>
        <time>2022-07-26T11:30:09.000Z</time>
      </trkpt>
      <trkpt lat="46.73404" lon="2.07732">
        <ele>151.07</ele>
        <time>2022-07-26T11:30:14.000Z</time>
      </trkpt>
      <trkpt lat="46.73408" lon="2.07694">
        <ele>151.89</ele>
        <time>2022-07-26T11:30:19.000Z</time>
      </trkpt>
      <trkpt lat="46.73413" lon="2.07659">
        <ele>152.12</ele>
        <time>2022-07-26T11:30:24.000Z</time>
      </trkpt>
      <trkpt lat="46.73417" lon="2.07623">
        <ele>152.54</ele>
        <time>2022-07-26T11:30:29.000Z</time>
      </trkpt>
      <trkpt lat="46.73422" lon="2.07586">
        <ele>150.62</ele>
        <time>2022-07-26T11:30:34.000Z</time>
      </trkpt>
      <trkpt lat="46.73428" lon="2.07545">
        <ele>149.27</ele>
        <time>2022-07-26T11:30:39.000Z</time>
      </trkpt>
      <trkpt lat="46.73431" lon="2.07506">
        <ele>148.37</ele>
        <time>2022-07-26T11:30:44.000Z</time>
      </trkpt>
      <trkpt lat="46.73434" lon="2.07465">
        <ele>148.58</ele>
        <time>2022-07-26T11:30:49.000Z</time>
      </trkpt>
      <trkpt lat="46.73438" lon="2.07423">
        <ele>148.47</ele>
        <time>2022-07-26T11:30:54.000Z</time>
      </trkpt>
      <trkpt lat="46.73442" lon="2.07384">
        <ele>148.64</ele>
        <time>2022-07-26T11:30:59.000Z</time>
      </trkpt>
      <trkpt lat="46.73447" lon="2.07347">
        <ele>148.19</ele>
        <time>2022-07-26T11:31:04.000Z</time>
      </trkpt>
      <trkpt lat="46.7345" lon="2.07311">
        <ele>148.63</ele>
        <time>2022-07-26T11:31:09.000Z</time>
      </trkpt>
      <trkpt lat="46.73454" lon="2.07274">
        <ele>149.7</ele>
        <time>2022-07-26T11:31:14.000Z</time>
      </trkpt>
      <trkpt lat="46.73457" lon="2.0724">
        <ele>149.43</ele>
        <time>2022-07-26T11:31:19.000Z</time>
      </trkpt>
      <trkpt lat="46.73458" lon="2.0721">
        <ele>148.25</ele>
        <time>2022-07-26T11:31:24.000Z</time>
      </trkpt>
      <trkpt lat="46.73454" lon="2.07174">
        <ele>148.51</ele>
        <time>2022-07-26T11:31:29.000Z</time>
      </trkpt>
      <trkpt lat="46.73449" lon="2.07143">
        <ele>148.59</ele>
        <time>2022-07-26T11:31:34.000Z</time>
      </trkpt>
      <trkpt lat="46.73441" lon="2.07112">
        <ele>148.43</ele>
        <time>2022-07-26T11:31:39.000Z</time>
      </trkpt>
      <trkpt lat="46.73432" lon="2.07083">
        <ele>148.72</ele>
        <time>2022-07-26T11:31:44.000Z</time>
      </trkpt>
      <trkpt lat="46.73423" lon="2.07051">
        <ele>148.41</ele>
        <time>2022-07-26T11:31:49.000Z</time>
      </trkpt>
      <trkpt lat="46.73413" lon="2.07018">
        <ele>148.2</ele>
        <time>2022-07-26T11:31:54.000Z</time>
      </trkpt>
      <trkpt lat="46.73405" lon="2.06989">
        <ele>149.57</ele>
        <time>2022-07-26T11:31:59.000Z</time>
      </trkpt>
      <trkpt lat="46.73394" lon="2.06955">
        <ele>148.57</ele>
        <time>2022-07-26T11:32:04.000Z</time>
      </trkpt>
      <trkpt lat="46.73384" lon="2.06923">
        <ele>148.71</ele>
        <time>2022-07-26T11:32:09.000Z</time>
      </trkpt>
      <trkpt lat="46.73373" lon="2.06893">
        <ele>148.92</ele>
        <time>2022-07-26T11:32:14.000Z</time>
      </trkpt>
      <trkpt lat="46.73358" lon="2.06863">
        <ele>150.17</ele>
        <time>2022-07-26T11:32:19.000Z</time>
      </trkpt>
      <trkpt lat="46.73341" lon="2.06836">
        <ele>151.35</ele>
        <time>2022-07-26T11:32:24.000Z</time>
      </trkpt>
      <trkpt lat="46.73324" lon="2.06812">
        <ele>151.8</ele>
        <time>2022-07-26T11:32:29.000Z</time>
      </trkpt>
      <trkpt lat="46.73306" lon="2.06788">
        <ele>151.8</ele>
        <time>2022-07-26T11:32:34.000Z</time>
      </trkpt>
      <trkpt lat="46.73288" lon="2.06764">
        <ele>152.47</ele>
        <time>2022-07-26T11:32:39.000Z</time>
      </trkpt>
      <trkpt lat="46.7327" lon="2.06742">
        <ele>150.45</ele>
        <time>2022-07-26T11:32:44.000Z</time>
      </trkpt>
      <trkpt lat="46.73259" lon="2.06719">
        <ele>147.33</ele>
        <time>2022-07-26T11:32:49.000Z</time>
      </trkpt>
      <trkpt lat="46.73246" lon="2.06689">
        <ele>146.27</ele>
        <time>2022-07-26T11:32:54.000Z</time>
      </trkpt>
      <trkpt lat="46.73236" lon="2.06658">
        <ele>145.54</ele>
        <time>2022-07-26T11:32:59.000Z</time>
      </trkpt>
      <trkpt lat="46.73225" lon="2.06625">
        <ele>146.49</ele>
        <time>2022-07-26T11:33:04.000Z</time>
      </trkpt>
      <trkpt lat="46.73213" lon="2.06595">
        <ele>148.06</ele>
        <time>2022-07-26T11:33:09.000Z</time>
      </trkpt>
      <trkpt lat="46.73201" lon="2.06569">
        <ele>146.23</ele>
        <time>2022-07-26T11:33:14.000Z</time>
      </trkpt>
      <trkpt lat="46.73187" lon="2.06543">
        <ele>146.79</ele>
        <time>2022-07-26T11:33:19.000Z</time>
      </trkpt>
      <trkpt lat="46.7317" lon="2.06513">
        <ele>148.69</ele>
        <time>2022-07-26T11:33:25.000Z</time>
      </trkpt>
      <trkpt lat="46.73156" lon="2.06475">
        <ele>148.47</ele>
        <time>2022-07-26T11:33:31.000Z</time>
      </trkpt>
      <trkpt lat="46.73149" lon="2.06443">
        <ele>147.85</ele>
        <time>2022-07-26T11:33:36.000Z</time>
      </trkpt>
      <trkpt lat="46.73144" lon="2.06408">
        <ele>147.86</ele>
        <time>2022-07-26T11:33:41.000Z</time>
      </trkpt>
      <trkpt lat="46.73142" lon="2.06371">
        <ele>151.43</ele>
        <time>2022-07-26T11:33:46.000Z</time>
      </trkpt>
      <trkpt lat="46.73141" lon="2.06333">
        <ele>154.32</ele>
        <time>2022-07-26T11:33:51.000Z</time>
      </trkpt>
      <trkpt lat="46.7314" lon="2.06298">
        <ele>155.34</ele>
        <time>2022-07-26T11:33:56.000Z</time>
      </trkpt>
      <trkpt lat="46.7314" lon="2.06262">
        <ele>155.59</ele>
        <time>2022-07-26T11:34:01.000Z</time>
      </trkpt>
      <trkpt lat="46.7314" lon="2.06226">
        <ele>155.42</ele>
        <time>2022-07-26T11:34:06.000Z</time>
      </trkpt>
      <trkpt lat="46.7314" lon="2.06196">
        <ele>156.06</ele>
        <time>2022-07-26T11:34:11.000Z</time>
      </trkpt>
      <trkpt lat="46.7314" lon="2.06159">
        <ele>157.56</ele>
        <time>2022-07-26T11:34:16.000Z</time>
      </trkpt>
      <trkpt lat="46.73138" lon="2.06124">
        <ele>157.86</ele>
        <time>2022-07-26T11:34:21.000Z</time>
      </trkpt>
      <trkpt lat="46.73137" lon="2.06089">
        <ele>157.07</ele>
        <time>2022-07-26T11:34:26.000Z</time>
      </trkpt>
      <trkpt lat="46.73136" lon="2.06054">
        <ele>155.25</ele>
        <time>2022-07-26T11:34:31.000Z</time>
      </trkpt>
      <trkpt lat="46.73135" lon="2.06019">
        <ele>154.6</ele>
        <time>2022-07-26T11:34:36.000Z</time>
      </trkpt>
      <trkpt lat="46.73134" lon="2.05984">
        <ele>154.12</ele>
        <time>2022-07-26T11:34:41.000Z</time>
      </trkpt>
      <trkpt lat="46.73133" lon="2.05948">
        <ele>154.08</ele>
        <time>2022-07-26T11:34:46.000Z</time>
      </trkpt>
      <trkpt lat="46.73132" lon="2.05912">
        <ele>153.65</ele>
        <time>2022-07-26T11:34:51.000Z</time>
      </trkpt>
      <trkpt lat="46.73133" lon="2.05875">
        <ele>153.56</ele>
        <time>2022-07-26T11:34:56.000Z</time>
      </trkpt>
      <trkpt lat="46.73132" lon="2.05838">
        <ele>153.26</ele>
        <time>2022-07-26T11:35:01.000Z</time>
      </trkpt>
      <trkpt lat="46.73131" lon="2.05798">
        <ele>152.18</ele>
        <time>2022-07-26T11:35:06.000Z</time>
      </trkpt>
      <trkpt lat="46.73131" lon="2.05756">
        <ele>150.78</ele>
        <time>2022-07-26T11:35:11.000Z</time>
      </trkpt>
      <trkpt lat="46.73132" lon="2.05714">
        <ele>149.13</ele>
        <time>2022-07-26T11:35:16.000Z</time>
      </trkpt>
      <trkpt lat="46.73134" lon="2.05672">
        <ele>149.69</ele>
        <time>2022-07-26T11:35:21.000Z</time>
      </trkpt>
      <trkpt lat="46.7314" lon="2.05633">
        <ele>151.18</ele>
        <time>2022-07-26T11:35:26.000Z</time>
      </trkpt>
      <trkpt lat="46.73146" lon="2.05587">
        <ele>152.68</ele>
        <time>2022-07-26T11:35:31.000Z</time>
      </trkpt>
      <trkpt lat="46.73153" lon="2.0554">
        <ele>152.2</ele>
        <time>2022-07-26T11:35:36.000Z</time>
      </trkpt>
      <trkpt lat="46.73161" lon="2.05489">
        <ele>149.29</ele>
        <time>2022-07-26T11:35:41.000Z</time>
      </trkpt>
      <trkpt lat="46.73177" lon="2.05434">
        <ele>146.79</ele>
        <time>2022-07-26T11:35:46.000Z</time>
      </trkpt>
      <trkpt lat="46.73198" lon="2.05385">
        <ele>144.51</ele>
        <time>2022-07-26T11:35:51.000Z</time>
      </trkpt>
      <trkpt lat="46.73217" lon="2.05342">
        <ele>141.41</ele>
        <time>2022-07-26T11:35:56.000Z</time>
      </trkpt>
      <trkpt lat="46.73235" lon="2.05303">
        <ele>139.11</ele>
        <time>2022-07-26T11:36:01.000Z</time>
      </trkpt>
      <trkpt lat="46.73251" lon="2.05267">
        <ele>138.01</ele>
        <time>2022-07-26T11:36:06.000Z</time>
      </trkpt>
      <trkpt lat="46.73265" lon="2.05228">
        <ele>139.58</ele>
        <time>2022-07-26T11:36:11.000Z</time>
      </trkpt>
      <trkpt lat="46.73276" lon="2.05185">
        <ele>142.95</ele>
        <time>2022-07-26T11:36:16.000Z</time>
      </trkpt>
      <trkpt lat="46.73285" lon="2.05145">
        <ele>143.87</ele>
        <time>2022-07-26T11:36:21.000Z</time>
      </trkpt>
      <trkpt lat="46.73294" lon="2.05112">
        <ele>145.91</ele>
        <time>2022-07-26T11:36:26.000Z</time>
      </trkpt>
      <trkpt lat="46.73302" lon="2.05082">
        <ele>146.63</ele>
        <time>2022-07-26T11:36:31.000Z</time>
      </trkpt>
      <trkpt lat="46.73309" lon="2.05052">
        <ele>147.89</ele>
        <time>2022-07-26T11:36:36.000Z</time>
      </trkpt>
      <trkpt lat="46.73318" lon="2.05023">
        <ele>148.92</ele>
        <time>2022-07-26T11:36:41.000Z</time>
      </trkpt>
      <trkpt lat="46.73326" lon="2.04997">
        <ele>149.31</ele>
        <time>2022-07-26T11:36:46.000Z</time>
      </trkpt>
      <trkpt lat="46.73332" lon="2.04974">
        <ele>150.22</ele>
        <time>2022-07-26T11:36:51.000Z</time>
      </trkpt>
      <trkpt lat="46.73339" lon="2.04949">
        <ele>151.23</ele>
        <time>2022-07-26T11:36:56.000Z</time>
      </trkpt>
      <trkpt lat="46.73345" lon="2.0493">
        <ele>151.35</ele>
        <time>2022-07-26T11:37:01.000Z</time>
      </trkpt>
      <trkpt lat="46.73352" lon="2.04906">
        <ele>151.42</ele>
        <time>2022-07-26T11:37:06.000Z</time>
      </trkpt>
      <trkpt lat="46.73359" lon="2.04879">
        <ele>151.75</ele>
        <time>2022-07-26T11:37:11.000Z</time>
      </trkpt>
      <trkpt lat="46.73367" lon="2.0485">
        <ele>151.55</ele>
        <time>2022-07-26T11:37:16.000Z</time>
      </trkpt>
      <trkpt lat="46.73377" lon="2.04818">
        <ele>150.82</ele>
        <time>2022-07-26T11:37:21.000Z</time>
      </trkpt>
      <trkpt lat="46.73387" lon="2.04782">
        <ele>151.22</ele>
        <time>2022-07-26T11:37:26.000Z</time>
      </trkpt>
      <trkpt lat="46.73397" lon="2.04744">
        <ele>151.12</ele>
        <time>2022-07-26T11:37:31.000Z</time>
      </trkpt>
      <trkpt lat="46.73408" lon="2.04702">
        <ele>149.07</ele>
        <time>2022-07-26T11:37:36.000Z</time>
      </trkpt>
      <trkpt lat="46.73421" lon="2.04659">
        <ele>148.4</ele>
        <time>2022-07-26T11:37:41.000Z</time>
      </trkpt>
      <trkpt lat="46.73433" lon="2.0462">
        <ele>148.76</ele>
        <time>2022-07-26T11:37:46.000Z</time>
      </trkpt>
      <trkpt lat="46.73445" lon="2.04578">
        <ele>148.98</ele>
        <time>2022-07-26T11:37:51.000Z</time>
      </trkpt>
      <trkpt lat="46.73457" lon="2.04537">
        <ele>149.48</ele>
        <time>2022-07-26T11:37:56.000Z</time>
      </trkpt>
      <trkpt lat="46.73467" lon="2.04504">
        <ele>150.71</ele>
        <time>2022-07-26T11:38:01.000Z</time>
      </trkpt>
      <trkpt lat="46.73475" lon="2.04479">
        <ele>150.52</ele>
        <time>2022-07-26T11:38:06.000Z</time>
      </trkpt>
      <trkpt lat="46.73481" lon="2.04455">
        <ele>151.64</ele>
        <time>2022-07-26T11:38:11.000Z</time>
      </trkpt>
      <trkpt lat="46.73491" lon="2.04423">
        <ele>151.26</ele>
        <time>2022-07-26T11:38:15.442Z</time>
      </trkpt>
      <trkpt lat="46.73499" lon="2.04399">
        <ele>150.89</ele>
        <time>2022-07-26T11:38:21.000Z</time>
      </trkpt>
      <trkpt lat="46.73508" lon="2.04371">
        <ele>151.04</ele>
        <time>2022-07-26T11:38:25.161Z</time>
      </trkpt>
      <trkpt lat="46.73514" lon="2.04349">
        <ele>151.29</ele>
        <time>2022-07-26T11:38:29.265Z</time>
      </trkpt>
      <trkpt lat="46.73521" lon="2.04325">
        <ele>151.39</ele>
        <time>2022-07-26T11:38:33.542Z</time>
      </trkpt>
      <trkpt lat="46.73525" lon="2.04308">
        <ele>151.41</ele>
        <time>2022-07-26T11:38:38.000Z</time>
      </trkpt>
      <trkpt lat="46.73533" lon="2.04282">
        <ele>150.95</ele>
        <time>2022-07-26T11:38:43.000Z</time>
      </trkpt>
      <trkpt lat="46.73542" lon="2.04251">
        <ele>151.08</ele>
        <time>2022-07-26T11:38:47.447Z</time>
      </trkpt>
      <trkpt lat="46.73548" lon="2.0423">
        <ele>150.97</ele>
        <time>2022-07-26T11:38:51.462Z</time>
      </trkpt>
      <trkpt lat="46.73555" lon="2.04205">
        <ele>150.75</ele>
        <time>2022-07-26T11:38:57.000Z</time>
      </trkpt>
      <trkpt lat="46.73565" lon="2.04171">
        <ele>151.14</ele>
        <time>2022-07-26T11:39:01.456Z</time>
      </trkpt>
      <trkpt lat="46.73571" lon="2.04151">
        <ele>151.38</ele>
        <time>2022-07-26T11:39:06.000Z</time>
      </trkpt>
      <trkpt lat="46.73581" lon="2.04114">
        <ele>151.39</ele>
        <time>2022-07-26T11:39:12.000Z</time>
      </trkpt>
      <trkpt lat="46.73591" lon="2.04078">
        <ele>151.27</ele>
        <time>2022-07-26T11:39:17.000Z</time>
      </trkpt>
      <trkpt lat="46.736" lon="2.04043">
        <ele>150.83</ele>
        <time>2022-07-26T11:39:22.000Z</time>
      </trkpt>
      <trkpt lat="46.73608" lon="2.04009">
        <ele>150.52</ele>
        <time>2022-07-26T11:39:27.000Z</time>
      </trkpt>
      <trkpt lat="46.73614" lon="2.03974">
        <ele>150.22</ele>
        <time>2022-07-26T11:39:32.000Z</time>
      </trkpt>
      <trkpt lat="46.73618" lon="2.0394">
        <ele>150.08</ele>
        <time>2022-07-26T11:39:37.000Z</time>
      </trkpt>
      <trkpt lat="46.73622" lon="2.03907">
        <ele>151</ele>
        <time>2022-07-26T11:39:42.000Z</time>
      </trkpt>
      <trkpt lat="46.73624" lon="2.03872">
        <ele>151.95</ele>
        <time>2022-07-26T11:39:47.000Z</time>
      </trkpt>
      <trkpt lat="46.73626" lon="2.03837">
        <ele>152.21</ele>
        <time>2022-07-26T11:39:52.000Z</time>
      </trkpt>
      <trkpt lat="46.73629" lon="2.03801">
        <ele>152.77</ele>
        <time>2022-07-26T11:39:57.000Z</time>
      </trkpt>
      <trkpt lat="46.7363" lon="2.03766">
        <ele>153.2</ele>
        <time>2022-07-26T11:40:02.000Z</time>
      </trkpt>
      <trkpt lat="46.73632" lon="2.0373">
        <ele>153.07</ele>
        <time>2022-07-26T11:40:07.000Z</time>
      </trkpt>
      <trkpt lat="46.73633" lon="2.03696">
        <ele>153.12</ele>
        <time>2022-07-26T11:40:12.000Z</time>
      </trkpt>
      <trkpt lat="46.73635" lon="2.03661">
        <ele>152.15</ele>
        <time>2022-07-26T11:40:17.000Z</time>
      </trkpt>
      <trkpt lat="46.73637" lon="2.03624">
        <ele>152.09</ele>
        <time>2022-07-26T11:40:22.000Z</time>
      </trkpt>
      <trkpt lat="46.73639" lon="2.03587">
        <ele>151.94</ele>
        <time>2022-07-26T11:40:27.000Z</time>
      </trkpt>
      <trkpt lat="46.73641" lon="2.03551">
        <ele>151.21</ele>
        <time>2022-07-26T11:40:32.000Z</time>
      </trkpt>
      <trkpt lat="46.73642" lon="2.03515">
        <ele>151.06</ele>
        <time>2022-07-26T11:40:37.000Z</time>
      </trkpt>
      <trkpt lat="46.73643" lon="2.03478">
        <ele>151.52</ele>
        <time>2022-07-26T11:40:42.000Z</time>
      </trkpt>
      <trkpt lat="46.73645" lon="2.03442">
        <ele>152.06</ele>
        <time>2022-07-26T11:40:47.000Z</time>
      </trkpt>
      <trkpt lat="46.73647" lon="2.03406">
        <ele>151.61</ele>
        <time>2022-07-26T11:40:52.000Z</time>
      </trkpt>
      <trkpt lat="46.7365" lon="2.03369">
        <ele>151.4</ele>
        <time>2022-07-26T11:40:57.000Z</time>
      </trkpt>
      <trkpt lat="46.73653" lon="2.03333">
        <ele>151.23</ele>
        <time>2022-07-26T11:41:02.000Z</time>
      </trkpt>
      <trkpt lat="46.73659" lon="2.03295">
        <ele>150.98</ele>
        <time>2022-07-26T11:41:07.000Z</time>
      </trkpt>
      <trkpt lat="46.73666" lon="2.03256">
        <ele>150.22</ele>
        <time>2022-07-26T11:41:12.000Z</time>
      </trkpt>
      <trkpt lat="46.73674" lon="2.03216">
        <ele>149.42</ele>
        <time>2022-07-26T11:41:17.000Z</time>
      </trkpt>
      <trkpt lat="46.73683" lon="2.03175">
        <ele>149.16</ele>
        <time>2022-07-26T11:41:22.000Z</time>
      </trkpt>
      <trkpt lat="46.73691" lon="2.03134">
        <ele>149.86</ele>
        <time>2022-07-26T11:41:27.000Z</time>
      </trkpt>
      <trkpt lat="46.73698" lon="2.03093">
        <ele>149.82</ele>
        <time>2022-07-26T11:41:32.000Z</time>
      </trkpt>
      <trkpt lat="46.73706" lon="2.03054">
        <ele>149.83</ele>
        <time>2022-07-26T11:41:37.000Z</time>
      </trkpt>
      <trkpt lat="46.73713" lon="2.03014">
        <ele>149.09</ele>
        <time>2022-07-26T11:41:42.000Z</time>
      </trkpt>
      <trkpt lat="46.7372" lon="2.02974">
        <ele>148.31</ele>
        <time>2022-07-26T11:41:47.000Z</time>
      </trkpt>
      <trkpt lat="46.73727" lon="2.02933">
        <ele>147.97</ele>
        <time>2022-07-26T11:41:52.000Z</time>
      </trkpt>
      <trkpt lat="46.73734" lon="2.02893">
        <ele>146.11</ele>
        <time>2022-07-26T11:41:57.000Z</time>
      </trkpt>
      <trkpt lat="46.73742" lon="2.02852">
        <ele>146.02</ele>
        <time>2022-07-26T11:42:02.000Z</time>
      </trkpt>
      <trkpt lat="46.73751" lon="2.0281">
        <ele>145.94</ele>
        <time>2022-07-26T11:42:07.000Z</time>
      </trkpt>
      <trkpt lat="46.73759" lon="2.02768">
        <ele>146.3</ele>
        <time>2022-07-26T11:42:12.000Z</time>
      </trkpt>
      <trkpt lat="46.73767" lon="2.02725">
        <ele>146.34</ele>
        <time>2022-07-26T11:42:17.000Z</time>
      </trkpt>
      <trkpt lat="46.73776" lon="2.02681">
        <ele>146.27</ele>
        <time>2022-07-26T11:42:22.000Z</time>
      </trkpt>
      <trkpt lat="46.73785" lon="2.02635">
        <ele>145.7</ele>
        <time>2022-07-26T11:42:27.000Z</time>
      </trkpt>
      <trkpt lat="46.73793" lon="2.0259">
        <ele>143.5</ele>
        <time>2022-07-26T11:42:32.000Z</time>
      </trkpt>
      <trkpt lat="46.73801" lon="2.02542">
        <ele>142.58</ele>
        <time>2022-07-26T11:42:37.000Z</time>
      </trkpt>
      <trkpt lat="46.73811" lon="2.02492">
        <ele>141.31</ele>
        <time>2022-07-26T11:42:42.000Z</time>
      </trkpt>
      <trkpt lat="46.73821" lon="2.02441">
        <ele>140.86</ele>
        <time>2022-07-26T11:42:47.000Z</time>
      </trkpt>
      <trkpt lat="46.73831" lon="2.02388">
        <ele>140.44</ele>
        <time>2022-07-26T11:42:52.000Z</time>
      </trkpt>
      <trkpt lat="46.73842" lon="2.02338">
        <ele>140.76</ele>
        <time>2022-07-26T11:42:57.000Z</time>
      </trkpt>
      <trkpt lat="46.73851" lon="2.02291">
        <ele>140.53</ele>
        <time>2022-07-26T11:43:02.000Z</time>
      </trkpt>
      <trkpt lat="46.7386" lon="2.02244">
        <ele>139.55</ele>
        <time>2022-07-26T11:43:07.000Z</time>
      </trkpt>
      <trkpt lat="46.73868" lon="2.02198">
        <ele>140.21</ele>
        <time>2022-07-26T11:43:12.000Z</time>
      </trkpt>
      <trkpt lat="46.73877" lon="2.02156">
        <ele>141.19</ele>
        <time>2022-07-26T11:43:17.000Z</time>
      </trkpt>
      <trkpt lat="46.73886" lon="2.02117">
        <ele>142.21</ele>
        <time>2022-07-26T11:43:22.000Z</time>
      </trkpt>
      <trkpt lat="46.73892" lon="2.02079">
        <ele>141.3</ele>
        <time>2022-07-26T11:43:27.000Z</time>
      </trkpt>
      <trkpt lat="46.73899" lon="2.02043">
        <ele>141.41</ele>
        <time>2022-07-26T11:43:32.000Z</time>
      </trkpt>
      <trkpt lat="46.73906" lon="2.02008">
        <ele>141.73</ele>
        <time>2022-07-26T11:43:37.000Z</time>
      </trkpt>
      <trkpt lat="46.73913" lon="2.01974">
        <ele>141.5</ele>
        <time>2022-07-26T11:43:42.000Z</time>
      </trkpt>
      <trkpt lat="46.7392" lon="2.01938">
        <ele>142.26</ele>
        <time>2022-07-26T11:43:47.000Z</time>
      </trkpt>
      <trkpt lat="46.73928" lon="2.01902">
        <ele>143.61</ele>
        <time>2022-07-26T11:43:52.000Z</time>
      </trkpt>
      <trkpt lat="46.73936" lon="2.01866">
        <ele>143.38</ele>
        <time>2022-07-26T11:43:57.000Z</time>
      </trkpt>
      <trkpt lat="46.73941" lon="2.01829">
        <ele>144.77</ele>
        <time>2022-07-26T11:44:02.000Z</time>
      </trkpt>
      <trkpt lat="46.73944" lon="2.01793">
        <ele>145.43</ele>
        <time>2022-07-26T11:44:07.000Z</time>
      </trkpt>
      <trkpt lat="46.73942" lon="2.01755">
        <ele>145.41</ele>
        <time>2022-07-26T11:44:12.000Z</time>
      </trkpt>
      <trkpt lat="46.73937" lon="2.01718">
        <ele>145.34</ele>
        <time>2022-07-26T11:44:17.000Z</time>
      </trkpt>
      <trkpt lat="46.73928" lon="2.01684">
        <ele>145.39</ele>
        <time>2022-07-26T11:44:22.000Z</time>
      </trkpt>
      <trkpt lat="46.73917" lon="2.0165">
        <ele>144.67</ele>
        <time>2022-07-26T11:44:27.000Z</time>
      </trkpt>
      <trkpt lat="46.73904" lon="2.01616">
        <ele>145.21</ele>
        <time>2022-07-26T11:44:32.000Z</time>
      </trkpt>
      <trkpt lat="46.73891" lon="2.01581">
        <ele>145.69</ele>
        <time>2022-07-26T11:44:37.000Z</time>
      </trkpt>
      <trkpt lat="46.73878" lon="2.01547">
        <ele>145.97</ele>
        <time>2022-07-26T11:44:42.000Z</time>
      </trkpt>
      <trkpt lat="46.73864" lon="2.01515">
        <ele>146.84</ele>
        <time>2022-07-26T11:44:47.000Z</time>
      </trkpt>
      <trkpt lat="46.73848" lon="2.01489">
        <ele>147.01</ele>
        <time>2022-07-26T11:44:52.000Z</time>
      </trkpt>
      <trkpt lat="46.73828" lon="2.01462">
        <ele>145.26</ele>
        <time>2022-07-26T11:44:57.000Z</time>
      </trkpt>
      <trkpt lat="46.73809" lon="2.01436">
        <ele>144.82</ele>
        <time>2022-07-26T11:45:02.000Z</time>
      </trkpt>
      <trkpt lat="46.73791" lon="2.01406">
        <ele>144.76</ele>
        <time>2022-07-26T11:45:07.000Z</time>
      </trkpt>
      <trkpt lat="46.73777" lon="2.01374">
        <ele>144.37</ele>
        <time>2022-07-26T11:45:12.000Z</time>
      </trkpt>
      <trkpt lat="46.73765" lon="2.0134">
        <ele>144.29</ele>
        <time>2022-07-26T11:45:17.000Z</time>
      </trkpt>
      <trkpt lat="46.73755" lon="2.01303">
        <ele>144.56</ele>
        <time>2022-07-26T11:45:22.000Z</time>
      </trkpt>
      <trkpt lat="46.73748" lon="2.01263">
        <ele>143.84</ele>
        <time>2022-07-26T11:45:27.000Z</time>
      </trkpt>
      <trkpt lat="46.73744" lon="2.01222">
        <ele>144.29</ele>
        <time>2022-07-26T11:45:32.000Z</time>
      </trkpt>
      <trkpt lat="46.7374" lon="2.0118">
        <ele>144.52</ele>
        <time>2022-07-26T11:45:37.000Z</time>
      </trkpt>
      <trkpt lat="46.73736" lon="2.01137">
        <ele>144.16</ele>
        <time>2022-07-26T11:45:42.000Z</time>
      </trkpt>
      <trkpt lat="46.73732" lon="2.01094">
        <ele>143.36</ele>
        <time>2022-07-26T11:45:47.000Z</time>
      </trkpt>
      <trkpt lat="46.73728" lon="2.01052">
        <ele>143.19</ele>
        <time>2022-07-26T11:45:52.000Z</time>
      </trkpt>
      <trkpt lat="46.73723" lon="2.01009">
        <ele>143.02</ele>
        <time>2022-07-26T11:45:57.000Z</time>
      </trkpt>
      <trkpt lat="46.73719" lon="2.00968">
        <ele>142.68</ele>
        <time>2022-07-26T11:46:02.000Z</time>
      </trkpt>
      <trkpt lat="46.73715" lon="2.00926">
        <ele>142.62</ele>
        <time>2022-07-26T11:46:07.000Z</time>
      </trkpt>
      <trkpt lat="46.73711" lon="2.00885">
        <ele>142.84</ele>
        <time>2022-07-26T11:46:12.000Z</time>
      </trkpt>
      <trkpt lat="46.73706" lon="2.00844">
        <ele>142.99</ele>
        <time>2022-07-26T11:46:17.000Z</time>
      </trkpt>
      <trkpt lat="46.73702" lon="2.00804">
        <ele>142.95</ele>
        <time>2022-07-26T11:46:22.000Z</time>
      </trkpt>
      <trkpt lat="46.73698" lon="2.00763">
        <ele>142.45</ele>
        <time>2022-07-26T11:46:27.000Z</time>
      </trkpt>
      <trkpt lat="46.73694" lon="2.00723">
        <ele>141.86</ele>
        <time>2022-07-26T11:46:32.000Z</time>
      </trkpt>
      <trkpt lat="46.73689" lon="2.00681">
        <ele>141.69</ele>
        <time>2022-07-26T11:46:37.000Z</time>
      </trkpt>
      <trkpt lat="46.73685" lon="2.00638">
        <ele>142.28</ele>
        <time>2022-07-26T11:46:42.000Z</time>
      </trkpt>
      <trkpt lat="46.73681" lon="2.00598">
        <ele>143.15</ele>
        <time>2022-07-26T11:46:47.000Z</time>
      </trkpt>
      <trkpt lat="46.73678" lon="2.0056">
        <ele>143.15</ele>
        <time>2022-07-26T11:46:52.000Z</time>
      </trkpt>
      <trkpt lat="46.73674" lon="2.00523">
        <ele>142.48</ele>
        <time>2022-07-26T11:46:57.000Z</time>
      </trkpt>
      <trkpt lat="46.7367" lon="2.00487">
        <ele>142.13</ele>
        <time>2022-07-26T11:47:02.000Z</time>
      </trkpt>
      <trkpt lat="46.73665" lon="2.00451">
        <ele>142.07</ele>
        <time>2022-07-26T11:47:07.000Z</time>
      </trkpt>
      <trkpt lat="46.73661" lon="2.00415">
        <ele>142.12</ele>
        <time>2022-07-26T11:47:12.000Z</time>
      </trkpt>
      <trkpt lat="46.73658" lon="2.00378">
        <ele>142.53</ele>
        <time>2022-07-26T11:47:17.000Z</time>
      </trkpt>
      <trkpt lat="46.73655" lon="2.00341">
        <ele>143.68</ele>
        <time>2022-07-26T11:47:22.000Z</time>
      </trkpt>
      <trkpt lat="46.73653" lon="2.00304">
        <ele>143.92</ele>
        <time>2022-07-26T11:47:27.000Z</time>
      </trkpt>
      <trkpt lat="46.73652" lon="2.00266">
        <ele>144.47</ele>
        <time>2022-07-26T11:47:32.000Z</time>
      </trkpt>
      <trkpt lat="46.73653" lon="2.0023">
        <ele>144.72</ele>
        <time>2022-07-26T11:47:37.000Z</time>
      </trkpt>
      <trkpt lat="46.73655" lon="2.00192">
        <ele>144.47</ele>
        <time>2022-07-26T11:47:42.000Z</time>
      </trkpt>
      <trkpt lat="46.73658" lon="2.00155">
        <ele>144.21</ele>
        <time>2022-07-26T11:47:47.000Z</time>
      </trkpt>
      <trkpt lat="46.73661" lon="2.00119">
        <ele>144.42</ele>
        <time>2022-07-26T11:47:52.000Z</time>
      </trkpt>
      <trkpt lat="46.73665" lon="2.00083">
        <ele>144.04</ele>
        <time>2022-07-26T11:47:57.000Z</time>
      </trkpt>
      <trkpt lat="46.7367" lon="2.00048">
        <ele>145.29</ele>
        <time>2022-07-26T11:48:02.000Z</time>
      </trkpt>
      <trkpt lat="46.73674" lon="2.00015">
        <ele>145.08</ele>
        <time>2022-07-26T11:48:07.000Z</time>
      </trkpt>
      <trkpt lat="46.73678" lon="1.99978">
        <ele>144.57</ele>
        <time>2022-07-26T11:48:12.000Z</time>
      </trkpt>
      <trkpt lat="46.73681" lon="1.9994">
        <ele>145.41</ele>
        <time>2022-07-26T11:48:17.000Z</time>
      </trkpt>
      <trkpt lat="46.73683" lon="1.99903">
        <ele>147.14</ele>
        <time>2022-07-26T11:48:22.000Z</time>
      </trkpt>
      <trkpt lat="46.73686" lon="1.99867">
        <ele>148.2</ele>
        <time>2022-07-26T11:48:27.000Z</time>
      </trkpt>
      <trkpt lat="46.73689" lon="1.99833">
        <ele>147.75</ele>
        <time>2022-07-26T11:48:32.000Z</time>
      </trkpt>
      <trkpt lat="46.73691" lon="1.99798">
        <ele>147.15</ele>
        <time>2022-07-26T11:48:37.000Z</time>
      </trkpt>
      <trkpt lat="46.73694" lon="1.9976">
        <ele>147.68</ele>
        <time>2022-07-26T11:48:42.000Z</time>
      </trkpt>
      <trkpt lat="46.73697" lon="1.99723">
        <ele>148.22</ele>
        <time>2022-07-26T11:48:47.000Z</time>
      </trkpt>
      <trkpt lat="46.737" lon="1.99685">
        <ele>148.87</ele>
        <time>2022-07-26T11:48:52.000Z</time>
      </trkpt>
      <trkpt lat="46.73701" lon="1.99647">
        <ele>149.14</ele>
        <time>2022-07-26T11:48:57.000Z</time>
      </trkpt>
      <trkpt lat="46.737" lon="1.9961">
        <ele>149.63</ele>
        <time>2022-07-26T11:49:02.000Z</time>
      </trkpt>
      <trkpt lat="46.73697" lon="1.99574">
        <ele>148.81</ele>
        <time>2022-07-26T11:49:07.000Z</time>
      </trkpt>
      <trkpt lat="46.73693" lon="1.99537">
        <ele>148.45</ele>
        <time>2022-07-26T11:49:12.000Z</time>
      </trkpt>
      <trkpt lat="46.73687" lon="1.99502">
        <ele>148.23</ele>
        <time>2022-07-26T11:49:17.000Z</time>
      </trkpt>
      <trkpt lat="46.7368" lon="1.99466">
        <ele>147.13</ele>
        <time>2022-07-26T11:49:22.000Z</time>
      </trkpt>
      <trkpt lat="46.73673" lon="1.9943">
        <ele>146.98</ele>
        <time>2022-07-26T11:49:27.000Z</time>
      </trkpt>
      <trkpt lat="46.73665" lon="1.9939">
        <ele>146.58</ele>
        <time>2022-07-26T11:49:32.000Z</time>
      </trkpt>
      <trkpt lat="46.73658" lon="1.99351">
        <ele>146.36</ele>
        <time>2022-07-26T11:49:37.000Z</time>
      </trkpt>
      <trkpt lat="46.73651" lon="1.9931">
        <ele>144.74</ele>
        <time>2022-07-26T11:49:42.000Z</time>
      </trkpt>
      <trkpt lat="46.73643" lon="1.99267">
        <ele>143.44</ele>
        <time>2022-07-26T11:49:47.000Z</time>
      </trkpt>
      <trkpt lat="46.73635" lon="1.99222">
        <ele>142.24</ele>
        <time>2022-07-26T11:49:52.000Z</time>
      </trkpt>
      <trkpt lat="46.73625" lon="1.99177">
        <ele>142.6</ele>
        <time>2022-07-26T11:49:57.000Z</time>
      </trkpt>
      <trkpt lat="46.73615" lon="1.99134">
        <ele>142.46</ele>
        <time>2022-07-26T11:50:02.000Z</time>
      </trkpt>
      <trkpt lat="46.73601" lon="1.99095">
        <ele>141.88</ele>
        <time>2022-07-26T11:50:07.000Z</time>
      </trkpt>
      <trkpt lat="46.73585" lon="1.9906">
        <ele>141.74</ele>
        <time>2022-07-26T11:50:12.000Z</time>
      </trkpt>
      <trkpt lat="46.73567" lon="1.99029">
        <ele>142.61</ele>
        <time>2022-07-26T11:50:17.000Z</time>
      </trkpt>
      <trkpt lat="46.73549" lon="1.99002">
        <ele>143.16</ele>
        <time>2022-07-26T11:50:22.000Z</time>
      </trkpt>
      <trkpt lat="46.73533" lon="1.98977">
        <ele>143.86</ele>
        <time>2022-07-26T11:50:27.000Z</time>
      </trkpt>
      <trkpt lat="46.73515" lon="1.98952">
        <ele>144.11</ele>
        <time>2022-07-26T11:50:32.000Z</time>
      </trkpt>
      <trkpt lat="46.73498" lon="1.98928">
        <ele>144.13</ele>
        <time>2022-07-26T11:50:37.000Z</time>
      </trkpt>
      <trkpt lat="46.7348" lon="1.98904">
        <ele>144.12</ele>
        <time>2022-07-26T11:50:42.000Z</time>
      </trkpt>
      <trkpt lat="46.73462" lon="1.9888">
        <ele>145.14</ele>
        <time>2022-07-26T11:50:47.000Z</time>
      </trkpt>
      <trkpt lat="46.73445" lon="1.98856">
        <ele>145.39</ele>
        <time>2022-07-26T11:50:52.000Z</time>
      </trkpt>
      <trkpt lat="46.73428" lon="1.98831">
        <ele>145.58</ele>
        <time>2022-07-26T11:50:57.000Z</time>
      </trkpt>
      <trkpt lat="46.73411" lon="1.98806">
        <ele>145.06</ele>
        <time>2022-07-26T11:51:02.000Z</time>
      </trkpt>
      <trkpt lat="46.73393" lon="1.98782">
        <ele>144.26</ele>
        <time>2022-07-26T11:51:07.000Z</time>
      </trkpt>
      <trkpt lat="46.73375" lon="1.98758">
        <ele>143.92</ele>
        <time>2022-07-26T11:51:12.000Z</time>
      </trkpt>
      <trkpt lat="46.73356" lon="1.98733">
        <ele>144.3</ele>
        <time>2022-07-26T11:51:17.000Z</time>
      </trkpt>
      <trkpt lat="46.73337" lon="1.98708">
        <ele>145.23</ele>
        <time>2022-07-26T11:51:22.000Z</time>
      </trkpt>
      <trkpt lat="46.7332" lon="1.98683">
        <ele>146.04</ele>
        <time>2022-07-26T11:51:27.000Z</time>
      </trkpt>
      <trkpt lat="46.73304" lon="1.98655">
        <ele>147.22</ele>
        <time>2022-07-26T11:51:32.000Z</time>
      </trkpt>
      <trkpt lat="46.7329" lon="1.98625">
        <ele>147.66</ele>
        <time>2022-07-26T11:51:37.000Z</time>
      </trkpt>
      <trkpt lat="46.73276" lon="1.98597">
        <ele>148.01</ele>
        <time>2022-07-26T11:51:42.000Z</time>
      </trkpt>
      <trkpt lat="46.73259" lon="1.98572">
        <ele>148.43</ele>
        <time>2022-07-26T11:51:47.000Z</time>
      </trkpt>
      <trkpt lat="46.73242" lon="1.98545">
        <ele>148.21</ele>
        <time>2022-07-26T11:51:52.000Z</time>
      </trkpt>
      <trkpt lat="46.73224" lon="1.98519">
        <ele>148.02</ele>
        <time>2022-07-26T11:51:57.000Z</time>
      </trkpt>
      <trkpt lat="46.73204" lon="1.98496">
        <ele>147.92</ele>
        <time>2022-07-26T11:52:02.000Z</time>
      </trkpt>
      <trkpt lat="46.73185" lon="1.98473">
        <ele>148.47</ele>
        <time>2022-07-26T11:52:07.000Z</time>
      </trkpt>
      <trkpt lat="46.73167" lon="1.98447">
        <ele>150.09</ele>
        <time>2022-07-26T11:52:12.000Z</time>
      </trkpt>
      <trkpt lat="46.73154" lon="1.98416">
        <ele>150.89</ele>
        <time>2022-07-26T11:52:17.000Z</time>
      </trkpt>
      <trkpt lat="46.73149" lon="1.9838">
        <ele>150.24</ele>
        <time>2022-07-26T11:52:22.000Z</time>
      </trkpt>
      <trkpt lat="46.73146" lon="1.98343">
        <ele>148.68</ele>
        <time>2022-07-26T11:52:27.000Z</time>
      </trkpt>
      <trkpt lat="46.73144" lon="1.98307">
        <ele>149.61</ele>
        <time>2022-07-26T11:52:32.000Z</time>
      </trkpt>
      <trkpt lat="46.73142" lon="1.9827">
        <ele>150.31</ele>
        <time>2022-07-26T11:52:37.000Z</time>
      </trkpt>
      <trkpt lat="46.73139" lon="1.98231">
        <ele>150.92</ele>
        <time>2022-07-26T11:52:42.000Z</time>
      </trkpt>
      <trkpt lat="46.73137" lon="1.98195">
        <ele>151.1</ele>
        <time>2022-07-26T11:52:47.000Z</time>
      </trkpt>
      <trkpt lat="46.73135" lon="1.98157">
        <ele>151.38</ele>
        <time>2022-07-26T11:52:52.000Z</time>
      </trkpt>
      <trkpt lat="46.73132" lon="1.98121">
        <ele>151.27</ele>
        <time>2022-07-26T11:52:57.000Z</time>
      </trkpt>
      <trkpt lat="46.73127" lon="1.98054">
        <ele>145.39</ele>
        <time>2022-07-26T11:53:07.000Z</time>
      </trkpt>
      <trkpt lat="46.7312" lon="1.98007">
        <ele>151.75</ele>
        <time>2022-07-26T11:53:12.000Z</time>
      </trkpt>
      <trkpt lat="46.73106" lon="1.97972">
        <ele>151.67</ele>
        <time>2022-07-26T11:53:18.000Z</time>
      </trkpt>
      <trkpt lat="46.73099" lon="1.97936">
        <ele>151.41</ele>
        <time>2022-07-26T11:53:23.000Z</time>
      </trkpt>
      <trkpt lat="46.73095" lon="1.97902">
        <ele>151.63</ele>
        <time>2022-07-26T11:53:28.000Z</time>
      </trkpt>
      <trkpt lat="46.73093" lon="1.97867">
        <ele>151.2</ele>
        <time>2022-07-26T11:53:33.000Z</time>
      </trkpt>
      <trkpt lat="46.73094" lon="1.97829">
        <ele>150.9</ele>
        <time>2022-07-26T11:53:38.000Z</time>
      </trkpt>
      <trkpt lat="46.73095" lon="1.97793">
        <ele>150</ele>
        <time>2022-07-26T11:53:43.000Z</time>
      </trkpt>
      <trkpt lat="46.73094" lon="1.97756">
        <ele>149.52</ele>
        <time>2022-07-26T11:53:48.000Z</time>
      </trkpt>
      <trkpt lat="46.73094" lon="1.97721">
        <ele>149.71</ele>
        <time>2022-07-26T11:53:53.000Z</time>
      </trkpt>
      <trkpt lat="46.73094" lon="1.97686">
        <ele>150.73</ele>
        <time>2022-07-26T11:53:58.000Z</time>
      </trkpt>
      <trkpt lat="46.73095" lon="1.97649">
        <ele>150.92</ele>
        <time>2022-07-26T11:54:03.000Z</time>
      </trkpt>
      <trkpt lat="46.73094" lon="1.97616">
        <ele>151.4</ele>
        <time>2022-07-26T11:54:08.000Z</time>
      </trkpt>
      <trkpt lat="46.73087" lon="1.97582">
        <ele>151.31</ele>
        <time>2022-07-26T11:54:13.000Z</time>
      </trkpt>
      <trkpt lat="46.73076" lon="1.9755">
        <ele>151.86</ele>
        <time>2022-07-26T11:54:18.000Z</time>
      </trkpt>
      <trkpt lat="46.73063" lon="1.9752">
        <ele>153.84</ele>
        <time>2022-07-26T11:54:23.000Z</time>
      </trkpt>
      <trkpt lat="46.73049" lon="1.9749">
        <ele>154.92</ele>
        <time>2022-07-26T11:54:28.000Z</time>
      </trkpt>
      <trkpt lat="46.73041" lon="1.97459">
        <ele>156.24</ele>
        <time>2022-07-26T11:54:33.000Z</time>
      </trkpt>
      <trkpt lat="46.73035" lon="1.97424">
        <ele>154.43</ele>
        <time>2022-07-26T11:54:38.000Z</time>
      </trkpt>
      <trkpt lat="46.73033" lon="1.97389">
        <ele>153.11</ele>
        <time>2022-07-26T11:54:43.000Z</time>
      </trkpt>
      <trkpt lat="46.73036" lon="1.97351">
        <ele>151.96</ele>
        <time>2022-07-26T11:54:48.000Z</time>
      </trkpt>
      <trkpt lat="46.73046" lon="1.97312">
        <ele>151.44</ele>
        <time>2022-07-26T11:54:53.000Z</time>
      </trkpt>
      <trkpt lat="46.73057" lon="1.97276">
        <ele>151.15</ele>
        <time>2022-07-26T11:54:58.000Z</time>
      </trkpt>
      <trkpt lat="46.73063" lon="1.97234">
        <ele>150.49</ele>
        <time>2022-07-26T11:55:03.000Z</time>
      </trkpt>
      <trkpt lat="46.73067" lon="1.97193">
        <ele>149.58</ele>
        <time>2022-07-26T11:55:08.000Z</time>
      </trkpt>
      <trkpt lat="46.73068" lon="1.97153">
        <ele>148.8</ele>
        <time>2022-07-26T11:55:13.000Z</time>
      </trkpt>
      <trkpt lat="46.73066" lon="1.97111">
        <ele>148.24</ele>
        <time>2022-07-26T11:55:18.000Z</time>
      </trkpt>
      <trkpt lat="46.73062" lon="1.97066">
        <ele>149.32</ele>
        <time>2022-07-26T11:55:23.000Z</time>
      </trkpt>
      <trkpt lat="46.73059" lon="1.97026">
        <ele>150.41</ele>
        <time>2022-07-26T11:55:28.000Z</time>
      </trkpt>
      <trkpt lat="46.73055" lon="1.96986">
        <ele>149.13</ele>
        <time>2022-07-26T11:55:33.000Z</time>
      </trkpt>
      <trkpt lat="46.73062" lon="1.96945">
        <ele>148.52</ele>
        <time>2022-07-26T11:55:38.000Z</time>
      </trkpt>
      <trkpt lat="46.73074" lon="1.96906">
        <ele>148.08</ele>
        <time>2022-07-26T11:55:43.000Z</time>
      </trkpt>
      <trkpt lat="46.73077" lon="1.96864">
        <ele>145.89</ele>
        <time>2022-07-26T11:55:48.000Z</time>
      </trkpt>
      <trkpt lat="46.73072" lon="1.96825">
        <ele>143.81</ele>
        <time>2022-07-26T11:55:53.000Z</time>
      </trkpt>
      <trkpt lat="46.73068" lon="1.9679">
        <ele>145.11</ele>
        <time>2022-07-26T11:55:58.000Z</time>
      </trkpt>
      <trkpt lat="46.73064" lon="1.96759">
        <ele>144.11</ele>
        <time>2022-07-26T11:56:03.000Z</time>
      </trkpt>
      <trkpt lat="46.73059" lon="1.9673">
        <ele>146.32</ele>
        <time>2022-07-26T11:56:08.000Z</time>
      </trkpt>
      <trkpt lat="46.73058" lon="1.96701">
        <ele>146.37</ele>
        <time>2022-07-26T11:56:13.000Z</time>
      </trkpt>
      <trkpt lat="46.73054" lon="1.96672">
        <ele>144.6</ele>
        <time>2022-07-26T11:56:17.144Z</time>
      </trkpt>
      <trkpt lat="46.73047" lon="1.96647">
        <ele>146.26</ele>
        <time>2022-07-26T11:56:21.625Z</time>
      </trkpt>
      <trkpt lat="46.73043" lon="1.96629">
        <ele>143.95</ele>
        <time>2022-07-26T11:56:26.000Z</time>
      </trkpt>
      <trkpt lat="46.7304" lon="1.96598">
        <ele>139.49</ele>
        <time>2022-07-26T11:56:30.383Z</time>
      </trkpt>
      <trkpt lat="46.73049" lon="1.9659">
        <ele>140.45</ele>
        <time>2022-07-26T11:56:35.000Z</time>
      </trkpt>
      <trkpt lat="46.73068" lon="1.96585">
        <ele>142.65</ele>
        <time>2022-07-26T11:56:40.000Z</time>
      </trkpt>
      <trkpt lat="46.73089" lon="1.96579">
        <ele>144.94</ele>
        <time>2022-07-26T11:56:45.000Z</time>
      </trkpt>
      <trkpt lat="46.73112" lon="1.96576">
        <ele>147.95</ele>
        <time>2022-07-26T11:56:50.000Z</time>
      </trkpt>
      <trkpt lat="46.73126" lon="1.96554">
        <ele>148.49</ele>
        <time>2022-07-26T11:56:55.000Z</time>
      </trkpt>
      <trkpt lat="46.73123" lon="1.96522">
        <ele>145.87</ele>
        <time>2022-07-26T11:57:00.000Z</time>
      </trkpt>
      <trkpt lat="46.73122" lon="1.96485">
        <ele>144.3</ele>
        <time>2022-07-26T11:57:05.000Z</time>
      </trkpt>
      <trkpt lat="46.7312" lon="1.96448">
        <ele>143.19</ele>
        <time>2022-07-26T11:57:10.000Z</time>
      </trkpt>
      <trkpt lat="46.73117" lon="1.96412">
        <ele>142.03</ele>
        <time>2022-07-26T11:57:15.000Z</time>
      </trkpt>
      <trkpt lat="46.73113" lon="1.96378">
        <ele>141.38</ele>
        <time>2022-07-26T11:57:20.000Z</time>
      </trkpt>
      <trkpt lat="46.7311" lon="1.96337">
        <ele>140.91</ele>
        <time>2022-07-26T11:57:25.000Z</time>
      </trkpt>
      <trkpt lat="46.73107" lon="1.96287">
        <ele>141.53</ele>
        <time>2022-07-26T11:57:30.000Z</time>
      </trkpt>
      <trkpt lat="46.73103" lon="1.9624">
        <ele>143.75</ele>
        <time>2022-07-26T11:57:35.000Z</time>
      </trkpt>
      <trkpt lat="46.731" lon="1.96193">
        <ele>147.39</ele>
        <time>2022-07-26T11:57:40.000Z</time>
      </trkpt>
      <trkpt lat="46.73099" lon="1.96153">
        <ele>148.35</ele>
        <time>2022-07-26T11:57:45.000Z</time>
      </trkpt>
      <trkpt lat="46.73103" lon="1.9611">
        <ele>146.63</ele>
        <time>2022-07-26T11:57:50.000Z</time>
      </trkpt>
      <trkpt lat="46.7311" lon="1.96069">
        <ele>145.28</ele>
        <time>2022-07-26T11:57:55.000Z</time>
      </trkpt>
      <trkpt lat="46.73116" lon="1.96029">
        <ele>145.24</ele>
        <time>2022-07-26T11:58:00.000Z</time>
      </trkpt>
      <trkpt lat="46.7312" lon="1.95991">
        <ele>145.1</ele>
        <time>2022-07-26T11:58:05.000Z</time>
      </trkpt>
      <trkpt lat="46.73123" lon="1.95955">
        <ele>144.45</ele>
        <time>2022-07-26T11:58:10.000Z</time>
      </trkpt>
      <trkpt lat="46.73126" lon="1.95918">
        <ele>144.43</ele>
        <time>2022-07-26T11:58:15.000Z</time>
      </trkpt>
      <trkpt lat="46.73129" lon="1.95882">
        <ele>144.47</ele>
        <time>2022-07-26T11:58:20.000Z</time>
      </trkpt>
      <trkpt lat="46.73133" lon="1.95848">
        <ele>144.71</ele>
        <time>2022-07-26T11:58:25.000Z</time>
      </trkpt>
      <trkpt lat="46.73138" lon="1.95813">
        <ele>144.46</ele>
        <time>2022-07-26T11:58:30.000Z</time>
      </trkpt>
      <trkpt lat="46.73143" lon="1.9578">
        <ele>145.35</ele>
        <time>2022-07-26T11:58:35.000Z</time>
      </trkpt>
      <trkpt lat="46.73149" lon="1.95746">
        <ele>146.12</ele>
        <time>2022-07-26T11:58:40.000Z</time>
      </trkpt>
      <trkpt lat="46.73153" lon="1.95716">
        <ele>146.1</ele>
        <time>2022-07-26T11:58:45.000Z</time>
      </trkpt>
      <trkpt lat="46.73158" lon="1.95686">
        <ele>145.26</ele>
        <time>2022-07-26T11:58:50.000Z</time>
      </trkpt>
      <trkpt lat="46.73163" lon="1.95653">
        <ele>145.13</ele>
        <time>2022-07-26T11:58:54.219Z</time>
      </trkpt>
      <trkpt lat="46.73168" lon="1.95628">
        <ele>145.13</ele>
        <time>2022-07-26T11:58:59.000Z</time>
      </trkpt>
      <trkpt lat="46.73173" lon="1.95595">
        <ele>145.67</ele>
        <time>2022-07-26T11:59:05.000Z</time>
      </trkpt>
      <trkpt lat="46.73178" lon="1.95558">
        <ele>146.25</ele>
        <time>2022-07-26T11:59:10.000Z</time>
      </trkpt>
      <trkpt lat="46.73184" lon="1.95526">
        <ele>146.1</ele>
        <time>2022-07-26T11:59:15.000Z</time>
      </trkpt>
      <trkpt lat="46.73189" lon="1.95493">
        <ele>145.45</ele>
        <time>2022-07-26T11:59:20.000Z</time>
      </trkpt>
      <trkpt lat="46.73195" lon="1.9546">
        <ele>144.67</ele>
        <time>2022-07-26T11:59:25.000Z</time>
      </trkpt>
      <trkpt lat="46.732" lon="1.95426">
        <ele>144.81</ele>
        <time>2022-07-26T11:59:30.000Z</time>
      </trkpt>
      <trkpt lat="46.73207" lon="1.95394">
        <ele>144.83</ele>
        <time>2022-07-26T11:59:35.000Z</time>
      </trkpt>
      <trkpt lat="46.73218" lon="1.95365">
        <ele>144.27</ele>
        <time>2022-07-26T11:59:40.000Z</time>
      </trkpt>
      <trkpt lat="46.7323" lon="1.95341">
        <ele>143.96</ele>
        <time>2022-07-26T11:59:45.000Z</time>
      </trkpt>
      <trkpt lat="46.73249" lon="1.95315">
        <ele>144.06</ele>
        <time>2022-07-26T11:59:50.000Z</time>
      </trkpt>
      <trkpt lat="46.73267" lon="1.95293">
        <ele>145.2</ele>
        <time>2022-07-26T11:59:55.000Z</time>
      </trkpt>
      <trkpt lat="46.73284" lon="1.95274">
        <ele>145.16</ele>
        <time>2022-07-26T12:00:00.000Z</time>
      </trkpt>
      <trkpt lat="46.73303" lon="1.95252">
        <ele>145.54</ele>
        <time>2022-07-26T12:00:05.000Z</time>
      </trkpt>
      <trkpt lat="46.7332" lon="1.95229">
        <ele>145.34</ele>
        <time>2022-07-26T12:00:10.000Z</time>
      </trkpt>
      <trkpt lat="46.73336" lon="1.95204">
        <ele>143.55</ele>
        <time>2022-07-26T12:00:15.000Z</time>
      </trkpt>
      <trkpt lat="46.7335" lon="1.95173">
        <ele>142.34</ele>
        <time>2022-07-26T12:00:20.000Z</time>
      </trkpt>
      <trkpt lat="46.73365" lon="1.95143">
        <ele>141.47</ele>
        <time>2022-07-26T12:00:25.000Z</time>
      </trkpt>
      <trkpt lat="46.73381" lon="1.95113">
        <ele>141.51</ele>
        <time>2022-07-26T12:00:30.000Z</time>
      </trkpt>
      <trkpt lat="46.73397" lon="1.95081">
        <ele>141.61</ele>
        <time>2022-07-26T12:00:35.000Z</time>
      </trkpt>
      <trkpt lat="46.73413" lon="1.9505">
        <ele>141.59</ele>
        <time>2022-07-26T12:00:40.000Z</time>
      </trkpt>
      <trkpt lat="46.73429" lon="1.95018">
        <ele>141.28</ele>
        <time>2022-07-26T12:00:45.000Z</time>
      </trkpt>
      <trkpt lat="46.73446" lon="1.94989">
        <ele>141.74</ele>
        <time>2022-07-26T12:00:50.000Z</time>
      </trkpt>
      <trkpt lat="46.7346" lon="1.94956">
        <ele>141.69</ele>
        <time>2022-07-26T12:00:55.000Z</time>
      </trkpt>
      <trkpt lat="46.73476" lon="1.94924">
        <ele>141.76</ele>
        <time>2022-07-26T12:01:00.000Z</time>
      </trkpt>
      <trkpt lat="46.73492" lon="1.94893">
        <ele>142.56</ele>
        <time>2022-07-26T12:01:05.000Z</time>
      </trkpt>
      <trkpt lat="46.73509" lon="1.94862">
        <ele>143.13</ele>
        <time>2022-07-26T12:01:10.000Z</time>
      </trkpt>
      <trkpt lat="46.73524" lon="1.94831">
        <ele>143.62</ele>
        <time>2022-07-26T12:01:15.000Z</time>
      </trkpt>
      <trkpt lat="46.7354" lon="1.94801">
        <ele>143.5</ele>
        <time>2022-07-26T12:01:20.000Z</time>
      </trkpt>
      <trkpt lat="46.73556" lon="1.9477">
        <ele>143.97</ele>
        <time>2022-07-26T12:01:25.000Z</time>
      </trkpt>
      <trkpt lat="46.73571" lon="1.9474">
        <ele>144.2</ele>
        <time>2022-07-26T12:01:30.000Z</time>
      </trkpt>
      <trkpt lat="46.73586" lon="1.94711">
        <ele>143.56</ele>
        <time>2022-07-26T12:01:35.000Z</time>
      </trkpt>
      <trkpt lat="46.73601" lon="1.9468">
        <ele>143.25</ele>
        <time>2022-07-26T12:01:40.000Z</time>
      </trkpt>
      <trkpt lat="46.73617" lon="1.94649">
        <ele>143.22</ele>
        <time>2022-07-26T12:01:45.000Z</time>
      </trkpt>
      <trkpt lat="46.73632" lon="1.9462">
        <ele>142</ele>
        <time>2022-07-26T12:01:50.000Z</time>
      </trkpt>
      <trkpt lat="46.73647" lon="1.94589">
        <ele>142.22</ele>
        <time>2022-07-26T12:01:55.000Z</time>
      </trkpt>
      <trkpt lat="46.73662" lon="1.94558">
        <ele>142.19</ele>
        <time>2022-07-26T12:02:00.000Z</time>
      </trkpt>
      <trkpt lat="46.73678" lon="1.94528">
        <ele>141.34</ele>
        <time>2022-07-26T12:02:05.000Z</time>
      </trkpt>
      <trkpt lat="46.73694" lon="1.94496">
        <ele>141.19</ele>
        <time>2022-07-26T12:02:10.000Z</time>
      </trkpt>
      <trkpt lat="46.73711" lon="1.94463">
        <ele>141.22</ele>
        <time>2022-07-26T12:02:15.000Z</time>
      </trkpt>
      <trkpt lat="46.73728" lon="1.94429">
        <ele>141.37</ele>
        <time>2022-07-26T12:02:20.000Z</time>
      </trkpt>
      <trkpt lat="46.73745" lon="1.94395">
        <ele>140.91</ele>
        <time>2022-07-26T12:02:25.000Z</time>
      </trkpt>
      <trkpt lat="46.73762" lon="1.94361">
        <ele>140.42</ele>
        <time>2022-07-26T12:02:30.000Z</time>
      </trkpt>
      <trkpt lat="46.7378" lon="1.94326">
        <ele>139.78</ele>
        <time>2022-07-26T12:02:35.000Z</time>
      </trkpt>
      <trkpt lat="46.73798" lon="1.9429">
        <ele>139.8</ele>
        <time>2022-07-26T12:02:40.000Z</time>
      </trkpt>
      <trkpt lat="46.73816" lon="1.94253">
        <ele>139.83</ele>
        <time>2022-07-26T12:02:45.000Z</time>
      </trkpt>
      <trkpt lat="46.73835" lon="1.94216">
        <ele>138.97</ele>
        <time>2022-07-26T12:02:50.000Z</time>
      </trkpt>
      <trkpt lat="46.73852" lon="1.94179">
        <ele>137.77</ele>
        <time>2022-07-26T12:02:55.000Z</time>
      </trkpt>
      <trkpt lat="46.7387" lon="1.94145">
        <ele>136.6</ele>
        <time>2022-07-26T12:03:00.000Z</time>
      </trkpt>
      <trkpt lat="46.73888" lon="1.94112">
        <ele>136.65</ele>
        <time>2022-07-26T12:03:05.000Z</time>
      </trkpt>
      <trkpt lat="46.73906" lon="1.94076">
        <ele>137.32</ele>
        <time>2022-07-26T12:03:10.000Z</time>
      </trkpt>
      <trkpt lat="46.73924" lon="1.94041">
        <ele>136.3</ele>
        <time>2022-07-26T12:03:15.000Z</time>
      </trkpt>
      <trkpt lat="46.73941" lon="1.94006">
        <ele>135.31</ele>
        <time>2022-07-26T12:03:20.000Z</time>
      </trkpt>
      <trkpt lat="46.73958" lon="1.93971">
        <ele>134.3</ele>
        <time>2022-07-26T12:03:25.000Z</time>
      </trkpt>
      <trkpt lat="46.73975" lon="1.93937">
        <ele>134.15</ele>
        <time>2022-07-26T12:03:30.000Z</time>
      </trkpt>
      <trkpt lat="46.73993" lon="1.93903">
        <ele>134.89</ele>
        <time>2022-07-26T12:03:35.000Z</time>
      </trkpt>
      <trkpt lat="46.7401" lon="1.9387">
        <ele>135.3</ele>
        <time>2022-07-26T12:03:40.000Z</time>
      </trkpt>
      <trkpt lat="46.74027" lon="1.93837">
        <ele>135.75</ele>
        <time>2022-07-26T12:03:45.000Z</time>
      </trkpt>
      <trkpt lat="46.74044" lon="1.93805">
        <ele>136.19</ele>
        <time>2022-07-26T12:03:50.000Z</time>
      </trkpt>
      <trkpt lat="46.7406" lon="1.93774">
        <ele>136.56</ele>
        <time>2022-07-26T12:03:55.000Z</time>
      </trkpt>
      <trkpt lat="46.74075" lon="1.93746">
        <ele>137.17</ele>
        <time>2022-07-26T12:04:00.000Z</time>
      </trkpt>
      <trkpt lat="46.74089" lon="1.93717">
        <ele>138.36</ele>
        <time>2022-07-26T12:04:05.000Z</time>
      </trkpt>
      <trkpt lat="46.74104" lon="1.93687">
        <ele>139.72</ele>
        <time>2022-07-26T12:04:10.000Z</time>
      </trkpt>
      <trkpt lat="46.74115" lon="1.93655">
        <ele>140.37</ele>
        <time>2022-07-26T12:04:15.000Z</time>
      </trkpt>
      <trkpt lat="46.74123" lon="1.93622">
        <ele>141.3</ele>
        <time>2022-07-26T12:04:20.000Z</time>
      </trkpt>
      <trkpt lat="46.7413" lon="1.9359">
        <ele>141.91</ele>
        <time>2022-07-26T12:04:25.000Z</time>
      </trkpt>
      <trkpt lat="46.74136" lon="1.9356">
        <ele>142.84</ele>
        <time>2022-07-26T12:04:30.000Z</time>
      </trkpt>
      <trkpt lat="46.74143" lon="1.93527">
        <ele>142.94</ele>
        <time>2022-07-26T12:04:35.000Z</time>
      </trkpt>
      <trkpt lat="46.7415" lon="1.93493">
        <ele>141.5</ele>
        <time>2022-07-26T12:04:40.000Z</time>
      </trkpt>
      <trkpt lat="46.74156" lon="1.93461">
        <ele>140.81</ele>
        <time>2022-07-26T12:04:45.000Z</time>
      </trkpt>
      <trkpt lat="46.74156" lon="1.93425">
        <ele>140.73</ele>
        <time>2022-07-26T12:04:50.000Z</time>
      </trkpt>
      <trkpt lat="46.74154" lon="1.93386">
        <ele>140.81</ele>
        <time>2022-07-26T12:04:55.000Z</time>
      </trkpt>
      <trkpt lat="46.74154" lon="1.93346">
        <ele>139.79</ele>
        <time>2022-07-26T12:05:00.000Z</time>
      </trkpt>
      <trkpt lat="46.74152" lon="1.93309">
        <ele>140.24</ele>
        <time>2022-07-26T12:05:05.000Z</time>
      </trkpt>
      <trkpt lat="46.74151" lon="1.93272">
        <ele>140.57</ele>
        <time>2022-07-26T12:05:10.000Z</time>
      </trkpt>
      <trkpt lat="46.7415" lon="1.93234">
        <ele>140.24</ele>
        <time>2022-07-26T12:05:15.000Z</time>
      </trkpt>
      <trkpt lat="46.74148" lon="1.93197">
        <ele>139.98</ele>
        <time>2022-07-26T12:05:20.000Z</time>
      </trkpt>
      <trkpt lat="46.74147" lon="1.93159">
        <ele>140.4</ele>
        <time>2022-07-26T12:05:25.000Z</time>
      </trkpt>
      <trkpt lat="46.74146" lon="1.93122">
        <ele>140.22</ele>
        <time>2022-07-26T12:05:30.000Z</time>
      </trkpt>
      <trkpt lat="46.74145" lon="1.93084">
        <ele>140.26</ele>
        <time>2022-07-26T12:05:35.000Z</time>
      </trkpt>
      <trkpt lat="46.74143" lon="1.93046">
        <ele>139.92</ele>
        <time>2022-07-26T12:05:40.000Z</time>
      </trkpt>
      <trkpt lat="46.74142" lon="1.93006">
        <ele>139.02</ele>
        <time>2022-07-26T12:05:45.000Z</time>
      </trkpt>
      <trkpt lat="46.74141" lon="1.92966">
        <ele>138.58</ele>
        <time>2022-07-26T12:05:50.000Z</time>
      </trkpt>
      <trkpt lat="46.74139" lon="1.92925">
        <ele>138.17</ele>
        <time>2022-07-26T12:05:55.000Z</time>
      </trkpt>
      <trkpt lat="46.74136" lon="1.92884">
        <ele>138.27</ele>
        <time>2022-07-26T12:06:00.000Z</time>
      </trkpt>
      <trkpt lat="46.7413" lon="1.92844">
        <ele>137.1</ele>
        <time>2022-07-26T12:06:05.000Z</time>
      </trkpt>
      <trkpt lat="46.74123" lon="1.92802">
        <ele>136.01</ele>
        <time>2022-07-26T12:06:10.000Z</time>
      </trkpt>
      <trkpt lat="46.74117" lon="1.92761">
        <ele>135.91</ele>
        <time>2022-07-26T12:06:15.000Z</time>
      </trkpt>
      <trkpt lat="46.74111" lon="1.92722">
        <ele>135.96</ele>
        <time>2022-07-26T12:06:20.000Z</time>
      </trkpt>
      <trkpt lat="46.74105" lon="1.92684">
        <ele>135.84</ele>
        <time>2022-07-26T12:06:25.000Z</time>
      </trkpt>
      <trkpt lat="46.74097" lon="1.92646">
        <ele>136.42</ele>
        <time>2022-07-26T12:06:30.000Z</time>
      </trkpt>
      <trkpt lat="46.74085" lon="1.9261">
        <ele>134.55</ele>
        <time>2022-07-26T12:06:35.000Z</time>
      </trkpt>
      <trkpt lat="46.74068" lon="1.92577">
        <ele>132.99</ele>
        <time>2022-07-26T12:06:40.000Z</time>
      </trkpt>
      <trkpt lat="46.74046" lon="1.92549">
        <ele>130.81</ele>
        <time>2022-07-26T12:06:45.000Z</time>
      </trkpt>
      <trkpt lat="46.74023" lon="1.92524">
        <ele>129.01</ele>
        <time>2022-07-26T12:06:50.000Z</time>
      </trkpt>
      <trkpt lat="46.74" lon="1.925">
        <ele>126.76</ele>
        <time>2022-07-26T12:06:55.000Z</time>
      </trkpt>
      <trkpt lat="46.73976" lon="1.92474">
        <ele>125.14</ele>
        <time>2022-07-26T12:07:00.000Z</time>
      </trkpt>
      <trkpt lat="46.73955" lon="1.92452">
        <ele>123.74</ele>
        <time>2022-07-26T12:07:05.000Z</time>
      </trkpt>
      <trkpt lat="46.73934" lon="1.9243">
        <ele>123.62</ele>
        <time>2022-07-26T12:07:10.000Z</time>
      </trkpt>
      <trkpt lat="46.73916" lon="1.92411">
        <ele>124.74</ele>
        <time>2022-07-26T12:07:15.000Z</time>
      </trkpt>
      <trkpt lat="46.73898" lon="1.92393">
        <ele>125.56</ele>
        <time>2022-07-26T12:07:20.000Z</time>
      </trkpt>
      <trkpt lat="46.73879" lon="1.92372">
        <ele>125.03</ele>
        <time>2022-07-26T12:07:25.000Z</time>
      </trkpt>
      <trkpt lat="46.7386" lon="1.9235">
        <ele>125.67</ele>
        <time>2022-07-26T12:07:30.000Z</time>
      </trkpt>
      <trkpt lat="46.7384" lon="1.92327">
        <ele>126.39</ele>
        <time>2022-07-26T12:07:35.000Z</time>
      </trkpt>
      <trkpt lat="46.73822" lon="1.92296">
        <ele>126.64</ele>
        <time>2022-07-26T12:07:40.000Z</time>
      </trkpt>
      <trkpt lat="46.73807" lon="1.92262">
        <ele>125.66</ele>
        <time>2022-07-26T12:07:45.000Z</time>
      </trkpt>
      <trkpt lat="46.73795" lon="1.92229">
        <ele>124.75</ele>
        <time>2022-07-26T12:07:50.000Z</time>
      </trkpt>
      <trkpt lat="46.73786" lon="1.92195">
        <ele>125.49</ele>
        <time>2022-07-26T12:07:55.000Z</time>
      </trkpt>
      <trkpt lat="46.73778" lon="1.9216">
        <ele>126.11</ele>
        <time>2022-07-26T12:08:00.000Z</time>
      </trkpt>
      <trkpt lat="46.73772" lon="1.92133">
        <ele>124.7</ele>
        <time>2022-07-26T12:08:05.000Z</time>
      </trkpt>
      <trkpt lat="46.73765" lon="1.92103">
        <ele>124.26</ele>
        <time>2022-07-26T12:08:09.321Z</time>
      </trkpt>
      <trkpt lat="46.73762" lon="1.92073">
        <ele>124.18</ele>
        <time>2022-07-26T12:08:14.000Z</time>
      </trkpt>
      <trkpt lat="46.73756" lon="1.92033">
        <ele>125.36</ele>
        <time>2022-07-26T12:08:19.000Z</time>
      </trkpt>
      <trkpt lat="46.73749" lon="1.91991">
        <ele>126.14</ele>
        <time>2022-07-26T12:08:24.000Z</time>
      </trkpt>
      <trkpt lat="46.73742" lon="1.91952">
        <ele>127.25</ele>
        <time>2022-07-26T12:08:29.000Z</time>
      </trkpt>
      <trkpt lat="46.73738" lon="1.91912">
        <ele>128.82</ele>
        <time>2022-07-26T12:08:34.000Z</time>
      </trkpt>
      <trkpt lat="46.73739" lon="1.91868">
        <ele>128.86</ele>
        <time>2022-07-26T12:08:39.000Z</time>
      </trkpt>
      <trkpt lat="46.73739" lon="1.91825">
        <ele>129.51</ele>
        <time>2022-07-26T12:08:44.000Z</time>
      </trkpt>
      <trkpt lat="46.7374" lon="1.91781">
        <ele>130.35</ele>
        <time>2022-07-26T12:08:49.000Z</time>
      </trkpt>
      <trkpt lat="46.7374" lon="1.91738">
        <ele>130.35</ele>
        <time>2022-07-26T12:08:54.000Z</time>
      </trkpt>
      <trkpt lat="46.7374" lon="1.91693">
        <ele>129.84</ele>
        <time>2022-07-26T12:08:59.000Z</time>
      </trkpt>
      <trkpt lat="46.73739" lon="1.91648">
        <ele>130.52</ele>
        <time>2022-07-26T12:09:04.000Z</time>
      </trkpt>
      <trkpt lat="46.73735" lon="1.91603">
        <ele>131.73</ele>
        <time>2022-07-26T12:09:09.000Z</time>
      </trkpt>
      <trkpt lat="46.73727" lon="1.9156">
        <ele>130.48</ele>
        <time>2022-07-26T12:09:14.000Z</time>
      </trkpt>
      <trkpt lat="46.73718" lon="1.91521">
        <ele>128.51</ele>
        <time>2022-07-26T12:09:19.000Z</time>
      </trkpt>
      <trkpt lat="46.7371" lon="1.91481">
        <ele>127.19</ele>
        <time>2022-07-26T12:09:24.000Z</time>
      </trkpt>
      <trkpt lat="46.73701" lon="1.91438">
        <ele>126.85</ele>
        <time>2022-07-26T12:09:29.000Z</time>
      </trkpt>
      <trkpt lat="46.73692" lon="1.91397">
        <ele>126.82</ele>
        <time>2022-07-26T12:09:34.000Z</time>
      </trkpt>
      <trkpt lat="46.73684" lon="1.91358">
        <ele>127.82</ele>
        <time>2022-07-26T12:09:39.000Z</time>
      </trkpt>
      <trkpt lat="46.73676" lon="1.91325">
        <ele>127.15</ele>
        <time>2022-07-26T12:09:44.000Z</time>
      </trkpt>
      <trkpt lat="46.73668" lon="1.91295">
        <ele>127</ele>
        <time>2022-07-26T12:09:49.000Z</time>
      </trkpt>
      <trkpt lat="46.7366" lon="1.91252">
        <ele>127.04</ele>
        <time>2022-07-26T12:09:54.000Z</time>
      </trkpt>
      <trkpt lat="46.73653" lon="1.91218">
        <ele>125.47</ele>
        <time>2022-07-26T12:09:59.000Z</time>
      </trkpt>
      <trkpt lat="46.73644" lon="1.91187">
        <ele>126.35</ele>
        <time>2022-07-26T12:10:04.000Z</time>
      </trkpt>
      <trkpt lat="46.73636" lon="1.91152">
        <ele>125.44</ele>
        <time>2022-07-26T12:10:09.000Z</time>
      </trkpt>
      <trkpt lat="46.7363" lon="1.91124">
        <ele>126.61</ele>
        <time>2022-07-26T12:10:14.000Z</time>
      </trkpt>
      <trkpt lat="46.73624" lon="1.91093">
        <ele>128.46</ele>
        <time>2022-07-26T12:10:19.000Z</time>
      </trkpt>
      <trkpt lat="46.73617" lon="1.91063">
        <ele>129.96</ele>
        <time>2022-07-26T12:10:24.000Z</time>
      </trkpt>
      <trkpt lat="46.7361" lon="1.91032">
        <ele>130.14</ele>
        <time>2022-07-26T12:10:29.000Z</time>
      </trkpt>
      <trkpt lat="46.73602" lon="1.90999">
        <ele>129.77</ele>
        <time>2022-07-26T12:10:34.000Z</time>
      </trkpt>
      <trkpt lat="46.73595" lon="1.90967">
        <ele>129.24</ele>
        <time>2022-07-26T12:10:39.000Z</time>
      </trkpt>
      <trkpt lat="46.73588" lon="1.90934">
        <ele>129.3</ele>
        <time>2022-07-26T12:10:44.000Z</time>
      </trkpt>
      <trkpt lat="46.7358" lon="1.90898">
        <ele>127.69</ele>
        <time>2022-07-26T12:10:50.000Z</time>
      </trkpt>
      <trkpt lat="46.73574" lon="1.90863">
        <ele>125.27</ele>
        <time>2022-07-26T12:10:55.000Z</time>
      </trkpt>
      <trkpt lat="46.73568" lon="1.90828">
        <ele>124.73</ele>
        <time>2022-07-26T12:11:00.000Z</time>
      </trkpt>
      <trkpt lat="46.73561" lon="1.90793">
        <ele>123.45</ele>
        <time>2022-07-26T12:11:05.000Z</time>
      </trkpt>
      <trkpt lat="46.73554" lon="1.90758">
        <ele>122.15</ele>
        <time>2022-07-26T12:11:10.000Z</time>
      </trkpt>
      <trkpt lat="46.73546" lon="1.90722">
        <ele>122.04</ele>
        <time>2022-07-26T12:11:15.000Z</time>
      </trkpt>
      <trkpt lat="46.73539" lon="1.90685">
        <ele>120.24</ele>
        <time>2022-07-26T12:11:20.000Z</time>
      </trkpt>
      <trkpt lat="46.73532" lon="1.90647">
        <ele>117.54</ele>
        <time>2022-07-26T12:11:25.000Z</time>
      </trkpt>
      <trkpt lat="46.73525" lon="1.90609">
        <ele>115.66</ele>
        <time>2022-07-26T12:11:30.000Z</time>
      </trkpt>
      <trkpt lat="46.73516" lon="1.90571">
        <ele>116.02</ele>
        <time>2022-07-26T12:11:35.000Z</time>
      </trkpt>
      <trkpt lat="46.7351" lon="1.90533">
        <ele>115.31</ele>
        <time>2022-07-26T12:11:40.000Z</time>
      </trkpt>
      <trkpt lat="46.735" lon="1.90493">
        <ele>117.16</ele>
        <time>2022-07-26T12:11:45.000Z</time>
      </trkpt>
      <trkpt lat="46.73492" lon="1.90455">
        <ele>119.91</ele>
        <time>2022-07-26T12:11:50.000Z</time>
      </trkpt>
      <trkpt lat="46.73483" lon="1.90417">
        <ele>121.1</ele>
        <time>2022-07-26T12:11:55.000Z</time>
      </trkpt>
      <trkpt lat="46.73474" lon="1.90379">
        <ele>121.47</ele>
        <time>2022-07-26T12:12:00.000Z</time>
      </trkpt>
      <trkpt lat="46.73465" lon="1.90339">
        <ele>122.14</ele>
        <time>2022-07-26T12:12:05.000Z</time>
      </trkpt>
      <trkpt lat="46.73454" lon="1.90294">
        <ele>119.28</ele>
        <time>2022-07-26T12:12:10.000Z</time>
      </trkpt>
      <trkpt lat="46.73443" lon="1.90248">
        <ele>122.42</ele>
        <time>2022-07-26T12:12:15.000Z</time>
      </trkpt>
      <trkpt lat="46.73432" lon="1.90203">
        <ele>128.2</ele>
        <time>2022-07-26T12:12:20.000Z</time>
      </trkpt>
      <trkpt lat="46.73423" lon="1.90161">
        <ele>130.37</ele>
        <time>2022-07-26T12:12:25.000Z</time>
      </trkpt>
      <trkpt lat="46.73414" lon="1.90121">
        <ele>131.32</ele>
        <time>2022-07-26T12:12:30.000Z</time>
      </trkpt>
      <trkpt lat="46.73405" lon="1.90081">
        <ele>131.56</ele>
        <time>2022-07-26T12:12:35.000Z</time>
      </trkpt>
      <trkpt lat="46.73396" lon="1.9004">
        <ele>130.83</ele>
        <time>2022-07-26T12:12:40.000Z</time>
      </trkpt>
      <trkpt lat="46.73387" lon="1.9">
        <ele>130.1</ele>
        <time>2022-07-26T12:12:45.000Z</time>
      </trkpt>
      <trkpt lat="46.73378" lon="1.89959">
        <ele>130.25</ele>
        <time>2022-07-26T12:12:50.000Z</time>
      </trkpt>
      <trkpt lat="46.7337" lon="1.8992">
        <ele>130.25</ele>
        <time>2022-07-26T12:12:55.000Z</time>
      </trkpt>
      <trkpt lat="46.73361" lon="1.89879">
        <ele>130.15</ele>
        <time>2022-07-26T12:13:00.000Z</time>
      </trkpt>
      <trkpt lat="46.73352" lon="1.89838">
        <ele>129.8</ele>
        <time>2022-07-26T12:13:05.000Z</time>
      </trkpt>
      <trkpt lat="46.73343" lon="1.89796">
        <ele>129.03</ele>
        <time>2022-07-26T12:13:10.000Z</time>
      </trkpt>
      <trkpt lat="46.73334" lon="1.89753">
        <ele>128.61</ele>
        <time>2022-07-26T12:13:15.000Z</time>
      </trkpt>
      <trkpt lat="46.73324" lon="1.8971">
        <ele>128.45</ele>
        <time>2022-07-26T12:13:20.000Z</time>
      </trkpt>
      <trkpt lat="46.73315" lon="1.89665">
        <ele>127.54</ele>
        <time>2022-07-26T12:13:25.000Z</time>
      </trkpt>
      <trkpt lat="46.73305" lon="1.89619">
        <ele>126.28</ele>
        <time>2022-07-26T12:13:30.000Z</time>
      </trkpt>
      <trkpt lat="46.73295" lon="1.89572">
        <ele>125.92</ele>
        <time>2022-07-26T12:13:35.000Z</time>
      </trkpt>
      <trkpt lat="46.73285" lon="1.89522">
        <ele>125.59</ele>
        <time>2022-07-26T12:13:40.000Z</time>
      </trkpt>
      <trkpt lat="46.73273" lon="1.8947">
        <ele>124.03</ele>
        <time>2022-07-26T12:13:45.000Z</time>
      </trkpt>
      <trkpt lat="46.73263" lon="1.89419">
        <ele>122.37</ele>
        <time>2022-07-26T12:13:50.000Z</time>
      </trkpt>
      <trkpt lat="46.73253" lon="1.8937">
        <ele>121.6</ele>
        <time>2022-07-26T12:13:55.000Z</time>
      </trkpt>
      <trkpt lat="46.73241" lon="1.89322">
        <ele>120.45</ele>
        <time>2022-07-26T12:14:00.000Z</time>
      </trkpt>
      <trkpt lat="46.73239" lon="1.8927">
        <ele>121.8</ele>
        <time>2022-07-26T12:14:05.000Z</time>
      </trkpt>
      <trkpt lat="46.73242" lon="1.8922">
        <ele>123.16</ele>
        <time>2022-07-26T12:14:10.000Z</time>
      </trkpt>
      <trkpt lat="46.73247" lon="1.89169">
        <ele>122.94</ele>
        <time>2022-07-26T12:14:15.000Z</time>
      </trkpt>
      <trkpt lat="46.73257" lon="1.89121">
        <ele>121.34</ele>
        <time>2022-07-26T12:14:20.000Z</time>
      </trkpt>
      <trkpt lat="46.73268" lon="1.89074">
        <ele>118.44</ele>
        <time>2022-07-26T12:14:25.000Z</time>
      </trkpt>
      <trkpt lat="46.7328" lon="1.89031">
        <ele>116.79</ele>
        <time>2022-07-26T12:14:30.000Z</time>
      </trkpt>
      <trkpt lat="46.73297" lon="1.88992">
        <ele>116.85</ele>
        <time>2022-07-26T12:14:35.000Z</time>
      </trkpt>
      <trkpt lat="46.73317" lon="1.88965">
        <ele>115.67</ele>
        <time>2022-07-26T12:14:40.000Z</time>
      </trkpt>
      <trkpt lat="46.73335" lon="1.88939">
        <ele>114.53</ele>
        <time>2022-07-26T12:14:45.000Z</time>
      </trkpt>
      <trkpt lat="46.73355" lon="1.88912">
        <ele>113.85</ele>
        <time>2022-07-26T12:14:50.000Z</time>
      </trkpt>
      <trkpt lat="46.73376" lon="1.88886">
        <ele>114.55</ele>
        <time>2022-07-26T12:14:55.000Z</time>
      </trkpt>
      <trkpt lat="46.73393" lon="1.88858">
        <ele>115.62</ele>
        <time>2022-07-26T12:15:00.000Z</time>
      </trkpt>
      <trkpt lat="46.73391" lon="1.88818">
        <ele>119.08</ele>
        <time>2022-07-26T12:15:05.000Z</time>
      </trkpt>
      <trkpt lat="46.73375" lon="1.88786">
        <ele>120.39</ele>
        <time>2022-07-26T12:15:10.000Z</time>
      </trkpt>
      <trkpt lat="46.7336" lon="1.88754">
        <ele>121.24</ele>
        <time>2022-07-26T12:15:15.000Z</time>
      </trkpt>
      <trkpt lat="46.73344" lon="1.88723">
        <ele>121.9</ele>
        <time>2022-07-26T12:15:20.000Z</time>
      </trkpt>
      <trkpt lat="46.73328" lon="1.88693">
        <ele>121.96</ele>
        <time>2022-07-26T12:15:25.000Z</time>
      </trkpt>
      <trkpt lat="46.73312" lon="1.88663">
        <ele>123.2</ele>
        <time>2022-07-26T12:15:30.000Z</time>
      </trkpt>
      <trkpt lat="46.73296" lon="1.88633">
        <ele>125.26</ele>
        <time>2022-07-26T12:15:35.000Z</time>
      </trkpt>
      <trkpt lat="46.73281" lon="1.88605">
        <ele>126.46</ele>
        <time>2022-07-26T12:15:40.000Z</time>
      </trkpt>
      <trkpt lat="46.73266" lon="1.88578">
        <ele>128.38</ele>
        <time>2022-07-26T12:15:45.000Z</time>
      </trkpt>
      <trkpt lat="46.73253" lon="1.88551">
        <ele>129.5</ele>
        <time>2022-07-26T12:15:50.000Z</time>
      </trkpt>
      <trkpt lat="46.73242" lon="1.88519">
        <ele>128.52</ele>
        <time>2022-07-26T12:15:55.000Z</time>
      </trkpt>
      <trkpt lat="46.73234" lon="1.88491">
        <ele>130.52</ele>
        <time>2022-07-26T12:16:00.000Z</time>
      </trkpt>
      <trkpt lat="46.73226" lon="1.88458">
        <ele>131.71</ele>
        <time>2022-07-26T12:16:05.000Z</time>
      </trkpt>
      <trkpt lat="46.73218" lon="1.88427">
        <ele>133.11</ele>
        <time>2022-07-26T12:16:09.210Z</time>
      </trkpt>
      <trkpt lat="46.73211" lon="1.88402">
        <ele>133.34</ele>
        <time>2022-07-26T12:16:13.519Z</time>
      </trkpt>
      <trkpt lat="46.73205" lon="1.88378">
        <ele>133.34</ele>
        <time>2022-07-26T12:16:19.000Z</time>
      </trkpt>
      <trkpt lat="46.73196" lon="1.88346">
        <ele>134.21</ele>
        <time>2022-07-26T12:16:23.076Z</time>
      </trkpt>
      <trkpt lat="46.7319" lon="1.88325">
        <ele>135.18</ele>
        <time>2022-07-26T12:16:28.000Z</time>
      </trkpt>
      <trkpt lat="46.7318" lon="1.88285">
        <ele>135.74</ele>
        <time>2022-07-26T12:16:34.000Z</time>
      </trkpt>
      <trkpt lat="46.73171" lon="1.88253">
        <ele>135.79</ele>
        <time>2022-07-26T12:16:39.000Z</time>
      </trkpt>
      <trkpt lat="46.73163" lon="1.88222">
        <ele>135.63</ele>
        <time>2022-07-26T12:16:44.000Z</time>
      </trkpt>
      <trkpt lat="46.73154" lon="1.88191">
        <ele>136.22</ele>
        <time>2022-07-26T12:16:49.000Z</time>
      </trkpt>
      <trkpt lat="46.73148" lon="1.8816">
        <ele>136.78</ele>
        <time>2022-07-26T12:16:54.000Z</time>
      </trkpt>
      <trkpt lat="46.73144" lon="1.88126">
        <ele>137.8</ele>
        <time>2022-07-26T12:16:59.000Z</time>
      </trkpt>
      <trkpt lat="46.73142" lon="1.88094">
        <ele>138.12</ele>
        <time>2022-07-26T12:17:04.000Z</time>
      </trkpt>
      <trkpt lat="46.73141" lon="1.8806">
        <ele>138.75</ele>
        <time>2022-07-26T12:17:09.000Z</time>
      </trkpt>
      <trkpt lat="46.73138" lon="1.88026">
        <ele>138.94</ele>
        <time>2022-07-26T12:17:14.000Z</time>
      </trkpt>
      <trkpt lat="46.73136" lon="1.8799">
        <ele>138.89</ele>
        <time>2022-07-26T12:17:19.000Z</time>
      </trkpt>
      <trkpt lat="46.73134" lon="1.87957">
        <ele>138.89</ele>
        <time>2022-07-26T12:17:24.000Z</time>
      </trkpt>
      <trkpt lat="46.73132" lon="1.87924">
        <ele>139.35</ele>
        <time>2022-07-26T12:17:29.000Z</time>
      </trkpt>
      <trkpt lat="46.7313" lon="1.87891">
        <ele>140.19</ele>
        <time>2022-07-26T12:17:34.000Z</time>
      </trkpt>
      <trkpt lat="46.73128" lon="1.87857">
        <ele>140.1</ele>
        <time>2022-07-26T12:17:39.000Z</time>
      </trkpt>
      <trkpt lat="46.73127" lon="1.8782">
        <ele>138.73</ele>
        <time>2022-07-26T12:17:44.000Z</time>
      </trkpt>
      <trkpt lat="46.73125" lon="1.87782">
        <ele>138.13</ele>
        <time>2022-07-26T12:17:49.000Z</time>
      </trkpt>
      <trkpt lat="46.73122" lon="1.87744">
        <ele>138.77</ele>
        <time>2022-07-26T12:17:54.000Z</time>
      </trkpt>
      <trkpt lat="46.73119" lon="1.87708">
        <ele>138.24</ele>
        <time>2022-07-26T12:17:59.000Z</time>
      </trkpt>
      <trkpt lat="46.73116" lon="1.87672">
        <ele>136.17</ele>
        <time>2022-07-26T12:18:04.000Z</time>
      </trkpt>
      <trkpt lat="46.73114" lon="1.87633">
        <ele>136.74</ele>
        <time>2022-07-26T12:18:09.000Z</time>
      </trkpt>
      <trkpt lat="46.73113" lon="1.87595">
        <ele>137.53</ele>
        <time>2022-07-26T12:18:14.000Z</time>
      </trkpt>
      <trkpt lat="46.7311" lon="1.87556">
        <ele>138.18</ele>
        <time>2022-07-26T12:18:19.000Z</time>
      </trkpt>
      <trkpt lat="46.73107" lon="1.87517">
        <ele>136.86</ele>
        <time>2022-07-26T12:18:24.000Z</time>
      </trkpt>
      <trkpt lat="46.73103" lon="1.87476">
        <ele>138.4</ele>
        <time>2022-07-26T12:18:29.000Z</time>
      </trkpt>
      <trkpt lat="46.73108" lon="1.87436">
        <ele>138.66</ele>
        <time>2022-07-26T12:18:34.000Z</time>
      </trkpt>
      <trkpt lat="46.73121" lon="1.874">
        <ele>137.6</ele>
        <time>2022-07-26T12:18:39.000Z</time>
      </trkpt>
      <trkpt lat="46.73134" lon="1.87366">
        <ele>136.72</ele>
        <time>2022-07-26T12:18:44.000Z</time>
      </trkpt>
      <trkpt lat="46.73146" lon="1.87333">
        <ele>135.77</ele>
        <time>2022-07-26T12:18:49.000Z</time>
      </trkpt>
      <trkpt lat="46.73155" lon="1.87305">
        <ele>134.62</ele>
        <time>2022-07-26T12:18:54.000Z</time>
      </trkpt>
      <trkpt lat="46.73165" lon="1.87278">
        <ele>133.04</ele>
        <time>2022-07-26T12:18:59.000Z</time>
      </trkpt>
      <trkpt lat="46.73176" lon="1.87248">
        <ele>134.25</ele>
        <time>2022-07-26T12:19:03.404Z</time>
      </trkpt>
      <trkpt lat="46.73183" lon="1.87228">
        <ele>133.88</ele>
        <time>2022-07-26T12:19:08.000Z</time>
      </trkpt>
      <trkpt lat="46.73198" lon="1.87193">
        <ele>133.39</ele>
        <time>2022-07-26T12:19:13.000Z</time>
      </trkpt>
      <trkpt lat="46.73215" lon="1.87155">
        <ele>132.9</ele>
        <time>2022-07-26T12:19:18.000Z</time>
      </trkpt>
      <trkpt lat="46.73229" lon="1.8712">
        <ele>131.63</ele>
        <time>2022-07-26T12:19:23.000Z</time>
      </trkpt>
      <trkpt lat="46.73243" lon="1.87091">
        <ele>130.22</ele>
        <time>2022-07-26T12:19:28.000Z</time>
      </trkpt>
      <trkpt lat="46.73254" lon="1.87064">
        <ele>127.63</ele>
        <time>2022-07-26T12:19:33.000Z</time>
      </trkpt>
      <trkpt lat="46.7327" lon="1.87029">
        <ele>126.63</ele>
        <time>2022-07-26T12:19:39.000Z</time>
      </trkpt>
      <trkpt lat="46.73285" lon="1.86997">
        <ele>124.51</ele>
        <time>2022-07-26T12:19:44.000Z</time>
      </trkpt>
      <trkpt lat="46.733" lon="1.86963">
        <ele>123.9</ele>
        <time>2022-07-26T12:19:49.000Z</time>
      </trkpt>
      <trkpt lat="46.73312" lon="1.86939">
        <ele>122.67</ele>
        <time>2022-07-26T12:19:54.000Z</time>
      </trkpt>
      <trkpt lat="46.73324" lon="1.86917">
        <ele>121.39</ele>
        <time>2022-07-26T12:19:59.000Z</time>
      </trkpt>
      <trkpt lat="46.73339" lon="1.86886">
        <ele>118.49</ele>
        <time>2022-07-26T12:20:03.129Z</time>
      </trkpt>
      <trkpt lat="46.7335" lon="1.86861">
        <ele>114.45</ele>
        <time>2022-07-26T12:20:08.000Z</time>
      </trkpt>
      <trkpt lat="46.73363" lon="1.86823">
        <ele>108.78</ele>
        <time>2022-07-26T12:20:13.000Z</time>
      </trkpt>
      <trkpt lat="46.7337" lon="1.86778">
        <ele>107.78</ele>
        <time>2022-07-26T12:20:18.000Z</time>
      </trkpt>
      <trkpt lat="46.73374" lon="1.86741">
        <ele>109.86</ele>
        <time>2022-07-26T12:20:23.000Z</time>
      </trkpt>
      <trkpt lat="46.73371" lon="1.86701">
        <ele>112.09</ele>
        <time>2022-07-26T12:20:28.000Z</time>
      </trkpt>
      <trkpt lat="46.73365" lon="1.86659">
        <ele>114.63</ele>
        <time>2022-07-26T12:20:33.000Z</time>
      </trkpt>
      <trkpt lat="46.73359" lon="1.86613">
        <ele>118.56</ele>
        <time>2022-07-26T12:20:38.000Z</time>
      </trkpt>
      <trkpt lat="46.73353" lon="1.86571">
        <ele>121.2</ele>
        <time>2022-07-26T12:20:43.000Z</time>
      </trkpt>
      <trkpt lat="46.73348" lon="1.86527">
        <ele>123.58</ele>
        <time>2022-07-26T12:20:48.000Z</time>
      </trkpt>
      <trkpt lat="46.73344" lon="1.86485">
        <ele>125.55</ele>
        <time>2022-07-26T12:20:53.000Z</time>
      </trkpt>
      <trkpt lat="46.73341" lon="1.86446">
        <ele>125.76</ele>
        <time>2022-07-26T12:20:58.000Z</time>
      </trkpt>
      <trkpt lat="46.73338" lon="1.86408">
        <ele>127.82</ele>
        <time>2022-07-26T12:21:03.000Z</time>
      </trkpt>
      <trkpt lat="46.73336" lon="1.86376">
        <ele>129.99</ele>
        <time>2022-07-26T12:21:08.000Z</time>
      </trkpt>
      <trkpt lat="46.7333" lon="1.86339">
        <ele>132.06</ele>
        <time>2022-07-26T12:21:12.660Z</time>
      </trkpt>
      <trkpt lat="46.7333" lon="1.86315">
        <ele>132.46</ele>
        <time>2022-07-26T12:21:17.000Z</time>
      </trkpt>
      <trkpt lat="46.73324" lon="1.86267">
        <ele>133.65</ele>
        <time>2022-07-26T12:21:23.000Z</time>
      </trkpt>
      <trkpt lat="46.73319" lon="1.86236">
        <ele>134.95</ele>
        <time>2022-07-26T12:21:27.296Z</time>
      </trkpt>
      <trkpt lat="46.73315" lon="1.86206">
        <ele>136.72</ele>
        <time>2022-07-26T12:21:32.000Z</time>
      </trkpt>
      <trkpt lat="46.73311" lon="1.86168">
        <ele>137.5</ele>
        <time>2022-07-26T12:21:37.000Z</time>
      </trkpt>
      <trkpt lat="46.73307" lon="1.86135">
        <ele>136.08</ele>
        <time>2022-07-26T12:21:42.000Z</time>
      </trkpt>
      <trkpt lat="46.73301" lon="1.86097">
        <ele>135.38</ele>
        <time>2022-07-26T12:21:46.475Z</time>
      </trkpt>
      <trkpt lat="46.733" lon="1.86071">
        <ele>136.97</ele>
        <time>2022-07-26T12:21:51.000Z</time>
      </trkpt>
      <trkpt lat="46.73295" lon="1.86035">
        <ele>135.02</ele>
        <time>2022-07-26T12:21:56.000Z</time>
      </trkpt>
      <trkpt lat="46.73292" lon="1.86005">
        <ele>134.5</ele>
        <time>2022-07-26T12:22:01.000Z</time>
      </trkpt>
      <trkpt lat="46.7329" lon="1.85967">
        <ele>133.01</ele>
        <time>2022-07-26T12:22:06.000Z</time>
      </trkpt>
      <trkpt lat="46.73294" lon="1.8593">
        <ele>132.14</ele>
        <time>2022-07-26T12:22:11.000Z</time>
      </trkpt>
      <trkpt lat="46.733" lon="1.85893">
        <ele>131.71</ele>
        <time>2022-07-26T12:22:16.000Z</time>
      </trkpt>
      <trkpt lat="46.73305" lon="1.85855">
        <ele>131.41</ele>
        <time>2022-07-26T12:22:21.000Z</time>
      </trkpt>
      <trkpt lat="46.73311" lon="1.85818">
        <ele>131.91</ele>
        <time>2022-07-26T12:22:26.000Z</time>
      </trkpt>
      <trkpt lat="46.73316" lon="1.85781">
        <ele>131.97</ele>
        <time>2022-07-26T12:22:31.000Z</time>
      </trkpt>
      <trkpt lat="46.73322" lon="1.85743">
        <ele>132.54</ele>
        <time>2022-07-26T12:22:36.000Z</time>
      </trkpt>
      <trkpt lat="46.73328" lon="1.85705">
        <ele>132.56</ele>
        <time>2022-07-26T12:22:41.000Z</time>
      </trkpt>
      <trkpt lat="46.73333" lon="1.85668">
        <ele>132.35</ele>
        <time>2022-07-26T12:22:46.000Z</time>
      </trkpt>
      <trkpt lat="46.73339" lon="1.85631">
        <ele>132.45</ele>
        <time>2022-07-26T12:22:51.000Z</time>
      </trkpt>
      <trkpt lat="46.73344" lon="1.85594">
        <ele>132.31</ele>
        <time>2022-07-26T12:22:56.000Z</time>
      </trkpt>
      <trkpt lat="46.73349" lon="1.85558">
        <ele>132.19</ele>
        <time>2022-07-26T12:23:01.000Z</time>
      </trkpt>
      <trkpt lat="46.73356" lon="1.85521">
        <ele>132.01</ele>
        <time>2022-07-26T12:23:06.000Z</time>
      </trkpt>
      <trkpt lat="46.73361" lon="1.85484">
        <ele>132.26</ele>
        <time>2022-07-26T12:23:11.000Z</time>
      </trkpt>
      <trkpt lat="46.73367" lon="1.85446">
        <ele>132.29</ele>
        <time>2022-07-26T12:23:16.000Z</time>
      </trkpt>
      <trkpt lat="46.73373" lon="1.85406">
        <ele>132.67</ele>
        <time>2022-07-26T12:23:21.000Z</time>
      </trkpt>
      <trkpt lat="46.73379" lon="1.85368">
        <ele>132.29</ele>
        <time>2022-07-26T12:23:26.000Z</time>
      </trkpt>
      <trkpt lat="46.73385" lon="1.85329">
        <ele>132.16</ele>
        <time>2022-07-26T12:23:31.000Z</time>
      </trkpt>
      <trkpt lat="46.73391" lon="1.85287">
        <ele>130.9</ele>
        <time>2022-07-26T12:23:36.000Z</time>
      </trkpt>
      <trkpt lat="46.73397" lon="1.85247">
        <ele>129.27</ele>
        <time>2022-07-26T12:23:41.000Z</time>
      </trkpt>
      <trkpt lat="46.73403" lon="1.85209">
        <ele>129.15</ele>
        <time>2022-07-26T12:23:46.000Z</time>
      </trkpt>
      <trkpt lat="46.73407" lon="1.85174">
        <ele>128.94</ele>
        <time>2022-07-26T12:23:51.000Z</time>
      </trkpt>
      <trkpt lat="46.73413" lon="1.85141">
        <ele>130.16</ele>
        <time>2022-07-26T12:23:56.000Z</time>
      </trkpt>
      <trkpt lat="46.7342" lon="1.85108">
        <ele>130.63</ele>
        <time>2022-07-26T12:24:01.000Z</time>
      </trkpt>
      <trkpt lat="46.73429" lon="1.85076">
        <ele>132.47</ele>
        <time>2022-07-26T12:24:06.000Z</time>
      </trkpt>
      <trkpt lat="46.73441" lon="1.85045">
        <ele>132.11</ele>
        <time>2022-07-26T12:24:11.000Z</time>
      </trkpt>
      <trkpt lat="46.73453" lon="1.85015">
        <ele>131.71</ele>
        <time>2022-07-26T12:24:16.000Z</time>
      </trkpt>
      <trkpt lat="46.73464" lon="1.84985">
        <ele>131.25</ele>
        <time>2022-07-26T12:24:21.000Z</time>
      </trkpt>
      <trkpt lat="46.73476" lon="1.84954">
        <ele>130.07</ele>
        <time>2022-07-26T12:24:26.000Z</time>
      </trkpt>
      <trkpt lat="46.73487" lon="1.84922">
        <ele>129.69</ele>
        <time>2022-07-26T12:24:31.000Z</time>
      </trkpt>
      <trkpt lat="46.73498" lon="1.84892">
        <ele>130.07</ele>
        <time>2022-07-26T12:24:36.000Z</time>
      </trkpt>
      <trkpt lat="46.73509" lon="1.84862">
        <ele>129.41</ele>
        <time>2022-07-26T12:24:41.000Z</time>
      </trkpt>
      <trkpt lat="46.7352" lon="1.84831">
        <ele>128.88</ele>
        <time>2022-07-26T12:24:46.000Z</time>
      </trkpt>
      <trkpt lat="46.73532" lon="1.84798">
        <ele>129.1</ele>
        <time>2022-07-26T12:24:51.000Z</time>
      </trkpt>
      <trkpt lat="46.73543" lon="1.84765">
        <ele>129.81</ele>
        <time>2022-07-26T12:24:56.000Z</time>
      </trkpt>
      <trkpt lat="46.73555" lon="1.84732">
        <ele>130.75</ele>
        <time>2022-07-26T12:25:01.000Z</time>
      </trkpt>
      <trkpt lat="46.73568" lon="1.84698">
        <ele>130.81</ele>
        <time>2022-07-26T12:25:06.000Z</time>
      </trkpt>
      <trkpt lat="46.73579" lon="1.84664">
        <ele>131.31</ele>
        <time>2022-07-26T12:25:11.000Z</time>
      </trkpt>
      <trkpt lat="46.73588" lon="1.84629">
        <ele>129.6</ele>
        <time>2022-07-26T12:25:16.000Z</time>
      </trkpt>
      <trkpt lat="46.73594" lon="1.84592">
        <ele>129.09</ele>
        <time>2022-07-26T12:25:21.000Z</time>
      </trkpt>
      <trkpt lat="46.73597" lon="1.84555">
        <ele>129.1</ele>
        <time>2022-07-26T12:25:26.000Z</time>
      </trkpt>
      <trkpt lat="46.73601" lon="1.84518">
        <ele>130.01</ele>
        <time>2022-07-26T12:25:31.000Z</time>
      </trkpt>
      <trkpt lat="46.73603" lon="1.84484">
        <ele>130.99</ele>
        <time>2022-07-26T12:25:36.000Z</time>
      </trkpt>
      <trkpt lat="46.73607" lon="1.84449">
        <ele>131.19</ele>
        <time>2022-07-26T12:25:41.000Z</time>
      </trkpt>
      <trkpt lat="46.7361" lon="1.84419">
        <ele>130.26</ele>
        <time>2022-07-26T12:25:46.000Z</time>
      </trkpt>
      <trkpt lat="46.73615" lon="1.84388">
        <ele>130.34</ele>
        <time>2022-07-26T12:25:51.000Z</time>
      </trkpt>
      <trkpt lat="46.73619" lon="1.84357">
        <ele>130.34</ele>
        <time>2022-07-26T12:25:56.000Z</time>
      </trkpt>
      <trkpt lat="46.73623" lon="1.84322">
        <ele>127.93</ele>
        <time>2022-07-26T12:26:01.000Z</time>
      </trkpt>
      <trkpt lat="46.73627" lon="1.8429">
        <ele>127.53</ele>
        <time>2022-07-26T12:26:06.000Z</time>
      </trkpt>
      <trkpt lat="46.73632" lon="1.84259">
        <ele>129.65</ele>
        <time>2022-07-26T12:26:11.000Z</time>
      </trkpt>
      <trkpt lat="46.73636" lon="1.84224">
        <ele>129.76</ele>
        <time>2022-07-26T12:26:16.000Z</time>
      </trkpt>
      <trkpt lat="46.7364" lon="1.8419">
        <ele>130.33</ele>
        <time>2022-07-26T12:26:21.000Z</time>
      </trkpt>
      <trkpt lat="46.73644" lon="1.84154">
        <ele>130.71</ele>
        <time>2022-07-26T12:26:26.000Z</time>
      </trkpt>
      <trkpt lat="46.73643" lon="1.84123">
        <ele>130.25</ele>
        <time>2022-07-26T12:26:31.000Z</time>
      </trkpt>
      <trkpt lat="46.73637" lon="1.84101">
        <ele>129.04</ele>
        <time>2022-07-26T12:26:36.000Z</time>
      </trkpt>
      <trkpt lat="46.73637" lon="1.84084">
        <ele>128.76</ele>
        <time>2022-07-26T12:26:41.000Z</time>
      </trkpt>
      <trkpt lat="46.73651" lon="1.84064">
        <ele>129.54</ele>
        <time>2022-07-26T12:26:46.000Z</time>
      </trkpt>
      <trkpt lat="46.7367" lon="1.84041">
        <ele>129.8</ele>
        <time>2022-07-26T12:26:51.000Z</time>
      </trkpt>
      <trkpt lat="46.73689" lon="1.84018">
        <ele>130.34</ele>
        <time>2022-07-26T12:26:56.000Z</time>
      </trkpt>
      <trkpt lat="46.73701" lon="1.83985">
        <ele>130.74</ele>
        <time>2022-07-26T12:27:01.000Z</time>
      </trkpt>
      <trkpt lat="46.73718" lon="1.83945">
        <ele>130.75</ele>
        <time>2022-07-26T12:27:06.000Z</time>
      </trkpt>
      <trkpt lat="46.73734" lon="1.83912">
        <ele>130.56</ele>
        <time>2022-07-26T12:27:11.000Z</time>
      </trkpt>
      <trkpt lat="46.7375" lon="1.83882">
        <ele>129.34</ele>
        <time>2022-07-26T12:27:16.000Z</time>
      </trkpt>
      <trkpt lat="46.73766" lon="1.83852">
        <ele>128.64</ele>
        <time>2022-07-26T12:27:21.000Z</time>
      </trkpt>
      <trkpt lat="46.7378" lon="1.83825">
        <ele>128.27</ele>
        <time>2022-07-26T12:27:26.000Z</time>
      </trkpt>
      <trkpt lat="46.73793" lon="1.83799">
        <ele>128.32</ele>
        <time>2022-07-26T12:27:31.000Z</time>
      </trkpt>
      <trkpt lat="46.73806" lon="1.83775">
        <ele>127.34</ele>
        <time>2022-07-26T12:27:36.000Z</time>
      </trkpt>
      <trkpt lat="46.73821" lon="1.83746">
        <ele>126.06</ele>
        <time>2022-07-26T12:27:41.000Z</time>
      </trkpt>
      <trkpt lat="46.73838" lon="1.83717">
        <ele>125.57</ele>
        <time>2022-07-26T12:27:46.000Z</time>
      </trkpt>
      <trkpt lat="46.73853" lon="1.83691">
        <ele>123.99</ele>
        <time>2022-07-26T12:27:51.000Z</time>
      </trkpt>
      <trkpt lat="46.7387" lon="1.8366">
        <ele>118.69</ele>
        <time>2022-07-26T12:27:56.000Z</time>
      </trkpt>
      <trkpt lat="46.73894" lon="1.83616">
        <ele>117.24</ele>
        <time>2022-07-26T12:28:01.000Z</time>
      </trkpt>
      <trkpt lat="46.73918" lon="1.83573">
        <ele>116.08</ele>
        <time>2022-07-26T12:28:06.000Z</time>
      </trkpt>
      <trkpt lat="46.73937" lon="1.83534">
        <ele>115.98</ele>
        <time>2022-07-26T12:28:11.000Z</time>
      </trkpt>
      <trkpt lat="46.73953" lon="1.83499">
        <ele>115.23</ele>
        <time>2022-07-26T12:28:16.000Z</time>
      </trkpt>
      <trkpt lat="46.7397" lon="1.83461">
        <ele>114.79</ele>
        <time>2022-07-26T12:28:21.000Z</time>
      </trkpt>
      <trkpt lat="46.73986" lon="1.83422">
        <ele>112.02</ele>
        <time>2022-07-26T12:28:26.000Z</time>
      </trkpt>
      <trkpt lat="46.74003" lon="1.83382">
        <ele>111.14</ele>
        <time>2022-07-26T12:28:31.000Z</time>
      </trkpt>
      <trkpt lat="46.74022" lon="1.83342">
        <ele>110.35</ele>
        <time>2022-07-26T12:28:36.000Z</time>
      </trkpt>
      <trkpt lat="46.74044" lon="1.83307">
        <ele>110.62</ele>
        <time>2022-07-26T12:28:41.000Z</time>
      </trkpt>
      <trkpt lat="46.74071" lon="1.83281">
        <ele>112.71</ele>
        <time>2022-07-26T12:28:46.000Z</time>
      </trkpt>
      <trkpt lat="46.74095" lon="1.83257">
        <ele>115.32</ele>
        <time>2022-07-26T12:28:51.000Z</time>
      </trkpt>
      <trkpt lat="46.74119" lon="1.83237">
        <ele>117.9</ele>
        <time>2022-07-26T12:28:56.000Z</time>
      </trkpt>
      <trkpt lat="46.7414" lon="1.83213">
        <ele>117.09</ele>
        <time>2022-07-26T12:29:01.000Z</time>
      </trkpt>
      <trkpt lat="46.74158" lon="1.83184">
        <ele>117.49</ele>
        <time>2022-07-26T12:29:06.000Z</time>
      </trkpt>
      <trkpt lat="46.74175" lon="1.83158">
        <ele>116.89</ele>
        <time>2022-07-26T12:29:11.000Z</time>
      </trkpt>
      <trkpt lat="46.74191" lon="1.83136">
        <ele>116.05</ele>
        <time>2022-07-26T12:29:16.000Z</time>
      </trkpt>
      <trkpt lat="46.74193" lon="1.83122">
        <ele>116.16</ele>
        <time>2022-07-26T12:29:21.000Z</time>
      </trkpt>
      <trkpt lat="46.74182" lon="1.83095">
        <ele>116.68</ele>
        <time>2022-07-26T12:29:26.000Z</time>
      </trkpt>
      <trkpt lat="46.74173" lon="1.83062">
        <ele>116.93</ele>
        <time>2022-07-26T12:29:31.000Z</time>
      </trkpt>
      <trkpt lat="46.74163" lon="1.83026">
        <ele>116.76</ele>
        <time>2022-07-26T12:29:36.000Z</time>
      </trkpt>
      <trkpt lat="46.74152" lon="1.82989">
        <ele>117.43</ele>
        <time>2022-07-26T12:29:41.000Z</time>
      </trkpt>
      <trkpt lat="46.74141" lon="1.82961">
        <ele>119.34</ele>
        <time>2022-07-26T12:29:46.000Z</time>
      </trkpt>
      <trkpt lat="46.74134" lon="1.82949">
        <ele>120.6</ele>
        <time>2022-07-26T12:29:51.000Z</time>
      </trkpt>
      <trkpt lat="46.7414" lon="1.82934">
        <ele>120.68</ele>
        <time>2022-07-26T12:29:55.557Z</time>
      </trkpt>
      <trkpt lat="46.74151" lon="1.82919">
        <ele>118.99</ele>
        <time>2022-07-26T12:30:00.000Z</time>
      </trkpt>
      <trkpt lat="46.74175" lon="1.82898">
        <ele>117.66</ele>
        <time>2022-07-26T12:30:05.000Z</time>
      </trkpt>
      <trkpt lat="46.74196" lon="1.82876">
        <ele>114.76</ele>
        <time>2022-07-26T12:30:10.000Z</time>
      </trkpt>
      <trkpt lat="46.74214" lon="1.82842">
        <ele>113.51</ele>
        <time>2022-07-26T12:30:15.000Z</time>
      </trkpt>
      <trkpt lat="46.74219" lon="1.82802">
        <ele>112.03</ele>
        <time>2022-07-26T12:30:20.000Z</time>
      </trkpt>
      <trkpt lat="46.74221" lon="1.82762">
        <ele>113.09</ele>
        <time>2022-07-26T12:30:25.000Z</time>
      </trkpt>
      <trkpt lat="46.74223" lon="1.82723">
        <ele>113.74</ele>
        <time>2022-07-26T12:30:30.000Z</time>
      </trkpt>
      <trkpt lat="46.74226" lon="1.82685">
        <ele>114.41</ele>
        <time>2022-07-26T12:30:35.000Z</time>
      </trkpt>
      <trkpt lat="46.74234" lon="1.82649">
        <ele>114.94</ele>
        <time>2022-07-26T12:30:40.000Z</time>
      </trkpt>
      <trkpt lat="46.7424" lon="1.82613">
        <ele>114.32</ele>
        <time>2022-07-26T12:30:45.000Z</time>
      </trkpt>
      <trkpt lat="46.74245" lon="1.82577">
        <ele>114.67</ele>
        <time>2022-07-26T12:30:50.000Z</time>
      </trkpt>
      <trkpt lat="46.7425" lon="1.82548">
        <ele>115.07</ele>
        <time>2022-07-26T12:30:55.000Z</time>
      </trkpt>
      <trkpt lat="46.74242" lon="1.82539">
        <ele>114.56</ele>
        <time>2022-07-26T12:31:00.000Z</time>
      </trkpt>
      <trkpt lat="46.74227" lon="1.82528">
        <ele>114.81</ele>
        <time>2022-07-26T12:31:05.000Z</time>
      </trkpt>
      <trkpt lat="46.74216" lon="1.8251">
        <ele>115.7</ele>
        <time>2022-07-26T12:31:11.000Z</time>
      </trkpt>
      <trkpt lat="46.74209" lon="1.82495">
        <ele>115.9</ele>
        <time>2022-07-26T12:31:16.000Z</time>
      </trkpt>
      <trkpt lat="46.74219" lon="1.82494">
        <ele>116.91</ele>
        <time>2022-07-26T12:33:31.000Z</time>
      </trkpt>
      <trkpt lat="46.7423" lon="1.82482">
        <ele>116.02</ele>
        <time>2022-07-26T12:33:37.000Z</time>
      </trkpt>
      <trkpt lat="46.74246" lon="1.82474">
        <ele>115.61</ele>
        <time>2022-07-26T12:33:42.000Z</time>
      </trkpt>
      <trkpt lat="46.74262" lon="1.82483">
        <ele>114.46</ele>
        <time>2022-07-26T12:33:46.117Z</time>
      </trkpt>
      <trkpt lat="46.74273" lon="1.82471">
        <ele>114.31</ele>
        <time>2022-07-26T12:33:51.000Z</time>
      </trkpt>
      <trkpt lat="46.74279" lon="1.82451">
        <ele>116.67</ele>
        <time>2022-07-26T12:33:56.000Z</time>
      </trkpt>
      <trkpt lat="46.74287" lon="1.82433">
        <ele>117.63</ele>
        <time>2022-07-26T12:34:01.000Z</time>
      </trkpt>
      <trkpt lat="46.74297" lon="1.82406">
        <ele>118.01</ele>
        <time>2022-07-26T12:34:07.000Z</time>
      </trkpt>
      <trkpt lat="46.74304" lon="1.82386">
        <ele>117.45</ele>
        <time>2022-07-26T12:34:12.000Z</time>
      </trkpt>
      <trkpt lat="46.74309" lon="1.82374">
        <ele>116.76</ele>
        <time>2022-07-26T12:34:17.000Z</time>
      </trkpt>
      <trkpt lat="46.74302" lon="1.82388">
        <ele>116.65</ele>
        <time>2022-07-26T12:34:30.000Z</time>
      </trkpt>
      <trkpt lat="46.74292" lon="1.82416">
        <ele>115.57</ele>
        <time>2022-07-26T12:34:34.472Z</time>
      </trkpt>
      <trkpt lat="46.74287" lon="1.82433">
        <ele>114.18</ele>
        <time>2022-07-26T12:34:39.000Z</time>
      </trkpt>
      <trkpt lat="46.74274" lon="1.82459">
        <ele>113.04</ele>
        <time>2022-07-26T12:34:43.677Z</time>
      </trkpt>
      <trkpt lat="46.74261" lon="1.82473">
        <ele>113.51</ele>
        <time>2022-07-26T12:34:47.996Z</time>
      </trkpt>
      <trkpt lat="46.7425" lon="1.82465">
        <ele>114.73</ele>
        <time>2022-07-26T12:34:53.000Z</time>
      </trkpt>
      <trkpt lat="46.74255" lon="1.82439">
        <ele>115.75</ele>
        <time>2022-07-26T12:34:58.000Z</time>
      </trkpt>
      <trkpt lat="46.74258" lon="1.82415">
        <ele>117.98</ele>
        <time>2022-07-26T12:35:03.000Z</time>
      </trkpt>
      <trkpt lat="46.7426" lon="1.8239">
        <ele>117.65</ele>
        <time>2022-07-26T12:35:08.000Z</time>
      </trkpt>
      <trkpt lat="46.7426" lon="1.82363">
        <ele>116.64</ele>
        <time>2022-07-26T12:35:12.094Z</time>
      </trkpt>
      <trkpt lat="46.74261" lon="1.82341">
        <ele>116.56</ele>
        <time>2022-07-26T12:35:16.254Z</time>
      </trkpt>
      <trkpt lat="46.74261" lon="1.82317">
        <ele>116.34</ele>
        <time>2022-07-26T12:35:22.000Z</time>
      </trkpt>
      <trkpt lat="46.74261" lon="1.82292">
        <ele>117.27</ele>
        <time>2022-07-26T12:35:27.000Z</time>
      </trkpt>
      <trkpt lat="46.74262" lon="1.82261">
        <ele>117.09</ele>
        <time>2022-07-26T12:35:32.000Z</time>
      </trkpt>
      <trkpt lat="46.74263" lon="1.82226">
        <ele>115.42</ele>
        <time>2022-07-26T12:35:37.000Z</time>
      </trkpt>
      <trkpt lat="46.74261" lon="1.82186">
        <ele>114.71</ele>
        <time>2022-07-26T12:35:42.000Z</time>
      </trkpt>
      <trkpt lat="46.74262" lon="1.82146">
        <ele>117.11</ele>
        <time>2022-07-26T12:35:47.000Z</time>
      </trkpt>
      <trkpt lat="46.74268" lon="1.82103">
        <ele>117.65</ele>
        <time>2022-07-26T12:35:52.000Z</time>
      </trkpt>
      <trkpt lat="46.74274" lon="1.82061">
        <ele>118.1</ele>
        <time>2022-07-26T12:35:57.000Z</time>
      </trkpt>
      <trkpt lat="46.74278" lon="1.82019">
        <ele>118.65</ele>
        <time>2022-07-26T12:36:02.000Z</time>
      </trkpt>
      <trkpt lat="46.74284" lon="1.8198">
        <ele>119.42</ele>
        <time>2022-07-26T12:36:07.000Z</time>
      </trkpt>
      <trkpt lat="46.74288" lon="1.81942">
        <ele>119.65</ele>
        <time>2022-07-26T12:36:12.000Z</time>
      </trkpt>
      <trkpt lat="46.74289" lon="1.81905">
        <ele>119.05</ele>
        <time>2022-07-26T12:36:17.000Z</time>
      </trkpt>
      <trkpt lat="46.74291" lon="1.81869">
        <ele>119.04</ele>
        <time>2022-07-26T12:36:22.000Z</time>
      </trkpt>
      <trkpt lat="46.74296" lon="1.81843">
        <ele>119.21</ele>
        <time>2022-07-26T12:36:27.000Z</time>
      </trkpt>
      <trkpt lat="46.74291" lon="1.81827">
        <ele>119.72</ele>
        <time>2022-07-26T12:36:31.726Z</time>
      </trkpt>
      <trkpt lat="46.74275" lon="1.81827">
        <ele>119.44</ele>
        <time>2022-07-26T12:36:36.529Z</time>
      </trkpt>
      <trkpt lat="46.74269" lon="1.8181">
        <ele>118.29</ele>
        <time>2022-07-26T12:36:41.000Z</time>
      </trkpt>
      <trkpt lat="46.7428" lon="1.81778">
        <ele>117.13</ele>
        <time>2022-07-26T12:36:46.000Z</time>
      </trkpt>
      <trkpt lat="46.74281" lon="1.8174">
        <ele>114.04</ele>
        <time>2022-07-26T12:36:51.000Z</time>
      </trkpt>
      <trkpt lat="46.74281" lon="1.81702">
        <ele>114.05</ele>
        <time>2022-07-26T12:36:56.000Z</time>
      </trkpt>
      <trkpt lat="46.74278" lon="1.8166">
        <ele>115.19</ele>
        <time>2022-07-26T12:37:01.000Z</time>
      </trkpt>
      <trkpt lat="46.74275" lon="1.81631">
        <ele>118.14</ele>
        <time>2022-07-26T12:37:06.000Z</time>
      </trkpt>
      <trkpt lat="46.74273" lon="1.81646">
        <ele>117.44</ele>
        <time>2022-07-26T12:37:12.000Z</time>
      </trkpt>
      <trkpt lat="46.74278" lon="1.81673">
        <ele>116.94</ele>
        <time>2022-07-26T12:37:18.000Z</time>
      </trkpt>
      <trkpt lat="46.7428" lon="1.81694">
        <ele>117.21</ele>
        <time>2022-07-26T12:37:23.000Z</time>
      </trkpt>
      <trkpt lat="46.74285" lon="1.81712">
        <ele>117.26</ele>
        <time>2022-07-26T12:37:28.000Z</time>
      </trkpt>
      <trkpt lat="46.74286" lon="1.81726">
        <ele>117</ele>
        <time>2022-07-26T12:37:34.000Z</time>
      </trkpt>
      <trkpt lat="46.74282" lon="1.81713">
        <ele>117.41</ele>
        <time>2022-07-26T12:40:15.000Z</time>
      </trkpt>
      <trkpt lat="46.74281" lon="1.81695">
        <ele>117.32</ele>
        <time>2022-07-26T12:40:20.000Z</time>
      </trkpt>
      <trkpt lat="46.7428" lon="1.81679">
        <ele>117.89</ele>
        <time>2022-07-26T12:40:25.000Z</time>
      </trkpt>
      <trkpt lat="46.74279" lon="1.81661">
        <ele>117.93</ele>
        <time>2022-07-26T12:40:30.000Z</time>
      </trkpt>
      <trkpt lat="46.74277" lon="1.81639">
        <ele>116.89</ele>
        <time>2022-07-26T12:40:34.434Z</time>
      </trkpt>
      <trkpt lat="46.74275" lon="1.81625">
        <ele>116.99</ele>
        <time>2022-07-26T12:40:39.000Z</time>
      </trkpt>
      <trkpt lat="46.74274" lon="1.81604">
        <ele>118.9</ele>
        <time>2022-07-26T12:40:44.000Z</time>
      </trkpt>
      <trkpt lat="46.74271" lon="1.81583">
        <ele>120.36</ele>
        <time>2022-07-26T12:40:49.000Z</time>
      </trkpt>
      <trkpt lat="46.74267" lon="1.81557">
        <ele>121.2</ele>
        <time>2022-07-26T12:40:54.000Z</time>
      </trkpt>
      <trkpt lat="46.74262" lon="1.81523">
        <ele>120.87</ele>
        <time>2022-07-26T12:40:58.298Z</time>
      </trkpt>
      <trkpt lat="46.7426" lon="1.81505">
        <ele>120.75</ele>
        <time>2022-07-26T12:41:03.000Z</time>
      </trkpt>
      <trkpt lat="46.74256" lon="1.81483">
        <ele>120.8</ele>
        <time>2022-07-26T12:41:08.000Z</time>
      </trkpt>
      <trkpt lat="46.74251" lon="1.81452">
        <ele>121.68</ele>
        <time>2022-07-26T12:41:12.558Z</time>
      </trkpt>
      <trkpt lat="46.74248" lon="1.81431">
        <ele>121.25</ele>
        <time>2022-07-26T12:41:18.000Z</time>
      </trkpt>
      <trkpt lat="46.74243" lon="1.81398">
        <ele>120.96</ele>
        <time>2022-07-26T12:41:22.214Z</time>
      </trkpt>
      <trkpt lat="46.74241" lon="1.81373">
        <ele>120.07</ele>
        <time>2022-07-26T12:41:26.435Z</time>
      </trkpt>
      <trkpt lat="46.74239" lon="1.81347">
        <ele>120.17</ele>
        <time>2022-07-26T12:41:32.000Z</time>
      </trkpt>
      <trkpt lat="46.74238" lon="1.81316">
        <ele>120.7</ele>
        <time>2022-07-26T12:41:37.000Z</time>
      </trkpt>
      <trkpt lat="46.74239" lon="1.81283">
        <ele>121.11</ele>
        <time>2022-07-26T12:41:42.000Z</time>
      </trkpt>
      <trkpt lat="46.74243" lon="1.8125">
        <ele>121.17</ele>
        <time>2022-07-26T12:41:47.000Z</time>
      </trkpt>
      <trkpt lat="46.74247" lon="1.81216">
        <ele>120.56</ele>
        <time>2022-07-26T12:41:52.000Z</time>
      </trkpt>
      <trkpt lat="46.74254" lon="1.81183">
        <ele>120.52</ele>
        <time>2022-07-26T12:41:57.000Z</time>
      </trkpt>
      <trkpt lat="46.74262" lon="1.8115">
        <ele>119.32</ele>
        <time>2022-07-26T12:42:02.000Z</time>
      </trkpt>
      <trkpt lat="46.74272" lon="1.81119">
        <ele>118.86</ele>
        <time>2022-07-26T12:42:07.000Z</time>
      </trkpt>
      <trkpt lat="46.74285" lon="1.8109">
        <ele>118.09</ele>
        <time>2022-07-26T12:42:12.000Z</time>
      </trkpt>
      <trkpt lat="46.743" lon="1.81067">
        <ele>118.51</ele>
        <time>2022-07-26T12:42:17.000Z</time>
      </trkpt>
      <trkpt lat="46.74288" lon="1.81078">
        <ele>117.82</ele>
        <time>2022-07-26T12:42:25.680Z</time>
      </trkpt>
      <trkpt lat="46.74278" lon="1.81096">
        <ele>117.22</ele>
        <time>2022-07-26T12:42:30.040Z</time>
      </trkpt>
      <trkpt lat="46.74269" lon="1.81115">
        <ele>117.2</ele>
        <time>2022-07-26T12:42:35.000Z</time>
      </trkpt>
      <trkpt lat="46.74258" lon="1.81147">
        <ele>117.02</ele>
        <time>2022-07-26T12:42:39.517Z</time>
      </trkpt>
      <trkpt lat="46.74253" lon="1.81166">
        <ele>116.65</ele>
        <time>2022-07-26T12:42:44.000Z</time>
      </trkpt>
      <trkpt lat="46.74247" lon="1.81196">
        <ele>117.13</ele>
        <time>2022-07-26T12:42:48.161Z</time>
      </trkpt>
      <trkpt lat="46.74238" lon="1.81186">
        <ele>117.57</ele>
        <time>2022-07-26T12:42:52.362Z</time>
      </trkpt>
      <trkpt lat="46.74239" lon="1.81163">
        <ele>118.65</ele>
        <time>2022-07-26T12:42:57.188Z</time>
      </trkpt>
      <trkpt lat="46.74241" lon="1.81142">
        <ele>120.62</ele>
        <time>2022-07-26T12:43:02.000Z</time>
      </trkpt>
      <trkpt lat="46.74241" lon="1.8111">
        <ele>120.74</ele>
        <time>2022-07-26T12:43:07.000Z</time>
      </trkpt>
      <trkpt lat="46.74241" lon="1.81076">
        <ele>119.87</ele>
        <time>2022-07-26T12:43:11.364Z</time>
      </trkpt>
      <trkpt lat="46.74242" lon="1.81041">
        <ele>119.65</ele>
        <time>2022-07-26T12:43:18.000Z</time>
      </trkpt>
      <trkpt lat="46.74242" lon="1.81006">
        <ele>119.94</ele>
        <time>2022-07-26T12:43:22.328Z</time>
      </trkpt>
      <trkpt lat="46.74242" lon="1.80979">
        <ele>119.64</ele>
        <time>2022-07-26T12:43:28.000Z</time>
      </trkpt>
      <trkpt lat="46.74243" lon="1.8094">
        <ele>119.67</ele>
        <time>2022-07-26T12:43:34.000Z</time>
      </trkpt>
      <trkpt lat="46.74244" lon="1.80903">
        <ele>119.8</ele>
        <time>2022-07-26T12:43:39.000Z</time>
      </trkpt>
      <trkpt lat="46.74243" lon="1.80867">
        <ele>119.16</ele>
        <time>2022-07-26T12:43:44.000Z</time>
      </trkpt>
      <trkpt lat="46.74243" lon="1.80832">
        <ele>118.21</ele>
        <time>2022-07-26T12:43:49.000Z</time>
      </trkpt>
      <trkpt lat="46.74243" lon="1.80797">
        <ele>118.74</ele>
        <time>2022-07-26T12:43:54.000Z</time>
      </trkpt>
      <trkpt lat="46.74242" lon="1.80766">
        <ele>118.2</ele>
        <time>2022-07-26T12:43:59.000Z</time>
      </trkpt>
      <trkpt lat="46.74244" lon="1.80732">
        <ele>119.09</ele>
        <time>2022-07-26T12:44:04.000Z</time>
      </trkpt>
      <trkpt lat="46.74243" lon="1.80698">
        <ele>119.75</ele>
        <time>2022-07-26T12:44:09.000Z</time>
      </trkpt>
      <trkpt lat="46.74243" lon="1.80668">
        <ele>119.96</ele>
        <time>2022-07-26T12:44:14.000Z</time>
      </trkpt>
      <trkpt lat="46.74241" lon="1.80636">
        <ele>120.59</ele>
        <time>2022-07-26T12:44:19.000Z</time>
      </trkpt>
      <trkpt lat="46.74241" lon="1.806">
        <ele>120.62</ele>
        <time>2022-07-26T12:44:23.380Z</time>
      </trkpt>
      <trkpt lat="46.74239" lon="1.80575">
        <ele>120.36</ele>
        <time>2022-07-26T12:44:28.000Z</time>
      </trkpt>
      <trkpt lat="46.74236" lon="1.80539">
        <ele>118.79</ele>
        <time>2022-07-26T12:44:33.000Z</time>
      </trkpt>
      <trkpt lat="46.7423" lon="1.80502">
        <ele>118.23</ele>
        <time>2022-07-26T12:44:38.000Z</time>
      </trkpt>
      <trkpt lat="46.74223" lon="1.80466">
        <ele>117.79</ele>
        <time>2022-07-26T12:44:43.000Z</time>
      </trkpt>
      <trkpt lat="46.74214" lon="1.80429">
        <ele>116.55</ele>
        <time>2022-07-26T12:44:48.000Z</time>
      </trkpt>
      <trkpt lat="46.74201" lon="1.80389">
        <ele>114.68</ele>
        <time>2022-07-26T12:44:53.000Z</time>
      </trkpt>
      <trkpt lat="46.74188" lon="1.80348">
        <ele>112.92</ele>
        <time>2022-07-26T12:44:58.000Z</time>
      </trkpt>
      <trkpt lat="46.74178" lon="1.80308">
        <ele>111.32</ele>
        <time>2022-07-26T12:45:03.000Z</time>
      </trkpt>
      <trkpt lat="46.7417" lon="1.80274">
        <ele>110.19</ele>
        <time>2022-07-26T12:45:08.000Z</time>
      </trkpt>
      <trkpt lat="46.74163" lon="1.80246">
        <ele>111.15</ele>
        <time>2022-07-26T12:45:13.000Z</time>
      </trkpt>
      <trkpt lat="46.74155" lon="1.8022">
        <ele>112.17</ele>
        <time>2022-07-26T12:45:18.000Z</time>
      </trkpt>
      <trkpt lat="46.74144" lon="1.80191">
        <ele>113.24</ele>
        <time>2022-07-26T12:45:22.104Z</time>
      </trkpt>
      <trkpt lat="46.74133" lon="1.80167">
        <ele>114.39</ele>
        <time>2022-07-26T12:45:26.583Z</time>
      </trkpt>
      <trkpt lat="46.74126" lon="1.8015">
        <ele>115.32</ele>
        <time>2022-07-26T12:45:31.000Z</time>
      </trkpt>
      <trkpt lat="46.74113" lon="1.80119">
        <ele>116.21</ele>
        <time>2022-07-26T12:45:36.000Z</time>
      </trkpt>
      <trkpt lat="46.74101" lon="1.80089">
        <ele>116.92</ele>
        <time>2022-07-26T12:45:40.534Z</time>
      </trkpt>
      <trkpt lat="46.74094" lon="1.80072">
        <ele>117.19</ele>
        <time>2022-07-26T12:45:45.000Z</time>
      </trkpt>
      <trkpt lat="46.74084" lon="1.8005">
        <ele>117.65</ele>
        <time>2022-07-26T12:45:50.000Z</time>
      </trkpt>
      <trkpt lat="46.74069" lon="1.80017">
        <ele>118.46</ele>
        <time>2022-07-26T12:45:55.000Z</time>
      </trkpt>
      <trkpt lat="46.74056" lon="1.7999">
        <ele>119.34</ele>
        <time>2022-07-26T12:46:00.000Z</time>
      </trkpt>
      <trkpt lat="46.74041" lon="1.79959">
        <ele>118.07</ele>
        <time>2022-07-26T12:46:05.000Z</time>
      </trkpt>
      <trkpt lat="46.74027" lon="1.79931">
        <ele>117.28</ele>
        <time>2022-07-26T12:46:10.000Z</time>
      </trkpt>
      <trkpt lat="46.74014" lon="1.799">
        <ele>118.16</ele>
        <time>2022-07-26T12:46:15.000Z</time>
      </trkpt>
      <trkpt lat="46.74008" lon="1.79868">
        <ele>119.54</ele>
        <time>2022-07-26T12:46:20.000Z</time>
      </trkpt>
      <trkpt lat="46.7401" lon="1.79836">
        <ele>120.14</ele>
        <time>2022-07-26T12:46:25.000Z</time>
      </trkpt>
      <trkpt lat="46.7402" lon="1.79802">
        <ele>120.12</ele>
        <time>2022-07-26T12:46:30.000Z</time>
      </trkpt>
      <trkpt lat="46.7403" lon="1.79766">
        <ele>118.94</ele>
        <time>2022-07-26T12:46:35.000Z</time>
      </trkpt>
      <trkpt lat="46.74041" lon="1.79731">
        <ele>117.91</ele>
        <time>2022-07-26T12:46:40.000Z</time>
      </trkpt>
      <trkpt lat="46.74051" lon="1.79693">
        <ele>116.41</ele>
        <time>2022-07-26T12:46:45.000Z</time>
      </trkpt>
      <trkpt lat="46.74062" lon="1.79654">
        <ele>114.54</ele>
        <time>2022-07-26T12:46:50.000Z</time>
      </trkpt>
      <trkpt lat="46.74074" lon="1.79614">
        <ele>113.37</ele>
        <time>2022-07-26T12:46:55.000Z</time>
      </trkpt>
      <trkpt lat="46.74085" lon="1.79575">
        <ele>112.87</ele>
        <time>2022-07-26T12:47:00.000Z</time>
      </trkpt>
      <trkpt lat="46.74095" lon="1.7954">
        <ele>113.51</ele>
        <time>2022-07-26T12:47:05.000Z</time>
      </trkpt>
      <trkpt lat="46.74105" lon="1.79507">
        <ele>113.61</ele>
        <time>2022-07-26T12:47:10.000Z</time>
      </trkpt>
      <trkpt lat="46.74115" lon="1.79475">
        <ele>112.77</ele>
        <time>2022-07-26T12:47:15.000Z</time>
      </trkpt>
      <trkpt lat="46.74125" lon="1.7944">
        <ele>112.68</ele>
        <time>2022-07-26T12:47:20.000Z</time>
      </trkpt>
      <trkpt lat="46.74135" lon="1.79406">
        <ele>112.02</ele>
        <time>2022-07-26T12:47:25.000Z</time>
      </trkpt>
      <trkpt lat="46.74145" lon="1.79374">
        <ele>113.26</ele>
        <time>2022-07-26T12:47:30.000Z</time>
      </trkpt>
      <trkpt lat="46.74156" lon="1.79341">
        <ele>114.49</ele>
        <time>2022-07-26T12:47:35.000Z</time>
      </trkpt>
      <trkpt lat="46.74167" lon="1.79309">
        <ele>115.05</ele>
        <time>2022-07-26T12:47:40.000Z</time>
      </trkpt>
      <trkpt lat="46.74177" lon="1.79273">
        <ele>114.83</ele>
        <time>2022-07-26T12:47:45.000Z</time>
      </trkpt>
      <trkpt lat="46.74187" lon="1.7924">
        <ele>115.86</ele>
        <time>2022-07-26T12:47:50.000Z</time>
      </trkpt>
      <trkpt lat="46.74194" lon="1.79207">
        <ele>116.55</ele>
        <time>2022-07-26T12:47:55.000Z</time>
      </trkpt>
      <trkpt lat="46.74193" lon="1.79174">
        <ele>117.77</ele>
        <time>2022-07-26T12:48:00.000Z</time>
      </trkpt>
      <trkpt lat="46.74187" lon="1.79142">
        <ele>118.12</ele>
        <time>2022-07-26T12:48:05.000Z</time>
      </trkpt>
      <trkpt lat="46.7418" lon="1.79109">
        <ele>117.71</ele>
        <time>2022-07-26T12:48:10.000Z</time>
      </trkpt>
      <trkpt lat="46.74174" lon="1.7908">
        <ele>119.15</ele>
        <time>2022-07-26T12:48:15.000Z</time>
      </trkpt>
      <trkpt lat="46.74167" lon="1.79054">
        <ele>119.35</ele>
        <time>2022-07-26T12:48:20.000Z</time>
      </trkpt>
      <trkpt lat="46.74162" lon="1.79015">
        <ele>120.79</ele>
        <time>2022-07-26T12:48:26.000Z</time>
      </trkpt>
      <trkpt lat="46.7416" lon="1.78987">
        <ele>120.38</ele>
        <time>2022-07-26T12:48:31.000Z</time>
      </trkpt>
      <trkpt lat="46.74153" lon="1.78949">
        <ele>120.29</ele>
        <time>2022-07-26T12:48:36.000Z</time>
      </trkpt>
      <trkpt lat="46.74148" lon="1.78917">
        <ele>121.49</ele>
        <time>2022-07-26T12:48:41.000Z</time>
      </trkpt>
      <trkpt lat="46.74141" lon="1.78884">
        <ele>122.18</ele>
        <time>2022-07-26T12:48:46.000Z</time>
      </trkpt>
      <trkpt lat="46.74134" lon="1.78853">
        <ele>123.72</ele>
        <time>2022-07-26T12:48:51.000Z</time>
      </trkpt>
      <trkpt lat="46.74126" lon="1.78821">
        <ele>124.32</ele>
        <time>2022-07-26T12:48:56.000Z</time>
      </trkpt>
      <trkpt lat="46.74116" lon="1.78789">
        <ele>122.2</ele>
        <time>2022-07-26T12:49:01.000Z</time>
      </trkpt>
      <trkpt lat="46.74109" lon="1.7876">
        <ele>121.38</ele>
        <time>2022-07-26T12:49:06.000Z</time>
      </trkpt>
      <trkpt lat="46.74102" lon="1.7872">
        <ele>121.25</ele>
        <time>2022-07-26T12:49:12.000Z</time>
      </trkpt>
      <trkpt lat="46.74094" lon="1.78688">
        <ele>121.59</ele>
        <time>2022-07-26T12:49:17.000Z</time>
      </trkpt>
      <trkpt lat="46.74086" lon="1.78653">
        <ele>121.65</ele>
        <time>2022-07-26T12:49:22.000Z</time>
      </trkpt>
      <trkpt lat="46.74076" lon="1.78615">
        <ele>121.4</ele>
        <time>2022-07-26T12:49:27.000Z</time>
      </trkpt>
      <trkpt lat="46.74067" lon="1.78574">
        <ele>120.15</ele>
        <time>2022-07-26T12:49:32.000Z</time>
      </trkpt>
      <trkpt lat="46.74058" lon="1.78532">
        <ele>118.83</ele>
        <time>2022-07-26T12:49:37.000Z</time>
      </trkpt>
      <trkpt lat="46.74049" lon="1.78489">
        <ele>118.2</ele>
        <time>2022-07-26T12:49:42.000Z</time>
      </trkpt>
      <trkpt lat="46.74037" lon="1.78448">
        <ele>117.83</ele>
        <time>2022-07-26T12:49:47.000Z</time>
      </trkpt>
      <trkpt lat="46.74021" lon="1.78412">
        <ele>118.12</ele>
        <time>2022-07-26T12:49:52.000Z</time>
      </trkpt>
      <trkpt lat="46.74005" lon="1.78378">
        <ele>118.89</ele>
        <time>2022-07-26T12:49:57.000Z</time>
      </trkpt>
      <trkpt lat="46.7399" lon="1.78344">
        <ele>120.18</ele>
        <time>2022-07-26T12:50:02.000Z</time>
      </trkpt>
      <trkpt lat="46.73975" lon="1.7831">
        <ele>120.7</ele>
        <time>2022-07-26T12:50:07.000Z</time>
      </trkpt>
      <trkpt lat="46.73964" lon="1.78275">
        <ele>120.4</ele>
        <time>2022-07-26T12:50:12.000Z</time>
      </trkpt>
      <trkpt lat="46.73954" lon="1.78239">
        <ele>121.04</ele>
        <time>2022-07-26T12:50:17.000Z</time>
      </trkpt>
      <trkpt lat="46.73945" lon="1.78208">
        <ele>121.91</ele>
        <time>2022-07-26T12:50:22.000Z</time>
      </trkpt>
      <trkpt lat="46.73937" lon="1.78177">
        <ele>122.23</ele>
        <time>2022-07-26T12:50:27.000Z</time>
      </trkpt>
      <trkpt lat="46.73927" lon="1.78146">
        <ele>122.4</ele>
        <time>2022-07-26T12:50:32.000Z</time>
      </trkpt>
      <trkpt lat="46.73916" lon="1.78115">
        <ele>122.79</ele>
        <time>2022-07-26T12:50:37.000Z</time>
      </trkpt>
      <trkpt lat="46.73906" lon="1.78083">
        <ele>124.07</ele>
        <time>2022-07-26T12:50:42.000Z</time>
      </trkpt>
      <trkpt lat="46.73895" lon="1.78052">
        <ele>126.44</ele>
        <time>2022-07-26T12:50:47.000Z</time>
      </trkpt>
      <trkpt lat="46.73884" lon="1.7802">
        <ele>126.9</ele>
        <time>2022-07-26T12:50:52.000Z</time>
      </trkpt>
      <trkpt lat="46.73874" lon="1.77991">
        <ele>126.38</ele>
        <time>2022-07-26T12:50:57.000Z</time>
      </trkpt>
      <trkpt lat="46.73863" lon="1.77959">
        <ele>126.67</ele>
        <time>2022-07-26T12:51:02.000Z</time>
      </trkpt>
      <trkpt lat="46.73853" lon="1.7793">
        <ele>127.1</ele>
        <time>2022-07-26T12:51:07.000Z</time>
      </trkpt>
      <trkpt lat="46.73849" lon="1.77896">
        <ele>126.98</ele>
        <time>2022-07-26T12:51:12.000Z</time>
      </trkpt>
      <trkpt lat="46.73855" lon="1.77861">
        <ele>127.75</ele>
        <time>2022-07-26T12:51:17.000Z</time>
      </trkpt>
      <trkpt lat="46.73868" lon="1.77828">
        <ele>128.27</ele>
        <time>2022-07-26T12:51:22.000Z</time>
      </trkpt>
      <trkpt lat="46.73879" lon="1.77794">
        <ele>127.45</ele>
        <time>2022-07-26T12:51:27.000Z</time>
      </trkpt>
      <trkpt lat="46.73888" lon="1.77756">
        <ele>126.29</ele>
        <time>2022-07-26T12:51:32.000Z</time>
      </trkpt>
      <trkpt lat="46.73888" lon="1.77712">
        <ele>127.99</ele>
        <time>2022-07-26T12:51:37.000Z</time>
      </trkpt>
      <trkpt lat="46.73887" lon="1.77667">
        <ele>126.69</ele>
        <time>2022-07-26T12:51:42.000Z</time>
      </trkpt>
      <trkpt lat="46.73884" lon="1.77619">
        <ele>124.85</ele>
        <time>2022-07-26T12:51:47.000Z</time>
      </trkpt>
      <trkpt lat="46.7388" lon="1.77571">
        <ele>122.36</ele>
        <time>2022-07-26T12:51:52.000Z</time>
      </trkpt>
      <trkpt lat="46.73878" lon="1.77521">
        <ele>118.76</ele>
        <time>2022-07-26T12:51:57.000Z</time>
      </trkpt>
      <trkpt lat="46.73877" lon="1.77474">
        <ele>116.93</ele>
        <time>2022-07-26T12:52:02.000Z</time>
      </trkpt>
      <trkpt lat="46.73877" lon="1.77426">
        <ele>115.79</ele>
        <time>2022-07-26T12:52:07.000Z</time>
      </trkpt>
      <trkpt lat="46.73875" lon="1.77379">
        <ele>113.47</ele>
        <time>2022-07-26T12:52:12.000Z</time>
      </trkpt>
      <trkpt lat="46.73875" lon="1.77332">
        <ele>111.83</ele>
        <time>2022-07-26T12:52:17.000Z</time>
      </trkpt>
      <trkpt lat="46.73878" lon="1.77285">
        <ele>111.65</ele>
        <time>2022-07-26T12:52:22.000Z</time>
      </trkpt>
      <trkpt lat="46.73878" lon="1.77235">
        <ele>111.94</ele>
        <time>2022-07-26T12:52:27.000Z</time>
      </trkpt>
      <trkpt lat="46.73879" lon="1.77185">
        <ele>112.95</ele>
        <time>2022-07-26T12:52:32.000Z</time>
      </trkpt>
      <trkpt lat="46.73883" lon="1.77136">
        <ele>112.05</ele>
        <time>2022-07-26T12:52:37.000Z</time>
      </trkpt>
      <trkpt lat="46.73887" lon="1.77088">
        <ele>110.18</ele>
        <time>2022-07-26T12:52:42.000Z</time>
      </trkpt>
      <trkpt lat="46.73884" lon="1.77031">
        <ele>108.11</ele>
        <time>2022-07-26T12:52:47.000Z</time>
      </trkpt>
      <trkpt lat="46.7388" lon="1.76976">
        <ele>107.92</ele>
        <time>2022-07-26T12:52:52.000Z</time>
      </trkpt>
      <trkpt lat="46.73878" lon="1.76921">
        <ele>108.16</ele>
        <time>2022-07-26T12:52:57.000Z</time>
      </trkpt>
      <trkpt lat="46.73878" lon="1.76868">
        <ele>107.93</ele>
        <time>2022-07-26T12:53:02.000Z</time>
      </trkpt>
      <trkpt lat="46.73879" lon="1.76817">
        <ele>107.85</ele>
        <time>2022-07-26T12:53:07.000Z</time>
      </trkpt>
      <trkpt lat="46.7388" lon="1.76764">
        <ele>106.61</ele>
        <time>2022-07-26T12:53:12.000Z</time>
      </trkpt>
      <trkpt lat="46.73878" lon="1.76708">
        <ele>105.67</ele>
        <time>2022-07-26T12:53:17.000Z</time>
      </trkpt>
      <trkpt lat="46.73876" lon="1.76656">
        <ele>105.01</ele>
        <time>2022-07-26T12:53:22.000Z</time>
      </trkpt>
      <trkpt lat="46.73873" lon="1.7661">
        <ele>103.97</ele>
        <time>2022-07-26T12:53:27.000Z</time>
      </trkpt>
      <trkpt lat="46.73871" lon="1.76568">
        <ele>103.32</ele>
        <time>2022-07-26T12:53:32.000Z</time>
      </trkpt>
      <trkpt lat="46.7387" lon="1.76531">
        <ele>102.39</ele>
        <time>2022-07-26T12:53:37.000Z</time>
      </trkpt>
      <trkpt lat="46.7387" lon="1.76494">
        <ele>100.63</ele>
        <time>2022-07-26T12:53:42.000Z</time>
      </trkpt>
      <trkpt lat="46.73869" lon="1.76458">
        <ele>99.88</ele>
        <time>2022-07-26T12:53:47.000Z</time>
      </trkpt>
      <trkpt lat="46.73868" lon="1.76421">
        <ele>99.44</ele>
        <time>2022-07-26T12:53:52.000Z</time>
      </trkpt>
      <trkpt lat="46.73868" lon="1.76383">
        <ele>99.66</ele>
        <time>2022-07-26T12:53:57.000Z</time>
      </trkpt>
      <trkpt lat="46.73869" lon="1.76342">
        <ele>101.64</ele>
        <time>2022-07-26T12:54:02.000Z</time>
      </trkpt>
      <trkpt lat="46.73868" lon="1.76299">
        <ele>101.57</ele>
        <time>2022-07-26T12:54:07.000Z</time>
      </trkpt>
      <trkpt lat="46.73867" lon="1.76252">
        <ele>99.93</ele>
        <time>2022-07-26T12:54:12.000Z</time>
      </trkpt>
      <trkpt lat="46.73866" lon="1.762">
        <ele>98.59</ele>
        <time>2022-07-26T12:54:17.000Z</time>
      </trkpt>
      <trkpt lat="46.73865" lon="1.76137">
        <ele>97.13</ele>
        <time>2022-07-26T12:54:22.000Z</time>
      </trkpt>
      <trkpt lat="46.73867" lon="1.76073">
        <ele>97.33</ele>
        <time>2022-07-26T12:54:27.000Z</time>
      </trkpt>
      <trkpt lat="46.73868" lon="1.76018">
        <ele>98.15</ele>
        <time>2022-07-26T12:54:32.000Z</time>
      </trkpt>
      <trkpt lat="46.7387" lon="1.75974">
        <ele>98.03</ele>
        <time>2022-07-26T12:54:37.000Z</time>
      </trkpt>
      <trkpt lat="46.73869" lon="1.75934">
        <ele>98.49</ele>
        <time>2022-07-26T12:54:42.000Z</time>
      </trkpt>
      <trkpt lat="46.73868" lon="1.75894">
        <ele>98.52</ele>
        <time>2022-07-26T12:54:47.000Z</time>
      </trkpt>
      <trkpt lat="46.73867" lon="1.75859">
        <ele>98.23</ele>
        <time>2022-07-26T12:54:52.000Z</time>
      </trkpt>
      <trkpt lat="46.73868" lon="1.75823">
        <ele>102.18</ele>
        <time>2022-07-26T12:54:57.000Z</time>
      </trkpt>
      <trkpt lat="46.73868" lon="1.75785">
        <ele>105.64</ele>
        <time>2022-07-26T12:55:02.000Z</time>
      </trkpt>
      <trkpt lat="46.73868" lon="1.75749">
        <ele>109.31</ele>
        <time>2022-07-26T12:55:08.000Z</time>
      </trkpt>
      <trkpt lat="46.73867" lon="1.75714">
        <ele>108.9</ele>
        <time>2022-07-26T12:55:14.000Z</time>
      </trkpt>
      <trkpt lat="46.73867" lon="1.75676">
        <ele>109.13</ele>
        <time>2022-07-26T12:55:20.000Z</time>
      </trkpt>
      <trkpt lat="46.73866" lon="1.75638">
        <ele>109.19</ele>
        <time>2022-07-26T12:55:26.000Z</time>
      </trkpt>
      <trkpt lat="46.73866" lon="1.75598">
        <ele>110.53</ele>
        <time>2022-07-26T12:55:32.000Z</time>
      </trkpt>
      <trkpt lat="46.73868" lon="1.75563">
        <ele>109.98</ele>
        <time>2022-07-26T12:55:36.023Z</time>
      </trkpt>
      <trkpt lat="46.73868" lon="1.75542">
        <ele>109.34</ele>
        <time>2022-07-26T12:55:41.000Z</time>
      </trkpt>
      <trkpt lat="46.73868" lon="1.7551">
        <ele>109.76</ele>
        <time>2022-07-26T12:55:46.000Z</time>
      </trkpt>
      <trkpt lat="46.73865" lon="1.75474">
        <ele>107.51</ele>
        <time>2022-07-26T12:55:50.458Z</time>
      </trkpt>
      <trkpt lat="46.73868" lon="1.75447">
        <ele>108.83</ele>
        <time>2022-07-26T12:55:56.000Z</time>
      </trkpt>
      <trkpt lat="46.73871" lon="1.75413">
        <ele>111.97</ele>
        <time>2022-07-26T12:56:00.022Z</time>
      </trkpt>
      <trkpt lat="46.7387" lon="1.75386">
        <ele>113.47</ele>
        <time>2022-07-26T12:56:04.160Z</time>
      </trkpt>
      <trkpt lat="46.73869" lon="1.75358">
        <ele>113.92</ele>
        <time>2022-07-26T12:56:08.498Z</time>
      </trkpt>
      <trkpt lat="46.7387" lon="1.75335">
        <ele>113.86</ele>
        <time>2022-07-26T12:56:13.000Z</time>
      </trkpt>
      <trkpt lat="46.73868" lon="1.753">
        <ele>113.69</ele>
        <time>2022-07-26T12:56:18.000Z</time>
      </trkpt>
      <trkpt lat="46.73869" lon="1.75261">
        <ele>114.25</ele>
        <time>2022-07-26T12:56:23.000Z</time>
      </trkpt>
      <trkpt lat="46.73866" lon="1.75224">
        <ele>114.31</ele>
        <time>2022-07-26T12:56:28.000Z</time>
      </trkpt>
      <trkpt lat="46.73864" lon="1.75188">
        <ele>114.06</ele>
        <time>2022-07-26T12:56:33.000Z</time>
      </trkpt>
      <trkpt lat="46.73865" lon="1.75152">
        <ele>115.23</ele>
        <time>2022-07-26T12:56:38.000Z</time>
      </trkpt>
      <trkpt lat="46.73866" lon="1.75116">
        <ele>113.42</ele>
        <time>2022-07-26T12:56:43.000Z</time>
      </trkpt>
      <trkpt lat="46.73865" lon="1.75077">
        <ele>112.24</ele>
        <time>2022-07-26T12:56:48.000Z</time>
      </trkpt>
      <trkpt lat="46.73864" lon="1.75034">
        <ele>111.34</ele>
        <time>2022-07-26T12:56:53.000Z</time>
      </trkpt>
      <trkpt lat="46.73863" lon="1.74992">
        <ele>109.66</ele>
        <time>2022-07-26T12:56:58.000Z</time>
      </trkpt>
      <trkpt lat="46.73867" lon="1.74943">
        <ele>110.21</ele>
        <time>2022-07-26T12:57:03.000Z</time>
      </trkpt>
      <trkpt lat="46.73869" lon="1.74904">
        <ele>108.41</ele>
        <time>2022-07-26T12:57:08.000Z</time>
      </trkpt>
      <trkpt lat="46.73865" lon="1.74857">
        <ele>107.44</ele>
        <time>2022-07-26T12:57:13.000Z</time>
      </trkpt>
      <trkpt lat="46.73864" lon="1.74812">
        <ele>107.62</ele>
        <time>2022-07-26T12:57:18.000Z</time>
      </trkpt>
      <trkpt lat="46.73865" lon="1.74777">
        <ele>107.51</ele>
        <time>2022-07-26T12:57:23.000Z</time>
      </trkpt>
      <trkpt lat="46.73866" lon="1.74755">
        <ele>108.08</ele>
        <time>2022-07-26T12:57:28.000Z</time>
      </trkpt>
      <trkpt lat="46.73866" lon="1.74725">
        <ele>108.13</ele>
        <time>2022-07-26T12:57:32.426Z</time>
      </trkpt>
      <trkpt lat="46.73865" lon="1.74699">
        <ele>106.58</ele>
        <time>2022-07-26T12:57:36.663Z</time>
      </trkpt>
      <trkpt lat="46.73864" lon="1.74671">
        <ele>104.6</ele>
        <time>2022-07-26T12:57:42.000Z</time>
      </trkpt>
      <trkpt lat="46.73862" lon="1.74632">
        <ele>103.52</ele>
        <time>2022-07-26T12:57:47.000Z</time>
      </trkpt>
      <trkpt lat="46.73862" lon="1.74588">
        <ele>104.88</ele>
        <time>2022-07-26T12:57:52.000Z</time>
      </trkpt>
      <trkpt lat="46.73863" lon="1.7455">
        <ele>105.4</ele>
        <time>2022-07-26T12:57:57.000Z</time>
      </trkpt>
      <trkpt lat="46.73862" lon="1.74515">
        <ele>105.25</ele>
        <time>2022-07-26T12:58:02.000Z</time>
      </trkpt>
      <trkpt lat="46.73862" lon="1.74478">
        <ele>105.14</ele>
        <time>2022-07-26T12:58:07.000Z</time>
      </trkpt>
      <trkpt lat="46.73863" lon="1.7444">
        <ele>103.99</ele>
        <time>2022-07-26T12:58:12.000Z</time>
      </trkpt>
      <trkpt lat="46.73862" lon="1.74404">
        <ele>104.14</ele>
        <time>2022-07-26T12:58:17.000Z</time>
      </trkpt>
      <trkpt lat="46.73862" lon="1.74369">
        <ele>104.98</ele>
        <time>2022-07-26T12:58:22.000Z</time>
      </trkpt>
      <trkpt lat="46.73863" lon="1.74333">
        <ele>105.85</ele>
        <time>2022-07-26T12:58:27.000Z</time>
      </trkpt>
      <trkpt lat="46.73864" lon="1.743">
        <ele>105.01</ele>
        <time>2022-07-26T12:58:32.000Z</time>
      </trkpt>
      <trkpt lat="46.73864" lon="1.74258">
        <ele>106.08</ele>
        <time>2022-07-26T12:58:38.000Z</time>
      </trkpt>
      <trkpt lat="46.73862" lon="1.74226">
        <ele>108.11</ele>
        <time>2022-07-26T12:58:43.000Z</time>
      </trkpt>
      <trkpt lat="46.73863" lon="1.74187">
        <ele>108.06</ele>
        <time>2022-07-26T12:58:48.000Z</time>
      </trkpt>
      <trkpt lat="46.73862" lon="1.74152">
        <ele>108.16</ele>
        <time>2022-07-26T12:58:53.000Z</time>
      </trkpt>
      <trkpt lat="46.7386" lon="1.74116">
        <ele>106.16</ele>
        <time>2022-07-26T12:58:58.000Z</time>
      </trkpt>
      <trkpt lat="46.73861" lon="1.74085">
        <ele>105.91</ele>
        <time>2022-07-26T12:59:03.000Z</time>
      </trkpt>
      <trkpt lat="46.73858" lon="1.74051">
        <ele>104.08</ele>
        <time>2022-07-26T12:59:07.510Z</time>
      </trkpt>
      <trkpt lat="46.7386" lon="1.74029">
        <ele>102.89</ele>
        <time>2022-07-26T12:59:13.000Z</time>
      </trkpt>
      <trkpt lat="46.73858" lon="1.74001">
        <ele>101.51</ele>
        <time>2022-07-26T12:59:17.093Z</time>
      </trkpt>
      <trkpt lat="46.73858" lon="1.73982">
        <ele>102.43</ele>
        <time>2022-07-26T12:59:22.000Z</time>
      </trkpt>
      <trkpt lat="46.73856" lon="1.73945">
        <ele>103.34</ele>
        <time>2022-07-26T12:59:26.274Z</time>
      </trkpt>
      <trkpt lat="46.73858" lon="1.73916">
        <ele>102.8</ele>
        <time>2022-07-26T12:59:30.512Z</time>
      </trkpt>
      <trkpt lat="46.73858" lon="1.73891">
        <ele>103.64</ele>
        <time>2022-07-26T12:59:35.000Z</time>
      </trkpt>
      <trkpt lat="46.73858" lon="1.73851">
        <ele>104.46</ele>
        <time>2022-07-26T12:59:40.000Z</time>
      </trkpt>
      <trkpt lat="46.73855" lon="1.73809">
        <ele>105.34</ele>
        <time>2022-07-26T12:59:45.000Z</time>
      </trkpt>
      <trkpt lat="46.73855" lon="1.73771">
        <ele>104.94</ele>
        <time>2022-07-26T12:59:50.000Z</time>
      </trkpt>
      <trkpt lat="46.73853" lon="1.73732">
        <ele>104.26</ele>
        <time>2022-07-26T12:59:55.000Z</time>
      </trkpt>
      <trkpt lat="46.73851" lon="1.73698">
        <ele>104.53</ele>
        <time>2022-07-26T13:00:00.000Z</time>
      </trkpt>
      <trkpt lat="46.73847" lon="1.73661">
        <ele>103.03</ele>
        <time>2022-07-26T13:00:05.000Z</time>
      </trkpt>
      <trkpt lat="46.73848" lon="1.73619">
        <ele>101.53</ele>
        <time>2022-07-26T13:00:10.000Z</time>
      </trkpt>
      <trkpt lat="46.73849" lon="1.73576">
        <ele>99.92</ele>
        <time>2022-07-26T13:00:15.000Z</time>
      </trkpt>
      <trkpt lat="46.73846" lon="1.73531">
        <ele>101.04</ele>
        <time>2022-07-26T13:00:20.000Z</time>
      </trkpt>
      <trkpt lat="46.73847" lon="1.73487">
        <ele>100.02</ele>
        <time>2022-07-26T13:00:25.000Z</time>
      </trkpt>
      <trkpt lat="46.73847" lon="1.73441">
        <ele>99.01</ele>
        <time>2022-07-26T13:00:30.000Z</time>
      </trkpt>
      <trkpt lat="46.73847" lon="1.73401">
        <ele>98.12</ele>
        <time>2022-07-26T13:00:35.000Z</time>
      </trkpt>
      <trkpt lat="46.73848" lon="1.73363">
        <ele>99.59</ele>
        <time>2022-07-26T13:00:40.000Z</time>
      </trkpt>
      <trkpt lat="46.73848" lon="1.73323">
        <ele>102.17</ele>
        <time>2022-07-26T13:00:45.000Z</time>
      </trkpt>
      <trkpt lat="46.7385" lon="1.73293">
        <ele>102.53</ele>
        <time>2022-07-26T13:00:50.000Z</time>
      </trkpt>
      <trkpt lat="46.73851" lon="1.73256">
        <ele>104.66</ele>
        <time>2022-07-26T13:00:54.158Z</time>
      </trkpt>
      <trkpt lat="46.73852" lon="1.73226">
        <ele>106.35</ele>
        <time>2022-07-26T13:01:00.000Z</time>
      </trkpt>
      <trkpt lat="46.73855" lon="1.73195">
        <ele>106.39</ele>
        <time>2022-07-26T13:01:05.000Z</time>
      </trkpt>
      <trkpt lat="46.73853" lon="1.7316">
        <ele>107.71</ele>
        <time>2022-07-26T13:01:10.000Z</time>
      </trkpt>
      <trkpt lat="46.73851" lon="1.73117">
        <ele>110.12</ele>
        <time>2022-07-26T13:01:14.672Z</time>
      </trkpt>
      <trkpt lat="46.73852" lon="1.73098">
        <ele>110.9</ele>
        <time>2022-07-26T13:01:19.000Z</time>
      </trkpt>
      <trkpt lat="46.73853" lon="1.7306">
        <ele>108.42</ele>
        <time>2022-07-26T13:01:24.000Z</time>
      </trkpt>
      <trkpt lat="46.73856" lon="1.73022">
        <ele>105.08</ele>
        <time>2022-07-26T13:01:29.000Z</time>
      </trkpt>
      <trkpt lat="46.73858" lon="1.72983">
        <ele>102.64</ele>
        <time>2022-07-26T13:01:34.000Z</time>
      </trkpt>
      <trkpt lat="46.73859" lon="1.72943">
        <ele>100.22</ele>
        <time>2022-07-26T13:01:39.000Z</time>
      </trkpt>
      <trkpt lat="46.73858" lon="1.72904">
        <ele>99.25</ele>
        <time>2022-07-26T13:01:44.000Z</time>
      </trkpt>
      <trkpt lat="46.73855" lon="1.72869">
        <ele>101.93</ele>
        <time>2022-07-26T13:01:49.000Z</time>
      </trkpt>
      <trkpt lat="46.7385" lon="1.72834">
        <ele>103.89</ele>
        <time>2022-07-26T13:01:54.000Z</time>
      </trkpt>
      <trkpt lat="46.73843" lon="1.72804">
        <ele>104.3</ele>
        <time>2022-07-26T13:02:00.000Z</time>
      </trkpt>
      <trkpt lat="46.73862" lon="1.7276">
        <ele>108.98</ele>
        <time>2022-07-26T13:02:06.000Z</time>
      </trkpt>
      <trkpt lat="46.73859" lon="1.72732">
        <ele>112.2</ele>
        <time>2022-07-26T13:02:11.000Z</time>
      </trkpt>
      <trkpt lat="46.73858" lon="1.72699">
        <ele>113.52</ele>
        <time>2022-07-26T13:02:16.000Z</time>
      </trkpt>
      <trkpt lat="46.73854" lon="1.72664">
        <ele>113.84</ele>
        <time>2022-07-26T13:02:20.312Z</time>
      </trkpt>
      <trkpt lat="46.73855" lon="1.72642">
        <ele>113.49</ele>
        <time>2022-07-26T13:02:25.000Z</time>
      </trkpt>
      <trkpt lat="46.73854" lon="1.72607">
        <ele>112.77</ele>
        <time>2022-07-26T13:02:30.000Z</time>
      </trkpt>
      <trkpt lat="46.73853" lon="1.7257">
        <ele>112.59</ele>
        <time>2022-07-26T13:02:35.000Z</time>
      </trkpt>
      <trkpt lat="46.73852" lon="1.7253">
        <ele>111.2</ele>
        <time>2022-07-26T13:02:40.000Z</time>
      </trkpt>
      <trkpt lat="46.73852" lon="1.72484">
        <ele>110.81</ele>
        <time>2022-07-26T13:02:45.000Z</time>
      </trkpt>
      <trkpt lat="46.73852" lon="1.72437">
        <ele>111.04</ele>
        <time>2022-07-26T13:02:50.000Z</time>
      </trkpt>
      <trkpt lat="46.73851" lon="1.72393">
        <ele>110.81</ele>
        <time>2022-07-26T13:02:55.000Z</time>
      </trkpt>
      <trkpt lat="46.73852" lon="1.72359">
        <ele>111.6</ele>
        <time>2022-07-26T13:03:00.000Z</time>
      </trkpt>
      <trkpt lat="46.73853" lon="1.72327">
        <ele>111.45</ele>
        <time>2022-07-26T13:03:05.000Z</time>
      </trkpt>
      <trkpt lat="46.73853" lon="1.72287">
        <ele>111.72</ele>
        <time>2022-07-26T13:03:11.000Z</time>
      </trkpt>
      <trkpt lat="46.73854" lon="1.72249">
        <ele>112.51</ele>
        <time>2022-07-26T13:03:16.000Z</time>
      </trkpt>
      <trkpt lat="46.73854" lon="1.72212">
        <ele>113.32</ele>
        <time>2022-07-26T13:03:21.000Z</time>
      </trkpt>
      <trkpt lat="46.73854" lon="1.72181">
        <ele>114.32</ele>
        <time>2022-07-26T13:03:26.000Z</time>
      </trkpt>
      <trkpt lat="46.73856" lon="1.72149">
        <ele>113.87</ele>
        <time>2022-07-26T13:03:31.000Z</time>
      </trkpt>
      <trkpt lat="46.73856" lon="1.72111">
        <ele>114.23</ele>
        <time>2022-07-26T13:03:36.000Z</time>
      </trkpt>
      <trkpt lat="46.73855" lon="1.72076">
        <ele>114.44</ele>
        <time>2022-07-26T13:03:41.000Z</time>
      </trkpt>
      <trkpt lat="46.73854" lon="1.72044">
        <ele>114.37</ele>
        <time>2022-07-26T13:03:45.307Z</time>
      </trkpt>
      <trkpt lat="46.73853" lon="1.72023">
        <ele>114.35</ele>
        <time>2022-07-26T13:03:49.443Z</time>
      </trkpt>
      <trkpt lat="46.73853" lon="1.72004">
        <ele>114.49</ele>
        <time>2022-07-26T13:03:56.000Z</time>
      </trkpt>
      <trkpt lat="46.73852" lon="1.71985">
        <ele>114.85</ele>
        <time>2022-07-26T13:04:02.000Z</time>
      </trkpt>
      <trkpt lat="46.73852" lon="1.71963">
        <ele>115.46</ele>
        <time>2022-07-26T13:04:08.000Z</time>
      </trkpt>
      <trkpt lat="46.73852" lon="1.71936">
        <ele>114.4</ele>
        <time>2022-07-26T13:04:13.000Z</time>
      </trkpt>
      <trkpt lat="46.73853" lon="1.71904">
        <ele>114.77</ele>
        <time>2022-07-26T13:04:17.077Z</time>
      </trkpt>
      <trkpt lat="46.73851" lon="1.71879">
        <ele>113.25</ele>
        <time>2022-07-26T13:04:21.283Z</time>
      </trkpt>
      <trkpt lat="46.73851" lon="1.71857">
        <ele>112.42</ele>
        <time>2022-07-26T13:04:26.000Z</time>
      </trkpt>
      <trkpt lat="46.73849" lon="1.71824">
        <ele>112.84</ele>
        <time>2022-07-26T13:04:30.283Z</time>
      </trkpt>
      <trkpt lat="46.73848" lon="1.71798">
        <ele>113.55</ele>
        <time>2022-07-26T13:04:34.522Z</time>
      </trkpt>
      <trkpt lat="46.73848" lon="1.71766">
        <ele>113.68</ele>
        <time>2022-07-26T13:04:39.625Z</time>
      </trkpt>
      <trkpt lat="46.73848" lon="1.7174">
        <ele>112.75</ele>
        <time>2022-07-26T13:04:45.000Z</time>
      </trkpt>
      <trkpt lat="46.73848" lon="1.71712">
        <ele>113.31</ele>
        <time>2022-07-26T13:04:50.000Z</time>
      </trkpt>
      <trkpt lat="46.73848" lon="1.71685">
        <ele>113.08</ele>
        <time>2022-07-26T13:04:54.020Z</time>
      </trkpt>
      <trkpt lat="46.73846" lon="1.71672">
        <ele>114.01</ele>
        <time>2022-07-26T13:04:59.000Z</time>
      </trkpt>
      <trkpt lat="46.73841" lon="1.7166">
        <ele>115.95</ele>
        <time>2022-07-26T13:05:05.000Z</time>
      </trkpt>
      <trkpt lat="46.73851" lon="1.71657">
        <ele>121.01</ele>
        <time>2022-07-26T13:16:03.000Z</time>
      </trkpt>
      <trkpt lat="46.73855" lon="1.71644">
        <ele>125.06</ele>
        <time>2022-07-26T13:16:20.000Z</time>
      </trkpt>
      <trkpt lat="46.73855" lon="1.71625">
        <ele>126.46</ele>
        <time>2022-07-26T13:16:25.000Z</time>
      </trkpt>
      <trkpt lat="46.73856" lon="1.71604">
        <ele>127.96</ele>
        <time>2022-07-26T13:16:29.418Z</time>
      </trkpt>
      <trkpt lat="46.73856" lon="1.71587">
        <ele>129.35</ele>
        <time>2022-07-26T13:16:35.000Z</time>
      </trkpt>
      <trkpt lat="46.73856" lon="1.71562">
        <ele>129.99</ele>
        <time>2022-07-26T13:16:41.000Z</time>
      </trkpt>
      <trkpt lat="46.73855" lon="1.71544">
        <ele>130.86</ele>
        <time>2022-07-26T13:16:46.000Z</time>
      </trkpt>
      <trkpt lat="46.73855" lon="1.71521">
        <ele>131.42</ele>
        <time>2022-07-26T13:16:50.368Z</time>
      </trkpt>
      <trkpt lat="46.73854" lon="1.71507">
        <ele>131.15</ele>
        <time>2022-07-26T13:16:55.000Z</time>
      </trkpt>
      <trkpt lat="46.73853" lon="1.71486">
        <ele>130.77</ele>
        <time>2022-07-26T13:17:00.000Z</time>
      </trkpt>
      <trkpt lat="46.7385" lon="1.71459">
        <ele>131.42</ele>
        <time>2022-07-26T13:17:04.368Z</time>
      </trkpt>
      <trkpt lat="46.73852" lon="1.71436">
        <ele>129.78</ele>
        <time>2022-07-26T13:17:10.000Z</time>
      </trkpt>
      <trkpt lat="46.7385" lon="1.71406">
        <ele>126.25</ele>
        <time>2022-07-26T13:17:15.000Z</time>
      </trkpt>
      <trkpt lat="46.73855" lon="1.71376">
        <ele>121.3</ele>
        <time>2022-07-26T13:17:19.196Z</time>
      </trkpt>
      <trkpt lat="46.73855" lon="1.71351">
        <ele>122.49</ele>
        <time>2022-07-26T13:17:25.000Z</time>
      </trkpt>
      <trkpt lat="46.73855" lon="1.71322">
        <ele>123.49</ele>
        <time>2022-07-26T13:17:30.000Z</time>
      </trkpt>
      <trkpt lat="46.73854" lon="1.71292">
        <ele>123.7</ele>
        <time>2022-07-26T13:17:35.000Z</time>
      </trkpt>
      <trkpt lat="46.73855" lon="1.71255">
        <ele>122.2</ele>
        <time>2022-07-26T13:17:39.360Z</time>
      </trkpt>
      <trkpt lat="46.73855" lon="1.7123">
        <ele>121.97</ele>
        <time>2022-07-26T13:17:44.000Z</time>
      </trkpt>
      <trkpt lat="46.73855" lon="1.712">
        <ele>121.72</ele>
        <time>2022-07-26T13:17:49.000Z</time>
      </trkpt>
      <trkpt lat="46.73855" lon="1.71173">
        <ele>122.3</ele>
        <time>2022-07-26T13:17:54.000Z</time>
      </trkpt>
      <trkpt lat="46.73855" lon="1.71143">
        <ele>123.12</ele>
        <time>2022-07-26T13:17:59.000Z</time>
      </trkpt>
      <trkpt lat="46.73855" lon="1.71114">
        <ele>123.58</ele>
        <time>2022-07-26T13:18:03.314Z</time>
      </trkpt>
      <trkpt lat="46.73853" lon="1.71091">
        <ele>124.6</ele>
        <time>2022-07-26T13:18:07.532Z</time>
      </trkpt>
      <trkpt lat="46.73852" lon="1.71073">
        <ele>125.61</ele>
        <time>2022-07-26T13:18:12.000Z</time>
      </trkpt>
      <trkpt lat="46.73853" lon="1.71044">
        <ele>125.42</ele>
        <time>2022-07-26T13:18:17.000Z</time>
      </trkpt>
      <trkpt lat="46.73854" lon="1.71017">
        <ele>127.56</ele>
        <time>2022-07-26T13:18:22.000Z</time>
      </trkpt>
      <trkpt lat="46.73855" lon="1.70986">
        <ele>128.91</ele>
        <time>2022-07-26T13:18:26.425Z</time>
      </trkpt>
      <trkpt lat="46.73856" lon="1.70959">
        <ele>129.34</ele>
        <time>2022-07-26T13:18:31.091Z</time>
      </trkpt>
      <trkpt lat="46.73856" lon="1.70933">
        <ele>129.84</ele>
        <time>2022-07-26T13:18:37.000Z</time>
      </trkpt>
      <trkpt lat="46.73855" lon="1.70907">
        <ele>128.6</ele>
        <time>2022-07-26T13:18:42.000Z</time>
      </trkpt>
      <trkpt lat="46.73856" lon="1.70878">
        <ele>128.74</ele>
        <time>2022-07-26T13:18:46.035Z</time>
      </trkpt>
      <trkpt lat="46.73857" lon="1.70856">
        <ele>127.11</ele>
        <time>2022-07-26T13:18:50.414Z</time>
      </trkpt>
      <trkpt lat="46.73858" lon="1.70831">
        <ele>124.56</ele>
        <time>2022-07-26T13:18:56.000Z</time>
      </trkpt>
      <trkpt lat="46.73856" lon="1.70801">
        <ele>122.01</ele>
        <time>2022-07-26T13:19:01.000Z</time>
      </trkpt>
      <trkpt lat="46.73856" lon="1.70773">
        <ele>119.66</ele>
        <time>2022-07-26T13:19:06.000Z</time>
      </trkpt>
      <trkpt lat="46.73854" lon="1.70745">
        <ele>120.82</ele>
        <time>2022-07-26T13:19:10.012Z</time>
      </trkpt>
      <trkpt lat="46.73852" lon="1.70722">
        <ele>120.36</ele>
        <time>2022-07-26T13:19:14.172Z</time>
      </trkpt>
      <trkpt lat="46.73852" lon="1.70702">
        <ele>118.11</ele>
        <time>2022-07-26T13:19:19.000Z</time>
      </trkpt>
      <trkpt lat="46.73853" lon="1.70675">
        <ele>115.39</ele>
        <time>2022-07-26T13:19:24.000Z</time>
      </trkpt>
      <trkpt lat="46.7385" lon="1.70641">
        <ele>116.78</ele>
        <time>2022-07-26T13:19:28.673Z</time>
      </trkpt>
      <trkpt lat="46.7385" lon="1.70625">
        <ele>117.09</ele>
        <time>2022-07-26T13:19:33.000Z</time>
      </trkpt>
      <trkpt lat="46.7385" lon="1.70592">
        <ele>116.46</ele>
        <time>2022-07-26T13:19:37.626Z</time>
      </trkpt>
      <trkpt lat="46.7385" lon="1.70574">
        <ele>115.61</ele>
        <time>2022-07-26T13:19:42.000Z</time>
      </trkpt>
      <trkpt lat="46.7385" lon="1.70539">
        <ele>115.8</ele>
        <time>2022-07-26T13:19:48.000Z</time>
      </trkpt>
      <trkpt lat="46.73853" lon="1.70497">
        <ele>119.03</ele>
        <time>2022-07-26T13:19:54.000Z</time>
      </trkpt>
      <trkpt lat="46.73855" lon="1.70459">
        <ele>120.22</ele>
        <time>2022-07-26T13:19:58.471Z</time>
      </trkpt>
      <trkpt lat="46.73857" lon="1.70433">
        <ele>120.64</ele>
        <time>2022-07-26T13:20:02.529Z</time>
      </trkpt>
      <trkpt lat="46.73857" lon="1.70408">
        <ele>121.34</ele>
        <time>2022-07-26T13:20:08.000Z</time>
      </trkpt>
      <trkpt lat="46.73857" lon="1.70373">
        <ele>123.46</ele>
        <time>2022-07-26T13:20:12.146Z</time>
      </trkpt>
      <trkpt lat="46.73857" lon="1.70352">
        <ele>125.21</ele>
        <time>2022-07-26T13:20:17.000Z</time>
      </trkpt>
      <trkpt lat="46.73856" lon="1.70316">
        <ele>128.53</ele>
        <time>2022-07-26T13:20:21.471Z</time>
      </trkpt>
      <trkpt lat="46.73855" lon="1.70295">
        <ele>130.44</ele>
        <time>2022-07-26T13:20:26.000Z</time>
      </trkpt>
      <trkpt lat="46.73855" lon="1.7026">
        <ele>131.03</ele>
        <time>2022-07-26T13:20:30.332Z</time>
      </trkpt>
      <trkpt lat="46.73856" lon="1.70237">
        <ele>130.68</ele>
        <time>2022-07-26T13:20:35.000Z</time>
      </trkpt>
      <trkpt lat="46.73856" lon="1.70206">
        <ele>130.04</ele>
        <time>2022-07-26T13:20:40.000Z</time>
      </trkpt>
      <trkpt lat="46.73856" lon="1.7017">
        <ele>129.85</ele>
        <time>2022-07-26T13:20:45.000Z</time>
      </trkpt>
      <trkpt lat="46.73855" lon="1.70134">
        <ele>130.42</ele>
        <time>2022-07-26T13:20:50.000Z</time>
      </trkpt>
      <trkpt lat="46.73854" lon="1.70097">
        <ele>129.83</ele>
        <time>2022-07-26T13:20:55.000Z</time>
      </trkpt>
      <trkpt lat="46.73856" lon="1.70063">
        <ele>129.12</ele>
        <time>2022-07-26T13:21:00.000Z</time>
      </trkpt>
      <trkpt lat="46.73855" lon="1.70029">
        <ele>130.1</ele>
        <time>2022-07-26T13:21:05.000Z</time>
      </trkpt>
      <trkpt lat="46.73855" lon="1.69988">
        <ele>129.69</ele>
        <time>2022-07-26T13:21:10.000Z</time>
      </trkpt>
      <trkpt lat="46.73854" lon="1.69944">
        <ele>129.47</ele>
        <time>2022-07-26T13:21:15.000Z</time>
      </trkpt>
      <trkpt lat="46.73854" lon="1.69905">
        <ele>128.84</ele>
        <time>2022-07-26T13:21:20.000Z</time>
      </trkpt>
      <trkpt lat="46.73853" lon="1.69871">
        <ele>130.72</ele>
        <time>2022-07-26T13:21:25.000Z</time>
      </trkpt>
      <trkpt lat="46.73852" lon="1.69838">
        <ele>133.55</ele>
        <time>2022-07-26T13:21:30.000Z</time>
      </trkpt>
      <trkpt lat="46.7385" lon="1.69801">
        <ele>137.31</ele>
        <time>2022-07-26T13:21:36.000Z</time>
      </trkpt>
      <trkpt lat="46.7385" lon="1.69766">
        <ele>137.66</ele>
        <time>2022-07-26T13:21:40.338Z</time>
      </trkpt>
      <trkpt lat="46.73849" lon="1.6974">
        <ele>138.32</ele>
        <time>2022-07-26T13:21:44.357Z</time>
      </trkpt>
      <trkpt lat="46.73848" lon="1.69721">
        <ele>137.25</ele>
        <time>2022-07-26T13:21:49.000Z</time>
      </trkpt>
      <trkpt lat="46.73847" lon="1.69683">
        <ele>133.62</ele>
        <time>2022-07-26T13:21:55.000Z</time>
      </trkpt>
      <trkpt lat="46.73849" lon="1.69648">
        <ele>132.62</ele>
        <time>2022-07-26T13:22:01.000Z</time>
      </trkpt>
      <trkpt lat="46.73849" lon="1.69617">
        <ele>132.16</ele>
        <time>2022-07-26T13:22:06.000Z</time>
      </trkpt>
      <trkpt lat="46.73849" lon="1.69582">
        <ele>134.13</ele>
        <time>2022-07-26T13:22:10.252Z</time>
      </trkpt>
      <trkpt lat="46.73846" lon="1.69549">
        <ele>133.95</ele>
        <time>2022-07-26T13:22:14.652Z</time>
      </trkpt>
      <trkpt lat="46.73846" lon="1.69522">
        <ele>132.48</ele>
        <time>2022-07-26T13:22:19.000Z</time>
      </trkpt>
      <trkpt lat="46.73844" lon="1.69486">
        <ele>131.75</ele>
        <time>2022-07-26T13:22:24.000Z</time>
      </trkpt>
      <trkpt lat="46.73843" lon="1.69455">
        <ele>132.42</ele>
        <time>2022-07-26T13:22:28.085Z</time>
      </trkpt>
      <trkpt lat="46.73842" lon="1.69428">
        <ele>134.91</ele>
        <time>2022-07-26T13:22:32.150Z</time>
      </trkpt>
      <trkpt lat="46.73843" lon="1.69405">
        <ele>137.54</ele>
        <time>2022-07-26T13:22:37.000Z</time>
      </trkpt>
      <trkpt lat="46.73843" lon="1.69365">
        <ele>140.04</ele>
        <time>2022-07-26T13:22:41.434Z</time>
      </trkpt>
      <trkpt lat="46.73843" lon="1.69342">
        <ele>141.67</ele>
        <time>2022-07-26T13:22:46.000Z</time>
      </trkpt>
      <trkpt lat="46.73844" lon="1.69303">
        <ele>142.77</ele>
        <time>2022-07-26T13:22:51.000Z</time>
      </trkpt>
      <trkpt lat="46.73843" lon="1.69267">
        <ele>142.55</ele>
        <time>2022-07-26T13:22:56.000Z</time>
      </trkpt>
      <trkpt lat="46.73841" lon="1.69228">
        <ele>141.54</ele>
        <time>2022-07-26T13:23:01.000Z</time>
      </trkpt>
      <trkpt lat="46.73841" lon="1.69188">
        <ele>140.78</ele>
        <time>2022-07-26T13:23:06.000Z</time>
      </trkpt>
      <trkpt lat="46.73843" lon="1.69147">
        <ele>141.25</ele>
        <time>2022-07-26T13:23:11.000Z</time>
      </trkpt>
      <trkpt lat="46.73843" lon="1.69108">
        <ele>140.38</ele>
        <time>2022-07-26T13:23:16.000Z</time>
      </trkpt>
      <trkpt lat="46.73842" lon="1.69068">
        <ele>138.46</ele>
        <time>2022-07-26T13:23:21.000Z</time>
      </trkpt>
      <trkpt lat="46.73842" lon="1.69032">
        <ele>138.31</ele>
        <time>2022-07-26T13:23:26.000Z</time>
      </trkpt>
      <trkpt lat="46.73843" lon="1.68995">
        <ele>138.08</ele>
        <time>2022-07-26T13:23:31.000Z</time>
      </trkpt>
      <trkpt lat="46.73847" lon="1.68962">
        <ele>136.46</ele>
        <time>2022-07-26T13:23:36.000Z</time>
      </trkpt>
      <trkpt lat="46.7385" lon="1.68926">
        <ele>134.75</ele>
        <time>2022-07-26T13:23:41.000Z</time>
      </trkpt>
      <trkpt lat="46.73852" lon="1.68885">
        <ele>134.88</ele>
        <time>2022-07-26T13:23:46.000Z</time>
      </trkpt>
      <trkpt lat="46.73851" lon="1.68845">
        <ele>133.22</ele>
        <time>2022-07-26T13:23:51.000Z</time>
      </trkpt>
      <trkpt lat="46.73851" lon="1.68805">
        <ele>129.83</ele>
        <time>2022-07-26T13:23:56.000Z</time>
      </trkpt>
      <trkpt lat="46.73853" lon="1.68768">
        <ele>129.65</ele>
        <time>2022-07-26T13:24:01.000Z</time>
      </trkpt>
      <trkpt lat="46.73851" lon="1.68731">
        <ele>131.62</ele>
        <time>2022-07-26T13:24:06.000Z</time>
      </trkpt>
      <trkpt lat="46.7385" lon="1.68691">
        <ele>136.49</ele>
        <time>2022-07-26T13:24:11.000Z</time>
      </trkpt>
      <trkpt lat="46.73845" lon="1.68652">
        <ele>138.39</ele>
        <time>2022-07-26T13:24:16.000Z</time>
      </trkpt>
      <trkpt lat="46.73842" lon="1.68613">
        <ele>141.37</ele>
        <time>2022-07-26T13:24:20.289Z</time>
      </trkpt>
      <trkpt lat="46.73843" lon="1.68587">
        <ele>142.85</ele>
        <time>2022-07-26T13:24:24.487Z</time>
      </trkpt>
      <trkpt lat="46.73845" lon="1.68563">
        <ele>145.07</ele>
        <time>2022-07-26T13:24:30.000Z</time>
      </trkpt>
      <trkpt lat="46.73846" lon="1.68533">
        <ele>145.58</ele>
        <time>2022-07-26T13:24:35.000Z</time>
      </trkpt>
      <trkpt lat="46.73847" lon="1.68495">
        <ele>144.17</ele>
        <time>2022-07-26T13:24:39.100Z</time>
      </trkpt>
      <trkpt lat="46.73848" lon="1.68465">
        <ele>144.6</ele>
        <time>2022-07-26T13:24:44.000Z</time>
      </trkpt>
      <trkpt lat="46.73849" lon="1.68426">
        <ele>145.16</ele>
        <time>2022-07-26T13:24:50.000Z</time>
      </trkpt>
      <trkpt lat="46.73847" lon="1.68385">
        <ele>143.23</ele>
        <time>2022-07-26T13:24:56.000Z</time>
      </trkpt>
      <trkpt lat="46.73846" lon="1.68348">
        <ele>141.49</ele>
        <time>2022-07-26T13:25:00.509Z</time>
      </trkpt>
      <trkpt lat="46.73845" lon="1.68326">
        <ele>141.41</ele>
        <time>2022-07-26T13:25:06.000Z</time>
      </trkpt>
      <trkpt lat="46.73846" lon="1.68297">
        <ele>141.35</ele>
        <time>2022-07-26T13:25:11.000Z</time>
      </trkpt>
      <trkpt lat="46.73844" lon="1.68267">
        <ele>139.4</ele>
        <time>2022-07-26T13:25:16.000Z</time>
      </trkpt>
      <trkpt lat="46.73844" lon="1.68231">
        <ele>136.66</ele>
        <time>2022-07-26T13:25:20.505Z</time>
      </trkpt>
      <trkpt lat="46.73845" lon="1.68208">
        <ele>135.77</ele>
        <time>2022-07-26T13:25:24.624Z</time>
      </trkpt>
      <trkpt lat="46.73847" lon="1.68185">
        <ele>134.01</ele>
        <time>2022-07-26T13:25:30.000Z</time>
      </trkpt>
      <trkpt lat="46.73845" lon="1.68151">
        <ele>133.38</ele>
        <time>2022-07-26T13:25:35.000Z</time>
      </trkpt>
      <trkpt lat="46.73842" lon="1.68116">
        <ele>131.41</ele>
        <time>2022-07-26T13:25:39.626Z</time>
      </trkpt>
      <trkpt lat="46.73842" lon="1.68089">
        <ele>131.53</ele>
        <time>2022-07-26T13:25:43.662Z</time>
      </trkpt>
      <trkpt lat="46.73842" lon="1.68069">
        <ele>130.59</ele>
        <time>2022-07-26T13:25:48.000Z</time>
      </trkpt>
      <trkpt lat="46.7384" lon="1.68034">
        <ele>129.8</ele>
        <time>2022-07-26T13:25:52.604Z</time>
      </trkpt>
      <trkpt lat="46.73838" lon="1.68013">
        <ele>129.23</ele>
        <time>2022-07-26T13:25:57.000Z</time>
      </trkpt>
      <trkpt lat="46.73836" lon="1.67986">
        <ele>127.53</ele>
        <time>2022-07-26T13:26:02.000Z</time>
      </trkpt>
      <trkpt lat="46.73836" lon="1.67951">
        <ele>127.68</ele>
        <time>2022-07-26T13:26:06.368Z</time>
      </trkpt>
      <trkpt lat="46.73837" lon="1.67925">
        <ele>126.97</ele>
        <time>2022-07-26T13:26:10.566Z</time>
      </trkpt>
      <trkpt lat="46.73837" lon="1.679">
        <ele>126.09</ele>
        <time>2022-07-26T13:26:14.947Z</time>
      </trkpt>
      <trkpt lat="46.73839" lon="1.67875">
        <ele>124.22</ele>
        <time>2022-07-26T13:26:18.964Z</time>
      </trkpt>
      <trkpt lat="46.73838" lon="1.67857">
        <ele>121.55</ele>
        <time>2022-07-26T13:26:23.000Z</time>
      </trkpt>
      <trkpt lat="46.73837" lon="1.67823">
        <ele>119.43</ele>
        <time>2022-07-26T13:26:28.000Z</time>
      </trkpt>
      <trkpt lat="46.73837" lon="1.67789">
        <ele>118.17</ele>
        <time>2022-07-26T13:26:32.042Z</time>
      </trkpt>
      <trkpt lat="46.73837" lon="1.67759">
        <ele>115.03</ele>
        <time>2022-07-26T13:26:38.000Z</time>
      </trkpt>
      <trkpt lat="46.73837" lon="1.6772">
        <ele>112.46</ele>
        <time>2022-07-26T13:26:44.000Z</time>
      </trkpt>
      <trkpt lat="46.73837" lon="1.67682">
        <ele>114.51</ele>
        <time>2022-07-26T13:26:48.545Z</time>
      </trkpt>
      <trkpt lat="46.73838" lon="1.67654">
        <ele>115.41</ele>
        <time>2022-07-26T13:26:54.000Z</time>
      </trkpt>
      <trkpt lat="46.73839" lon="1.67617">
        <ele>117.52</ele>
        <time>2022-07-26T13:26:59.000Z</time>
      </trkpt>
      <trkpt lat="46.73839" lon="1.67578">
        <ele>119.14</ele>
        <time>2022-07-26T13:27:04.000Z</time>
      </trkpt>
      <trkpt lat="46.73838" lon="1.67538">
        <ele>119.79</ele>
        <time>2022-07-26T13:27:09.000Z</time>
      </trkpt>
      <trkpt lat="46.73839" lon="1.67502">
        <ele>119.31</ele>
        <time>2022-07-26T13:27:14.000Z</time>
      </trkpt>
      <trkpt lat="46.73839" lon="1.67469">
        <ele>119.77</ele>
        <time>2022-07-26T13:27:19.000Z</time>
      </trkpt>
      <trkpt lat="46.73841" lon="1.67442">
        <ele>120.56</ele>
        <time>2022-07-26T13:27:24.000Z</time>
      </trkpt>
      <trkpt lat="46.73839" lon="1.67397">
        <ele>120.9</ele>
        <time>2022-07-26T13:27:28.143Z</time>
      </trkpt>
      <trkpt lat="46.73837" lon="1.67358">
        <ele>121.39</ele>
        <time>2022-07-26T13:27:34.000Z</time>
      </trkpt>
      <trkpt lat="46.73837" lon="1.67317">
        <ele>123.19</ele>
        <time>2022-07-26T13:27:39.000Z</time>
      </trkpt>
      <trkpt lat="46.73835" lon="1.6728">
        <ele>121.88</ele>
        <time>2022-07-26T13:27:44.000Z</time>
      </trkpt>
      <trkpt lat="46.73834" lon="1.67243">
        <ele>120.88</ele>
        <time>2022-07-26T13:27:49.000Z</time>
      </trkpt>
      <trkpt lat="46.73836" lon="1.67208">
        <ele>118.2</ele>
        <time>2022-07-26T13:27:54.000Z</time>
      </trkpt>
      <trkpt lat="46.73837" lon="1.67173">
        <ele>115.79</ele>
        <time>2022-07-26T13:27:59.000Z</time>
      </trkpt>
      <trkpt lat="46.73837" lon="1.67134">
        <ele>112.76</ele>
        <time>2022-07-26T13:28:04.000Z</time>
      </trkpt>
      <trkpt lat="46.73837" lon="1.67089">
        <ele>111.51</ele>
        <time>2022-07-26T13:28:09.000Z</time>
      </trkpt>
      <trkpt lat="46.73836" lon="1.67041">
        <ele>110.56</ele>
        <time>2022-07-26T13:28:14.000Z</time>
      </trkpt>
      <trkpt lat="46.73836" lon="1.67009">
        <ele>110.57</ele>
        <time>2022-07-26T13:28:19.000Z</time>
      </trkpt>
      <trkpt lat="46.73834" lon="1.6699">
        <ele>112.61</ele>
        <time>2022-07-26T13:28:25.000Z</time>
      </trkpt>
      <trkpt lat="46.73833" lon="1.66971">
        <ele>113.41</ele>
        <time>2022-07-26T13:28:30.000Z</time>
      </trkpt>
      <trkpt lat="46.73831" lon="1.66954">
        <ele>114.81</ele>
        <time>2022-07-26T13:28:35.000Z</time>
      </trkpt>
      <trkpt lat="46.7383" lon="1.66937">
        <ele>115.87</ele>
        <time>2022-07-26T13:28:39.342Z</time>
      </trkpt>
      <trkpt lat="46.7383" lon="1.66923">
        <ele>116.86</ele>
        <time>2022-07-26T13:28:43.924Z</time>
      </trkpt>
      <trkpt lat="46.73832" lon="1.66905">
        <ele>117.91</ele>
        <time>2022-07-26T13:28:49.000Z</time>
      </trkpt>
      <trkpt lat="46.73836" lon="1.6687">
        <ele>118.86</ele>
        <time>2022-07-26T13:28:53.583Z</time>
      </trkpt>
      <trkpt lat="46.73837" lon="1.6685">
        <ele>117.69</ele>
        <time>2022-07-26T13:28:58.000Z</time>
      </trkpt>
      <trkpt lat="46.73837" lon="1.66832">
        <ele>116.75</ele>
        <time>2022-07-26T13:29:03.000Z</time>
      </trkpt>
      <trkpt lat="46.73822" lon="1.66818">
        <ele>112.82</ele>
        <time>2022-07-26T13:29:09.000Z</time>
      </trkpt>
      <trkpt lat="46.738" lon="1.66813">
        <ele>110.25</ele>
        <time>2022-07-26T13:29:14.000Z</time>
      </trkpt>
      <trkpt lat="46.73776" lon="1.66807">
        <ele>110.51</ele>
        <time>2022-07-26T13:29:19.000Z</time>
      </trkpt>
      <trkpt lat="46.7375" lon="1.66802">
        <ele>109.32</ele>
        <time>2022-07-26T13:29:24.000Z</time>
      </trkpt>
      <trkpt lat="46.7372" lon="1.66796">
        <ele>108.81</ele>
        <time>2022-07-26T13:29:29.000Z</time>
      </trkpt>
      <trkpt lat="46.73684" lon="1.66788">
        <ele>109.98</ele>
        <time>2022-07-26T13:29:34.000Z</time>
      </trkpt>
      <trkpt lat="46.73649" lon="1.66773">
        <ele>109.61</ele>
        <time>2022-07-26T13:29:39.000Z</time>
      </trkpt>
      <trkpt lat="46.73612" lon="1.66745">
        <ele>110.64</ele>
        <time>2022-07-26T13:29:44.000Z</time>
      </trkpt>
      <trkpt lat="46.73582" lon="1.66714">
        <ele>112.46</ele>
        <time>2022-07-26T13:29:49.000Z</time>
      </trkpt>
      <trkpt lat="46.73556" lon="1.66684">
        <ele>114.27</ele>
        <time>2022-07-26T13:29:54.000Z</time>
      </trkpt>
      <trkpt lat="46.73532" lon="1.66663">
        <ele>116.73</ele>
        <time>2022-07-26T13:29:59.000Z</time>
      </trkpt>
      <trkpt lat="46.73507" lon="1.66645">
        <ele>118.52</ele>
        <time>2022-07-26T13:30:04.000Z</time>
      </trkpt>
      <trkpt lat="46.7348" lon="1.66633">
        <ele>117.74</ele>
        <time>2022-07-26T13:30:09.000Z</time>
      </trkpt>
      <trkpt lat="46.73455" lon="1.66628">
        <ele>116.74</ele>
        <time>2022-07-26T13:30:14.000Z</time>
      </trkpt>
      <trkpt lat="46.73429" lon="1.66625">
        <ele>118</ele>
        <time>2022-07-26T13:30:19.000Z</time>
      </trkpt>
      <trkpt lat="46.73403" lon="1.66626">
        <ele>119.09</ele>
        <time>2022-07-26T13:30:24.000Z</time>
      </trkpt>
      <trkpt lat="46.73377" lon="1.66631">
        <ele>120.19</ele>
        <time>2022-07-26T13:30:29.000Z</time>
      </trkpt>
      <trkpt lat="46.7335" lon="1.66636">
        <ele>118.52</ele>
        <time>2022-07-26T13:30:34.000Z</time>
      </trkpt>
      <trkpt lat="46.73323" lon="1.66642">
        <ele>116.95</ele>
        <time>2022-07-26T13:30:39.000Z</time>
      </trkpt>
      <trkpt lat="46.73296" lon="1.66649">
        <ele>115.6</ele>
        <time>2022-07-26T13:30:44.000Z</time>
      </trkpt>
      <trkpt lat="46.73272" lon="1.66654">
        <ele>114.72</ele>
        <time>2022-07-26T13:30:49.000Z</time>
      </trkpt>
      <trkpt lat="46.73266" lon="1.66629">
        <ele>115.38</ele>
        <time>2022-07-26T13:30:54.000Z</time>
      </trkpt>
      <trkpt lat="46.73272" lon="1.66591">
        <ele>116.63</ele>
        <time>2022-07-26T13:30:59.000Z</time>
      </trkpt>
      <trkpt lat="46.73275" lon="1.66558">
        <ele>118.91</ele>
        <time>2022-07-26T13:31:05.000Z</time>
      </trkpt>
      <trkpt lat="46.73281" lon="1.66526">
        <ele>119.06</ele>
        <time>2022-07-26T13:31:10.000Z</time>
      </trkpt>
      <trkpt lat="46.73285" lon="1.66494">
        <ele>119.45</ele>
        <time>2022-07-26T13:31:15.000Z</time>
      </trkpt>
      <trkpt lat="46.73289" lon="1.66458">
        <ele>119.46</ele>
        <time>2022-07-26T13:31:19.646Z</time>
      </trkpt>
      <trkpt lat="46.73291" lon="1.66431">
        <ele>120.57</ele>
        <time>2022-07-26T13:31:23.986Z</time>
      </trkpt>
      <trkpt lat="46.73292" lon="1.66415">
        <ele>121.14</ele>
        <time>2022-07-26T13:31:28.000Z</time>
      </trkpt>
      <trkpt lat="46.73291" lon="1.6638">
        <ele>121.79</ele>
        <time>2022-07-26T13:31:32.449Z</time>
      </trkpt>
      <trkpt lat="46.73301" lon="1.66348">
        <ele>119.83</ele>
        <time>2022-07-26T13:31:37.455Z</time>
      </trkpt>
      <trkpt lat="46.73303" lon="1.66322">
        <ele>119.07</ele>
        <time>2022-07-26T13:31:43.000Z</time>
      </trkpt>
      <trkpt lat="46.73306" lon="1.66289">
        <ele>119.17</ele>
        <time>2022-07-26T13:31:48.000Z</time>
      </trkpt>
      <trkpt lat="46.73309" lon="1.66257">
        <ele>120.57</ele>
        <time>2022-07-26T13:31:53.000Z</time>
      </trkpt>
      <trkpt lat="46.73314" lon="1.6622">
        <ele>121.57</ele>
        <time>2022-07-26T13:31:59.000Z</time>
      </trkpt>
      <trkpt lat="46.73317" lon="1.6619">
        <ele>122.45</ele>
        <time>2022-07-26T13:32:04.000Z</time>
      </trkpt>
      <trkpt lat="46.7332" lon="1.66158">
        <ele>122.62</ele>
        <time>2022-07-26T13:32:09.000Z</time>
      </trkpt>
      <trkpt lat="46.73326" lon="1.66125">
        <ele>123</ele>
        <time>2022-07-26T13:32:13.558Z</time>
      </trkpt>
      <trkpt lat="46.73328" lon="1.66099">
        <ele>121.97</ele>
        <time>2022-07-26T13:32:19.000Z</time>
      </trkpt>
      <trkpt lat="46.73331" lon="1.66066">
        <ele>121.57</ele>
        <time>2022-07-26T13:32:24.000Z</time>
      </trkpt>
      <trkpt lat="46.73335" lon="1.66035">
        <ele>120.76</ele>
        <time>2022-07-26T13:32:29.000Z</time>
      </trkpt>
      <trkpt lat="46.73338" lon="1.65999">
        <ele>121.24</ele>
        <time>2022-07-26T13:32:34.000Z</time>
      </trkpt>
      <trkpt lat="46.73341" lon="1.6596">
        <ele>121.38</ele>
        <time>2022-07-26T13:32:39.000Z</time>
      </trkpt>
      <trkpt lat="46.73343" lon="1.65925">
        <ele>122.95</ele>
        <time>2022-07-26T13:32:44.000Z</time>
      </trkpt>
      <trkpt lat="46.73345" lon="1.65891">
        <ele>124.61</ele>
        <time>2022-07-26T13:32:49.000Z</time>
      </trkpt>
      <trkpt lat="46.73348" lon="1.65856">
        <ele>125.93</ele>
        <time>2022-07-26T13:32:54.000Z</time>
      </trkpt>
      <trkpt lat="46.73351" lon="1.65821">
        <ele>125.81</ele>
        <time>2022-07-26T13:32:59.000Z</time>
      </trkpt>
      <trkpt lat="46.73354" lon="1.65788">
        <ele>125.95</ele>
        <time>2022-07-26T13:33:04.000Z</time>
      </trkpt>
      <trkpt lat="46.73356" lon="1.65754">
        <ele>125.17</ele>
        <time>2022-07-26T13:33:09.000Z</time>
      </trkpt>
      <trkpt lat="46.73359" lon="1.65719">
        <ele>125.48</ele>
        <time>2022-07-26T13:33:14.000Z</time>
      </trkpt>
      <trkpt lat="46.73362" lon="1.65681">
        <ele>127.34</ele>
        <time>2022-07-26T13:33:20.000Z</time>
      </trkpt>
      <trkpt lat="46.73366" lon="1.65647">
        <ele>128.32</ele>
        <time>2022-07-26T13:33:25.000Z</time>
      </trkpt>
      <trkpt lat="46.73369" lon="1.65614">
        <ele>128.48</ele>
        <time>2022-07-26T13:33:30.000Z</time>
      </trkpt>
      <trkpt lat="46.73372" lon="1.6558">
        <ele>128.6</ele>
        <time>2022-07-26T13:33:35.000Z</time>
      </trkpt>
      <trkpt lat="46.73376" lon="1.65546">
        <ele>129.62</ele>
        <time>2022-07-26T13:33:40.000Z</time>
      </trkpt>
      <trkpt lat="46.73379" lon="1.65513">
        <ele>130.15</ele>
        <time>2022-07-26T13:33:45.000Z</time>
      </trkpt>
      <trkpt lat="46.73382" lon="1.6548">
        <ele>129.59</ele>
        <time>2022-07-26T13:33:50.000Z</time>
      </trkpt>
      <trkpt lat="46.73385" lon="1.65445">
        <ele>129.45</ele>
        <time>2022-07-26T13:33:55.000Z</time>
      </trkpt>
      <trkpt lat="46.73389" lon="1.65411">
        <ele>129.19</ele>
        <time>2022-07-26T13:34:00.000Z</time>
      </trkpt>
      <trkpt lat="46.73392" lon="1.65374">
        <ele>128.93</ele>
        <time>2022-07-26T13:34:05.000Z</time>
      </trkpt>
      <trkpt lat="46.73395" lon="1.65334">
        <ele>128.46</ele>
        <time>2022-07-26T13:34:10.000Z</time>
      </trkpt>
      <trkpt lat="46.734" lon="1.65295">
        <ele>127.88</ele>
        <time>2022-07-26T13:34:15.000Z</time>
      </trkpt>
      <trkpt lat="46.73403" lon="1.65258">
        <ele>127.49</ele>
        <time>2022-07-26T13:34:20.000Z</time>
      </trkpt>
      <trkpt lat="46.73407" lon="1.65221">
        <ele>126.51</ele>
        <time>2022-07-26T13:34:25.000Z</time>
      </trkpt>
      <trkpt lat="46.73413" lon="1.65187">
        <ele>126.1</ele>
        <time>2022-07-26T13:34:30.000Z</time>
      </trkpt>
      <trkpt lat="46.73418" lon="1.65151">
        <ele>125.28</ele>
        <time>2022-07-26T13:34:35.000Z</time>
      </trkpt>
      <trkpt lat="46.73422" lon="1.65114">
        <ele>125.22</ele>
        <time>2022-07-26T13:34:40.000Z</time>
      </trkpt>
      <trkpt lat="46.73426" lon="1.65078">
        <ele>124.12</ele>
        <time>2022-07-26T13:34:45.000Z</time>
      </trkpt>
      <trkpt lat="46.73426" lon="1.65036">
        <ele>124.07</ele>
        <time>2022-07-26T13:34:50.000Z</time>
      </trkpt>
      <trkpt lat="46.73424" lon="1.64995">
        <ele>124.33</ele>
        <time>2022-07-26T13:34:55.000Z</time>
      </trkpt>
      <trkpt lat="46.73421" lon="1.64955">
        <ele>124.36</ele>
        <time>2022-07-26T13:35:00.000Z</time>
      </trkpt>
      <trkpt lat="46.73418" lon="1.64911">
        <ele>125.14</ele>
        <time>2022-07-26T13:35:05.000Z</time>
      </trkpt>
      <trkpt lat="46.73416" lon="1.64861">
        <ele>122.94</ele>
        <time>2022-07-26T13:35:10.000Z</time>
      </trkpt>
      <trkpt lat="46.73414" lon="1.64804">
        <ele>122.1</ele>
        <time>2022-07-26T13:35:15.000Z</time>
      </trkpt>
      <trkpt lat="46.73413" lon="1.64755">
        <ele>121.79</ele>
        <time>2022-07-26T13:35:20.000Z</time>
      </trkpt>
      <trkpt lat="46.7341" lon="1.64708">
        <ele>123.62</ele>
        <time>2022-07-26T13:35:25.000Z</time>
      </trkpt>
      <trkpt lat="46.73408" lon="1.64671">
        <ele>124.79</ele>
        <time>2022-07-26T13:35:30.000Z</time>
      </trkpt>
      <trkpt lat="46.73407" lon="1.64635">
        <ele>125.9</ele>
        <time>2022-07-26T13:35:35.000Z</time>
      </trkpt>
      <trkpt lat="46.73404" lon="1.64598">
        <ele>126.99</ele>
        <time>2022-07-26T13:35:40.000Z</time>
      </trkpt>
      <trkpt lat="46.73402" lon="1.64564">
        <ele>129.2</ele>
        <time>2022-07-26T13:35:45.000Z</time>
      </trkpt>
      <trkpt lat="46.73401" lon="1.6453">
        <ele>130.75</ele>
        <time>2022-07-26T13:35:50.000Z</time>
      </trkpt>
      <trkpt lat="46.73399" lon="1.64495">
        <ele>131.62</ele>
        <time>2022-07-26T13:35:55.000Z</time>
      </trkpt>
      <trkpt lat="46.73397" lon="1.64458">
        <ele>131.98</ele>
        <time>2022-07-26T13:36:00.000Z</time>
      </trkpt>
      <trkpt lat="46.73396" lon="1.64422">
        <ele>130.76</ele>
        <time>2022-07-26T13:36:05.000Z</time>
      </trkpt>
      <trkpt lat="46.73395" lon="1.64383">
        <ele>129.91</ele>
        <time>2022-07-26T13:36:10.000Z</time>
      </trkpt>
      <trkpt lat="46.73395" lon="1.64345">
        <ele>130.7</ele>
        <time>2022-07-26T13:36:15.000Z</time>
      </trkpt>
      <trkpt lat="46.73394" lon="1.64308">
        <ele>131.61</ele>
        <time>2022-07-26T13:36:20.000Z</time>
      </trkpt>
      <trkpt lat="46.73391" lon="1.64269">
        <ele>134.26</ele>
        <time>2022-07-26T13:36:25.000Z</time>
      </trkpt>
      <trkpt lat="46.73388" lon="1.64233">
        <ele>136.32</ele>
        <time>2022-07-26T13:36:30.000Z</time>
      </trkpt>
      <trkpt lat="46.73386" lon="1.64197">
        <ele>137.01</ele>
        <time>2022-07-26T13:36:35.000Z</time>
      </trkpt>
      <trkpt lat="46.73384" lon="1.64162">
        <ele>136.58</ele>
        <time>2022-07-26T13:36:40.000Z</time>
      </trkpt>
      <trkpt lat="46.73383" lon="1.64126">
        <ele>135.36</ele>
        <time>2022-07-26T13:36:45.000Z</time>
      </trkpt>
      <trkpt lat="46.73382" lon="1.64096">
        <ele>133.68</ele>
        <time>2022-07-26T13:36:50.000Z</time>
      </trkpt>
      <trkpt lat="46.73381" lon="1.64068">
        <ele>133.05</ele>
        <time>2022-07-26T13:36:55.000Z</time>
      </trkpt>
      <trkpt lat="46.73379" lon="1.64034">
        <ele>132.98</ele>
        <time>2022-07-26T13:36:59.498Z</time>
      </trkpt>
      <trkpt lat="46.73378" lon="1.64008">
        <ele>132.21</ele>
        <time>2022-07-26T13:37:05.000Z</time>
      </trkpt>
      <trkpt lat="46.73377" lon="1.63979">
        <ele>131.77</ele>
        <time>2022-07-26T13:37:10.000Z</time>
      </trkpt>
      <trkpt lat="46.73376" lon="1.63947">
        <ele>132.63</ele>
        <time>2022-07-26T13:37:15.000Z</time>
      </trkpt>
      <trkpt lat="46.73374" lon="1.63912">
        <ele>133.45</ele>
        <time>2022-07-26T13:37:19.652Z</time>
      </trkpt>
      <trkpt lat="46.73373" lon="1.63894">
        <ele>133.23</ele>
        <time>2022-07-26T13:37:24.000Z</time>
      </trkpt>
      <trkpt lat="46.73372" lon="1.6386">
        <ele>132.76</ele>
        <time>2022-07-26T13:37:28.038Z</time>
      </trkpt>
      <trkpt lat="46.73371" lon="1.63837">
        <ele>133.03</ele>
        <time>2022-07-26T13:37:33.000Z</time>
      </trkpt>
      <trkpt lat="46.73369" lon="1.63803">
        <ele>133.18</ele>
        <time>2022-07-26T13:37:38.000Z</time>
      </trkpt>
      <trkpt lat="46.73368" lon="1.63768">
        <ele>133.93</ele>
        <time>2022-07-26T13:37:43.000Z</time>
      </trkpt>
      <trkpt lat="46.73365" lon="1.63733">
        <ele>134.1</ele>
        <time>2022-07-26T13:37:48.000Z</time>
      </trkpt>
      <trkpt lat="46.73364" lon="1.63699">
        <ele>134.42</ele>
        <time>2022-07-26T13:37:53.000Z</time>
      </trkpt>
      <trkpt lat="46.73363" lon="1.63666">
        <ele>135.07</ele>
        <time>2022-07-26T13:37:58.000Z</time>
      </trkpt>
      <trkpt lat="46.73361" lon="1.63631">
        <ele>135.38</ele>
        <time>2022-07-26T13:38:03.000Z</time>
      </trkpt>
      <trkpt lat="46.7336" lon="1.63597">
        <ele>135.46</ele>
        <time>2022-07-26T13:38:08.000Z</time>
      </trkpt>
      <trkpt lat="46.73358" lon="1.63564">
        <ele>135.53</ele>
        <time>2022-07-26T13:38:13.000Z</time>
      </trkpt>
      <trkpt lat="46.73357" lon="1.63528">
        <ele>134.48</ele>
        <time>2022-07-26T13:38:18.000Z</time>
      </trkpt>
      <trkpt lat="46.73355" lon="1.63493">
        <ele>134.52</ele>
        <time>2022-07-26T13:38:23.000Z</time>
      </trkpt>
      <trkpt lat="46.73354" lon="1.63455">
        <ele>134.21</ele>
        <time>2022-07-26T13:38:28.000Z</time>
      </trkpt>
      <trkpt lat="46.73353" lon="1.63417">
        <ele>134.07</ele>
        <time>2022-07-26T13:38:33.000Z</time>
      </trkpt>
      <trkpt lat="46.73351" lon="1.63379">
        <ele>132.98</ele>
        <time>2022-07-26T13:38:38.000Z</time>
      </trkpt>
      <trkpt lat="46.7335" lon="1.63342">
        <ele>132.4</ele>
        <time>2022-07-26T13:38:43.000Z</time>
      </trkpt>
      <trkpt lat="46.73359" lon="1.63304">
        <ele>132.49</ele>
        <time>2022-07-26T13:38:48.000Z</time>
      </trkpt>
      <trkpt lat="46.73372" lon="1.63268">
        <ele>132.72</ele>
        <time>2022-07-26T13:38:53.000Z</time>
      </trkpt>
      <trkpt lat="46.73383" lon="1.6323">
        <ele>132.81</ele>
        <time>2022-07-26T13:38:58.000Z</time>
      </trkpt>
      <trkpt lat="46.73396" lon="1.63194">
        <ele>133.75</ele>
        <time>2022-07-26T13:39:03.000Z</time>
      </trkpt>
      <trkpt lat="46.73403" lon="1.63161">
        <ele>130.71</ele>
        <time>2022-07-26T13:39:08.000Z</time>
      </trkpt>
      <trkpt lat="46.73414" lon="1.63128">
        <ele>130.99</ele>
        <time>2022-07-26T13:39:13.000Z</time>
      </trkpt>
      <trkpt lat="46.73425" lon="1.63095">
        <ele>130.5</ele>
        <time>2022-07-26T13:39:18.000Z</time>
      </trkpt>
      <trkpt lat="46.73436" lon="1.63062">
        <ele>130.75</ele>
        <time>2022-07-26T13:39:23.000Z</time>
      </trkpt>
      <trkpt lat="46.73447" lon="1.63029">
        <ele>130.97</ele>
        <time>2022-07-26T13:39:28.000Z</time>
      </trkpt>
      <trkpt lat="46.73459" lon="1.62995">
        <ele>130.88</ele>
        <time>2022-07-26T13:39:33.000Z</time>
      </trkpt>
      <trkpt lat="46.7347" lon="1.62961">
        <ele>130.64</ele>
        <time>2022-07-26T13:39:38.000Z</time>
      </trkpt>
      <trkpt lat="46.7348" lon="1.62929">
        <ele>130.71</ele>
        <time>2022-07-26T13:39:43.000Z</time>
      </trkpt>
      <trkpt lat="46.73491" lon="1.62894">
        <ele>130.2</ele>
        <time>2022-07-26T13:39:48.000Z</time>
      </trkpt>
      <trkpt lat="46.73504" lon="1.62855">
        <ele>129.1</ele>
        <time>2022-07-26T13:39:53.000Z</time>
      </trkpt>
      <trkpt lat="46.73518" lon="1.62811">
        <ele>128.22</ele>
        <time>2022-07-26T13:39:58.000Z</time>
      </trkpt>
      <trkpt lat="46.73533" lon="1.62765">
        <ele>127.3</ele>
        <time>2022-07-26T13:40:03.000Z</time>
      </trkpt>
      <trkpt lat="46.73546" lon="1.62726">
        <ele>127.24</ele>
        <time>2022-07-26T13:40:08.000Z</time>
      </trkpt>
      <trkpt lat="46.73557" lon="1.62686">
        <ele>127.44</ele>
        <time>2022-07-26T13:40:13.000Z</time>
      </trkpt>
      <trkpt lat="46.73569" lon="1.62651">
        <ele>128.29</ele>
        <time>2022-07-26T13:40:18.000Z</time>
      </trkpt>
      <trkpt lat="46.73579" lon="1.62624">
        <ele>129.15</ele>
        <time>2022-07-26T13:40:23.000Z</time>
      </trkpt>
      <trkpt lat="46.73585" lon="1.62602">
        <ele>127.69</ele>
        <time>2022-07-26T13:40:28.000Z</time>
      </trkpt>
      <trkpt lat="46.73588" lon="1.62577">
        <ele>127.38</ele>
        <time>2022-07-26T13:40:33.000Z</time>
      </trkpt>
      <trkpt lat="46.73591" lon="1.62545">
        <ele>127.72</ele>
        <time>2022-07-26T13:40:38.000Z</time>
      </trkpt>
      <trkpt lat="46.73594" lon="1.62516">
        <ele>127.5</ele>
        <time>2022-07-26T13:40:43.000Z</time>
      </trkpt>
      <trkpt lat="46.73596" lon="1.62488">
        <ele>127.52</ele>
        <time>2022-07-26T13:40:48.000Z</time>
      </trkpt>
      <trkpt lat="46.73599" lon="1.62454">
        <ele>128.45</ele>
        <time>2022-07-26T13:40:52.463Z</time>
      </trkpt>
      <trkpt lat="46.73601" lon="1.6243">
        <ele>130.66</ele>
        <time>2022-07-26T13:40:58.000Z</time>
      </trkpt>
      <trkpt lat="46.73605" lon="1.62396">
        <ele>132.31</ele>
        <time>2022-07-26T13:41:02.378Z</time>
      </trkpt>
      <trkpt lat="46.73609" lon="1.62374">
        <ele>132.28</ele>
        <time>2022-07-26T13:41:07.000Z</time>
      </trkpt>
      <trkpt lat="46.73612" lon="1.62339">
        <ele>131.62</ele>
        <time>2022-07-26T13:41:12.000Z</time>
      </trkpt>
      <trkpt lat="46.73616" lon="1.62298">
        <ele>130.37</ele>
        <time>2022-07-26T13:41:17.000Z</time>
      </trkpt>
      <trkpt lat="46.73619" lon="1.62256">
        <ele>130.02</ele>
        <time>2022-07-26T13:41:22.000Z</time>
      </trkpt>
      <trkpt lat="46.73622" lon="1.62217">
        <ele>129.56</ele>
        <time>2022-07-26T13:41:27.000Z</time>
      </trkpt>
      <trkpt lat="46.73625" lon="1.6218">
        <ele>127.9</ele>
        <time>2022-07-26T13:41:32.000Z</time>
      </trkpt>
      <trkpt lat="46.73629" lon="1.62142">
        <ele>125.33</ele>
        <time>2022-07-26T13:41:37.000Z</time>
      </trkpt>
      <trkpt lat="46.73629" lon="1.6211">
        <ele>122.08</ele>
        <time>2022-07-26T13:41:42.000Z</time>
      </trkpt>
      <trkpt lat="46.73631" lon="1.62084">
        <ele>122.23</ele>
        <time>2022-07-26T13:41:47.000Z</time>
      </trkpt>
      <trkpt lat="46.73632" lon="1.62066">
        <ele>125.77</ele>
        <time>2022-07-26T13:41:52.000Z</time>
      </trkpt>
      <trkpt lat="46.73634" lon="1.62053">
        <ele>126.59</ele>
        <time>2022-07-26T13:42:29.000Z</time>
      </trkpt>
      <trkpt lat="46.73639" lon="1.62029">
        <ele>125.99</ele>
        <time>2022-07-26T13:42:33.437Z</time>
      </trkpt>
      <trkpt lat="46.73642" lon="1.62009">
        <ele>126.82</ele>
        <time>2022-07-26T13:42:38.000Z</time>
      </trkpt>
      <trkpt lat="46.73645" lon="1.61974">
        <ele>126.29</ele>
        <time>2022-07-26T13:42:43.000Z</time>
      </trkpt>
      <trkpt lat="46.73651" lon="1.61936">
        <ele>126.45</ele>
        <time>2022-07-26T13:42:48.000Z</time>
      </trkpt>
      <trkpt lat="46.73654" lon="1.61901">
        <ele>127.64</ele>
        <time>2022-07-26T13:42:52.443Z</time>
      </trkpt>
      <trkpt lat="46.73656" lon="1.61883">
        <ele>129.22</ele>
        <time>2022-07-26T13:42:57.000Z</time>
      </trkpt>
      <trkpt lat="46.73659" lon="1.61857">
        <ele>128.86</ele>
        <time>2022-07-26T13:43:02.000Z</time>
      </trkpt>
      <trkpt lat="46.73661" lon="1.61832">
        <ele>128.05</ele>
        <time>2022-07-26T13:43:07.000Z</time>
      </trkpt>
      <trkpt lat="46.73663" lon="1.61815">
        <ele>127.74</ele>
        <time>2022-07-26T13:43:12.000Z</time>
      </trkpt>
      <trkpt lat="46.73655" lon="1.61821">
        <ele>127.73</ele>
        <time>2022-07-26T13:43:19.000Z</time>
      </trkpt>
      <trkpt lat="46.73652" lon="1.61835">
        <ele>129.1</ele>
        <time>2022-07-26T13:47:16.000Z</time>
      </trkpt>
      <trkpt lat="46.73647" lon="1.61848">
        <ele>126.81</ele>
        <time>2022-07-26T13:47:21.000Z</time>
      </trkpt>
      <trkpt lat="46.73641" lon="1.61863">
        <ele>124.79</ele>
        <time>2022-07-26T13:47:26.000Z</time>
      </trkpt>
      <trkpt lat="46.73635" lon="1.61878">
        <ele>123.81</ele>
        <time>2022-07-26T13:47:31.000Z</time>
      </trkpt>
      <trkpt lat="46.7363" lon="1.61896">
        <ele>124.87</ele>
        <time>2022-07-26T13:47:36.000Z</time>
      </trkpt>
      <trkpt lat="46.73624" lon="1.61913">
        <ele>124.6</ele>
        <time>2022-07-26T13:47:41.000Z</time>
      </trkpt>
      <trkpt lat="46.73633" lon="1.61903">
        <ele>125.64</ele>
        <time>2022-07-26T13:47:48.000Z</time>
      </trkpt>
      <trkpt lat="46.73641" lon="1.61881">
        <ele>127.13</ele>
        <time>2022-07-26T13:47:53.000Z</time>
      </trkpt>
      <trkpt lat="46.73649" lon="1.61858">
        <ele>128.32</ele>
        <time>2022-07-26T13:47:58.000Z</time>
      </trkpt>
      <trkpt lat="46.73657" lon="1.61834">
        <ele>129.26</ele>
        <time>2022-07-26T13:48:03.000Z</time>
      </trkpt>
      <trkpt lat="46.73666" lon="1.6181">
        <ele>129.44</ele>
        <time>2022-07-26T13:48:08.000Z</time>
      </trkpt>
      <trkpt lat="46.73671" lon="1.6178">
        <ele>128.18</ele>
        <time>2022-07-26T13:48:14.000Z</time>
      </trkpt>
      <trkpt lat="46.73682" lon="1.61756">
        <ele>128.02</ele>
        <time>2022-07-26T13:48:19.000Z</time>
      </trkpt>
      <trkpt lat="46.73691" lon="1.61732">
        <ele>128.63</ele>
        <time>2022-07-26T13:48:24.000Z</time>
      </trkpt>
      <trkpt lat="46.737" lon="1.61707">
        <ele>129.8</ele>
        <time>2022-07-26T13:48:29.000Z</time>
      </trkpt>
      <trkpt lat="46.73707" lon="1.61683">
        <ele>130.76</ele>
        <time>2022-07-26T13:48:34.000Z</time>
      </trkpt>
      <trkpt lat="46.73714" lon="1.61656">
        <ele>130.62</ele>
        <time>2022-07-26T13:48:39.000Z</time>
      </trkpt>
      <trkpt lat="46.73717" lon="1.6163">
        <ele>130.36</ele>
        <time>2022-07-26T13:48:44.000Z</time>
      </trkpt>
      <trkpt lat="46.7372" lon="1.61605">
        <ele>131.01</ele>
        <time>2022-07-26T13:48:49.000Z</time>
      </trkpt>
      <trkpt lat="46.73721" lon="1.61578">
        <ele>131.77</ele>
        <time>2022-07-26T13:48:54.000Z</time>
      </trkpt>
      <trkpt lat="46.73723" lon="1.61552">
        <ele>131.79</ele>
        <time>2022-07-26T13:48:59.000Z</time>
      </trkpt>
      <trkpt lat="46.73723" lon="1.61529">
        <ele>131.6</ele>
        <time>2022-07-26T13:49:04.000Z</time>
      </trkpt>
      <trkpt lat="46.7373" lon="1.61516">
        <ele>133.3</ele>
        <time>2022-07-26T13:49:09.000Z</time>
      </trkpt>
      <trkpt lat="46.73722" lon="1.615">
        <ele>134.45</ele>
        <time>2022-07-26T13:49:14.000Z</time>
      </trkpt>
      <trkpt lat="46.73707" lon="1.61488">
        <ele>134.43</ele>
        <time>2022-07-26T13:49:19.000Z</time>
      </trkpt>
      <trkpt lat="46.73687" lon="1.61476">
        <ele>134.47</ele>
        <time>2022-07-26T13:49:25.000Z</time>
      </trkpt>
      <trkpt lat="46.73673" lon="1.61464">
        <ele>134.02</ele>
        <time>2022-07-26T13:49:30.000Z</time>
      </trkpt>
      <trkpt lat="46.73657" lon="1.61447">
        <ele>133.94</ele>
        <time>2022-07-26T13:49:35.000Z</time>
      </trkpt>
      <trkpt lat="46.7364" lon="1.6143">
        <ele>132.98</ele>
        <time>2022-07-26T13:49:40.000Z</time>
      </trkpt>
      <trkpt lat="46.73618" lon="1.61409">
        <ele>131.52</ele>
        <time>2022-07-26T13:49:45.000Z</time>
      </trkpt>
      <trkpt lat="46.73595" lon="1.61383">
        <ele>130.16</ele>
        <time>2022-07-26T13:49:50.000Z</time>
      </trkpt>
      <trkpt lat="46.73566" lon="1.61365">
        <ele>129.29</ele>
        <time>2022-07-26T13:49:55.000Z</time>
      </trkpt>
      <trkpt lat="46.73536" lon="1.6134">
        <ele>129.02</ele>
        <time>2022-07-26T13:50:00.000Z</time>
      </trkpt>
      <trkpt lat="46.73504" lon="1.61313">
        <ele>127.53</ele>
        <time>2022-07-26T13:50:05.000Z</time>
      </trkpt>
      <trkpt lat="46.7347" lon="1.61284">
        <ele>126.93</ele>
        <time>2022-07-26T13:50:10.000Z</time>
      </trkpt>
      <trkpt lat="46.73438" lon="1.61257">
        <ele>127.33</ele>
        <time>2022-07-26T13:50:15.000Z</time>
      </trkpt>
      <trkpt lat="46.73409" lon="1.61231">
        <ele>127.83</ele>
        <time>2022-07-26T13:50:20.000Z</time>
      </trkpt>
      <trkpt lat="46.73382" lon="1.61207">
        <ele>127.42</ele>
        <time>2022-07-26T13:50:25.000Z</time>
      </trkpt>
      <trkpt lat="46.73355" lon="1.61184">
        <ele>127.43</ele>
        <time>2022-07-26T13:50:30.000Z</time>
      </trkpt>
      <trkpt lat="46.73328" lon="1.61161">
        <ele>127.18</ele>
        <time>2022-07-26T13:50:35.000Z</time>
      </trkpt>
      <trkpt lat="46.73302" lon="1.61138">
        <ele>126.99</ele>
        <time>2022-07-26T13:50:40.000Z</time>
      </trkpt>
      <trkpt lat="46.73277" lon="1.61116">
        <ele>127.2</ele>
        <time>2022-07-26T13:50:45.000Z</time>
      </trkpt>
      <trkpt lat="46.73253" lon="1.61096">
        <ele>127.69</ele>
        <time>2022-07-26T13:50:50.000Z</time>
      </trkpt>
      <trkpt lat="46.73229" lon="1.61075">
        <ele>127.74</ele>
        <time>2022-07-26T13:50:55.000Z</time>
      </trkpt>
      <trkpt lat="46.73203" lon="1.61054">
        <ele>127.3</ele>
        <time>2022-07-26T13:51:00.000Z</time>
      </trkpt>
      <trkpt lat="46.73177" lon="1.61032">
        <ele>126.13</ele>
        <time>2022-07-26T13:51:05.000Z</time>
      </trkpt>
      <trkpt lat="46.73149" lon="1.61008">
        <ele>124.28</ele>
        <time>2022-07-26T13:51:10.000Z</time>
      </trkpt>
      <trkpt lat="46.73121" lon="1.60983">
        <ele>122.48</ele>
        <time>2022-07-26T13:51:15.000Z</time>
      </trkpt>
      <trkpt lat="46.73092" lon="1.6096">
        <ele>121.06</ele>
        <time>2022-07-26T13:51:20.000Z</time>
      </trkpt>
      <trkpt lat="46.73063" lon="1.60936">
        <ele>119.1</ele>
        <time>2022-07-26T13:51:25.000Z</time>
      </trkpt>
      <trkpt lat="46.73032" lon="1.6091">
        <ele>118.42</ele>
        <time>2022-07-26T13:51:30.000Z</time>
      </trkpt>
      <trkpt lat="46.73" lon="1.60884">
        <ele>117.39</ele>
        <time>2022-07-26T13:51:35.000Z</time>
      </trkpt>
      <trkpt lat="46.72969" lon="1.60857">
        <ele>117.4</ele>
        <time>2022-07-26T13:51:40.000Z</time>
      </trkpt>
      <trkpt lat="46.72937" lon="1.60828">
        <ele>115.78</ele>
        <time>2022-07-26T13:51:45.000Z</time>
      </trkpt>
      <trkpt lat="46.72905" lon="1.608">
        <ele>115.2</ele>
        <time>2022-07-26T13:51:50.000Z</time>
      </trkpt>
      <trkpt lat="46.72873" lon="1.60773">
        <ele>114.15</ele>
        <time>2022-07-26T13:51:55.000Z</time>
      </trkpt>
      <trkpt lat="46.72843" lon="1.60748">
        <ele>113.02</ele>
        <time>2022-07-26T13:52:00.000Z</time>
      </trkpt>
      <trkpt lat="46.72816" lon="1.60726">
        <ele>111.83</ele>
        <time>2022-07-26T13:52:05.000Z</time>
      </trkpt>
      <trkpt lat="46.72787" lon="1.60709">
        <ele>112.05</ele>
        <time>2022-07-26T13:52:10.000Z</time>
      </trkpt>
      <trkpt lat="46.72757" lon="1.60695">
        <ele>113.73</ele>
        <time>2022-07-26T13:52:15.000Z</time>
      </trkpt>
      <trkpt lat="46.72728" lon="1.60684">
        <ele>114.64</ele>
        <time>2022-07-26T13:52:20.000Z</time>
      </trkpt>
      <trkpt lat="46.72698" lon="1.60676">
        <ele>114.73</ele>
        <time>2022-07-26T13:52:25.000Z</time>
      </trkpt>
      <trkpt lat="46.72668" lon="1.60672">
        <ele>114.24</ele>
        <time>2022-07-26T13:52:30.000Z</time>
      </trkpt>
      <trkpt lat="46.72638" lon="1.60671">
        <ele>111.73</ele>
        <time>2022-07-26T13:52:35.000Z</time>
      </trkpt>
      <trkpt lat="46.72608" lon="1.60674">
        <ele>111.62</ele>
        <time>2022-07-26T13:52:40.000Z</time>
      </trkpt>
      <trkpt lat="46.72575" lon="1.60679">
        <ele>111.68</ele>
        <time>2022-07-26T13:52:45.000Z</time>
      </trkpt>
      <trkpt lat="46.72543" lon="1.60683">
        <ele>111.42</ele>
        <time>2022-07-26T13:52:50.000Z</time>
      </trkpt>
      <trkpt lat="46.72508" lon="1.60685">
        <ele>109.13</ele>
        <time>2022-07-26T13:52:55.000Z</time>
      </trkpt>
      <trkpt lat="46.7247" lon="1.60683">
        <ele>108.8</ele>
        <time>2022-07-26T13:53:00.000Z</time>
      </trkpt>
      <trkpt lat="46.72431" lon="1.60675">
        <ele>109.37</ele>
        <time>2022-07-26T13:53:05.000Z</time>
      </trkpt>
      <trkpt lat="46.72392" lon="1.60661">
        <ele>109.56</ele>
        <time>2022-07-26T13:53:10.000Z</time>
      </trkpt>
      <trkpt lat="46.72354" lon="1.6064">
        <ele>110.58</ele>
        <time>2022-07-26T13:53:15.000Z</time>
      </trkpt>
      <trkpt lat="46.72317" lon="1.60613">
        <ele>109.88</ele>
        <time>2022-07-26T13:53:20.000Z</time>
      </trkpt>
      <trkpt lat="46.72283" lon="1.60579">
        <ele>108.69</ele>
        <time>2022-07-26T13:53:25.000Z</time>
      </trkpt>
      <trkpt lat="46.7225" lon="1.60541">
        <ele>107.11</ele>
        <time>2022-07-26T13:53:30.000Z</time>
      </trkpt>
      <trkpt lat="46.72221" lon="1.60497">
        <ele>106.22</ele>
        <time>2022-07-26T13:53:35.000Z</time>
      </trkpt>
      <trkpt lat="46.72196" lon="1.60452">
        <ele>104.5</ele>
        <time>2022-07-26T13:53:40.000Z</time>
      </trkpt>
      <trkpt lat="46.72175" lon="1.60404">
        <ele>103.95</ele>
        <time>2022-07-26T13:53:45.000Z</time>
      </trkpt>
      <trkpt lat="46.72159" lon="1.60356">
        <ele>104.08</ele>
        <time>2022-07-26T13:53:50.000Z</time>
      </trkpt>
      <trkpt lat="46.72144" lon="1.60309">
        <ele>103.49</ele>
        <time>2022-07-26T13:53:55.000Z</time>
      </trkpt>
      <trkpt lat="46.72129" lon="1.60264">
        <ele>102.76</ele>
        <time>2022-07-26T13:54:00.000Z</time>
      </trkpt>
      <trkpt lat="46.72115" lon="1.60219">
        <ele>102.61</ele>
        <time>2022-07-26T13:54:05.000Z</time>
      </trkpt>
      <trkpt lat="46.72097" lon="1.60176">
        <ele>103.77</ele>
        <time>2022-07-26T13:54:10.000Z</time>
      </trkpt>
      <trkpt lat="46.72079" lon="1.60137">
        <ele>104.01</ele>
        <time>2022-07-26T13:54:15.000Z</time>
      </trkpt>
      <trkpt lat="46.72058" lon="1.60102">
        <ele>103.77</ele>
        <time>2022-07-26T13:54:20.000Z</time>
      </trkpt>
      <trkpt lat="46.72036" lon="1.60069">
        <ele>104.45</ele>
        <time>2022-07-26T13:54:25.000Z</time>
      </trkpt>
      <trkpt lat="46.72013" lon="1.60039">
        <ele>104.78</ele>
        <time>2022-07-26T13:54:30.000Z</time>
      </trkpt>
      <trkpt lat="46.71988" lon="1.60012">
        <ele>102.96</ele>
        <time>2022-07-26T13:54:35.000Z</time>
      </trkpt>
      <trkpt lat="46.7196" lon="1.59988">
        <ele>101.89</ele>
        <time>2022-07-26T13:54:40.000Z</time>
      </trkpt>
      <trkpt lat="46.71932" lon="1.59967">
        <ele>101.98</ele>
        <time>2022-07-26T13:54:45.000Z</time>
      </trkpt>
      <trkpt lat="46.71904" lon="1.59952">
        <ele>104.03</ele>
        <time>2022-07-26T13:54:50.000Z</time>
      </trkpt>
      <trkpt lat="46.71877" lon="1.59939">
        <ele>105.38</ele>
        <time>2022-07-26T13:54:55.000Z</time>
      </trkpt>
      <trkpt lat="46.7185" lon="1.5993">
        <ele>105.75</ele>
        <time>2022-07-26T13:55:00.000Z</time>
      </trkpt>
      <trkpt lat="46.71825" lon="1.59922">
        <ele>106.05</ele>
        <time>2022-07-26T13:55:05.000Z</time>
      </trkpt>
      <trkpt lat="46.71802" lon="1.59915">
        <ele>105.74</ele>
        <time>2022-07-26T13:55:10.000Z</time>
      </trkpt>
      <trkpt lat="46.71781" lon="1.59908">
        <ele>106.88</ele>
        <time>2022-07-26T13:55:15.000Z</time>
      </trkpt>
      <trkpt lat="46.71758" lon="1.59901">
        <ele>107.82</ele>
        <time>2022-07-26T13:55:20.000Z</time>
      </trkpt>
      <trkpt lat="46.71736" lon="1.59893">
        <ele>109.79</ele>
        <time>2022-07-26T13:55:25.000Z</time>
      </trkpt>
      <trkpt lat="46.71717" lon="1.59882">
        <ele>111.9</ele>
        <time>2022-07-26T13:55:30.000Z</time>
      </trkpt>
      <trkpt lat="46.71695" lon="1.59863">
        <ele>111.91</ele>
        <time>2022-07-26T13:55:35.000Z</time>
      </trkpt>
      <trkpt lat="46.71674" lon="1.59846">
        <ele>111.5</ele>
        <time>2022-07-26T13:55:40.000Z</time>
      </trkpt>
      <trkpt lat="46.71655" lon="1.59824">
        <ele>111.21</ele>
        <time>2022-07-26T13:55:45.000Z</time>
      </trkpt>
      <trkpt lat="46.71636" lon="1.59797">
        <ele>110.21</ele>
        <time>2022-07-26T13:55:50.000Z</time>
      </trkpt>
      <trkpt lat="46.71616" lon="1.59766">
        <ele>110.04</ele>
        <time>2022-07-26T13:55:55.000Z</time>
      </trkpt>
      <trkpt lat="46.71595" lon="1.59731">
        <ele>108.27</ele>
        <time>2022-07-26T13:56:00.000Z</time>
      </trkpt>
      <trkpt lat="46.71574" lon="1.59694">
        <ele>106.19</ele>
        <time>2022-07-26T13:56:05.000Z</time>
      </trkpt>
      <trkpt lat="46.71548" lon="1.59656">
        <ele>104.72</ele>
        <time>2022-07-26T13:56:10.000Z</time>
      </trkpt>
      <trkpt lat="46.71521" lon="1.59619">
        <ele>103.82</ele>
        <time>2022-07-26T13:56:15.000Z</time>
      </trkpt>
      <trkpt lat="46.71491" lon="1.59586">
        <ele>104.16</ele>
        <time>2022-07-26T13:56:20.000Z</time>
      </trkpt>
      <trkpt lat="46.7146" lon="1.59557">
        <ele>103.78</ele>
        <time>2022-07-26T13:56:25.000Z</time>
      </trkpt>
      <trkpt lat="46.7143" lon="1.59531">
        <ele>102.82</ele>
        <time>2022-07-26T13:56:30.000Z</time>
      </trkpt>
      <trkpt lat="46.71403" lon="1.59506">
        <ele>101.45</ele>
        <time>2022-07-26T13:56:35.000Z</time>
      </trkpt>
      <trkpt lat="46.71375" lon="1.59483">
        <ele>101.43</ele>
        <time>2022-07-26T13:56:40.000Z</time>
      </trkpt>
      <trkpt lat="46.71348" lon="1.5946">
        <ele>101.6</ele>
        <time>2022-07-26T13:56:45.000Z</time>
      </trkpt>
      <trkpt lat="46.71322" lon="1.59437">
        <ele>102.46</ele>
        <time>2022-07-26T13:56:50.000Z</time>
      </trkpt>
      <trkpt lat="46.71297" lon="1.59416">
        <ele>102.31</ele>
        <time>2022-07-26T13:56:55.000Z</time>
      </trkpt>
      <trkpt lat="46.71273" lon="1.59395">
        <ele>101.79</ele>
        <time>2022-07-26T13:57:00.000Z</time>
      </trkpt>
      <trkpt lat="46.71249" lon="1.59376">
        <ele>102.86</ele>
        <time>2022-07-26T13:57:05.000Z</time>
      </trkpt>
      <trkpt lat="46.71227" lon="1.59357">
        <ele>103.88</ele>
        <time>2022-07-26T13:57:10.000Z</time>
      </trkpt>
      <trkpt lat="46.71204" lon="1.59337">
        <ele>105.01</ele>
        <time>2022-07-26T13:57:15.000Z</time>
      </trkpt>
      <trkpt lat="46.71182" lon="1.59319">
        <ele>104.51</ele>
        <time>2022-07-26T13:57:20.000Z</time>
      </trkpt>
      <trkpt lat="46.71161" lon="1.59301">
        <ele>103.89</ele>
        <time>2022-07-26T13:57:25.000Z</time>
      </trkpt>
      <trkpt lat="46.71138" lon="1.59282">
        <ele>104.83</ele>
        <time>2022-07-26T13:57:30.000Z</time>
      </trkpt>
      <trkpt lat="46.71116" lon="1.59263">
        <ele>105.36</ele>
        <time>2022-07-26T13:57:35.000Z</time>
      </trkpt>
      <trkpt lat="46.71093" lon="1.59243">
        <ele>105.25</ele>
        <time>2022-07-26T13:57:40.000Z</time>
      </trkpt>
      <trkpt lat="46.7107" lon="1.59222">
        <ele>105.07</ele>
        <time>2022-07-26T13:57:45.000Z</time>
      </trkpt>
      <trkpt lat="46.71048" lon="1.59202">
        <ele>105.47</ele>
        <time>2022-07-26T13:57:50.000Z</time>
      </trkpt>
      <trkpt lat="46.71025" lon="1.59181">
        <ele>105.51</ele>
        <time>2022-07-26T13:57:55.000Z</time>
      </trkpt>
      <trkpt lat="46.71002" lon="1.59159">
        <ele>105.67</ele>
        <time>2022-07-26T13:58:00.000Z</time>
      </trkpt>
      <trkpt lat="46.70982" lon="1.59137">
        <ele>106.56</ele>
        <time>2022-07-26T13:58:05.000Z</time>
      </trkpt>
      <trkpt lat="46.7096" lon="1.59118">
        <ele>106.6</ele>
        <time>2022-07-26T13:58:10.000Z</time>
      </trkpt>
      <trkpt lat="46.70938" lon="1.59102">
        <ele>107.02</ele>
        <time>2022-07-26T13:58:15.000Z</time>
      </trkpt>
      <trkpt lat="46.70916" lon="1.59087">
        <ele>107.12</ele>
        <time>2022-07-26T13:58:20.000Z</time>
      </trkpt>
      <trkpt lat="46.70892" lon="1.59075">
        <ele>107.43</ele>
        <time>2022-07-26T13:58:25.000Z</time>
      </trkpt>
      <trkpt lat="46.70867" lon="1.59065">
        <ele>107.37</ele>
        <time>2022-07-26T13:58:30.000Z</time>
      </trkpt>
      <trkpt lat="46.7084" lon="1.59054">
        <ele>107.17</ele>
        <time>2022-07-26T13:58:35.000Z</time>
      </trkpt>
      <trkpt lat="46.70814" lon="1.59044">
        <ele>108.05</ele>
        <time>2022-07-26T13:58:40.000Z</time>
      </trkpt>
      <trkpt lat="46.7079" lon="1.59034">
        <ele>107.75</ele>
        <time>2022-07-26T13:58:45.000Z</time>
      </trkpt>
      <trkpt lat="46.70765" lon="1.59024">
        <ele>107.84</ele>
        <time>2022-07-26T13:58:50.000Z</time>
      </trkpt>
      <trkpt lat="46.7074" lon="1.59014">
        <ele>107.77</ele>
        <time>2022-07-26T13:58:55.000Z</time>
      </trkpt>
      <trkpt lat="46.70715" lon="1.59003">
        <ele>108.5</ele>
        <time>2022-07-26T13:59:00.000Z</time>
      </trkpt>
      <trkpt lat="46.7069" lon="1.58991">
        <ele>106.69</ele>
        <time>2022-07-26T13:59:05.000Z</time>
      </trkpt>
      <trkpt lat="46.70665" lon="1.58983">
        <ele>107.13</ele>
        <time>2022-07-26T13:59:10.000Z</time>
      </trkpt>
      <trkpt lat="46.70639" lon="1.58973">
        <ele>108.33</ele>
        <time>2022-07-26T13:59:15.000Z</time>
      </trkpt>
      <trkpt lat="46.70613" lon="1.58962">
        <ele>108.74</ele>
        <time>2022-07-26T13:59:20.000Z</time>
      </trkpt>
      <trkpt lat="46.70588" lon="1.58951">
        <ele>108.42</ele>
        <time>2022-07-26T13:59:25.000Z</time>
      </trkpt>
      <trkpt lat="46.70562" lon="1.58941">
        <ele>108.3</ele>
        <time>2022-07-26T13:59:30.000Z</time>
      </trkpt>
      <trkpt lat="46.70536" lon="1.5893">
        <ele>108.3</ele>
        <time>2022-07-26T13:59:35.000Z</time>
      </trkpt>
      <trkpt lat="46.70511" lon="1.5892">
        <ele>107.96</ele>
        <time>2022-07-26T13:59:40.000Z</time>
      </trkpt>
      <trkpt lat="46.70485" lon="1.58909">
        <ele>108.2</ele>
        <time>2022-07-26T13:59:45.000Z</time>
      </trkpt>
      <trkpt lat="46.70459" lon="1.58898">
        <ele>107.92</ele>
        <time>2022-07-26T13:59:50.000Z</time>
      </trkpt>
      <trkpt lat="46.70431" lon="1.58889">
        <ele>109.93</ele>
        <time>2022-07-26T13:59:55.000Z</time>
      </trkpt>
      <trkpt lat="46.70403" lon="1.58876">
        <ele>108.64</ele>
        <time>2022-07-26T14:00:00.000Z</time>
      </trkpt>
      <trkpt lat="46.70376" lon="1.58866">
        <ele>108.27</ele>
        <time>2022-07-26T14:00:05.000Z</time>
      </trkpt>
      <trkpt lat="46.7035" lon="1.58856">
        <ele>108.85</ele>
        <time>2022-07-26T14:00:10.000Z</time>
      </trkpt>
      <trkpt lat="46.70325" lon="1.58845">
        <ele>109.35</ele>
        <time>2022-07-26T14:00:15.000Z</time>
      </trkpt>
      <trkpt lat="46.70299" lon="1.58834">
        <ele>108.7</ele>
        <time>2022-07-26T14:00:20.000Z</time>
      </trkpt>
      <trkpt lat="46.70273" lon="1.58823">
        <ele>108.01</ele>
        <time>2022-07-26T14:00:25.000Z</time>
      </trkpt>
      <trkpt lat="46.70246" lon="1.58813">
        <ele>107.87</ele>
        <time>2022-07-26T14:00:30.000Z</time>
      </trkpt>
      <trkpt lat="46.70219" lon="1.58801">
        <ele>108.54</ele>
        <time>2022-07-26T14:00:35.000Z</time>
      </trkpt>
      <trkpt lat="46.70189" lon="1.58788">
        <ele>108.1</ele>
        <time>2022-07-26T14:00:40.000Z</time>
      </trkpt>
      <trkpt lat="46.70157" lon="1.58775">
        <ele>107.87</ele>
        <time>2022-07-26T14:00:45.000Z</time>
      </trkpt>
      <trkpt lat="46.70127" lon="1.58767">
        <ele>109.27</ele>
        <time>2022-07-26T14:00:50.000Z</time>
      </trkpt>
      <trkpt lat="46.70096" lon="1.58751">
        <ele>109.18</ele>
        <time>2022-07-26T14:00:55.000Z</time>
      </trkpt>
      <trkpt lat="46.70068" lon="1.58737">
        <ele>108.62</ele>
        <time>2022-07-26T14:01:00.000Z</time>
      </trkpt>
      <trkpt lat="46.70038" lon="1.58724">
        <ele>108.28</ele>
        <time>2022-07-26T14:01:05.000Z</time>
      </trkpt>
      <trkpt lat="46.70007" lon="1.58713">
        <ele>108.36</ele>
        <time>2022-07-26T14:01:10.000Z</time>
      </trkpt>
      <trkpt lat="46.69979" lon="1.58701">
        <ele>108.38</ele>
        <time>2022-07-26T14:01:15.000Z</time>
      </trkpt>
      <trkpt lat="46.69952" lon="1.5869">
        <ele>108.54</ele>
        <time>2022-07-26T14:01:20.000Z</time>
      </trkpt>
      <trkpt lat="46.69925" lon="1.58673">
        <ele>107.69</ele>
        <time>2022-07-26T14:01:25.000Z</time>
      </trkpt>
      <trkpt lat="46.69922" lon="1.58632">
        <ele>105.91</ele>
        <time>2022-07-26T14:01:30.000Z</time>
      </trkpt>
      <trkpt lat="46.69929" lon="1.58591">
        <ele>105.66</ele>
        <time>2022-07-26T14:01:35.000Z</time>
      </trkpt>
      <trkpt lat="46.69934" lon="1.58552">
        <ele>107.32</ele>
        <time>2022-07-26T14:01:40.000Z</time>
      </trkpt>
      <trkpt lat="46.69939" lon="1.58524">
        <ele>108.44</ele>
        <time>2022-07-26T14:01:45.000Z</time>
      </trkpt>
      <trkpt lat="46.69941" lon="1.58494">
        <ele>110.26</ele>
        <time>2022-07-26T14:01:50.000Z</time>
      </trkpt>
      <trkpt lat="46.69943" lon="1.58473">
        <ele>112.94</ele>
        <time>2022-07-26T14:01:55.000Z</time>
      </trkpt>
      <trkpt lat="46.69945" lon="1.5845">
        <ele>114.82</ele>
        <time>2022-07-26T14:02:00.000Z</time>
      </trkpt>
      <trkpt lat="46.69945" lon="1.58424">
        <ele>117.01</ele>
        <time>2022-07-26T14:02:05.000Z</time>
      </trkpt>
      <trkpt lat="46.69945" lon="1.58396">
        <ele>117.63</ele>
        <time>2022-07-26T14:02:10.000Z</time>
      </trkpt>
      <trkpt lat="46.69946" lon="1.58365">
        <ele>117.01</ele>
        <time>2022-07-26T14:02:15.000Z</time>
      </trkpt>
      <trkpt lat="46.69947" lon="1.5833">
        <ele>115.35</ele>
        <time>2022-07-26T14:02:20.000Z</time>
      </trkpt>
      <trkpt lat="46.6995" lon="1.58292">
        <ele>113.69</ele>
        <time>2022-07-26T14:02:25.000Z</time>
      </trkpt>
      <trkpt lat="46.6995" lon="1.58254">
        <ele>112.74</ele>
        <time>2022-07-26T14:02:30.000Z</time>
      </trkpt>
      <trkpt lat="46.69947" lon="1.58208">
        <ele>111.78</ele>
        <time>2022-07-26T14:02:35.000Z</time>
      </trkpt>
      <trkpt lat="46.69942" lon="1.58158">
        <ele>110.37</ele>
        <time>2022-07-26T14:02:40.000Z</time>
      </trkpt>
      <trkpt lat="46.69934" lon="1.58105">
        <ele>108.36</ele>
        <time>2022-07-26T14:02:45.000Z</time>
      </trkpt>
      <trkpt lat="46.69925" lon="1.58053">
        <ele>105.73</ele>
        <time>2022-07-26T14:02:50.000Z</time>
      </trkpt>
      <trkpt lat="46.69915" lon="1.5801">
        <ele>103.31</ele>
        <time>2022-07-26T14:02:55.000Z</time>
      </trkpt>
      <trkpt lat="46.69907" lon="1.57971">
        <ele>102.79</ele>
        <time>2022-07-26T14:03:00.000Z</time>
      </trkpt>
      <trkpt lat="46.69898" lon="1.57934">
        <ele>101.43</ele>
        <time>2022-07-26T14:03:05.000Z</time>
      </trkpt>
      <trkpt lat="46.69887" lon="1.57895">
        <ele>99.3</ele>
        <time>2022-07-26T14:03:10.000Z</time>
      </trkpt>
      <trkpt lat="46.69876" lon="1.5785">
        <ele>99.22</ele>
        <time>2022-07-26T14:03:15.000Z</time>
      </trkpt>
      <trkpt lat="46.69864" lon="1.57807">
        <ele>98.44</ele>
        <time>2022-07-26T14:03:20.000Z</time>
      </trkpt>
      <trkpt lat="46.69856" lon="1.57764">
        <ele>99.89</ele>
        <time>2022-07-26T14:03:25.000Z</time>
      </trkpt>
      <trkpt lat="46.69849" lon="1.57718">
        <ele>99.68</ele>
        <time>2022-07-26T14:03:30.000Z</time>
      </trkpt>
      <trkpt lat="46.69842" lon="1.57673">
        <ele>98.68</ele>
        <time>2022-07-26T14:03:35.000Z</time>
      </trkpt>
      <trkpt lat="46.69833" lon="1.5763">
        <ele>97.25</ele>
        <time>2022-07-26T14:03:40.000Z</time>
      </trkpt>
      <trkpt lat="46.69824" lon="1.57587">
        <ele>95.43</ele>
        <time>2022-07-26T14:03:45.000Z</time>
      </trkpt>
      <trkpt lat="46.69815" lon="1.57547">
        <ele>94.56</ele>
        <time>2022-07-26T14:03:50.000Z</time>
      </trkpt>
      <trkpt lat="46.69804" lon="1.57504">
        <ele>94.05</ele>
        <time>2022-07-26T14:03:55.000Z</time>
      </trkpt>
      <trkpt lat="46.69796" lon="1.57459">
        <ele>94.77</ele>
        <time>2022-07-26T14:04:00.000Z</time>
      </trkpt>
      <trkpt lat="46.69786" lon="1.57417">
        <ele>94.99</ele>
        <time>2022-07-26T14:04:05.000Z</time>
      </trkpt>
      <trkpt lat="46.69775" lon="1.57375">
        <ele>97.01</ele>
        <time>2022-07-26T14:04:10.000Z</time>
      </trkpt>
      <trkpt lat="46.69764" lon="1.57332">
        <ele>99.33</ele>
        <time>2022-07-26T14:04:15.000Z</time>
      </trkpt>
      <trkpt lat="46.69755" lon="1.57288">
        <ele>99.53</ele>
        <time>2022-07-26T14:04:20.000Z</time>
      </trkpt>
      <trkpt lat="46.69747" lon="1.57244">
        <ele>100.85</ele>
        <time>2022-07-26T14:04:25.000Z</time>
      </trkpt>
      <trkpt lat="46.69741" lon="1.57202">
        <ele>102.39</ele>
        <time>2022-07-26T14:04:30.000Z</time>
      </trkpt>
      <trkpt lat="46.69736" lon="1.57158">
        <ele>104.58</ele>
        <time>2022-07-26T14:04:35.000Z</time>
      </trkpt>
      <trkpt lat="46.69735" lon="1.5712">
        <ele>107.72</ele>
        <time>2022-07-26T14:04:40.000Z</time>
      </trkpt>
      <trkpt lat="46.69733" lon="1.57083">
        <ele>107.4</ele>
        <time>2022-07-26T14:04:45.000Z</time>
      </trkpt>
      <trkpt lat="46.69734" lon="1.5705">
        <ele>106.88</ele>
        <time>2022-07-26T14:04:50.000Z</time>
      </trkpt>
      <trkpt lat="46.69735" lon="1.57024">
        <ele>108.13</ele>
        <time>2022-07-26T14:04:55.000Z</time>
      </trkpt>
      <trkpt lat="46.69728" lon="1.57009">
        <ele>107.53</ele>
        <time>2022-07-26T14:05:00.000Z</time>
      </trkpt>
      <trkpt lat="46.69707" lon="1.57002">
        <ele>106.85</ele>
        <time>2022-07-26T14:05:05.000Z</time>
      </trkpt>
      <trkpt lat="46.69686" lon="1.56982">
        <ele>105.37</ele>
        <time>2022-07-26T14:05:10.000Z</time>
      </trkpt>
      <trkpt lat="46.69673" lon="1.56943">
        <ele>104.52</ele>
        <time>2022-07-26T14:05:15.000Z</time>
      </trkpt>
      <trkpt lat="46.69664" lon="1.56905">
        <ele>102.73</ele>
        <time>2022-07-26T14:05:20.000Z</time>
      </trkpt>
      <trkpt lat="46.69655" lon="1.56865">
        <ele>102.13</ele>
        <time>2022-07-26T14:05:25.000Z</time>
      </trkpt>
      <trkpt lat="46.69645" lon="1.56824">
        <ele>103.23</ele>
        <time>2022-07-26T14:05:30.000Z</time>
      </trkpt>
      <trkpt lat="46.69635" lon="1.56783">
        <ele>105.27</ele>
        <time>2022-07-26T14:05:35.000Z</time>
      </trkpt>
      <trkpt lat="46.69626" lon="1.56741">
        <ele>104.89</ele>
        <time>2022-07-26T14:05:40.000Z</time>
      </trkpt>
      <trkpt lat="46.69616" lon="1.56698">
        <ele>104.29</ele>
        <time>2022-07-26T14:05:45.000Z</time>
      </trkpt>
      <trkpt lat="46.69606" lon="1.56655">
        <ele>102.99</ele>
        <time>2022-07-26T14:05:50.000Z</time>
      </trkpt>
      <trkpt lat="46.69597" lon="1.56613">
        <ele>103.54</ele>
        <time>2022-07-26T14:05:55.000Z</time>
      </trkpt>
      <trkpt lat="46.69588" lon="1.5657">
        <ele>103.14</ele>
        <time>2022-07-26T14:06:00.000Z</time>
      </trkpt>
      <trkpt lat="46.69579" lon="1.56531">
        <ele>103.24</ele>
        <time>2022-07-26T14:06:05.000Z</time>
      </trkpt>
      <trkpt lat="46.6957" lon="1.56495">
        <ele>105.36</ele>
        <time>2022-07-26T14:06:10.000Z</time>
      </trkpt>
      <trkpt lat="46.69563" lon="1.56474">
        <ele>104.92</ele>
        <time>2022-07-26T14:06:15.000Z</time>
      </trkpt>
      <trkpt lat="46.69555" lon="1.56491">
        <ele>101.01</ele>
        <time>2022-07-26T14:06:20.000Z</time>
      </trkpt>
      <trkpt lat="46.69536" lon="1.56515">
        <ele>99.51</ele>
        <time>2022-07-26T14:06:25.000Z</time>
      </trkpt>
      <trkpt lat="46.69516" lon="1.5654">
        <ele>98.81</ele>
        <time>2022-07-26T14:06:30.000Z</time>
      </trkpt>
      <trkpt lat="46.69495" lon="1.56566">
        <ele>98.76</ele>
        <time>2022-07-26T14:06:35.000Z</time>
      </trkpt>
      <trkpt lat="46.69473" lon="1.56594">
        <ele>99.24</ele>
        <time>2022-07-26T14:06:40.000Z</time>
      </trkpt>
      <trkpt lat="46.6945" lon="1.5662">
        <ele>100.03</ele>
        <time>2022-07-26T14:06:45.000Z</time>
      </trkpt>
      <trkpt lat="46.69427" lon="1.56651">
        <ele>99.45</ele>
        <time>2022-07-26T14:06:50.000Z</time>
      </trkpt>
      <trkpt lat="46.69406" lon="1.5668">
        <ele>100.62</ele>
        <time>2022-07-26T14:06:55.000Z</time>
      </trkpt>
      <trkpt lat="46.69384" lon="1.56708">
        <ele>102.25</ele>
        <time>2022-07-26T14:07:00.000Z</time>
      </trkpt>
      <trkpt lat="46.6936" lon="1.56734">
        <ele>102.86</ele>
        <time>2022-07-26T14:07:05.000Z</time>
      </trkpt>
      <trkpt lat="46.69333" lon="1.56751">
        <ele>103.62</ele>
        <time>2022-07-26T14:07:10.000Z</time>
      </trkpt>
      <trkpt lat="46.69304" lon="1.56762">
        <ele>103.7</ele>
        <time>2022-07-26T14:07:15.000Z</time>
      </trkpt>
      <trkpt lat="46.69275" lon="1.56768">
        <ele>103.21</ele>
        <time>2022-07-26T14:07:20.000Z</time>
      </trkpt>
      <trkpt lat="46.69246" lon="1.56774">
        <ele>102.3</ele>
        <time>2022-07-26T14:07:25.000Z</time>
      </trkpt>
      <trkpt lat="46.69217" lon="1.5678">
        <ele>102.41</ele>
        <time>2022-07-26T14:07:30.000Z</time>
      </trkpt>
      <trkpt lat="46.69188" lon="1.56785">
        <ele>102.37</ele>
        <time>2022-07-26T14:07:35.000Z</time>
      </trkpt>
      <trkpt lat="46.6916" lon="1.56782">
        <ele>102.16</ele>
        <time>2022-07-26T14:07:40.000Z</time>
      </trkpt>
      <trkpt lat="46.69134" lon="1.56773">
        <ele>100.1</ele>
        <time>2022-07-26T14:07:45.000Z</time>
      </trkpt>
      <trkpt lat="46.69109" lon="1.56761">
        <ele>98.88</ele>
        <time>2022-07-26T14:07:50.000Z</time>
      </trkpt>
      <trkpt lat="46.69084" lon="1.56747">
        <ele>99.44</ele>
        <time>2022-07-26T14:07:55.000Z</time>
      </trkpt>
      <trkpt lat="46.69058" lon="1.56734">
        <ele>100.1</ele>
        <time>2022-07-26T14:08:00.000Z</time>
      </trkpt>
      <trkpt lat="46.69032" lon="1.56721">
        <ele>99.49</ele>
        <time>2022-07-26T14:08:05.000Z</time>
      </trkpt>
      <trkpt lat="46.69006" lon="1.56709">
        <ele>99.51</ele>
        <time>2022-07-26T14:08:10.000Z</time>
      </trkpt>
      <trkpt lat="46.68981" lon="1.56698">
        <ele>98.57</ele>
        <time>2022-07-26T14:08:15.000Z</time>
      </trkpt>
      <trkpt lat="46.68955" lon="1.56687">
        <ele>98.13</ele>
        <time>2022-07-26T14:08:20.000Z</time>
      </trkpt>
      <trkpt lat="46.68932" lon="1.56676">
        <ele>99.22</ele>
        <time>2022-07-26T14:08:25.000Z</time>
      </trkpt>
      <trkpt lat="46.68907" lon="1.56667">
        <ele>99.3</ele>
        <time>2022-07-26T14:08:30.000Z</time>
      </trkpt>
      <trkpt lat="46.68881" lon="1.56657">
        <ele>98.72</ele>
        <time>2022-07-26T14:08:35.000Z</time>
      </trkpt>
      <trkpt lat="46.68855" lon="1.56646">
        <ele>99.19</ele>
        <time>2022-07-26T14:08:40.000Z</time>
      </trkpt>
      <trkpt lat="46.68828" lon="1.56635">
        <ele>99.26</ele>
        <time>2022-07-26T14:08:45.000Z</time>
      </trkpt>
      <trkpt lat="46.68801" lon="1.56625">
        <ele>99.92</ele>
        <time>2022-07-26T14:08:50.000Z</time>
      </trkpt>
      <trkpt lat="46.68772" lon="1.56613">
        <ele>99.47</ele>
        <time>2022-07-26T14:08:55.000Z</time>
      </trkpt>
      <trkpt lat="46.68742" lon="1.56597">
        <ele>99.08</ele>
        <time>2022-07-26T14:09:00.000Z</time>
      </trkpt>
      <trkpt lat="46.68714" lon="1.56578">
        <ele>98.01</ele>
        <time>2022-07-26T14:09:05.000Z</time>
      </trkpt>
      <trkpt lat="46.68685" lon="1.56557">
        <ele>96.77</ele>
        <time>2022-07-26T14:09:10.000Z</time>
      </trkpt>
      <trkpt lat="46.68656" lon="1.56533">
        <ele>96.65</ele>
        <time>2022-07-26T14:09:15.000Z</time>
      </trkpt>
      <trkpt lat="46.68629" lon="1.5651">
        <ele>95.63</ele>
        <time>2022-07-26T14:09:20.000Z</time>
      </trkpt>
      <trkpt lat="46.68602" lon="1.56488">
        <ele>95.81</ele>
        <time>2022-07-26T14:09:25.000Z</time>
      </trkpt>
      <trkpt lat="46.68577" lon="1.56467">
        <ele>96.66</ele>
        <time>2022-07-26T14:09:30.000Z</time>
      </trkpt>
      <trkpt lat="46.68553" lon="1.56447">
        <ele>97.41</ele>
        <time>2022-07-26T14:09:35.000Z</time>
      </trkpt>
      <trkpt lat="46.68531" lon="1.56427">
        <ele>98.62</ele>
        <time>2022-07-26T14:09:40.000Z</time>
      </trkpt>
      <trkpt lat="46.68506" lon="1.56407">
        <ele>99.61</ele>
        <time>2022-07-26T14:09:45.000Z</time>
      </trkpt>
      <trkpt lat="46.68481" lon="1.56387">
        <ele>99.51</ele>
        <time>2022-07-26T14:09:50.000Z</time>
      </trkpt>
      <trkpt lat="46.68457" lon="1.56366">
        <ele>99.87</ele>
        <time>2022-07-26T14:09:55.000Z</time>
      </trkpt>
      <trkpt lat="46.68433" lon="1.56347">
        <ele>99.59</ele>
        <time>2022-07-26T14:10:00.000Z</time>
      </trkpt>
      <trkpt lat="46.6841" lon="1.56328">
        <ele>99.75</ele>
        <time>2022-07-26T14:10:05.000Z</time>
      </trkpt>
      <trkpt lat="46.68387" lon="1.56309">
        <ele>99.65</ele>
        <time>2022-07-26T14:10:10.000Z</time>
      </trkpt>
      <trkpt lat="46.68364" lon="1.56289">
        <ele>99.7</ele>
        <time>2022-07-26T14:10:15.000Z</time>
      </trkpt>
      <trkpt lat="46.6834" lon="1.56269">
        <ele>99.97</ele>
        <time>2022-07-26T14:10:20.000Z</time>
      </trkpt>
      <trkpt lat="46.68316" lon="1.56249">
        <ele>100.7</ele>
        <time>2022-07-26T14:10:25.000Z</time>
      </trkpt>
      <trkpt lat="46.68292" lon="1.56228">
        <ele>100.85</ele>
        <time>2022-07-26T14:10:30.000Z</time>
      </trkpt>
      <trkpt lat="46.6827" lon="1.56208">
        <ele>100.91</ele>
        <time>2022-07-26T14:10:35.000Z</time>
      </trkpt>
      <trkpt lat="46.68248" lon="1.56189">
        <ele>99.16</ele>
        <time>2022-07-26T14:10:40.000Z</time>
      </trkpt>
      <trkpt lat="46.68225" lon="1.5617">
        <ele>96.34</ele>
        <time>2022-07-26T14:10:45.000Z</time>
      </trkpt>
      <trkpt lat="46.682" lon="1.56151">
        <ele>96.66</ele>
        <time>2022-07-26T14:10:50.000Z</time>
      </trkpt>
      <trkpt lat="46.68175" lon="1.56131">
        <ele>99.49</ele>
        <time>2022-07-26T14:10:55.000Z</time>
      </trkpt>
      <trkpt lat="46.68151" lon="1.56112">
        <ele>101.44</ele>
        <time>2022-07-26T14:11:00.000Z</time>
      </trkpt>
      <trkpt lat="46.68128" lon="1.56093">
        <ele>103.93</ele>
        <time>2022-07-26T14:11:05.000Z</time>
      </trkpt>
      <trkpt lat="46.68106" lon="1.56075">
        <ele>103.44</ele>
        <time>2022-07-26T14:11:10.000Z</time>
      </trkpt>
      <trkpt lat="46.68084" lon="1.56056">
        <ele>104.3</ele>
        <time>2022-07-26T14:11:15.000Z</time>
      </trkpt>
      <trkpt lat="46.68062" lon="1.56037">
        <ele>103.86</ele>
        <time>2022-07-26T14:11:20.000Z</time>
      </trkpt>
      <trkpt lat="46.6804" lon="1.56019">
        <ele>103.5</ele>
        <time>2022-07-26T14:11:25.000Z</time>
      </trkpt>
      <trkpt lat="46.68018" lon="1.56002">
        <ele>103.62</ele>
        <time>2022-07-26T14:11:30.000Z</time>
      </trkpt>
      <trkpt lat="46.67997" lon="1.55983">
        <ele>104.71</ele>
        <time>2022-07-26T14:11:35.000Z</time>
      </trkpt>
      <trkpt lat="46.67975" lon="1.55965">
        <ele>106.17</ele>
        <time>2022-07-26T14:11:40.000Z</time>
      </trkpt>
      <trkpt lat="46.67955" lon="1.55949">
        <ele>106.71</ele>
        <time>2022-07-26T14:11:45.000Z</time>
      </trkpt>
      <trkpt lat="46.67935" lon="1.55932">
        <ele>106.13</ele>
        <time>2022-07-26T14:11:50.000Z</time>
      </trkpt>
      <trkpt lat="46.67913" lon="1.55916">
        <ele>105.42</ele>
        <time>2022-07-26T14:11:55.000Z</time>
      </trkpt>
      <trkpt lat="46.67891" lon="1.55903">
        <ele>104.31</ele>
        <time>2022-07-26T14:12:00.000Z</time>
      </trkpt>
      <trkpt lat="46.67869" lon="1.55888">
        <ele>103.71</ele>
        <time>2022-07-26T14:12:05.000Z</time>
      </trkpt>
      <trkpt lat="46.67846" lon="1.55873">
        <ele>102.56</ele>
        <time>2022-07-26T14:12:10.000Z</time>
      </trkpt>
      <trkpt lat="46.67822" lon="1.55856">
        <ele>100.14</ele>
        <time>2022-07-26T14:12:15.000Z</time>
      </trkpt>
      <trkpt lat="46.67793" lon="1.55839">
        <ele>100.45</ele>
        <time>2022-07-26T14:12:20.000Z</time>
      </trkpt>
      <trkpt lat="46.67761" lon="1.55826">
        <ele>101.43</ele>
        <time>2022-07-26T14:12:25.000Z</time>
      </trkpt>
      <trkpt lat="46.67727" lon="1.55818">
        <ele>101.51</ele>
        <time>2022-07-26T14:12:30.000Z</time>
      </trkpt>
      <trkpt lat="46.67694" lon="1.5581">
        <ele>100.21</ele>
        <time>2022-07-26T14:12:35.000Z</time>
      </trkpt>
      <trkpt lat="46.6766" lon="1.55802">
        <ele>100.01</ele>
        <time>2022-07-26T14:12:40.000Z</time>
      </trkpt>
      <trkpt lat="46.67624" lon="1.55794">
        <ele>98.98</ele>
        <time>2022-07-26T14:12:45.000Z</time>
      </trkpt>
      <trkpt lat="46.67587" lon="1.55784">
        <ele>98.99</ele>
        <time>2022-07-26T14:12:50.000Z</time>
      </trkpt>
      <trkpt lat="46.67554" lon="1.55772">
        <ele>99.48</ele>
        <time>2022-07-26T14:12:55.000Z</time>
      </trkpt>
      <trkpt lat="46.67522" lon="1.55761">
        <ele>99.45</ele>
        <time>2022-07-26T14:13:00.000Z</time>
      </trkpt>
      <trkpt lat="46.67491" lon="1.55746">
        <ele>101.08</ele>
        <time>2022-07-26T14:13:05.000Z</time>
      </trkpt>
      <trkpt lat="46.6747" lon="1.5573">
        <ele>99.97</ele>
        <time>2022-07-26T14:13:10.000Z</time>
      </trkpt>
      <trkpt lat="46.67441" lon="1.55714">
        <ele>97.92</ele>
        <time>2022-07-26T14:13:15.000Z</time>
      </trkpt>
      <trkpt lat="46.67423" lon="1.55699">
        <ele>96.7</ele>
        <time>2022-07-26T14:13:19.228Z</time>
      </trkpt>
      <trkpt lat="46.67428" lon="1.55678">
        <ele>97.57</ele>
        <time>2022-07-26T14:13:24.000Z</time>
      </trkpt>
      <trkpt lat="46.67438" lon="1.55644">
        <ele>98.17</ele>
        <time>2022-07-26T14:13:28.348Z</time>
      </trkpt>
      <trkpt lat="46.67444" lon="1.55622">
        <ele>97.51</ele>
        <time>2022-07-26T14:13:33.000Z</time>
      </trkpt>
      <trkpt lat="46.67456" lon="1.55586">
        <ele>94.48</ele>
        <time>2022-07-26T14:13:39.000Z</time>
      </trkpt>
      <trkpt lat="46.67466" lon="1.55553">
        <ele>91.23</ele>
        <time>2022-07-26T14:13:44.000Z</time>
      </trkpt>
      <trkpt lat="46.67473" lon="1.55516">
        <ele>90.89</ele>
        <time>2022-07-26T14:13:49.000Z</time>
      </trkpt>
      <trkpt lat="46.67477" lon="1.55477">
        <ele>91.56</ele>
        <time>2022-07-26T14:13:54.000Z</time>
      </trkpt>
      <trkpt lat="46.67466" lon="1.55439">
        <ele>93.28</ele>
        <time>2022-07-26T14:13:59.000Z</time>
      </trkpt>
      <trkpt lat="46.67449" lon="1.55403">
        <ele>93.02</ele>
        <time>2022-07-26T14:14:04.000Z</time>
      </trkpt>
      <trkpt lat="46.67433" lon="1.55369">
        <ele>93.94</ele>
        <time>2022-07-26T14:14:09.000Z</time>
      </trkpt>
      <trkpt lat="46.67417" lon="1.55339">
        <ele>93.22</ele>
        <time>2022-07-26T14:14:14.000Z</time>
      </trkpt>
      <trkpt lat="46.67403" lon="1.55306">
        <ele>93.13</ele>
        <time>2022-07-26T14:14:19.000Z</time>
      </trkpt>
      <trkpt lat="46.67398" lon="1.5527">
        <ele>94.14</ele>
        <time>2022-07-26T14:14:24.000Z</time>
      </trkpt>
      <trkpt lat="46.67394" lon="1.55244">
        <ele>96.86</ele>
        <time>2022-07-26T14:14:29.000Z</time>
      </trkpt>
      <trkpt lat="46.67397" lon="1.55222">
        <ele>99.76</ele>
        <time>2022-07-26T14:14:35.000Z</time>
      </trkpt>
      <trkpt lat="46.67387" lon="1.55175">
        <ele>99.49</ele>
        <time>2022-07-26T14:14:39.602Z</time>
      </trkpt>
      <trkpt lat="46.67381" lon="1.55158">
        <ele>99.41</ele>
        <time>2022-07-26T14:14:44.000Z</time>
      </trkpt>
      <trkpt lat="46.67373" lon="1.55141">
        <ele>100.75</ele>
        <time>2022-07-26T14:14:49.000Z</time>
      </trkpt>
      <trkpt lat="46.67366" lon="1.55127">
        <ele>99.68</ele>
        <time>2022-07-26T14:14:54.000Z</time>
      </trkpt>
      <trkpt lat="46.67357" lon="1.55117">
        <ele>99.81</ele>
        <time>2022-07-26T14:15:53.000Z</time>
      </trkpt>
      <trkpt lat="46.67347" lon="1.55096">
        <ele>101.33</ele>
        <time>2022-07-26T14:15:57.621Z</time>
      </trkpt>
      <trkpt lat="46.67338" lon="1.55077">
        <ele>103.96</ele>
        <time>2022-07-26T14:16:03.000Z</time>
      </trkpt>
      <trkpt lat="46.67327" lon="1.55054">
        <ele>105.71</ele>
        <time>2022-07-26T14:16:08.000Z</time>
      </trkpt>
      <trkpt lat="46.67316" lon="1.5503">
        <ele>105.76</ele>
        <time>2022-07-26T14:16:12.360Z</time>
      </trkpt>
      <trkpt lat="46.67308" lon="1.5501">
        <ele>106.16</ele>
        <time>2022-07-26T14:16:16.419Z</time>
      </trkpt>
      <trkpt lat="46.673" lon="1.54988">
        <ele>106.69</ele>
        <time>2022-07-26T14:16:22.000Z</time>
      </trkpt>
      <trkpt lat="46.6729" lon="1.54964">
        <ele>108.11</ele>
        <time>2022-07-26T14:16:26.559Z</time>
      </trkpt>
      <trkpt lat="46.67284" lon="1.54947">
        <ele>107.99</ele>
        <time>2022-07-26T14:16:31.624Z</time>
      </trkpt>
      <trkpt lat="46.67279" lon="1.54936">
        <ele>105.97</ele>
        <time>2022-07-26T14:16:37.000Z</time>
      </trkpt>
      <trkpt lat="46.67274" lon="1.54919">
        <ele>105.5</ele>
        <time>2022-07-26T14:16:42.000Z</time>
      </trkpt>
      <trkpt lat="46.6727" lon="1.54901">
        <ele>107.94</ele>
        <time>2022-07-26T14:16:47.000Z</time>
      </trkpt>
      <trkpt lat="46.67266" lon="1.54881">
        <ele>109.23</ele>
        <time>2022-07-26T14:16:52.000Z</time>
      </trkpt>
      <trkpt lat="46.6726" lon="1.54862">
        <ele>109.89</ele>
        <time>2022-07-26T14:16:57.000Z</time>
      </trkpt>
      <trkpt lat="46.67254" lon="1.54845">
        <ele>109.72</ele>
        <time>2022-07-26T14:17:02.000Z</time>
      </trkpt>
      <trkpt lat="46.67249" lon="1.54829">
        <ele>109.51</ele>
        <time>2022-07-26T14:17:07.000Z</time>
      </trkpt>
      <trkpt lat="46.67231" lon="1.54804">
        <ele>108.34</ele>
        <time>2022-07-26T14:17:13.000Z</time>
      </trkpt>
      <trkpt lat="46.6721" lon="1.54777">
        <ele>106.15</ele>
        <time>2022-07-26T14:17:18.000Z</time>
      </trkpt>
      <trkpt lat="46.67186" lon="1.54745">
        <ele>104.21</ele>
        <time>2022-07-26T14:17:23.000Z</time>
      </trkpt>
      <trkpt lat="46.67154" lon="1.54714">
        <ele>103.67</ele>
        <time>2022-07-26T14:17:28.000Z</time>
      </trkpt>
      <trkpt lat="46.67118" lon="1.54689">
        <ele>101.79</ele>
        <time>2022-07-26T14:17:33.000Z</time>
      </trkpt>
      <trkpt lat="46.67079" lon="1.54658">
        <ele>98.19</ele>
        <time>2022-07-26T14:17:38.000Z</time>
      </trkpt>
      <trkpt lat="46.6705" lon="1.54617">
        <ele>97.14</ele>
        <time>2022-07-26T14:17:43.000Z</time>
      </trkpt>
      <trkpt lat="46.6703" lon="1.54587">
        <ele>98.44</ele>
        <time>2022-07-26T14:17:48.000Z</time>
      </trkpt>
      <trkpt lat="46.67018" lon="1.54567">
        <ele>98.41</ele>
        <time>2022-07-26T14:17:53.000Z</time>
      </trkpt>
      <trkpt lat="46.67005" lon="1.54543">
        <ele>99.74</ele>
        <time>2022-07-26T14:17:57.345Z</time>
      </trkpt>
      <trkpt lat="46.66994" lon="1.54528">
        <ele>101.48</ele>
        <time>2022-07-26T14:18:03.000Z</time>
      </trkpt>
      <trkpt lat="46.66982" lon="1.54507">
        <ele>100.65</ele>
        <time>2022-07-26T14:18:09.000Z</time>
      </trkpt>
      <trkpt lat="46.66975" lon="1.54487">
        <ele>100.56</ele>
        <time>2022-07-26T14:18:13.268Z</time>
      </trkpt>
      <trkpt lat="46.66975" lon="1.54466">
        <ele>100.17</ele>
        <time>2022-07-26T14:18:17.607Z</time>
      </trkpt>
      <trkpt lat="46.66974" lon="1.54452">
        <ele>99.91</ele>
        <time>2022-07-26T14:18:22.000Z</time>
      </trkpt>
      <trkpt lat="46.6697" lon="1.54429">
        <ele>100.38</ele>
        <time>2022-07-26T14:18:26.529Z</time>
      </trkpt>
      <trkpt lat="46.66962" lon="1.54423">
        <ele>99.21</ele>
        <time>2022-07-26T14:18:31.000Z</time>
      </trkpt>
      <trkpt lat="46.66944" lon="1.54405">
        <ele>94.37</ele>
        <time>2022-07-26T14:18:37.000Z</time>
      </trkpt>
      <trkpt lat="46.66927" lon="1.54396">
        <ele>91.04</ele>
        <time>2022-07-26T14:18:41.485Z</time>
      </trkpt>
      <trkpt lat="46.6691" lon="1.54387">
        <ele>93.65</ele>
        <time>2022-07-26T14:18:47.000Z</time>
      </trkpt>
      <trkpt lat="46.6689" lon="1.54374">
        <ele>96.28</ele>
        <time>2022-07-26T14:18:51.584Z</time>
      </trkpt>
      <trkpt lat="46.66875" lon="1.54365">
        <ele>97.41</ele>
        <time>2022-07-26T14:18:57.000Z</time>
      </trkpt>
      <trkpt lat="46.66856" lon="1.54354">
        <ele>98.33</ele>
        <time>2022-07-26T14:19:01.652Z</time>
      </trkpt>
      <trkpt lat="46.6684" lon="1.54344">
        <ele>99.36</ele>
        <time>2022-07-26T14:19:06.132Z</time>
      </trkpt>
      <trkpt lat="46.66826" lon="1.54334">
        <ele>98.06</ele>
        <time>2022-07-26T14:19:10.330Z</time>
      </trkpt>
      <trkpt lat="46.66814" lon="1.54324">
        <ele>96.15</ele>
        <time>2022-07-26T14:19:16.000Z</time>
      </trkpt>
      <trkpt lat="46.66795" lon="1.54311">
        <ele>95.56</ele>
        <time>2022-07-26T14:19:20.631Z</time>
      </trkpt>
      <trkpt lat="46.66782" lon="1.54302">
        <ele>98.14</ele>
        <time>2022-07-26T14:19:26.000Z</time>
      </trkpt>
      <trkpt lat="46.66761" lon="1.54291">
        <ele>99.23</ele>
        <time>2022-07-26T14:19:30.265Z</time>
      </trkpt>
      <trkpt lat="46.66749" lon="1.54286">
        <ele>98.86</ele>
        <time>2022-07-26T14:19:35.000Z</time>
      </trkpt>
      <trkpt lat="46.6673" lon="1.54282">
        <ele>97.85</ele>
        <time>2022-07-26T14:19:40.000Z</time>
      </trkpt>
      <trkpt lat="46.66713" lon="1.5428">
        <ele>98.35</ele>
        <time>2022-07-26T14:19:44.329Z</time>
      </trkpt>
      <trkpt lat="46.667" lon="1.5428">
        <ele>100.42</ele>
        <time>2022-07-26T14:19:48.387Z</time>
      </trkpt>
      <trkpt lat="46.6669" lon="1.54279">
        <ele>102.27</ele>
        <time>2022-07-26T14:19:53.000Z</time>
      </trkpt>
      <trkpt lat="46.66669" lon="1.54278">
        <ele>101.25</ele>
        <time>2022-07-26T14:19:57.428Z</time>
      </trkpt>
      <trkpt lat="46.66653" lon="1.54279">
        <ele>100.26</ele>
        <time>2022-07-26T14:20:03.000Z</time>
      </trkpt>
      <trkpt lat="46.66631" lon="1.54282">
        <ele>100</ele>
        <time>2022-07-26T14:20:09.000Z</time>
      </trkpt>
      <trkpt lat="46.6661" lon="1.54284">
        <ele>100.01</ele>
        <time>2022-07-26T14:20:13.265Z</time>
      </trkpt>
      <trkpt lat="46.66595" lon="1.54285">
        <ele>100.69</ele>
        <time>2022-07-26T14:20:18.000Z</time>
      </trkpt>
      <trkpt lat="46.6657" lon="1.54283">
        <ele>101.92</ele>
        <time>2022-07-26T14:20:22.608Z</time>
      </trkpt>
      <trkpt lat="46.66553" lon="1.54284">
        <ele>101.55</ele>
        <time>2022-07-26T14:20:26.865Z</time>
      </trkpt>
      <trkpt lat="46.66536" lon="1.54282">
        <ele>102.63</ele>
        <time>2022-07-26T14:20:31.305Z</time>
      </trkpt>
      <trkpt lat="46.66518" lon="1.54282">
        <ele>104.51</ele>
        <time>2022-07-26T14:20:37.000Z</time>
      </trkpt>
      <trkpt lat="46.66492" lon="1.54285">
        <ele>105</ele>
        <time>2022-07-26T14:20:41.645Z</time>
      </trkpt>
      <trkpt lat="46.66479" lon="1.54285">
        <ele>105.25</ele>
        <time>2022-07-26T14:20:46.000Z</time>
      </trkpt>
      <trkpt lat="46.66456" lon="1.54288">
        <ele>105.2</ele>
        <time>2022-07-26T14:20:51.000Z</time>
      </trkpt>
      <trkpt lat="46.66432" lon="1.5429">
        <ele>104.45</ele>
        <time>2022-07-26T14:20:56.000Z</time>
      </trkpt>
      <trkpt lat="46.66408" lon="1.54291">
        <ele>104.38</ele>
        <time>2022-07-26T14:21:01.000Z</time>
      </trkpt>
      <trkpt lat="46.66385" lon="1.54292">
        <ele>105.29</ele>
        <time>2022-07-26T14:21:06.000Z</time>
      </trkpt>
      <trkpt lat="46.66364" lon="1.54293">
        <ele>105.59</ele>
        <time>2022-07-26T14:21:11.000Z</time>
      </trkpt>
      <trkpt lat="46.66341" lon="1.54294">
        <ele>106.39</ele>
        <time>2022-07-26T14:21:15.140Z</time>
      </trkpt>
      <trkpt lat="46.66323" lon="1.54294">
        <ele>107.19</ele>
        <time>2022-07-26T14:21:19.479Z</time>
      </trkpt>
      <trkpt lat="46.66305" lon="1.54295">
        <ele>108.08</ele>
        <time>2022-07-26T14:21:23.818Z</time>
      </trkpt>
      <trkpt lat="46.66293" lon="1.54296">
        <ele>109.06</ele>
        <time>2022-07-26T14:21:28.000Z</time>
      </trkpt>
      <trkpt lat="46.66272" lon="1.54297">
        <ele>110.31</ele>
        <time>2022-07-26T14:21:33.000Z</time>
      </trkpt>
      <trkpt lat="46.66251" lon="1.54295">
        <ele>110.43</ele>
        <time>2022-07-26T14:21:38.000Z</time>
      </trkpt>
      <trkpt lat="46.66229" lon="1.54293">
        <ele>110.77</ele>
        <time>2022-07-26T14:21:42.301Z</time>
      </trkpt>
      <trkpt lat="46.66215" lon="1.54291">
        <ele>110.96</ele>
        <time>2022-07-26T14:21:47.000Z</time>
      </trkpt>
      <trkpt lat="46.66193" lon="1.54286">
        <ele>110.71</ele>
        <time>2022-07-26T14:21:52.000Z</time>
      </trkpt>
      <trkpt lat="46.66169" lon="1.54282">
        <ele>110.95</ele>
        <time>2022-07-26T14:21:57.000Z</time>
      </trkpt>
      <trkpt lat="46.66143" lon="1.54278">
        <ele>111.12</ele>
        <time>2022-07-26T14:22:02.000Z</time>
      </trkpt>
      <trkpt lat="46.66117" lon="1.54273">
        <ele>112.34</ele>
        <time>2022-07-26T14:22:07.000Z</time>
      </trkpt>
      <trkpt lat="46.66092" lon="1.54269">
        <ele>112.19</ele>
        <time>2022-07-26T14:22:12.000Z</time>
      </trkpt>
      <trkpt lat="46.66066" lon="1.54264">
        <ele>111.87</ele>
        <time>2022-07-26T14:22:17.000Z</time>
      </trkpt>
      <trkpt lat="46.66039" lon="1.54259">
        <ele>112.03</ele>
        <time>2022-07-26T14:22:22.000Z</time>
      </trkpt>
      <trkpt lat="46.66013" lon="1.54254">
        <ele>112.23</ele>
        <time>2022-07-26T14:22:27.000Z</time>
      </trkpt>
      <trkpt lat="46.65986" lon="1.54249">
        <ele>112.68</ele>
        <time>2022-07-26T14:22:32.000Z</time>
      </trkpt>
      <trkpt lat="46.65959" lon="1.54244">
        <ele>112.6</ele>
        <time>2022-07-26T14:22:37.000Z</time>
      </trkpt>
      <trkpt lat="46.65933" lon="1.5424">
        <ele>112.55</ele>
        <time>2022-07-26T14:22:42.000Z</time>
      </trkpt>
      <trkpt lat="46.65906" lon="1.54236">
        <ele>113.78</ele>
        <time>2022-07-26T14:22:47.000Z</time>
      </trkpt>
      <trkpt lat="46.6588" lon="1.54231">
        <ele>114.25</ele>
        <time>2022-07-26T14:22:52.000Z</time>
      </trkpt>
      <trkpt lat="46.65853" lon="1.54227">
        <ele>114.96</ele>
        <time>2022-07-26T14:22:57.000Z</time>
      </trkpt>
      <trkpt lat="46.65827" lon="1.54223">
        <ele>114.76</ele>
        <time>2022-07-26T14:23:02.000Z</time>
      </trkpt>
      <trkpt lat="46.658" lon="1.54223">
        <ele>114.96</ele>
        <time>2022-07-26T14:23:07.000Z</time>
      </trkpt>
      <trkpt lat="46.65774" lon="1.54222">
        <ele>115</ele>
        <time>2022-07-26T14:23:12.000Z</time>
      </trkpt>
      <trkpt lat="46.65749" lon="1.54222">
        <ele>115.15</ele>
        <time>2022-07-26T14:23:17.000Z</time>
      </trkpt>
      <trkpt lat="46.65724" lon="1.54225">
        <ele>114.77</ele>
        <time>2022-07-26T14:23:22.000Z</time>
      </trkpt>
      <trkpt lat="46.65699" lon="1.54232">
        <ele>115.35</ele>
        <time>2022-07-26T14:23:27.000Z</time>
      </trkpt>
      <trkpt lat="46.65674" lon="1.54239">
        <ele>115.92</ele>
        <time>2022-07-26T14:23:32.000Z</time>
      </trkpt>
      <trkpt lat="46.6565" lon="1.54247">
        <ele>116.6</ele>
        <time>2022-07-26T14:23:37.000Z</time>
      </trkpt>
      <trkpt lat="46.65626" lon="1.54255">
        <ele>116.58</ele>
        <time>2022-07-26T14:23:42.000Z</time>
      </trkpt>
      <trkpt lat="46.65603" lon="1.54262">
        <ele>116.82</ele>
        <time>2022-07-26T14:23:47.000Z</time>
      </trkpt>
      <trkpt lat="46.65579" lon="1.5427">
        <ele>117.23</ele>
        <time>2022-07-26T14:23:52.000Z</time>
      </trkpt>
      <trkpt lat="46.65554" lon="1.54279">
        <ele>117.07</ele>
        <time>2022-07-26T14:23:57.000Z</time>
      </trkpt>
      <trkpt lat="46.65529" lon="1.54288">
        <ele>116.83</ele>
        <time>2022-07-26T14:24:02.000Z</time>
      </trkpt>
      <trkpt lat="46.65502" lon="1.54296">
        <ele>115.91</ele>
        <time>2022-07-26T14:24:07.000Z</time>
      </trkpt>
      <trkpt lat="46.65476" lon="1.54305">
        <ele>115.26</ele>
        <time>2022-07-26T14:24:12.000Z</time>
      </trkpt>
      <trkpt lat="46.6545" lon="1.54311">
        <ele>114.65</ele>
        <time>2022-07-26T14:24:17.000Z</time>
      </trkpt>
      <trkpt lat="46.65426" lon="1.54315">
        <ele>114.9</ele>
        <time>2022-07-26T14:24:22.000Z</time>
      </trkpt>
      <trkpt lat="46.65403" lon="1.54317">
        <ele>115.43</ele>
        <time>2022-07-26T14:24:27.000Z</time>
      </trkpt>
      <trkpt lat="46.65379" lon="1.54317">
        <ele>115.85</ele>
        <time>2022-07-26T14:24:32.000Z</time>
      </trkpt>
      <trkpt lat="46.65355" lon="1.54317">
        <ele>116.12</ele>
        <time>2022-07-26T14:24:37.000Z</time>
      </trkpt>
      <trkpt lat="46.6533" lon="1.54317">
        <ele>116.47</ele>
        <time>2022-07-26T14:24:42.000Z</time>
      </trkpt>
      <trkpt lat="46.65304" lon="1.54317">
        <ele>117.02</ele>
        <time>2022-07-26T14:24:47.000Z</time>
      </trkpt>
      <trkpt lat="46.6528" lon="1.54317">
        <ele>117.1</ele>
        <time>2022-07-26T14:24:52.000Z</time>
      </trkpt>
      <trkpt lat="46.65257" lon="1.54317">
        <ele>117.45</ele>
        <time>2022-07-26T14:24:57.000Z</time>
      </trkpt>
      <trkpt lat="46.65233" lon="1.54317">
        <ele>118.16</ele>
        <time>2022-07-26T14:25:02.000Z</time>
      </trkpt>
      <trkpt lat="46.65207" lon="1.54318">
        <ele>118.39</ele>
        <time>2022-07-26T14:25:07.000Z</time>
      </trkpt>
      <trkpt lat="46.65183" lon="1.54318">
        <ele>118.9</ele>
        <time>2022-07-26T14:25:12.000Z</time>
      </trkpt>
      <trkpt lat="46.65161" lon="1.54317">
        <ele>119.12</ele>
        <time>2022-07-26T14:25:17.000Z</time>
      </trkpt>
      <trkpt lat="46.6514" lon="1.54317">
        <ele>119.85</ele>
        <time>2022-07-26T14:25:22.000Z</time>
      </trkpt>
      <trkpt lat="46.65123" lon="1.54317">
        <ele>119.96</ele>
        <time>2022-07-26T14:25:27.000Z</time>
      </trkpt>
      <trkpt lat="46.65103" lon="1.54317">
        <ele>120.22</ele>
        <time>2022-07-26T14:25:32.000Z</time>
      </trkpt>
      <trkpt lat="46.65083" lon="1.54322">
        <ele>120.9</ele>
        <time>2022-07-26T14:25:36.526Z</time>
      </trkpt>
      <trkpt lat="46.65071" lon="1.54313">
        <ele>119.89</ele>
        <time>2022-07-26T14:25:42.000Z</time>
      </trkpt>
      <trkpt lat="46.65066" lon="1.54288">
        <ele>118.77</ele>
        <time>2022-07-26T14:25:46.393Z</time>
      </trkpt>
      <trkpt lat="46.65074" lon="1.54269">
        <ele>119.13</ele>
        <time>2022-07-26T14:25:52.000Z</time>
      </trkpt>
      <trkpt lat="46.65087" lon="1.54235">
        <ele>118.61</ele>
        <time>2022-07-26T14:25:58.000Z</time>
      </trkpt>
      <trkpt lat="46.65098" lon="1.54204">
        <ele>118.36</ele>
        <time>2022-07-26T14:26:03.000Z</time>
      </trkpt>
      <trkpt lat="46.65109" lon="1.54172">
        <ele>118.37</ele>
        <time>2022-07-26T14:26:08.000Z</time>
      </trkpt>
      <trkpt lat="46.6512" lon="1.54139">
        <ele>119.21</ele>
        <time>2022-07-26T14:26:13.000Z</time>
      </trkpt>
      <trkpt lat="46.6513" lon="1.54108">
        <ele>118.83</ele>
        <time>2022-07-26T14:26:18.000Z</time>
      </trkpt>
      <trkpt lat="46.65139" lon="1.54078">
        <ele>118.05</ele>
        <time>2022-07-26T14:26:23.000Z</time>
      </trkpt>
      <trkpt lat="46.65151" lon="1.54044">
        <ele>120.07</ele>
        <time>2022-07-26T14:26:28.000Z</time>
      </trkpt>
      <trkpt lat="46.65161" lon="1.54013">
        <ele>121.94</ele>
        <time>2022-07-26T14:26:33.000Z</time>
      </trkpt>
      <trkpt lat="46.65172" lon="1.53982">
        <ele>124.11</ele>
        <time>2022-07-26T14:26:38.000Z</time>
      </trkpt>
      <trkpt lat="46.65182" lon="1.53951">
        <ele>124.84</ele>
        <time>2022-07-26T14:26:43.000Z</time>
      </trkpt>
      <trkpt lat="46.65193" lon="1.53921">
        <ele>124.25</ele>
        <time>2022-07-26T14:26:48.000Z</time>
      </trkpt>
      <trkpt lat="46.65203" lon="1.53891">
        <ele>124.2</ele>
        <time>2022-07-26T14:26:53.000Z</time>
      </trkpt>
      <trkpt lat="46.65214" lon="1.53861">
        <ele>124.57</ele>
        <time>2022-07-26T14:26:58.000Z</time>
      </trkpt>
      <trkpt lat="46.65223" lon="1.53833">
        <ele>124.13</ele>
        <time>2022-07-26T14:27:03.000Z</time>
      </trkpt>
      <trkpt lat="46.65234" lon="1.53806">
        <ele>124</ele>
        <time>2022-07-26T14:27:07.019Z</time>
      </trkpt>
      <trkpt lat="46.65242" lon="1.53777">
        <ele>123.6</ele>
        <time>2022-07-26T14:27:13.000Z</time>
      </trkpt>
      <trkpt lat="46.65252" lon="1.53751">
        <ele>123.22</ele>
        <time>2022-07-26T14:27:18.000Z</time>
      </trkpt>
      <trkpt lat="46.65261" lon="1.53723">
        <ele>122.62</ele>
        <time>2022-07-26T14:27:23.000Z</time>
      </trkpt>
      <trkpt lat="46.6527" lon="1.53695">
        <ele>122.65</ele>
        <time>2022-07-26T14:27:28.000Z</time>
      </trkpt>
      <trkpt lat="46.65279" lon="1.53665">
        <ele>123.43</ele>
        <time>2022-07-26T14:27:32.083Z</time>
      </trkpt>
      <trkpt lat="46.65286" lon="1.53644">
        <ele>123.98</ele>
        <time>2022-07-26T14:27:37.000Z</time>
      </trkpt>
      <trkpt lat="46.65297" lon="1.5361">
        <ele>123.66</ele>
        <time>2022-07-26T14:27:43.000Z</time>
      </trkpt>
      <trkpt lat="46.65307" lon="1.53581">
        <ele>123.43</ele>
        <time>2022-07-26T14:27:47.212Z</time>
      </trkpt>
      <trkpt lat="46.65314" lon="1.53561">
        <ele>122.94</ele>
        <time>2022-07-26T14:27:52.000Z</time>
      </trkpt>
      <trkpt lat="46.65326" lon="1.53528">
        <ele>122.56</ele>
        <time>2022-07-26T14:27:58.000Z</time>
      </trkpt>
      <trkpt lat="46.65336" lon="1.53495">
        <ele>122.59</ele>
        <time>2022-07-26T14:28:03.000Z</time>
      </trkpt>
      <trkpt lat="46.65346" lon="1.53466">
        <ele>123.29</ele>
        <time>2022-07-26T14:28:08.000Z</time>
      </trkpt>
      <trkpt lat="46.65356" lon="1.53437">
        <ele>123.6</ele>
        <time>2022-07-26T14:28:13.000Z</time>
      </trkpt>
      <trkpt lat="46.65365" lon="1.53409">
        <ele>124.16</ele>
        <time>2022-07-26T14:28:17.014Z</time>
      </trkpt>
      <trkpt lat="46.65374" lon="1.53385">
        <ele>124.11</ele>
        <time>2022-07-26T14:28:22.000Z</time>
      </trkpt>
      <trkpt lat="46.65383" lon="1.53358">
        <ele>124.3</ele>
        <time>2022-07-26T14:28:27.000Z</time>
      </trkpt>
      <trkpt lat="46.65394" lon="1.53327">
        <ele>124.69</ele>
        <time>2022-07-26T14:28:32.000Z</time>
      </trkpt>
      <trkpt lat="46.65404" lon="1.53296">
        <ele>124.79</ele>
        <time>2022-07-26T14:28:37.000Z</time>
      </trkpt>
      <trkpt lat="46.65412" lon="1.53271">
        <ele>124.35</ele>
        <time>2022-07-26T14:28:42.000Z</time>
      </trkpt>
      <trkpt lat="46.65425" lon="1.53234">
        <ele>124.69</ele>
        <time>2022-07-26T14:28:48.000Z</time>
      </trkpt>
      <trkpt lat="46.65436" lon="1.53201">
        <ele>123.38</ele>
        <time>2022-07-26T14:28:54.000Z</time>
      </trkpt>
      <trkpt lat="46.65448" lon="1.53165">
        <ele>122.41</ele>
        <time>2022-07-26T14:29:00.000Z</time>
      </trkpt>
      <trkpt lat="46.65458" lon="1.53132">
        <ele>122.74</ele>
        <time>2022-07-26T14:29:05.000Z</time>
      </trkpt>
      <trkpt lat="46.65469" lon="1.53101">
        <ele>123</ele>
        <time>2022-07-26T14:29:10.000Z</time>
      </trkpt>
      <trkpt lat="46.65478" lon="1.53074">
        <ele>121.97</ele>
        <time>2022-07-26T14:29:15.000Z</time>
      </trkpt>
      <trkpt lat="46.65484" lon="1.53045">
        <ele>120.84</ele>
        <time>2022-07-26T14:29:19.083Z</time>
      </trkpt>
      <trkpt lat="46.65495" lon="1.53022">
        <ele>120.44</ele>
        <time>2022-07-26T14:29:24.000Z</time>
      </trkpt>
      <trkpt lat="46.65505" lon="1.52992">
        <ele>119.25</ele>
        <time>2022-07-26T14:29:29.000Z</time>
      </trkpt>
      <trkpt lat="46.65516" lon="1.52959">
        <ele>118.14</ele>
        <time>2022-07-26T14:29:34.000Z</time>
      </trkpt>
      <trkpt lat="46.65526" lon="1.52929">
        <ele>117.25</ele>
        <time>2022-07-26T14:29:39.000Z</time>
      </trkpt>
      <trkpt lat="46.65536" lon="1.52896">
        <ele>117.2</ele>
        <time>2022-07-26T14:29:44.000Z</time>
      </trkpt>
      <trkpt lat="46.65547" lon="1.52862">
        <ele>117.48</ele>
        <time>2022-07-26T14:29:49.000Z</time>
      </trkpt>
      <trkpt lat="46.6556" lon="1.52827">
        <ele>116.72</ele>
        <time>2022-07-26T14:29:54.000Z</time>
      </trkpt>
      <trkpt lat="46.65574" lon="1.52788">
        <ele>117.17</ele>
        <time>2022-07-26T14:29:59.000Z</time>
      </trkpt>
      <trkpt lat="46.65584" lon="1.52757">
        <ele>115.88</ele>
        <time>2022-07-26T14:30:04.000Z</time>
      </trkpt>
      <trkpt lat="46.65595" lon="1.52721">
        <ele>116.24</ele>
        <time>2022-07-26T14:30:09.000Z</time>
      </trkpt>
      <trkpt lat="46.65607" lon="1.5269">
        <ele>116.52</ele>
        <time>2022-07-26T14:30:14.000Z</time>
      </trkpt>
      <trkpt lat="46.65617" lon="1.52659">
        <ele>116.72</ele>
        <time>2022-07-26T14:30:19.000Z</time>
      </trkpt>
      <trkpt lat="46.65628" lon="1.52627">
        <ele>116.91</ele>
        <time>2022-07-26T14:30:24.000Z</time>
      </trkpt>
      <trkpt lat="46.65638" lon="1.52596">
        <ele>117.01</ele>
        <time>2022-07-26T14:30:29.000Z</time>
      </trkpt>
      <trkpt lat="46.65648" lon="1.52565">
        <ele>117.01</ele>
        <time>2022-07-26T14:30:34.000Z</time>
      </trkpt>
      <trkpt lat="46.65658" lon="1.52534">
        <ele>117.78</ele>
        <time>2022-07-26T14:30:39.000Z</time>
      </trkpt>
      <trkpt lat="46.65669" lon="1.52503">
        <ele>119.65</ele>
        <time>2022-07-26T14:30:44.000Z</time>
      </trkpt>
      <trkpt lat="46.65679" lon="1.52475">
        <ele>120.85</ele>
        <time>2022-07-26T14:30:49.000Z</time>
      </trkpt>
      <trkpt lat="46.6569" lon="1.52445">
        <ele>119.87</ele>
        <time>2022-07-26T14:30:54.000Z</time>
      </trkpt>
      <trkpt lat="46.65701" lon="1.52414">
        <ele>118.4</ele>
        <time>2022-07-26T14:30:59.000Z</time>
      </trkpt>
      <trkpt lat="46.6571" lon="1.52383">
        <ele>117.72</ele>
        <time>2022-07-26T14:31:04.000Z</time>
      </trkpt>
      <trkpt lat="46.6572" lon="1.52351">
        <ele>118.54</ele>
        <time>2022-07-26T14:31:09.000Z</time>
      </trkpt>
      <trkpt lat="46.65732" lon="1.52327">
        <ele>116.43</ele>
        <time>2022-07-26T14:31:14.000Z</time>
      </trkpt>
      <trkpt lat="46.65744" lon="1.5229">
        <ele>113.54</ele>
        <time>2022-07-26T14:31:20.000Z</time>
      </trkpt>
      <trkpt lat="46.65755" lon="1.52252">
        <ele>113.06</ele>
        <time>2022-07-26T14:31:25.000Z</time>
      </trkpt>
      <trkpt lat="46.65766" lon="1.52219">
        <ele>111.96</ele>
        <time>2022-07-26T14:31:30.000Z</time>
      </trkpt>
      <trkpt lat="46.65779" lon="1.52188">
        <ele>112.68</ele>
        <time>2022-07-26T14:31:35.000Z</time>
      </trkpt>
      <trkpt lat="46.65792" lon="1.52168">
        <ele>113.29</ele>
        <time>2022-07-26T14:31:40.000Z</time>
      </trkpt>
      <trkpt lat="46.65804" lon="1.52142">
        <ele>112.18</ele>
        <time>2022-07-26T14:31:45.000Z</time>
      </trkpt>
      <trkpt lat="46.65802" lon="1.52098">
        <ele>111.14</ele>
        <time>2022-07-26T14:31:50.000Z</time>
      </trkpt>
      <trkpt lat="46.65789" lon="1.52049">
        <ele>109.85</ele>
        <time>2022-07-26T14:31:55.000Z</time>
      </trkpt>
      <trkpt lat="46.65775" lon="1.51997">
        <ele>108.67</ele>
        <time>2022-07-26T14:32:00.000Z</time>
      </trkpt>
      <trkpt lat="46.65777" lon="1.51931">
        <ele>106.48</ele>
        <time>2022-07-26T14:32:05.000Z</time>
      </trkpt>
      <trkpt lat="46.65784" lon="1.51869">
        <ele>104.23</ele>
        <time>2022-07-26T14:32:10.000Z</time>
      </trkpt>
      <trkpt lat="46.65788" lon="1.51805">
        <ele>100.63</ele>
        <time>2022-07-26T14:32:15.000Z</time>
      </trkpt>
      <trkpt lat="46.6577" lon="1.51746">
        <ele>96.27</ele>
        <time>2022-07-26T14:32:20.000Z</time>
      </trkpt>
      <trkpt lat="46.65736" lon="1.51697">
        <ele>90.67</ele>
        <time>2022-07-26T14:32:25.000Z</time>
      </trkpt>
      <trkpt lat="46.65696" lon="1.51658">
        <ele>87.02</ele>
        <time>2022-07-26T14:32:30.000Z</time>
      </trkpt>
      <trkpt lat="46.65659" lon="1.51627">
        <ele>86.4</ele>
        <time>2022-07-26T14:32:35.000Z</time>
      </trkpt>
      <trkpt lat="46.65636" lon="1.51607">
        <ele>87.5</ele>
        <time>2022-07-26T14:32:40.000Z</time>
      </trkpt>
      <trkpt lat="46.65624" lon="1.51596">
        <ele>88.51</ele>
        <time>2022-07-26T14:32:45.000Z</time>
      </trkpt>
      <trkpt lat="46.65615" lon="1.51589">
        <ele>85.9</ele>
        <time>2022-07-26T14:32:51.000Z</time>
      </trkpt>
      <trkpt lat="46.65606" lon="1.51582">
        <ele>86.09</ele>
        <time>2022-07-26T14:32:56.000Z</time>
      </trkpt>
      <trkpt lat="46.65598" lon="1.51573">
        <ele>86.04</ele>
        <time>2022-07-26T14:33:00.131Z</time>
      </trkpt>
      <trkpt lat="46.65587" lon="1.51563">
        <ele>88.83</ele>
        <time>2022-07-26T14:33:07.000Z</time>
      </trkpt>
      <trkpt lat="46.65575" lon="1.51551">
        <ele>94.07</ele>
        <time>2022-07-26T14:33:12.000Z</time>
      </trkpt>
      <trkpt lat="46.65566" lon="1.51539">
        <ele>97.68</ele>
        <time>2022-07-26T14:33:16.410Z</time>
      </trkpt>
      <trkpt lat="46.6556" lon="1.51528">
        <ele>97.82</ele>
        <time>2022-07-26T14:33:21.314Z</time>
      </trkpt>
      <trkpt lat="46.65554" lon="1.51515">
        <ele>98.42</ele>
        <time>2022-07-26T14:33:26.296Z</time>
      </trkpt>
      <trkpt lat="46.65549" lon="1.51503">
        <ele>99.59</ele>
        <time>2022-07-26T14:33:32.000Z</time>
      </trkpt>
      <trkpt lat="46.65544" lon="1.51489">
        <ele>99.74</ele>
        <time>2022-07-26T14:33:36.253Z</time>
      </trkpt>
      <trkpt lat="46.65537" lon="1.5147">
        <ele>98.75</ele>
        <time>2022-07-26T14:33:43.180Z</time>
      </trkpt>
      <trkpt lat="46.65533" lon="1.51457">
        <ele>97.58</ele>
        <time>2022-07-26T14:33:49.000Z</time>
      </trkpt>
      <trkpt lat="46.65527" lon="1.51441">
        <ele>96.66</ele>
        <time>2022-07-26T14:33:53.670Z</time>
      </trkpt>
      <trkpt lat="46.65522" lon="1.51428">
        <ele>97.61</ele>
        <time>2022-07-26T14:33:58.120Z</time>
      </trkpt>
      <trkpt lat="46.65517" lon="1.51414">
        <ele>99.92</ele>
        <time>2022-07-26T14:34:03.516Z</time>
      </trkpt>
      <trkpt lat="46.65513" lon="1.51401">
        <ele>101.75</ele>
        <time>2022-07-26T14:34:08.319Z</time>
      </trkpt>
      <trkpt lat="46.65508" lon="1.51389">
        <ele>103.06</ele>
        <time>2022-07-26T14:34:14.000Z</time>
      </trkpt>
      <trkpt lat="46.65504" lon="1.51374">
        <ele>104.5</ele>
        <time>2022-07-26T14:34:19.000Z</time>
      </trkpt>
      <trkpt lat="46.65498" lon="1.51359">
        <ele>105.99</ele>
        <time>2022-07-26T14:34:24.000Z</time>
      </trkpt>
      <trkpt lat="46.65491" lon="1.51342">
        <ele>105.57</ele>
        <time>2022-07-26T14:34:28.312Z</time>
      </trkpt>
      <trkpt lat="46.65487" lon="1.51329">
        <ele>105.47</ele>
        <time>2022-07-26T14:34:33.000Z</time>
      </trkpt>
      <trkpt lat="46.65481" lon="1.5131">
        <ele>104.45</ele>
        <time>2022-07-26T14:34:38.000Z</time>
      </trkpt>
      <trkpt lat="46.65475" lon="1.51293">
        <ele>105.09</ele>
        <time>2022-07-26T14:34:43.000Z</time>
      </trkpt>
      <trkpt lat="46.65466" lon="1.51271">
        <ele>106.54</ele>
        <time>2022-07-26T14:34:49.000Z</time>
      </trkpt>
      <trkpt lat="46.6546" lon="1.51256">
        <ele>107.17</ele>
        <time>2022-07-26T14:34:54.000Z</time>
      </trkpt>
      <trkpt lat="46.65451" lon="1.51236">
        <ele>106.73</ele>
        <time>2022-07-26T14:34:58.394Z</time>
      </trkpt>
      <trkpt lat="46.65447" lon="1.5122">
        <ele>109.79</ele>
        <time>2022-07-26T14:35:02.611Z</time>
      </trkpt>
      <trkpt lat="46.65442" lon="1.51207">
        <ele>110.35</ele>
        <time>2022-07-26T14:35:07.000Z</time>
      </trkpt>
      <trkpt lat="46.65433" lon="1.51178">
        <ele>111.83</ele>
        <time>2022-07-26T14:35:11.490Z</time>
      </trkpt>
      <trkpt lat="46.65425" lon="1.51161">
        <ele>111.82</ele>
        <time>2022-07-26T14:35:16.000Z</time>
      </trkpt>
      <trkpt lat="46.65412" lon="1.51129">
        <ele>112.7</ele>
        <time>2022-07-26T14:35:21.000Z</time>
      </trkpt>
      <trkpt lat="46.65403" lon="1.51099">
        <ele>111.55</ele>
        <time>2022-07-26T14:35:26.000Z</time>
      </trkpt>
      <trkpt lat="46.65391" lon="1.51064">
        <ele>110.21</ele>
        <time>2022-07-26T14:35:31.000Z</time>
      </trkpt>
      <trkpt lat="46.65377" lon="1.51027">
        <ele>108</ele>
        <time>2022-07-26T14:35:36.000Z</time>
      </trkpt>
      <trkpt lat="46.6536" lon="1.50988">
        <ele>105.28</ele>
        <time>2022-07-26T14:35:41.000Z</time>
      </trkpt>
      <trkpt lat="46.65338" lon="1.50948">
        <ele>101.97</ele>
        <time>2022-07-26T14:35:46.000Z</time>
      </trkpt>
      <trkpt lat="46.65311" lon="1.50907">
        <ele>99.28</ele>
        <time>2022-07-26T14:35:51.000Z</time>
      </trkpt>
      <trkpt lat="46.65287" lon="1.50866">
        <ele>98.05</ele>
        <time>2022-07-26T14:35:56.000Z</time>
      </trkpt>
      <trkpt lat="46.65271" lon="1.50831">
        <ele>98.22</ele>
        <time>2022-07-26T14:36:01.000Z</time>
      </trkpt>
      <trkpt lat="46.65262" lon="1.50803">
        <ele>99.22</ele>
        <time>2022-07-26T14:36:06.000Z</time>
      </trkpt>
      <trkpt lat="46.65253" lon="1.50777">
        <ele>100.5</ele>
        <time>2022-07-26T14:36:11.000Z</time>
      </trkpt>
      <trkpt lat="46.65243" lon="1.50747">
        <ele>101.58</ele>
        <time>2022-07-26T14:36:16.000Z</time>
      </trkpt>
      <trkpt lat="46.65235" lon="1.50722">
        <ele>102.57</ele>
        <time>2022-07-26T14:36:21.000Z</time>
      </trkpt>
      <trkpt lat="46.65227" lon="1.50699">
        <ele>103.96</ele>
        <time>2022-07-26T14:36:26.000Z</time>
      </trkpt>
      <trkpt lat="46.65221" lon="1.50682">
        <ele>105.22</ele>
        <time>2022-07-26T14:36:31.000Z</time>
      </trkpt>
      <trkpt lat="46.65215" lon="1.50663">
        <ele>106.88</ele>
        <time>2022-07-26T14:36:36.000Z</time>
      </trkpt>
      <trkpt lat="46.65208" lon="1.50643">
        <ele>107.69</ele>
        <time>2022-07-26T14:36:40.330Z</time>
      </trkpt>
      <trkpt lat="46.65201" lon="1.50626">
        <ele>108.43</ele>
        <time>2022-07-26T14:36:44.467Z</time>
      </trkpt>
      <trkpt lat="46.65192" lon="1.50608">
        <ele>108.06</ele>
        <time>2022-07-26T14:36:50.000Z</time>
      </trkpt>
      <trkpt lat="46.65178" lon="1.50593">
        <ele>109.63</ele>
        <time>2022-07-26T14:36:54.405Z</time>
      </trkpt>
      <trkpt lat="46.65168" lon="1.50585">
        <ele>110.41</ele>
        <time>2022-07-26T14:36:58.574Z</time>
      </trkpt>
      <trkpt lat="46.65154" lon="1.50575">
        <ele>111</ele>
        <time>2022-07-26T14:37:03.426Z</time>
      </trkpt>
      <trkpt lat="46.65143" lon="1.50569">
        <ele>110.91</ele>
        <time>2022-07-26T14:37:07.495Z</time>
      </trkpt>
      <trkpt lat="46.65131" lon="1.50562">
        <ele>111.26</ele>
        <time>2022-07-26T14:37:12.589Z</time>
      </trkpt>
      <trkpt lat="46.65119" lon="1.50556">
        <ele>110.71</ele>
        <time>2022-07-26T14:37:16.747Z</time>
      </trkpt>
      <trkpt lat="46.65106" lon="1.50549">
        <ele>111.15</ele>
        <time>2022-07-26T14:37:21.569Z</time>
      </trkpt>
      <trkpt lat="46.65097" lon="1.50545">
        <ele>111.07</ele>
        <time>2022-07-26T14:37:26.000Z</time>
      </trkpt>
      <trkpt lat="46.65077" lon="1.50537">
        <ele>112.42</ele>
        <time>2022-07-26T14:37:30.529Z</time>
      </trkpt>
      <trkpt lat="46.65064" lon="1.50532">
        <ele>112.75</ele>
        <time>2022-07-26T14:37:34.586Z</time>
      </trkpt>
      <trkpt lat="46.65052" lon="1.50527">
        <ele>112.73</ele>
        <time>2022-07-26T14:37:40.000Z</time>
      </trkpt>
      <trkpt lat="46.65035" lon="1.50522">
        <ele>113.86</ele>
        <time>2022-07-26T14:37:45.000Z</time>
      </trkpt>
      <trkpt lat="46.65015" lon="1.50514">
        <ele>113.73</ele>
        <time>2022-07-26T14:37:49.607Z</time>
      </trkpt>
      <trkpt lat="46.65001" lon="1.50508">
        <ele>113.66</ele>
        <time>2022-07-26T14:37:54.209Z</time>
      </trkpt>
      <trkpt lat="46.64988" lon="1.50502">
        <ele>114.3</ele>
        <time>2022-07-26T14:37:59.000Z</time>
      </trkpt>
      <trkpt lat="46.64969" lon="1.50491">
        <ele>113.67</ele>
        <time>2022-07-26T14:38:03.531Z</time>
      </trkpt>
      <trkpt lat="46.64958" lon="1.50483">
        <ele>113.21</ele>
        <time>2022-07-26T14:38:08.000Z</time>
      </trkpt>
      <trkpt lat="46.6494" lon="1.50468">
        <ele>112.65</ele>
        <time>2022-07-26T14:38:13.000Z</time>
      </trkpt>
      <trkpt lat="46.64924" lon="1.50451">
        <ele>110.92</ele>
        <time>2022-07-26T14:38:17.132Z</time>
      </trkpt>
      <trkpt lat="46.6491" lon="1.50432">
        <ele>110.03</ele>
        <time>2022-07-26T14:38:21.614Z</time>
      </trkpt>
      <trkpt lat="46.64902" lon="1.50414">
        <ele>110.15</ele>
        <time>2022-07-26T14:38:26.000Z</time>
      </trkpt>
      <trkpt lat="46.64894" lon="1.50382">
        <ele>109.53</ele>
        <time>2022-07-26T14:38:30.513Z</time>
      </trkpt>
      <trkpt lat="46.64891" lon="1.50362">
        <ele>109.56</ele>
        <time>2022-07-26T14:38:35.000Z</time>
      </trkpt>
      <trkpt lat="46.64884" lon="1.50324">
        <ele>109.15</ele>
        <time>2022-07-26T14:38:41.000Z</time>
      </trkpt>
      <trkpt lat="46.64873" lon="1.50298">
        <ele>108.91</ele>
        <time>2022-07-26T14:38:46.000Z</time>
      </trkpt>
      <trkpt lat="46.64863" lon="1.50261">
        <ele>108.67</ele>
        <time>2022-07-26T14:38:51.000Z</time>
      </trkpt>
      <trkpt lat="46.64852" lon="1.50229">
        <ele>110.23</ele>
        <time>2022-07-26T14:38:56.000Z</time>
      </trkpt>
      <trkpt lat="46.64839" lon="1.50189">
        <ele>108.94</ele>
        <time>2022-07-26T14:39:01.000Z</time>
      </trkpt>
      <trkpt lat="46.64826" lon="1.50144">
        <ele>108.23</ele>
        <time>2022-07-26T14:39:06.000Z</time>
      </trkpt>
      <trkpt lat="46.64809" lon="1.50092">
        <ele>107.11</ele>
        <time>2022-07-26T14:39:11.000Z</time>
      </trkpt>
      <trkpt lat="46.64792" lon="1.50036">
        <ele>104.84</ele>
        <time>2022-07-26T14:39:16.000Z</time>
      </trkpt>
      <trkpt lat="46.64773" lon="1.4998">
        <ele>101.85</ele>
        <time>2022-07-26T14:39:21.000Z</time>
      </trkpt>
      <trkpt lat="46.64755" lon="1.49921">
        <ele>99.41</ele>
        <time>2022-07-26T14:39:26.000Z</time>
      </trkpt>
      <trkpt lat="46.6474" lon="1.49878">
        <ele>99.26</ele>
        <time>2022-07-26T14:39:31.000Z</time>
      </trkpt>
      <trkpt lat="46.6473" lon="1.49847">
        <ele>99.89</ele>
        <time>2022-07-26T14:39:36.000Z</time>
      </trkpt>
      <trkpt lat="46.64722" lon="1.49827">
        <ele>101.19</ele>
        <time>2022-07-26T14:39:41.000Z</time>
      </trkpt>
      <trkpt lat="46.64716" lon="1.49807">
        <ele>101.18</ele>
        <time>2022-07-26T14:39:46.000Z</time>
      </trkpt>
      <trkpt lat="46.64709" lon="1.4979">
        <ele>102.52</ele>
        <time>2022-07-26T14:39:51.000Z</time>
      </trkpt>
      <trkpt lat="46.64704" lon="1.49772">
        <ele>103.35</ele>
        <time>2022-07-26T14:39:56.000Z</time>
      </trkpt>
      <trkpt lat="46.64699" lon="1.49754">
        <ele>103.02</ele>
        <time>2022-07-26T14:40:01.000Z</time>
      </trkpt>
      <trkpt lat="46.64694" lon="1.49736">
        <ele>104.21</ele>
        <time>2022-07-26T14:40:06.000Z</time>
      </trkpt>
      <trkpt lat="46.6469" lon="1.49719">
        <ele>105.84</ele>
        <time>2022-07-26T14:40:11.000Z</time>
      </trkpt>
      <trkpt lat="46.64686" lon="1.49704">
        <ele>106.29</ele>
        <time>2022-07-26T14:40:16.000Z</time>
      </trkpt>
      <trkpt lat="46.64684" lon="1.49687">
        <ele>106.91</ele>
        <time>2022-07-26T14:40:21.000Z</time>
      </trkpt>
      <trkpt lat="46.64686" lon="1.49671">
        <ele>106.88</ele>
        <time>2022-07-26T14:40:26.000Z</time>
      </trkpt>
      <trkpt lat="46.64692" lon="1.49659">
        <ele>106.04</ele>
        <time>2022-07-26T14:40:31.000Z</time>
      </trkpt>
      <trkpt lat="46.64696" lon="1.49646">
        <ele>105.03</ele>
        <time>2022-07-26T14:40:36.000Z</time>
      </trkpt>
      <trkpt lat="46.64703" lon="1.49637">
        <ele>106.45</ele>
        <time>2022-07-26T14:40:43.000Z</time>
      </trkpt>
      <trkpt lat="46.64711" lon="1.49653">
        <ele>108.6</ele>
        <time>2022-07-26T14:40:54.308Z</time>
      </trkpt>
      <trkpt lat="46.64703" lon="1.4966">
        <ele>107.13</ele>
        <time>2022-07-26T14:41:09.000Z</time>
      </trkpt>
      <trkpt lat="46.63158" lon="1.42569">
        <ele>53.1</ele>
        <time>2022-07-26T15:41:58.273Z</time>
      </trkpt>
      <trkpt lat="46.63155" lon="1.42554">
        <ele>52.83</ele>
        <time>2022-07-26T15:42:03.035Z</time>
      </trkpt>
      <trkpt lat="46.63153" lon="1.4254">
        <ele>52.55</ele>
        <time>2022-07-26T15:42:07.074Z</time>
      </trkpt>
      <trkpt lat="46.63149" lon="1.42522">
        <ele>52.91</ele>
        <time>2022-07-26T15:42:11.575Z</time>
      </trkpt>
      <trkpt lat="46.63146" lon="1.42503">
        <ele>53.22</ele>
        <time>2022-07-26T15:42:16.096Z</time>
      </trkpt>
      <trkpt lat="46.63142" lon="1.42484">
        <ele>53.47</ele>
        <time>2022-07-26T15:42:20.255Z</time>
      </trkpt>
      <trkpt lat="46.6314" lon="1.42467">
        <ele>53.96</ele>
        <time>2022-07-26T15:42:25.000Z</time>
      </trkpt>
      <trkpt lat="46.63138" lon="1.4244">
        <ele>54.11</ele>
        <time>2022-07-26T15:42:30.000Z</time>
      </trkpt>
      <trkpt lat="46.63137" lon="1.42413">
        <ele>54.52</ele>
        <time>2022-07-26T15:42:35.000Z</time>
      </trkpt>
      <trkpt lat="46.63135" lon="1.4238">
        <ele>55.57</ele>
        <time>2022-07-26T15:42:41.000Z</time>
      </trkpt>
      <trkpt lat="46.63134" lon="1.4235">
        <ele>56.96</ele>
        <time>2022-07-26T15:42:45.410Z</time>
      </trkpt>
      <trkpt lat="46.63133" lon="1.42327">
        <ele>57.14</ele>
        <time>2022-07-26T15:42:51.000Z</time>
      </trkpt>
      <trkpt lat="46.63135" lon="1.42298">
        <ele>58.12</ele>
        <time>2022-07-26T15:42:55.339Z</time>
      </trkpt>
      <trkpt lat="46.63139" lon="1.42278">
        <ele>57.93</ele>
        <time>2022-07-26T15:43:01.000Z</time>
      </trkpt>
      <trkpt lat="46.63144" lon="1.42264">
        <ele>57.56</ele>
        <time>2022-07-26T15:43:06.000Z</time>
      </trkpt>
      <trkpt lat="46.63145" lon="1.42238">
        <ele>55.71</ele>
        <time>2022-07-26T15:43:11.000Z</time>
      </trkpt>
      <trkpt lat="46.63146" lon="1.42214">
        <ele>55.15</ele>
        <time>2022-07-26T15:43:16.000Z</time>
      </trkpt>
      <trkpt lat="46.63147" lon="1.42181">
        <ele>56.2</ele>
        <time>2022-07-26T15:43:21.000Z</time>
      </trkpt>
      <trkpt lat="46.63154" lon="1.42191">
        <ele>57.07</ele>
        <time>2022-07-26T15:43:51.000Z</time>
      </trkpt>
      <trkpt lat="46.6315" lon="1.42178">
        <ele>58.85</ele>
        <time>2022-07-26T15:45:29.000Z</time>
      </trkpt>
      <trkpt lat="46.6315" lon="1.42155">
        <ele>61.03</ele>
        <time>2022-07-26T15:45:34.000Z</time>
      </trkpt>
      <trkpt lat="46.63153" lon="1.42141">
        <ele>60</ele>
        <time>2022-07-26T15:45:39.000Z</time>
      </trkpt>
      <trkpt lat="46.63155" lon="1.42121">
        <ele>59.38</ele>
        <time>2022-07-26T15:45:44.000Z</time>
      </trkpt>
      <trkpt lat="46.63159" lon="1.42093">
        <ele>59.35</ele>
        <time>2022-07-26T15:45:50.000Z</time>
      </trkpt>
      <trkpt lat="46.63162" lon="1.42066">
        <ele>59.5</ele>
        <time>2022-07-26T15:45:54.266Z</time>
      </trkpt>
      <trkpt lat="46.63163" lon="1.42049">
        <ele>58.75</ele>
        <time>2022-07-26T15:45:59.000Z</time>
      </trkpt>
      <trkpt lat="46.63167" lon="1.42029">
        <ele>55.98</ele>
        <time>2022-07-26T15:46:04.000Z</time>
      </trkpt>
      <trkpt lat="46.63169" lon="1.42006">
        <ele>54.01</ele>
        <time>2022-07-26T15:46:09.000Z</time>
      </trkpt>
      <trkpt lat="46.63172" lon="1.41982">
        <ele>54.54</ele>
        <time>2022-07-26T15:46:14.000Z</time>
      </trkpt>
      <trkpt lat="46.63174" lon="1.41963">
        <ele>55.53</ele>
        <time>2022-07-26T15:46:19.000Z</time>
      </trkpt>
      <trkpt lat="46.63175" lon="1.41937">
        <ele>54.84</ele>
        <time>2022-07-26T15:46:24.000Z</time>
      </trkpt>
      <trkpt lat="46.6318" lon="1.41913">
        <ele>54.28</ele>
        <time>2022-07-26T15:46:29.000Z</time>
      </trkpt>
      <trkpt lat="46.63186" lon="1.41887">
        <ele>54.1</ele>
        <time>2022-07-26T15:46:35.000Z</time>
      </trkpt>
      <trkpt lat="46.63189" lon="1.41859">
        <ele>53.81</ele>
        <time>2022-07-26T15:46:41.000Z</time>
      </trkpt>
      <trkpt lat="46.63192" lon="1.41837">
        <ele>52.32</ele>
        <time>2022-07-26T15:46:46.000Z</time>
      </trkpt>
      <trkpt lat="46.63195" lon="1.41811">
        <ele>52.37</ele>
        <time>2022-07-26T15:46:51.000Z</time>
      </trkpt>
      <trkpt lat="46.63199" lon="1.41788">
        <ele>53.4</ele>
        <time>2022-07-26T15:46:56.000Z</time>
      </trkpt>
      <trkpt lat="46.63201" lon="1.41763">
        <ele>52.8</ele>
        <time>2022-07-26T15:47:01.000Z</time>
      </trkpt>
      <trkpt lat="46.63205" lon="1.41738">
        <ele>51.13</ele>
        <time>2022-07-26T15:47:06.000Z</time>
      </trkpt>
      <trkpt lat="46.63208" lon="1.41713">
        <ele>51.4</ele>
        <time>2022-07-26T15:47:11.000Z</time>
      </trkpt>
      <trkpt lat="46.63209" lon="1.41686">
        <ele>52.43</ele>
        <time>2022-07-26T15:47:16.000Z</time>
      </trkpt>
      <trkpt lat="46.63211" lon="1.41656">
        <ele>52.93</ele>
        <time>2022-07-26T15:47:21.000Z</time>
      </trkpt>
      <trkpt lat="46.63215" lon="1.41629">
        <ele>51.9</ele>
        <time>2022-07-26T15:47:26.000Z</time>
      </trkpt>
      <trkpt lat="46.63219" lon="1.41592">
        <ele>52.32</ele>
        <time>2022-07-26T15:47:31.000Z</time>
      </trkpt>
      <trkpt lat="46.63223" lon="1.41556">
        <ele>50.34</ele>
        <time>2022-07-26T15:47:36.000Z</time>
      </trkpt>
      <trkpt lat="46.63227" lon="1.41525">
        <ele>50.51</ele>
        <time>2022-07-26T15:47:41.000Z</time>
      </trkpt>
      <trkpt lat="46.6323" lon="1.41493">
        <ele>51.2</ele>
        <time>2022-07-26T15:47:46.000Z</time>
      </trkpt>
      <trkpt lat="46.63234" lon="1.41458">
        <ele>52.75</ele>
        <time>2022-07-26T15:47:52.000Z</time>
      </trkpt>
      <trkpt lat="46.63237" lon="1.41425">
        <ele>52.36</ele>
        <time>2022-07-26T15:47:56.368Z</time>
      </trkpt>
      <trkpt lat="46.63238" lon="1.41405">
        <ele>51.88</ele>
        <time>2022-07-26T15:48:01.000Z</time>
      </trkpt>
      <trkpt lat="46.63241" lon="1.41375">
        <ele>50.02</ele>
        <time>2022-07-26T15:48:06.000Z</time>
      </trkpt>
      <trkpt lat="46.63245" lon="1.41345">
        <ele>49.65</ele>
        <time>2022-07-26T15:48:11.000Z</time>
      </trkpt>
      <trkpt lat="46.63248" lon="1.41317">
        <ele>49.56</ele>
        <time>2022-07-26T15:48:16.000Z</time>
      </trkpt>
      <trkpt lat="46.63252" lon="1.41286">
        <ele>49.97</ele>
        <time>2022-07-26T15:48:21.000Z</time>
      </trkpt>
      <trkpt lat="46.63256" lon="1.41257">
        <ele>49.89</ele>
        <time>2022-07-26T15:48:26.000Z</time>
      </trkpt>
      <trkpt lat="46.63259" lon="1.41228">
        <ele>49.7</ele>
        <time>2022-07-26T15:48:31.000Z</time>
      </trkpt>
      <trkpt lat="46.63263" lon="1.41194">
        <ele>49.36</ele>
        <time>2022-07-26T15:48:36.000Z</time>
      </trkpt>
      <trkpt lat="46.63266" lon="1.41165">
        <ele>48.34</ele>
        <time>2022-07-26T15:48:41.000Z</time>
      </trkpt>
      <trkpt lat="46.6327" lon="1.41136">
        <ele>46.2</ele>
        <time>2022-07-26T15:48:46.000Z</time>
      </trkpt>
      <trkpt lat="46.63273" lon="1.41104">
        <ele>45.94</ele>
        <time>2022-07-26T15:48:51.000Z</time>
      </trkpt>
      <trkpt lat="46.63276" lon="1.41075">
        <ele>48.27</ele>
        <time>2022-07-26T15:48:55.239Z</time>
      </trkpt>
      <trkpt lat="46.63278" lon="1.4106">
        <ele>47.23</ele>
        <time>2022-07-26T15:49:00.000Z</time>
      </trkpt>
      <trkpt lat="46.63282" lon="1.41031">
        <ele>48.79</ele>
        <time>2022-07-26T15:49:05.000Z</time>
      </trkpt>
      <trkpt lat="46.63288" lon="1.40989">
        <ele>51.5</ele>
        <time>2022-07-26T15:49:11.000Z</time>
      </trkpt>
      <trkpt lat="46.63293" lon="1.40958">
        <ele>52.38</ele>
        <time>2022-07-26T15:49:16.000Z</time>
      </trkpt>
      <trkpt lat="46.63298" lon="1.40928">
        <ele>52.56</ele>
        <time>2022-07-26T15:49:20.335Z</time>
      </trkpt>
      <trkpt lat="46.63303" lon="1.40911">
        <ele>52.38</ele>
        <time>2022-07-26T15:49:26.000Z</time>
      </trkpt>
      <trkpt lat="46.63303" lon="1.40896">
        <ele>52.41</ele>
        <time>2022-07-26T15:49:31.000Z</time>
      </trkpt>
      <trkpt lat="46.63308" lon="1.40881">
        <ele>52.16</ele>
        <time>2022-07-26T15:49:36.000Z</time>
      </trkpt>
      <trkpt lat="46.63312" lon="1.40865">
        <ele>51.68</ele>
        <time>2022-07-26T15:49:41.000Z</time>
      </trkpt>
      <trkpt lat="46.63318" lon="1.40836">
        <ele>52.19</ele>
        <time>2022-07-26T15:49:47.000Z</time>
      </trkpt>
      <trkpt lat="46.63323" lon="1.40812">
        <ele>52.15</ele>
        <time>2022-07-26T15:49:52.000Z</time>
      </trkpt>
      <trkpt lat="46.63332" lon="1.4078">
        <ele>52.65</ele>
        <time>2022-07-26T15:49:56.318Z</time>
      </trkpt>
      <trkpt lat="46.63337" lon="1.40763">
        <ele>53.05</ele>
        <time>2022-07-26T15:50:01.000Z</time>
      </trkpt>
      <trkpt lat="46.6335" lon="1.40737">
        <ele>50.52</ele>
        <time>2022-07-26T15:50:07.000Z</time>
      </trkpt>
      <trkpt lat="46.63361" lon="1.40707">
        <ele>50.24</ele>
        <time>2022-07-26T15:50:12.000Z</time>
      </trkpt>
      <trkpt lat="46.63373" lon="1.40676">
        <ele>50.88</ele>
        <time>2022-07-26T15:50:18.000Z</time>
      </trkpt>
      <trkpt lat="46.63383" lon="1.40653">
        <ele>51.11</ele>
        <time>2022-07-26T15:50:23.000Z</time>
      </trkpt>
      <trkpt lat="46.63394" lon="1.4063">
        <ele>50.61</ele>
        <time>2022-07-26T15:50:27.009Z</time>
      </trkpt>
      <trkpt lat="46.63406" lon="1.4061">
        <ele>48.36</ele>
        <time>2022-07-26T15:50:31.343Z</time>
      </trkpt>
      <trkpt lat="46.63414" lon="1.40594">
        <ele>47.52</ele>
        <time>2022-07-26T15:50:36.000Z</time>
      </trkpt>
      <trkpt lat="46.63426" lon="1.4057">
        <ele>47.08</ele>
        <time>2022-07-26T15:50:41.000Z</time>
      </trkpt>
      <trkpt lat="46.6344" lon="1.40545">
        <ele>47.4</ele>
        <time>2022-07-26T15:50:46.000Z</time>
      </trkpt>
      <trkpt lat="46.63457" lon="1.40523">
        <ele>47.57</ele>
        <time>2022-07-26T15:50:50.416Z</time>
      </trkpt>
      <trkpt lat="46.63466" lon="1.40509">
        <ele>48.78</ele>
        <time>2022-07-26T15:50:55.000Z</time>
      </trkpt>
      <trkpt lat="46.63479" lon="1.40487">
        <ele>49.1</ele>
        <time>2022-07-26T15:51:00.000Z</time>
      </trkpt>
      <trkpt lat="46.63494" lon="1.40463">
        <ele>47.27</ele>
        <time>2022-07-26T15:51:06.000Z</time>
      </trkpt>
      <trkpt lat="46.63507" lon="1.40438">
        <ele>48.29</ele>
        <time>2022-07-26T15:51:11.000Z</time>
      </trkpt>
      <trkpt lat="46.63521" lon="1.40416">
        <ele>49.61</ele>
        <time>2022-07-26T15:51:16.000Z</time>
      </trkpt>
      <trkpt lat="46.63533" lon="1.40396">
        <ele>50.32</ele>
        <time>2022-07-26T15:51:21.000Z</time>
      </trkpt>
      <trkpt lat="46.63546" lon="1.40376">
        <ele>50.13</ele>
        <time>2022-07-26T15:51:25.604Z</time>
      </trkpt>
      <trkpt lat="46.63557" lon="1.40357">
        <ele>49.21</ele>
        <time>2022-07-26T15:51:30.175Z</time>
      </trkpt>
      <trkpt lat="46.6357" lon="1.40339">
        <ele>48.68</ele>
        <time>2022-07-26T15:51:36.000Z</time>
      </trkpt>
      <trkpt lat="46.63584" lon="1.40322">
        <ele>46.65</ele>
        <time>2022-07-26T15:51:41.000Z</time>
      </trkpt>
      <trkpt lat="46.63597" lon="1.40305">
        <ele>44.48</ele>
        <time>2022-07-26T15:51:46.000Z</time>
      </trkpt>
      <trkpt lat="46.6361" lon="1.40282">
        <ele>44.06</ele>
        <time>2022-07-26T15:51:51.000Z</time>
      </trkpt>
      <trkpt lat="46.63624" lon="1.40261">
        <ele>44.85</ele>
        <time>2022-07-26T15:51:56.000Z</time>
      </trkpt>
      <trkpt lat="46.63637" lon="1.4024">
        <ele>45.9</ele>
        <time>2022-07-26T15:52:00.356Z</time>
      </trkpt>
      <trkpt lat="46.63645" lon="1.40228">
        <ele>46.74</ele>
        <time>2022-07-26T15:52:07.000Z</time>
      </trkpt>
      <trkpt lat="46.63643" lon="1.40212">
        <ele>48.6</ele>
        <time>2022-07-26T15:52:30.000Z</time>
      </trkpt>
      <trkpt lat="46.63642" lon="1.40226">
        <ele>48.96</ele>
        <time>2022-07-26T15:52:37.000Z</time>
      </trkpt>
      <trkpt lat="46.6365" lon="1.40215">
        <ele>49.72</ele>
        <time>2022-07-26T15:53:22.000Z</time>
      </trkpt>
      <trkpt lat="46.63662" lon="1.40194">
        <ele>51.95</ele>
        <time>2022-07-26T15:53:27.000Z</time>
      </trkpt>
      <trkpt lat="46.63674" lon="1.40176">
        <ele>49.57</ele>
        <time>2022-07-26T15:53:32.000Z</time>
      </trkpt>
      <trkpt lat="46.63686" lon="1.40162">
        <ele>46.56</ele>
        <time>2022-07-26T15:53:37.000Z</time>
      </trkpt>
      <trkpt lat="46.63699" lon="1.4014">
        <ele>47.27</ele>
        <time>2022-07-26T15:53:42.000Z</time>
      </trkpt>
      <trkpt lat="46.63713" lon="1.40119">
        <ele>49.14</ele>
        <time>2022-07-26T15:53:46.356Z</time>
      </trkpt>
      <trkpt lat="46.63725" lon="1.40109">
        <ele>48.38</ele>
        <time>2022-07-26T15:53:52.000Z</time>
      </trkpt>
      <trkpt lat="46.63739" lon="1.40082">
        <ele>46.74</ele>
        <time>2022-07-26T15:53:58.000Z</time>
      </trkpt>
      <trkpt lat="46.63754" lon="1.40057">
        <ele>48.09</ele>
        <time>2022-07-26T15:54:02.258Z</time>
      </trkpt>
      <trkpt lat="46.63763" lon="1.40046">
        <ele>48.64</ele>
        <time>2022-07-26T15:54:07.000Z</time>
      </trkpt>
      <trkpt lat="46.63779" lon="1.4002">
        <ele>49.05</ele>
        <time>2022-07-26T15:54:13.000Z</time>
      </trkpt>
      <trkpt lat="46.63792" lon="1.39999">
        <ele>48.82</ele>
        <time>2022-07-26T15:54:18.000Z</time>
      </trkpt>
      <trkpt lat="46.63806" lon="1.39978">
        <ele>50.37</ele>
        <time>2022-07-26T15:54:23.000Z</time>
      </trkpt>
      <trkpt lat="46.6382" lon="1.3996">
        <ele>49.69</ele>
        <time>2022-07-26T15:54:28.000Z</time>
      </trkpt>
      <trkpt lat="46.63832" lon="1.3994">
        <ele>49.53</ele>
        <time>2022-07-26T15:54:33.000Z</time>
      </trkpt>
      <trkpt lat="46.63846" lon="1.39916">
        <ele>49.21</ele>
        <time>2022-07-26T15:54:37.551Z</time>
      </trkpt>
      <trkpt lat="46.63855" lon="1.39899">
        <ele>50.04</ele>
        <time>2022-07-26T15:54:42.000Z</time>
      </trkpt>
      <trkpt lat="46.63869" lon="1.39876">
        <ele>51.4</ele>
        <time>2022-07-26T15:54:47.000Z</time>
      </trkpt>
      <trkpt lat="46.63882" lon="1.39852">
        <ele>52.45</ele>
        <time>2022-07-26T15:54:52.000Z</time>
      </trkpt>
      <trkpt lat="46.63897" lon="1.39827">
        <ele>52.49</ele>
        <time>2022-07-26T15:54:58.000Z</time>
      </trkpt>
      <trkpt lat="46.63908" lon="1.39806">
        <ele>52.86</ele>
        <time>2022-07-26T15:55:03.000Z</time>
      </trkpt>
      <trkpt lat="46.63916" lon="1.39794">
        <ele>52.76</ele>
        <time>2022-07-26T15:55:08.000Z</time>
      </trkpt>
      <trkpt lat="46.63913" lon="1.39779">
        <ele>54.83</ele>
        <time>2022-07-26T15:55:13.558Z</time>
      </trkpt>
      <trkpt lat="46.63901" lon="1.39769">
        <ele>54.15</ele>
        <time>2022-07-26T15:55:18.593Z</time>
      </trkpt>
      <trkpt lat="46.63887" lon="1.39758">
        <ele>52.47</ele>
        <time>2022-07-26T15:55:22.652Z</time>
      </trkpt>
      <trkpt lat="46.6387" lon="1.39746">
        <ele>51.59</ele>
        <time>2022-07-26T15:55:27.000Z</time>
      </trkpt>
      <trkpt lat="46.63846" lon="1.39723">
        <ele>50.46</ele>
        <time>2022-07-26T15:55:32.000Z</time>
      </trkpt>
      <trkpt lat="46.63823" lon="1.39701">
        <ele>47.97</ele>
        <time>2022-07-26T15:55:37.000Z</time>
      </trkpt>
      <trkpt lat="46.63801" lon="1.39687">
        <ele>48.52</ele>
        <time>2022-07-26T15:55:41.350Z</time>
      </trkpt>
      <trkpt lat="46.63782" lon="1.39677">
        <ele>49.33</ele>
        <time>2022-07-26T15:55:46.000Z</time>
      </trkpt>
      <trkpt lat="46.63759" lon="1.3967">
        <ele>50.72</ele>
        <time>2022-07-26T15:55:50.574Z</time>
      </trkpt>
      <trkpt lat="46.63739" lon="1.39654">
        <ele>49.95</ele>
        <time>2022-07-26T15:55:55.698Z</time>
      </trkpt>
      <trkpt lat="46.63725" lon="1.39652">
        <ele>49.14</ele>
        <time>2022-07-26T15:56:01.000Z</time>
      </trkpt>
      <trkpt lat="46.63711" lon="1.39652">
        <ele>47.02</ele>
        <time>2022-07-26T15:56:05.274Z</time>
      </trkpt>
      <trkpt lat="46.63702" lon="1.3965">
        <ele>48.13</ele>
        <time>2022-07-26T15:56:26.000Z</time>
      </trkpt>
      <trkpt lat="46.6369" lon="1.39646">
        <ele>48.03</ele>
        <time>2022-07-26T15:56:31.000Z</time>
      </trkpt>
      <trkpt lat="46.63676" lon="1.39642">
        <ele>48.41</ele>
        <time>2022-07-26T15:56:37.000Z</time>
      </trkpt>
      <trkpt lat="46.63658" lon="1.39637">
        <ele>47.29</ele>
        <time>2022-07-26T15:56:41.578Z</time>
      </trkpt>
      <trkpt lat="46.63668" lon="1.39642">
        <ele>41.32</ele>
        <time>2022-07-26T15:57:37.000Z</time>
      </trkpt>
      <trkpt lat="46.63677" lon="1.39642">
        <ele>40.98</ele>
        <time>2022-07-26T15:57:44.000Z</time>
      </trkpt>
      <trkpt lat="46.63688" lon="1.39642">
        <ele>42.18</ele>
        <time>2022-07-26T15:57:49.000Z</time>
      </trkpt>
      <trkpt lat="46.63697" lon="1.39646">
        <ele>42.71</ele>
        <time>2022-07-26T15:57:54.000Z</time>
      </trkpt>
      <trkpt lat="46.63712" lon="1.39651">
        <ele>42.54</ele>
        <time>2022-07-26T15:57:58.660Z</time>
      </trkpt>
      <trkpt lat="46.63713" lon="1.39635">
        <ele>44.75</ele>
        <time>2022-07-26T15:59:05.464Z</time>
      </trkpt>
      <trkpt lat="46.63714" lon="1.39619">
        <ele>45.03</ele>
        <time>2022-07-26T15:59:09.625Z</time>
      </trkpt>
      <trkpt lat="46.63716" lon="1.39603">
        <ele>46.46</ele>
        <time>2022-07-26T15:59:14.196Z</time>
      </trkpt>
      <trkpt lat="46.63717" lon="1.3959">
        <ele>46.99</ele>
        <time>2022-07-26T15:59:19.000Z</time>
      </trkpt>
      <trkpt lat="46.63717" lon="1.39566">
        <ele>48.26</ele>
        <time>2022-07-26T15:59:23.175Z</time>
      </trkpt>
      <trkpt lat="46.63717" lon="1.39545">
        <ele>48.21</ele>
        <time>2022-07-26T15:59:29.000Z</time>
      </trkpt>
      <trkpt lat="46.63723" lon="1.39519">
        <ele>49.28</ele>
        <time>2022-07-26T15:59:35.000Z</time>
      </trkpt>
      <trkpt lat="46.63729" lon="1.39495">
        <ele>50.24</ele>
        <time>2022-07-26T15:59:39.420Z</time>
      </trkpt>
      <trkpt lat="46.6373" lon="1.39477">
        <ele>50.95</ele>
        <time>2022-07-26T15:59:45.000Z</time>
      </trkpt>
      <trkpt lat="46.63729" lon="1.39453">
        <ele>50.33</ele>
        <time>2022-07-26T15:59:51.000Z</time>
      </trkpt>
      <trkpt lat="46.63727" lon="1.3943">
        <ele>49.44</ele>
        <time>2022-07-26T15:59:55.621Z</time>
      </trkpt>
      <trkpt lat="46.63723" lon="1.39416">
        <ele>49.71</ele>
        <time>2022-07-26T15:59:59.819Z</time>
      </trkpt>
      <trkpt lat="46.63717" lon="1.39397">
        <ele>48.12</ele>
        <time>2022-07-26T16:00:05.178Z</time>
      </trkpt>
      <trkpt lat="46.63721" lon="1.3941">
        <ele>48.71</ele>
        <time>2022-07-26T16:01:20.419Z</time>
      </trkpt>
      <trkpt lat="46.63724" lon="1.39424">
        <ele>47.89</ele>
        <time>2022-07-26T16:01:25.000Z</time>
      </trkpt>
      <trkpt lat="46.63728" lon="1.39442">
        <ele>46.22</ele>
        <time>2022-07-26T16:01:30.000Z</time>
      </trkpt>
      <trkpt lat="46.63732" lon="1.39461">
        <ele>46.54</ele>
        <time>2022-07-26T16:01:35.000Z</time>
      </trkpt>
      <trkpt lat="46.63733" lon="1.39482">
        <ele>45.8</ele>
        <time>2022-07-26T16:01:39.543Z</time>
      </trkpt>
      <trkpt lat="46.63731" lon="1.39496">
        <ele>45.93</ele>
        <time>2022-07-26T16:01:46.000Z</time>
      </trkpt>
      <trkpt lat="46.63726" lon="1.39513">
        <ele>47.93</ele>
        <time>2022-07-26T16:01:51.000Z</time>
      </trkpt>
      <trkpt lat="46.63719" lon="1.39542">
        <ele>48.58</ele>
        <time>2022-07-26T16:01:55.683Z</time>
      </trkpt>
      <trkpt lat="46.63719" lon="1.39557">
        <ele>48.94</ele>
        <time>2022-07-26T16:02:00.182Z</time>
      </trkpt>
      <trkpt lat="46.63719" lon="1.39572">
        <ele>49.04</ele>
        <time>2022-07-26T16:02:05.541Z</time>
      </trkpt>
      <trkpt lat="46.63718" lon="1.39588">
        <ele>49.52</ele>
        <time>2022-07-26T16:02:11.000Z</time>
      </trkpt>
      <trkpt lat="46.63717" lon="1.39608">
        <ele>51.12</ele>
        <time>2022-07-26T16:02:16.000Z</time>
      </trkpt>
      <trkpt lat="46.63717" lon="1.39629">
        <ele>52.38</ele>
        <time>2022-07-26T16:02:20.404Z</time>
      </trkpt>
      <trkpt lat="46.63717" lon="1.39644">
        <ele>51.3</ele>
        <time>2022-07-26T16:02:26.000Z</time>
      </trkpt>
      <trkpt lat="46.6372" lon="1.39658">
        <ele>50.67</ele>
        <time>2022-07-26T16:02:30.442Z</time>
      </trkpt>
      <trkpt lat="46.63719" lon="1.39677">
        <ele>50.55</ele>
        <time>2022-07-26T16:02:36.615Z</time>
      </trkpt>
      <trkpt lat="46.63717" lon="1.39694">
        <ele>49.22</ele>
        <time>2022-07-26T16:02:41.097Z</time>
      </trkpt>
      <trkpt lat="46.63715" lon="1.3971">
        <ele>49.46</ele>
        <time>2022-07-26T16:02:45.375Z</time>
      </trkpt>
      <trkpt lat="46.63711" lon="1.39728">
        <ele>49.93</ele>
        <time>2022-07-26T16:02:50.582Z</time>
      </trkpt>
      <trkpt lat="46.63709" lon="1.39745">
        <ele>49.59</ele>
        <time>2022-07-26T16:02:55.001Z</time>
      </trkpt>
      <trkpt lat="46.63705" lon="1.3976">
        <ele>49.34</ele>
        <time>2022-07-26T16:02:59.140Z</time>
      </trkpt>
      <trkpt lat="46.63701" lon="1.39773">
        <ele>48.86</ele>
        <time>2022-07-26T16:03:04.000Z</time>
      </trkpt>
      <trkpt lat="46.63695" lon="1.39791">
        <ele>46.43</ele>
        <time>2022-07-26T16:03:08.314Z</time>
      </trkpt>
      <trkpt lat="46.63688" lon="1.39808">
        <ele>46.4</ele>
        <time>2022-07-26T16:03:12.795Z</time>
      </trkpt>
      <trkpt lat="46.63682" lon="1.39824">
        <ele>46.46</ele>
        <time>2022-07-26T16:03:16.995Z</time>
      </trkpt>
      <trkpt lat="46.63675" lon="1.39844">
        <ele>46.02</ele>
        <time>2022-07-26T16:03:23.000Z</time>
      </trkpt>
      <trkpt lat="46.63666" lon="1.39868">
        <ele>47.13</ele>
        <time>2022-07-26T16:03:29.000Z</time>
      </trkpt>
      <trkpt lat="46.63659" lon="1.39884">
        <ele>48.3</ele>
        <time>2022-07-26T16:03:34.000Z</time>
      </trkpt>
      <trkpt lat="46.63652" lon="1.39902">
        <ele>47.85</ele>
        <time>2022-07-26T16:03:39.000Z</time>
      </trkpt>
      <trkpt lat="46.63643" lon="1.39923">
        <ele>48.21</ele>
        <time>2022-07-26T16:03:43.679Z</time>
      </trkpt>
      <trkpt lat="46.63637" lon="1.39938">
        <ele>48.27</ele>
        <time>2022-07-26T16:03:48.138Z</time>
      </trkpt>
      <trkpt lat="46.63631" lon="1.39952">
        <ele>48.21</ele>
        <time>2022-07-26T16:03:52.519Z</time>
      </trkpt>
      <trkpt lat="46.63627" lon="1.39964">
        <ele>49.58</ele>
        <time>2022-07-26T16:03:57.615Z</time>
      </trkpt>
      <trkpt lat="46.63621" lon="1.39979">
        <ele>51.2</ele>
        <time>2022-07-26T16:04:01.994Z</time>
      </trkpt>
      <trkpt lat="46.63616" lon="1.39995">
        <ele>49.63</ele>
        <time>2022-07-26T16:04:06.126Z</time>
      </trkpt>
      <trkpt lat="46.63611" lon="1.4001">
        <ele>47.99</ele>
        <time>2022-07-26T16:04:10.402Z</time>
      </trkpt>
      <trkpt lat="46.63604" lon="1.40031">
        <ele>46.89</ele>
        <time>2022-07-26T16:04:15.318Z</time>
      </trkpt>
      <trkpt lat="46.63598" lon="1.4005">
        <ele>46.91</ele>
        <time>2022-07-26T16:04:19.496Z</time>
      </trkpt>
      <trkpt lat="46.63593" lon="1.40065">
        <ele>47.88</ele>
        <time>2022-07-26T16:04:25.000Z</time>
      </trkpt>
      <trkpt lat="46.63586" lon="1.40087">
        <ele>46.94</ele>
        <time>2022-07-26T16:04:29.455Z</time>
      </trkpt>
      <trkpt lat="46.63582" lon="1.40101">
        <ele>45.41</ele>
        <time>2022-07-26T16:04:35.000Z</time>
      </trkpt>
      <trkpt lat="46.63576" lon="1.40118">
        <ele>44.12</ele>
        <time>2022-07-26T16:04:40.000Z</time>
      </trkpt>
      <trkpt lat="46.63571" lon="1.40137">
        <ele>44.54</ele>
        <time>2022-07-26T16:04:44.358Z</time>
      </trkpt>
      <trkpt lat="46.63566" lon="1.4015">
        <ele>45.2</ele>
        <time>2022-07-26T16:04:50.000Z</time>
      </trkpt>
      <trkpt lat="46.63558" lon="1.40175">
        <ele>46.13</ele>
        <time>2022-07-26T16:04:54.559Z</time>
      </trkpt>
      <trkpt lat="46.63554" lon="1.40189">
        <ele>45.21</ele>
        <time>2022-07-26T16:05:00.000Z</time>
      </trkpt>
      <trkpt lat="46.63547" lon="1.40209">
        <ele>44.77</ele>
        <time>2022-07-26T16:05:04.476Z</time>
      </trkpt>
      <trkpt lat="46.63541" lon="1.40225">
        <ele>45.21</ele>
        <time>2022-07-26T16:05:08.659Z</time>
      </trkpt>
      <trkpt lat="46.63535" lon="1.40239">
        <ele>46.65</ele>
        <time>2022-07-26T16:05:13.138Z</time>
      </trkpt>
      <trkpt lat="46.63529" lon="1.40252">
        <ele>47.59</ele>
        <time>2022-07-26T16:05:19.000Z</time>
      </trkpt>
      <trkpt lat="46.63523" lon="1.40272">
        <ele>47.52</ele>
        <time>2022-07-26T16:05:24.000Z</time>
      </trkpt>
      <trkpt lat="46.63518" lon="1.40288">
        <ele>47.81</ele>
        <time>2022-07-26T16:05:29.000Z</time>
      </trkpt>
      <trkpt lat="46.63512" lon="1.40309">
        <ele>48.61</ele>
        <time>2022-07-26T16:05:35.000Z</time>
      </trkpt>
      <trkpt lat="46.6351" lon="1.4033">
        <ele>49.33</ele>
        <time>2022-07-26T16:05:39.539Z</time>
      </trkpt>
      <trkpt lat="46.6351" lon="1.40347">
        <ele>47.72</ele>
        <time>2022-07-26T16:05:44.101Z</time>
      </trkpt>
      <trkpt lat="46.63511" lon="1.40361">
        <ele>47.31</ele>
        <time>2022-07-26T16:05:49.000Z</time>
      </trkpt>
      <trkpt lat="46.63512" lon="1.40379">
        <ele>47.79</ele>
        <time>2022-07-26T16:05:53.083Z</time>
      </trkpt>
      <trkpt lat="46.63514" lon="1.40393">
        <ele>46.76</ele>
        <time>2022-07-26T16:05:57.615Z</time>
      </trkpt>
      <trkpt lat="46.63511" lon="1.4041">
        <ele>46.21</ele>
        <time>2022-07-26T16:06:05.000Z</time>
      </trkpt>
      <trkpt lat="46.63524" lon="1.40411">
        <ele>48.08</ele>
        <time>2022-07-26T16:07:31.000Z</time>
      </trkpt>
      <trkpt lat="46.63536" lon="1.40395">
        <ele>48.55</ele>
        <time>2022-07-26T16:07:36.000Z</time>
      </trkpt>
      <trkpt lat="46.63546" lon="1.40379">
        <ele>49.28</ele>
        <time>2022-07-26T16:07:41.000Z</time>
      </trkpt>
      <trkpt lat="46.63558" lon="1.40361">
        <ele>48.64</ele>
        <time>2022-07-26T16:07:46.000Z</time>
      </trkpt>
      <trkpt lat="46.6357" lon="1.40342">
        <ele>48.69</ele>
        <time>2022-07-26T16:07:51.000Z</time>
      </trkpt>
      <trkpt lat="46.63584" lon="1.40323">
        <ele>47.02</ele>
        <time>2022-07-26T16:07:56.000Z</time>
      </trkpt>
      <trkpt lat="46.63598" lon="1.40307">
        <ele>44.62</ele>
        <time>2022-07-26T16:08:01.000Z</time>
      </trkpt>
      <trkpt lat="46.6361" lon="1.40286">
        <ele>44.36</ele>
        <time>2022-07-26T16:08:06.000Z</time>
      </trkpt>
      <trkpt lat="46.63623" lon="1.40263">
        <ele>44.17</ele>
        <time>2022-07-26T16:08:11.000Z</time>
      </trkpt>
      <trkpt lat="46.63637" lon="1.40242">
        <ele>43.37</ele>
        <time>2022-07-26T16:08:16.000Z</time>
      </trkpt>
      <trkpt lat="46.6365" lon="1.40219">
        <ele>45.16</ele>
        <time>2022-07-26T16:08:21.000Z</time>
      </trkpt>
      <trkpt lat="46.63668" lon="1.40193">
        <ele>45.01</ele>
        <time>2022-07-26T16:08:27.000Z</time>
      </trkpt>
      <trkpt lat="46.63681" lon="1.40173">
        <ele>43.42</ele>
        <time>2022-07-26T16:08:32.000Z</time>
      </trkpt>
      <trkpt lat="46.63694" lon="1.40153">
        <ele>42.15</ele>
        <time>2022-07-26T16:08:37.000Z</time>
      </trkpt>
      <trkpt lat="46.63709" lon="1.4013">
        <ele>43.92</ele>
        <time>2022-07-26T16:08:42.000Z</time>
      </trkpt>
      <trkpt lat="46.63725" lon="1.40103">
        <ele>44.19</ele>
        <time>2022-07-26T16:08:48.000Z</time>
      </trkpt>
      <trkpt lat="46.6374" lon="1.4008">
        <ele>45.03</ele>
        <time>2022-07-26T16:08:53.000Z</time>
      </trkpt>
      <trkpt lat="46.63754" lon="1.40059">
        <ele>44.67</ele>
        <time>2022-07-26T16:08:58.000Z</time>
      </trkpt>
      <trkpt lat="46.63771" lon="1.40033">
        <ele>44.16</ele>
        <time>2022-07-26T16:09:04.000Z</time>
      </trkpt>
      <trkpt lat="46.63787" lon="1.40006">
        <ele>44.9</ele>
        <time>2022-07-26T16:09:08.573Z</time>
      </trkpt>
      <trkpt lat="46.63796" lon="1.3999">
        <ele>46.64</ele>
        <time>2022-07-26T16:09:13.000Z</time>
      </trkpt>
      <trkpt lat="46.63811" lon="1.39966">
        <ele>47.38</ele>
        <time>2022-07-26T16:09:18.000Z</time>
      </trkpt>
      <trkpt lat="46.63825" lon="1.39944">
        <ele>48.4</ele>
        <time>2022-07-26T16:09:23.000Z</time>
      </trkpt>
      <trkpt lat="46.63838" lon="1.39922">
        <ele>48.75</ele>
        <time>2022-07-26T16:09:28.000Z</time>
      </trkpt>
      <trkpt lat="46.63852" lon="1.399">
        <ele>49.03</ele>
        <time>2022-07-26T16:09:33.000Z</time>
      </trkpt>
      <trkpt lat="46.63868" lon="1.39875">
        <ele>49.02</ele>
        <time>2022-07-26T16:09:39.000Z</time>
      </trkpt>
      <trkpt lat="46.63883" lon="1.39852">
        <ele>49.36</ele>
        <time>2022-07-26T16:09:43.556Z</time>
      </trkpt>
      <trkpt lat="46.63892" lon="1.39837">
        <ele>49.65</ele>
        <time>2022-07-26T16:09:48.000Z</time>
      </trkpt>
      <trkpt lat="46.63907" lon="1.39808">
        <ele>50.17</ele>
        <time>2022-07-26T16:09:54.000Z</time>
      </trkpt>
      <trkpt lat="46.63916" lon="1.39791">
        <ele>50.72</ele>
        <time>2022-07-26T16:09:59.000Z</time>
      </trkpt>
      <trkpt lat="46.63922" lon="1.39778">
        <ele>50.09</ele>
        <time>2022-07-26T16:10:04.000Z</time>
      </trkpt>
      <trkpt lat="46.63931" lon="1.39759">
        <ele>49.64</ele>
        <time>2022-07-26T16:10:09.000Z</time>
      </trkpt>
      <trkpt lat="46.6394" lon="1.39735">
        <ele>49.72</ele>
        <time>2022-07-26T16:10:14.000Z</time>
      </trkpt>
      <trkpt lat="46.63949" lon="1.39713">
        <ele>49.2</ele>
        <time>2022-07-26T16:10:19.000Z</time>
      </trkpt>
      <trkpt lat="46.63959" lon="1.39687">
        <ele>48.31</ele>
        <time>2022-07-26T16:10:23.220Z</time>
      </trkpt>
      <trkpt lat="46.63965" lon="1.3967">
        <ele>48.17</ele>
        <time>2022-07-26T16:10:28.000Z</time>
      </trkpt>
      <trkpt lat="46.63975" lon="1.39641">
        <ele>48.58</ele>
        <time>2022-07-26T16:10:32.243Z</time>
      </trkpt>
      <trkpt lat="46.63978" lon="1.39621">
        <ele>48.79</ele>
        <time>2022-07-26T16:10:37.000Z</time>
      </trkpt>
      <trkpt lat="46.63986" lon="1.3959">
        <ele>48.22</ele>
        <time>2022-07-26T16:10:42.000Z</time>
      </trkpt>
      <trkpt lat="46.63993" lon="1.39556">
        <ele>48.48</ele>
        <time>2022-07-26T16:10:47.000Z</time>
      </trkpt>
      <trkpt lat="46.63997" lon="1.39522">
        <ele>49.45</ele>
        <time>2022-07-26T16:10:52.000Z</time>
      </trkpt>
      <trkpt lat="46.64002" lon="1.39488">
        <ele>48.67</ele>
        <time>2022-07-26T16:10:57.000Z</time>
      </trkpt>
      <trkpt lat="46.64006" lon="1.39452">
        <ele>49.37</ele>
        <time>2022-07-26T16:11:02.000Z</time>
      </trkpt>
      <trkpt lat="46.64009" lon="1.39417">
        <ele>49.76</ele>
        <time>2022-07-26T16:11:07.000Z</time>
      </trkpt>
      <trkpt lat="46.64012" lon="1.39377">
        <ele>50.3</ele>
        <time>2022-07-26T16:11:12.000Z</time>
      </trkpt>
      <trkpt lat="46.64011" lon="1.39337">
        <ele>50.15</ele>
        <time>2022-07-26T16:11:17.000Z</time>
      </trkpt>
      <trkpt lat="46.64013" lon="1.39303">
        <ele>49.04</ele>
        <time>2022-07-26T16:11:22.000Z</time>
      </trkpt>
      <trkpt lat="46.64012" lon="1.39261">
        <ele>47.67</ele>
        <time>2022-07-26T16:11:27.000Z</time>
      </trkpt>
      <trkpt lat="46.64011" lon="1.3922">
        <ele>49.74</ele>
        <time>2022-07-26T16:11:32.000Z</time>
      </trkpt>
      <trkpt lat="46.64011" lon="1.39183">
        <ele>51.47</ele>
        <time>2022-07-26T16:11:37.000Z</time>
      </trkpt>
      <trkpt lat="46.64011" lon="1.39149">
        <ele>51.4</ele>
        <time>2022-07-26T16:11:42.000Z</time>
      </trkpt>
      <trkpt lat="46.64011" lon="1.39115">
        <ele>49.74</ele>
        <time>2022-07-26T16:11:47.000Z</time>
      </trkpt>
      <trkpt lat="46.64011" lon="1.3908">
        <ele>48.81</ele>
        <time>2022-07-26T16:11:52.000Z</time>
      </trkpt>
      <trkpt lat="46.6401" lon="1.39044">
        <ele>47.65</ele>
        <time>2022-07-26T16:11:57.000Z</time>
      </trkpt>
      <trkpt lat="46.64011" lon="1.39007">
        <ele>46.76</ele>
        <time>2022-07-26T16:12:02.000Z</time>
      </trkpt>
      <trkpt lat="46.64009" lon="1.38971">
        <ele>47.34</ele>
        <time>2022-07-26T16:12:07.000Z</time>
      </trkpt>
      <trkpt lat="46.64008" lon="1.38937">
        <ele>48.01</ele>
        <time>2022-07-26T16:12:12.000Z</time>
      </trkpt>
      <trkpt lat="46.64008" lon="1.38906">
        <ele>47.46</ele>
        <time>2022-07-26T16:12:17.000Z</time>
      </trkpt>
      <trkpt lat="46.6401" lon="1.38875">
        <ele>47.2</ele>
        <time>2022-07-26T16:12:22.000Z</time>
      </trkpt>
      <trkpt lat="46.6401" lon="1.38844">
        <ele>47.29</ele>
        <time>2022-07-26T16:12:26.433Z</time>
      </trkpt>
      <trkpt lat="46.64009" lon="1.38829">
        <ele>47.28</ele>
        <time>2022-07-26T16:12:31.000Z</time>
      </trkpt>
      <trkpt lat="46.64009" lon="1.38813">
        <ele>47.42</ele>
        <time>2022-07-26T16:12:36.000Z</time>
      </trkpt>
      <trkpt lat="46.64008" lon="1.3879">
        <ele>47.72</ele>
        <time>2022-07-26T16:12:40.371Z</time>
      </trkpt>
      <trkpt lat="46.64006" lon="1.38774">
        <ele>44.6</ele>
        <time>2022-07-26T16:13:01.000Z</time>
      </trkpt>
      <trkpt lat="46.64009" lon="1.38739">
        <ele>43.92</ele>
        <time>2022-07-26T16:13:07.000Z</time>
      </trkpt>
      <trkpt lat="46.64009" lon="1.38706">
        <ele>43.42</ele>
        <time>2022-07-26T16:13:11.090Z</time>
      </trkpt>
      <trkpt lat="46.64008" lon="1.38677">
        <ele>44.1</ele>
        <time>2022-07-26T16:13:17.000Z</time>
      </trkpt>
      <trkpt lat="46.64007" lon="1.3865">
        <ele>45.24</ele>
        <time>2022-07-26T16:13:22.000Z</time>
      </trkpt>
      <trkpt lat="46.64008" lon="1.38614">
        <ele>45</ele>
        <time>2022-07-26T16:13:26.305Z</time>
      </trkpt>
      <trkpt lat="46.64007" lon="1.38593">
        <ele>45.12</ele>
        <time>2022-07-26T16:13:30.423Z</time>
      </trkpt>
      <trkpt lat="46.64007" lon="1.38577">
        <ele>44.92</ele>
        <time>2022-07-26T16:13:35.000Z</time>
      </trkpt>
      <trkpt lat="46.64007" lon="1.38539">
        <ele>45.07</ele>
        <time>2022-07-26T16:13:41.000Z</time>
      </trkpt>
      <trkpt lat="46.64006" lon="1.3851">
        <ele>46.79</ele>
        <time>2022-07-26T16:13:46.000Z</time>
      </trkpt>
      <trkpt lat="46.64006" lon="1.38481">
        <ele>45.8</ele>
        <time>2022-07-26T16:13:52.000Z</time>
      </trkpt>
      <trkpt lat="46.64006" lon="1.38453">
        <ele>47.06</ele>
        <time>2022-07-26T16:13:58.000Z</time>
      </trkpt>
      <trkpt lat="46.64005" lon="1.38424">
        <ele>48.69</ele>
        <time>2022-07-26T16:14:03.000Z</time>
      </trkpt>
      <trkpt lat="46.64004" lon="1.38388">
        <ele>49.34</ele>
        <time>2022-07-26T16:14:07.411Z</time>
      </trkpt>
      <trkpt lat="46.64003" lon="1.38363">
        <ele>49.89</ele>
        <time>2022-07-26T16:14:13.000Z</time>
      </trkpt>
      <trkpt lat="46.63999" lon="1.38329">
        <ele>51.56</ele>
        <time>2022-07-26T16:14:17.631Z</time>
      </trkpt>
      <trkpt lat="46.63995" lon="1.38302">
        <ele>50.34</ele>
        <time>2022-07-26T16:14:22.395Z</time>
      </trkpt>
      <trkpt lat="46.6399" lon="1.38283">
        <ele>49.82</ele>
        <time>2022-07-26T16:14:27.000Z</time>
      </trkpt>
      <trkpt lat="46.63985" lon="1.3825">
        <ele>47.01</ele>
        <time>2022-07-26T16:14:31.548Z</time>
      </trkpt>
      <trkpt lat="46.63981" lon="1.38232">
        <ele>47.61</ele>
        <time>2022-07-26T16:14:36.000Z</time>
      </trkpt>
      <trkpt lat="46.63974" lon="1.38204">
        <ele>45.17</ele>
        <time>2022-07-26T16:14:41.000Z</time>
      </trkpt>
      <trkpt lat="46.63969" lon="1.38175">
        <ele>42.89</ele>
        <time>2022-07-26T16:14:46.000Z</time>
      </trkpt>
      <trkpt lat="46.63961" lon="1.38139">
        <ele>41.76</ele>
        <time>2022-07-26T16:14:50.386Z</time>
      </trkpt>
      <trkpt lat="46.63954" lon="1.38118">
        <ele>40.94</ele>
        <time>2022-07-26T16:14:56.000Z</time>
      </trkpt>
      <trkpt lat="46.63945" lon="1.38086">
        <ele>41.22</ele>
        <time>2022-07-26T16:15:00.375Z</time>
      </trkpt>
      <trkpt lat="46.6394" lon="1.38069">
        <ele>39.48</ele>
        <time>2022-07-26T16:15:05.000Z</time>
      </trkpt>
      <trkpt lat="46.63927" lon="1.38045">
        <ele>41.96</ele>
        <time>2022-07-26T16:15:10.000Z</time>
      </trkpt>
      <trkpt lat="46.63915" lon="1.38024">
        <ele>43.37</ele>
        <time>2022-07-26T16:15:15.000Z</time>
      </trkpt>
      <trkpt lat="46.63908" lon="1.38002">
        <ele>38.85</ele>
        <time>2022-07-26T16:15:20.000Z</time>
      </trkpt>
      <trkpt lat="46.63898" lon="1.37976">
        <ele>34.71</ele>
        <time>2022-07-26T16:15:24.532Z</time>
      </trkpt>
      <trkpt lat="46.63892" lon="1.37963">
        <ele>34.07</ele>
        <time>2022-07-26T16:15:29.000Z</time>
      </trkpt>
      <trkpt lat="46.63882" lon="1.37944">
        <ele>34.29</ele>
        <time>2022-07-26T16:15:34.000Z</time>
      </trkpt>
      <trkpt lat="46.63867" lon="1.37921">
        <ele>36.22</ele>
        <time>2022-07-26T16:15:40.000Z</time>
      </trkpt>
      <trkpt lat="46.63853" lon="1.37902">
        <ele>38.86</ele>
        <time>2022-07-26T16:15:45.000Z</time>
      </trkpt>
      <trkpt lat="46.63841" lon="1.37881">
        <ele>40.59</ele>
        <time>2022-07-26T16:15:50.000Z</time>
      </trkpt>
      <trkpt lat="46.63826" lon="1.37861">
        <ele>42.26</ele>
        <time>2022-07-26T16:15:55.000Z</time>
      </trkpt>
      <trkpt lat="46.63815" lon="1.37843">
        <ele>41.85</ele>
        <time>2022-07-26T16:16:00.000Z</time>
      </trkpt>
      <trkpt lat="46.63801" lon="1.37817">
        <ele>37.27</ele>
        <time>2022-07-26T16:16:04.175Z</time>
      </trkpt>
      <trkpt lat="46.63793" lon="1.37802">
        <ele>35.69</ele>
        <time>2022-07-26T16:16:09.000Z</time>
      </trkpt>
      <trkpt lat="46.63781" lon="1.3778">
        <ele>34.3</ele>
        <time>2022-07-26T16:16:14.000Z</time>
      </trkpt>
      <trkpt lat="46.63769" lon="1.37755">
        <ele>31.48</ele>
        <time>2022-07-26T16:16:18.623Z</time>
      </trkpt>
      <trkpt lat="46.63763" lon="1.37742">
        <ele>28.24</ele>
        <time>2022-07-26T16:16:23.000Z</time>
      </trkpt>
      <trkpt lat="46.63751" lon="1.37717">
        <ele>25.17</ele>
        <time>2022-07-26T16:16:27.414Z</time>
      </trkpt>
      <trkpt lat="46.63743" lon="1.37703">
        <ele>22.82</ele>
        <time>2022-07-26T16:16:32.000Z</time>
      </trkpt>
      <trkpt lat="46.63731" lon="1.37681">
        <ele>20.53</ele>
        <time>2022-07-26T16:16:37.000Z</time>
      </trkpt>
      <trkpt lat="46.63719" lon="1.37659">
        <ele>18.82</ele>
        <time>2022-07-26T16:16:42.000Z</time>
      </trkpt>
      <trkpt lat="46.63705" lon="1.37637">
        <ele>18.62</ele>
        <time>2022-07-26T16:16:47.000Z</time>
      </trkpt>
      <trkpt lat="46.63687" lon="1.37611">
        <ele>21.88</ele>
        <time>2022-07-26T16:16:51.490Z</time>
      </trkpt>
      <trkpt lat="46.63674" lon="1.37591">
        <ele>23.06</ele>
        <time>2022-07-26T16:16:57.000Z</time>
      </trkpt>
      <trkpt lat="46.6366" lon="1.37567">
        <ele>25.42</ele>
        <time>2022-07-26T16:17:02.000Z</time>
      </trkpt>
      <trkpt lat="46.63643" lon="1.3754">
        <ele>28.05</ele>
        <time>2022-07-26T16:17:08.000Z</time>
      </trkpt>
      <trkpt lat="46.63629" lon="1.37514">
        <ele>28.47</ele>
        <time>2022-07-26T16:17:12.536Z</time>
      </trkpt>
      <trkpt lat="46.63617" lon="1.37495">
        <ele>29.14</ele>
        <time>2022-07-26T16:17:18.000Z</time>
      </trkpt>
      <trkpt lat="46.636" lon="1.37465">
        <ele>31.46</ele>
        <time>2022-07-26T16:17:24.000Z</time>
      </trkpt>
      <trkpt lat="46.63582" lon="1.37439">
        <ele>35.98</ele>
        <time>2022-07-26T16:17:28.109Z</time>
      </trkpt>
      <trkpt lat="46.6357" lon="1.3742">
        <ele>38.83</ele>
        <time>2022-07-26T16:17:33.000Z</time>
      </trkpt>
      <trkpt lat="46.63557" lon="1.37396">
        <ele>37.91</ele>
        <time>2022-07-26T16:17:38.000Z</time>
      </trkpt>
      <trkpt lat="46.63543" lon="1.3737">
        <ele>38.84</ele>
        <time>2022-07-26T16:17:43.000Z</time>
      </trkpt>
      <trkpt lat="46.6353" lon="1.37336">
        <ele>37.59</ele>
        <time>2022-07-26T16:17:49.000Z</time>
      </trkpt>
      <trkpt lat="46.6352" lon="1.37309">
        <ele>37</ele>
        <time>2022-07-26T16:17:54.000Z</time>
      </trkpt>
      <trkpt lat="46.63509" lon="1.37282">
        <ele>37.83</ele>
        <time>2022-07-26T16:17:59.000Z</time>
      </trkpt>
      <trkpt lat="46.63496" lon="1.37249">
        <ele>40.33</ele>
        <time>2022-07-26T16:18:03.595Z</time>
      </trkpt>
      <trkpt lat="46.6349" lon="1.37234">
        <ele>40.37</ele>
        <time>2022-07-26T16:18:08.000Z</time>
      </trkpt>
      <trkpt lat="46.63483" lon="1.37206">
        <ele>39.55</ele>
        <time>2022-07-26T16:18:13.000Z</time>
      </trkpt>
      <trkpt lat="46.63477" lon="1.3718">
        <ele>40.46</ele>
        <time>2022-07-26T16:18:18.000Z</time>
      </trkpt>
      <trkpt lat="46.6347" lon="1.37151">
        <ele>40.39</ele>
        <time>2022-07-26T16:18:22.313Z</time>
      </trkpt>
      <trkpt lat="46.63467" lon="1.3713">
        <ele>40.76</ele>
        <time>2022-07-26T16:18:28.000Z</time>
      </trkpt>
      <trkpt lat="46.63462" lon="1.371">
        <ele>43.21</ele>
        <time>2022-07-26T16:18:32.574Z</time>
      </trkpt>
      <trkpt lat="46.63458" lon="1.37081">
        <ele>47.27</ele>
        <time>2022-07-26T16:18:37.000Z</time>
      </trkpt>
      <trkpt lat="46.63453" lon="1.37051">
        <ele>50.64</ele>
        <time>2022-07-26T16:18:43.000Z</time>
      </trkpt>
      <trkpt lat="46.6345" lon="1.37029">
        <ele>52.79</ele>
        <time>2022-07-26T16:18:48.000Z</time>
      </trkpt>
      <trkpt lat="46.63449" lon="1.37012">
        <ele>52.23</ele>
        <time>2022-07-26T16:18:53.000Z</time>
      </trkpt>
      <trkpt lat="46.63441" lon="1.37004">
        <ele>50</ele>
        <time>2022-07-26T16:19:00.000Z</time>
      </trkpt>
      <trkpt lat="46.6343" lon="1.37006">
        <ele>49.89</ele>
        <time>2022-07-26T16:19:06.000Z</time>
      </trkpt>
      <trkpt lat="46.63434" lon="1.3702">
        <ele>47.82</ele>
        <time>2022-07-26T16:19:20.000Z</time>
      </trkpt>
      <trkpt lat="46.63425" lon="1.37008">
        <ele>48.28</ele>
        <time>2022-07-26T16:19:31.000Z</time>
      </trkpt>
      <trkpt lat="46.63434" lon="1.37003">
        <ele>48.08</ele>
        <time>2022-07-26T16:19:46.000Z</time>
      </trkpt>
      <trkpt lat="46.63443" lon="1.37003">
        <ele>48.5</ele>
        <time>2022-07-26T16:19:53.000Z</time>
      </trkpt>
      <trkpt lat="46.63451" lon="1.36998">
        <ele>49.19</ele>
        <time>2022-07-26T16:19:58.000Z</time>
      </trkpt>
      <trkpt lat="46.63462" lon="1.36998">
        <ele>49.76</ele>
        <time>2022-07-26T16:20:10.455Z</time>
      </trkpt>
      <trkpt lat="46.63475" lon="1.36997">
        <ele>50.79</ele>
        <time>2022-07-26T16:20:14.531Z</time>
      </trkpt>
      <trkpt lat="46.63487" lon="1.36995">
        <ele>51.62</ele>
        <time>2022-07-26T16:20:21.000Z</time>
      </trkpt>
      <trkpt lat="46.63497" lon="1.3699">
        <ele>51.25</ele>
        <time>2022-07-26T16:20:26.000Z</time>
      </trkpt>
      <trkpt lat="46.63502" lon="1.36979">
        <ele>52.84</ele>
        <time>2022-07-26T16:20:45.000Z</time>
      </trkpt>
      <trkpt lat="46.63498" lon="1.36991">
        <ele>52.86</ele>
        <time>2022-07-26T16:22:23.487Z</time>
      </trkpt>
      <trkpt lat="46.63476" lon="1.36997">
        <ele>50.75</ele>
        <time>2022-07-26T16:22:29.000Z</time>
      </trkpt>
      <trkpt lat="46.63455" lon="1.37002">
        <ele>49.22</ele>
        <time>2022-07-26T16:22:33.150Z</time>
      </trkpt>
      <trkpt lat="46.63448" lon="1.36993">
        <ele>48.72</ele>
        <time>2022-07-26T16:22:37.429Z</time>
      </trkpt>
      <trkpt lat="46.63448" lon="1.36979">
        <ele>48.37</ele>
        <time>2022-07-26T16:22:46.000Z</time>
      </trkpt>
      <trkpt lat="46.63448" lon="1.36951">
        <ele>48.82</ele>
        <time>2022-07-26T16:22:52.000Z</time>
      </trkpt>
      <trkpt lat="46.63446" lon="1.36926">
        <ele>49.51</ele>
        <time>2022-07-26T16:22:57.000Z</time>
      </trkpt>
      <trkpt lat="46.63444" lon="1.36903">
        <ele>49.99</ele>
        <time>2022-07-26T16:23:02.000Z</time>
      </trkpt>
      <trkpt lat="46.63442" lon="1.36876">
        <ele>50.12</ele>
        <time>2022-07-26T16:23:06.288Z</time>
      </trkpt>
      <trkpt lat="46.6344" lon="1.36856">
        <ele>50.73</ele>
        <time>2022-07-26T16:23:10.632Z</time>
      </trkpt>
      <trkpt lat="46.63438" lon="1.3684">
        <ele>51.16</ele>
        <time>2022-07-26T16:23:15.000Z</time>
      </trkpt>
      <trkpt lat="46.63435" lon="1.36808">
        <ele>50.44</ele>
        <time>2022-07-26T16:23:19.569Z</time>
      </trkpt>
      <trkpt lat="46.63434" lon="1.36787">
        <ele>51.03</ele>
        <time>2022-07-26T16:23:23.649Z</time>
      </trkpt>
      <trkpt lat="46.63433" lon="1.36769">
        <ele>50.84</ele>
        <time>2022-07-26T16:23:28.000Z</time>
      </trkpt>
      <trkpt lat="46.6343" lon="1.36736">
        <ele>50.59</ele>
        <time>2022-07-26T16:23:34.000Z</time>
      </trkpt>
      <trkpt lat="46.63428" lon="1.36708">
        <ele>49.55</ele>
        <time>2022-07-26T16:23:39.000Z</time>
      </trkpt>
      <trkpt lat="46.63427" lon="1.36678">
        <ele>50.09</ele>
        <time>2022-07-26T16:23:43.465Z</time>
      </trkpt>
      <trkpt lat="46.63426" lon="1.36654">
        <ele>51.28</ele>
        <time>2022-07-26T16:23:49.000Z</time>
      </trkpt>
      <trkpt lat="46.63425" lon="1.36619">
        <ele>51.09</ele>
        <time>2022-07-26T16:23:53.170Z</time>
      </trkpt>
      <trkpt lat="46.63425" lon="1.36594">
        <ele>49.86</ele>
        <time>2022-07-26T16:23:57.410Z</time>
      </trkpt>
      <trkpt lat="46.63425" lon="1.36573">
        <ele>49.77</ele>
        <time>2022-07-26T16:24:02.000Z</time>
      </trkpt>
      <trkpt lat="46.63423" lon="1.36544">
        <ele>49.92</ele>
        <time>2022-07-26T16:24:07.000Z</time>
      </trkpt>
      <trkpt lat="46.63422" lon="1.36516">
        <ele>49</ele>
        <time>2022-07-26T16:24:12.000Z</time>
      </trkpt>
      <trkpt lat="46.63424" lon="1.36486">
        <ele>48.36</ele>
        <time>2022-07-26T16:24:17.000Z</time>
      </trkpt>
      <trkpt lat="46.63426" lon="1.3645">
        <ele>47.05</ele>
        <time>2022-07-26T16:24:21.426Z</time>
      </trkpt>
      <trkpt lat="46.63427" lon="1.36419">
        <ele>48.55</ele>
        <time>2022-07-26T16:24:26.290Z</time>
      </trkpt>
      <trkpt lat="46.63429" lon="1.36397">
        <ele>48.02</ele>
        <time>2022-07-26T16:24:31.000Z</time>
      </trkpt>
      <trkpt lat="46.63431" lon="1.36362">
        <ele>47.3</ele>
        <time>2022-07-26T16:24:37.000Z</time>
      </trkpt>
      <trkpt lat="46.63434" lon="1.36333">
        <ele>46.3</ele>
        <time>2022-07-26T16:24:42.000Z</time>
      </trkpt>
      <trkpt lat="46.63436" lon="1.36303">
        <ele>45.25</ele>
        <time>2022-07-26T16:24:47.000Z</time>
      </trkpt>
      <trkpt lat="46.63438" lon="1.36268">
        <ele>45.32</ele>
        <time>2022-07-26T16:24:51.030Z</time>
      </trkpt>
      <trkpt lat="46.63439" lon="1.36241">
        <ele>44.71</ele>
        <time>2022-07-26T16:24:57.000Z</time>
      </trkpt>
      <trkpt lat="46.6344" lon="1.36225">
        <ele>46.01</ele>
        <time>2022-07-26T16:25:03.000Z</time>
      </trkpt>
      <trkpt lat="46.63433" lon="1.36217">
        <ele>46.39</ele>
        <time>2022-07-26T16:25:07.403Z</time>
      </trkpt>
      <trkpt lat="46.63424" lon="1.3621">
        <ele>46.25</ele>
        <time>2022-07-26T16:25:12.388Z</time>
      </trkpt>
      <trkpt lat="46.63426" lon="1.36192">
        <ele>46.27</ele>
        <time>2022-07-26T16:25:26.626Z</time>
      </trkpt>
      <trkpt lat="46.63429" lon="1.36173">
        <ele>45.96</ele>
        <time>2022-07-26T16:25:31.126Z</time>
      </trkpt>
      <trkpt lat="46.63434" lon="1.36159">
        <ele>44.69</ele>
        <time>2022-07-26T16:25:38.000Z</time>
      </trkpt>
      <trkpt lat="46.6343" lon="1.36174">
        <ele>43.34</ele>
        <time>2022-07-26T16:26:19.610Z</time>
      </trkpt>
      <trkpt lat="46.63428" lon="1.36188">
        <ele>44.02</ele>
        <time>2022-07-26T16:26:28.000Z</time>
      </trkpt>
      <trkpt lat="46.63427" lon="1.36201">
        <ele>44.24</ele>
        <time>2022-07-26T16:26:32.266Z</time>
      </trkpt>
      <trkpt lat="46.63426" lon="1.36215">
        <ele>45.12</ele>
        <time>2022-07-26T16:26:42.000Z</time>
      </trkpt>
      <trkpt lat="46.63425" lon="1.36199">
        <ele>46.37</ele>
        <time>2022-07-26T16:26:49.567Z</time>
      </trkpt>
      <trkpt lat="46.63425" lon="1.36186">
        <ele>45.7</ele>
        <time>2022-07-26T16:26:54.000Z</time>
      </trkpt>
      <trkpt lat="46.63425" lon="1.36167">
        <ele>43.42</ele>
        <time>2022-07-26T16:26:59.000Z</time>
      </trkpt>
      <trkpt lat="46.63409" lon="1.36176">
        <ele>42.77</ele>
        <time>2022-07-26T16:27:05.000Z</time>
      </trkpt>
      <trkpt lat="46.63395" lon="1.36182">
        <ele>43.63</ele>
        <time>2022-07-26T16:27:09.333Z</time>
      </trkpt>
      <trkpt lat="46.63383" lon="1.36183">
        <ele>44.81</ele>
        <time>2022-07-26T16:27:15.000Z</time>
      </trkpt>
      <trkpt lat="46.63371" lon="1.36186">
        <ele>45</ele>
        <time>2022-07-26T16:27:19.110Z</time>
      </trkpt>
      <trkpt lat="46.6338" lon="1.36185">
        <ele>45.24</ele>
        <time>2022-07-26T16:28:06.546Z</time>
      </trkpt>
      <trkpt lat="46.63389" lon="1.36184">
        <ele>45.27</ele>
        <time>2022-07-26T16:28:11.008Z</time>
      </trkpt>
      <trkpt lat="46.63398" lon="1.36178">
        <ele>45.12</ele>
        <time>2022-07-26T16:28:16.282Z</time>
      </trkpt>
      <trkpt lat="46.63408" lon="1.36172">
        <ele>44.77</ele>
        <time>2022-07-26T16:28:23.000Z</time>
      </trkpt>
      <trkpt lat="46.6342" lon="1.36168">
        <ele>44.66</ele>
        <time>2022-07-26T16:28:27.611Z</time>
      </trkpt>
      <trkpt lat="46.63429" lon="1.36165">
        <ele>44.54</ele>
        <time>2022-07-26T16:28:32.544Z</time>
      </trkpt>
      <trkpt lat="46.63429" lon="1.36179">
        <ele>45.79</ele>
        <time>2022-07-26T16:28:40.000Z</time>
      </trkpt>
      <trkpt lat="46.63428" lon="1.36192">
        <ele>47.2</ele>
        <time>2022-07-26T16:28:45.000Z</time>
      </trkpt>
      <trkpt lat="46.63429" lon="1.36208">
        <ele>48.17</ele>
        <time>2022-07-26T16:28:50.000Z</time>
      </trkpt>
      <trkpt lat="46.63439" lon="1.36215">
        <ele>48.42</ele>
        <time>2022-07-26T16:28:56.000Z</time>
      </trkpt>
      <trkpt lat="46.6344" lon="1.362">
        <ele>48.56</ele>
        <time>2022-07-26T16:29:03.000Z</time>
      </trkpt>
      <trkpt lat="46.63441" lon="1.36185">
        <ele>48.69</ele>
        <time>2022-07-26T16:29:09.000Z</time>
      </trkpt>
      <trkpt lat="46.63443" lon="1.36169">
        <ele>49</ele>
        <time>2022-07-26T16:29:15.000Z</time>
      </trkpt>
      <trkpt lat="46.63445" lon="1.36152">
        <ele>49.22</ele>
        <time>2022-07-26T16:29:20.000Z</time>
      </trkpt>
      <trkpt lat="46.63448" lon="1.36124">
        <ele>50.58</ele>
        <time>2022-07-26T16:29:24.522Z</time>
      </trkpt>
      <trkpt lat="46.63449" lon="1.3611">
        <ele>48.81</ele>
        <time>2022-07-26T16:29:28.630Z</time>
      </trkpt>
      <trkpt lat="46.63451" lon="1.3609">
        <ele>47.05</ele>
        <time>2022-07-26T16:29:35.000Z</time>
      </trkpt>
      <trkpt lat="46.63453" lon="1.36057">
        <ele>45.99</ele>
        <time>2022-07-26T16:29:41.000Z</time>
      </trkpt>
      <trkpt lat="46.63455" lon="1.36029">
        <ele>45.42</ele>
        <time>2022-07-26T16:29:47.000Z</time>
      </trkpt>
      <trkpt lat="46.63458" lon="1.36002">
        <ele>46.15</ele>
        <time>2022-07-26T16:29:52.000Z</time>
      </trkpt>
      <trkpt lat="46.6346" lon="1.35977">
        <ele>46.62</ele>
        <time>2022-07-26T16:29:57.000Z</time>
      </trkpt>
      <trkpt lat="46.63461" lon="1.35952">
        <ele>47.26</ele>
        <time>2022-07-26T16:30:02.000Z</time>
      </trkpt>
      <trkpt lat="46.63465" lon="1.35926">
        <ele>45.52</ele>
        <time>2022-07-26T16:30:06.169Z</time>
      </trkpt>
      <trkpt lat="46.63469" lon="1.35905">
        <ele>45.09</ele>
        <time>2022-07-26T16:30:12.000Z</time>
      </trkpt>
      <trkpt lat="46.63476" lon="1.35871">
        <ele>43.51</ele>
        <time>2022-07-26T16:30:18.000Z</time>
      </trkpt>
      <trkpt lat="46.63481" lon="1.35842">
        <ele>43.38</ele>
        <time>2022-07-26T16:30:23.000Z</time>
      </trkpt>
      <trkpt lat="46.63487" lon="1.3581">
        <ele>43.2</ele>
        <time>2022-07-26T16:30:29.000Z</time>
      </trkpt>
      <trkpt lat="46.63495" lon="1.35781">
        <ele>43.34</ele>
        <time>2022-07-26T16:30:33.024Z</time>
      </trkpt>
      <trkpt lat="46.63502" lon="1.35764">
        <ele>43.18</ele>
        <time>2022-07-26T16:30:39.000Z</time>
      </trkpt>
      <trkpt lat="46.63507" lon="1.35735">
        <ele>44.04</ele>
        <time>2022-07-26T16:30:43.447Z</time>
      </trkpt>
      <trkpt lat="46.63513" lon="1.35714">
        <ele>44.22</ele>
        <time>2022-07-26T16:30:49.000Z</time>
      </trkpt>
      <trkpt lat="46.63523" lon="1.35687">
        <ele>44.48</ele>
        <time>2022-07-26T16:30:53.153Z</time>
      </trkpt>
      <trkpt lat="46.6353" lon="1.35666">
        <ele>44.65</ele>
        <time>2022-07-26T16:30:57.350Z</time>
      </trkpt>
      <trkpt lat="46.63535" lon="1.35653">
        <ele>45.19</ele>
        <time>2022-07-26T16:31:02.000Z</time>
      </trkpt>
      <trkpt lat="46.63542" lon="1.3563">
        <ele>45.22</ele>
        <time>2022-07-26T16:31:07.000Z</time>
      </trkpt>
      <trkpt lat="46.63553" lon="1.35603">
        <ele>46.52</ele>
        <time>2022-07-26T16:31:11.166Z</time>
      </trkpt>
      <trkpt lat="46.63562" lon="1.35586">
        <ele>44.26</ele>
        <time>2022-07-26T16:31:17.000Z</time>
      </trkpt>
      <trkpt lat="46.63573" lon="1.35562">
        <ele>42.41</ele>
        <time>2022-07-26T16:31:22.000Z</time>
      </trkpt>
      <trkpt lat="46.63582" lon="1.35536">
        <ele>40.78</ele>
        <time>2022-07-26T16:31:27.000Z</time>
      </trkpt>
      <trkpt lat="46.63591" lon="1.35511">
        <ele>40.07</ele>
        <time>2022-07-26T16:31:33.000Z</time>
      </trkpt>
      <trkpt lat="46.636" lon="1.35488">
        <ele>40.06</ele>
        <time>2022-07-26T16:31:37.667Z</time>
      </trkpt>
      <trkpt lat="46.63605" lon="1.35475">
        <ele>40.06</ele>
        <time>2022-07-26T16:31:42.000Z</time>
      </trkpt>
      <trkpt lat="46.63614" lon="1.35448">
        <ele>41.54</ele>
        <time>2022-07-26T16:31:48.000Z</time>
      </trkpt>
      <trkpt lat="46.63624" lon="1.35415">
        <ele>44.02</ele>
        <time>2022-07-26T16:31:52.658Z</time>
      </trkpt>
      <trkpt lat="46.63632" lon="1.35393">
        <ele>44.32</ele>
        <time>2022-07-26T16:31:58.000Z</time>
      </trkpt>
      <trkpt lat="46.63642" lon="1.35365">
        <ele>42.67</ele>
        <time>2022-07-26T16:32:03.000Z</time>
      </trkpt>
      <trkpt lat="46.63654" lon="1.35332">
        <ele>41.94</ele>
        <time>2022-07-26T16:32:09.000Z</time>
      </trkpt>
      <trkpt lat="46.63665" lon="1.35298">
        <ele>41.69</ele>
        <time>2022-07-26T16:32:15.000Z</time>
      </trkpt>
      <trkpt lat="46.63675" lon="1.35275">
        <ele>41.04</ele>
        <time>2022-07-26T16:32:20.000Z</time>
      </trkpt>
      <trkpt lat="46.63681" lon="1.35255">
        <ele>42.17</ele>
        <time>2022-07-26T16:32:25.000Z</time>
      </trkpt>
      <trkpt lat="46.63684" lon="1.3524">
        <ele>42.91</ele>
        <time>2022-07-26T16:32:30.000Z</time>
      </trkpt>
      <trkpt lat="46.6369" lon="1.35219">
        <ele>43.55</ele>
        <time>2022-07-26T16:32:35.000Z</time>
      </trkpt>
      <trkpt lat="46.637" lon="1.35191">
        <ele>43.39</ele>
        <time>2022-07-26T16:32:40.000Z</time>
      </trkpt>
      <trkpt lat="46.63711" lon="1.3516">
        <ele>43.63</ele>
        <time>2022-07-26T16:32:44.506Z</time>
      </trkpt>
      <trkpt lat="46.6372" lon="1.35135">
        <ele>44.69</ele>
        <time>2022-07-26T16:32:50.000Z</time>
      </trkpt>
      <trkpt lat="46.63732" lon="1.35106">
        <ele>45.6</ele>
        <time>2022-07-26T16:32:54.504Z</time>
      </trkpt>
      <trkpt lat="46.63739" lon="1.35091">
        <ele>45.11</ele>
        <time>2022-07-26T16:33:00.000Z</time>
      </trkpt>
      <trkpt lat="46.6375" lon="1.35069">
        <ele>44.06</ele>
        <time>2022-07-26T16:33:05.000Z</time>
      </trkpt>
      <trkpt lat="46.63763" lon="1.35045">
        <ele>44.28</ele>
        <time>2022-07-26T16:33:10.000Z</time>
      </trkpt>
      <trkpt lat="46.63776" lon="1.35022">
        <ele>42.75</ele>
        <time>2022-07-26T16:33:16.000Z</time>
      </trkpt>
      <trkpt lat="46.63786" lon="1.35005">
        <ele>41.51</ele>
        <time>2022-07-26T16:33:21.000Z</time>
      </trkpt>
      <trkpt lat="46.63803" lon="1.34978">
        <ele>40.17</ele>
        <time>2022-07-26T16:33:25.647Z</time>
      </trkpt>
      <trkpt lat="46.63811" lon="1.34963">
        <ele>39.55</ele>
        <time>2022-07-26T16:33:30.000Z</time>
      </trkpt>
      <trkpt lat="46.63826" lon="1.3493">
        <ele>39.21</ele>
        <time>2022-07-26T16:33:35.000Z</time>
      </trkpt>
      <trkpt lat="46.63841" lon="1.34899">
        <ele>40.68</ele>
        <time>2022-07-26T16:33:40.000Z</time>
      </trkpt>
      <trkpt lat="46.63856" lon="1.34872">
        <ele>41.82</ele>
        <time>2022-07-26T16:33:45.000Z</time>
      </trkpt>
      <trkpt lat="46.63872" lon="1.34844">
        <ele>41.45</ele>
        <time>2022-07-26T16:33:50.000Z</time>
      </trkpt>
      <trkpt lat="46.63888" lon="1.34818">
        <ele>41.49</ele>
        <time>2022-07-26T16:33:55.000Z</time>
      </trkpt>
      <trkpt lat="46.63902" lon="1.3479">
        <ele>43.14</ele>
        <time>2022-07-26T16:34:00.000Z</time>
      </trkpt>
      <trkpt lat="46.63918" lon="1.34762">
        <ele>43.22</ele>
        <time>2022-07-26T16:34:05.000Z</time>
      </trkpt>
      <trkpt lat="46.63933" lon="1.34733">
        <ele>42.86</ele>
        <time>2022-07-26T16:34:10.000Z</time>
      </trkpt>
      <trkpt lat="46.63948" lon="1.34704">
        <ele>41.95</ele>
        <time>2022-07-26T16:34:15.000Z</time>
      </trkpt>
      <trkpt lat="46.63964" lon="1.34676">
        <ele>41.84</ele>
        <time>2022-07-26T16:34:20.000Z</time>
      </trkpt>
      <trkpt lat="46.63979" lon="1.34648">
        <ele>41.89</ele>
        <time>2022-07-26T16:34:25.000Z</time>
      </trkpt>
      <trkpt lat="46.63993" lon="1.34624">
        <ele>43.73</ele>
        <time>2022-07-26T16:34:30.000Z</time>
      </trkpt>
      <trkpt lat="46.64006" lon="1.34603">
        <ele>42.66</ele>
        <time>2022-07-26T16:34:35.000Z</time>
      </trkpt>
      <trkpt lat="46.64018" lon="1.34583">
        <ele>41.24</ele>
        <time>2022-07-26T16:34:40.000Z</time>
      </trkpt>
      <trkpt lat="46.64027" lon="1.34563">
        <ele>40.51</ele>
        <time>2022-07-26T16:34:45.000Z</time>
      </trkpt>
      <trkpt lat="46.64035" lon="1.34548">
        <ele>38.36</ele>
        <time>2022-07-26T16:34:50.000Z</time>
      </trkpt>
      <trkpt lat="46.64041" lon="1.34533">
        <ele>35.52</ele>
        <time>2022-07-26T16:34:55.000Z</time>
      </trkpt>
      <trkpt lat="46.64047" lon="1.34517">
        <ele>34.86</ele>
        <time>2022-07-26T16:34:59.582Z</time>
      </trkpt>
      <trkpt lat="46.64051" lon="1.34503">
        <ele>34.4</ele>
        <time>2022-07-26T16:35:05.000Z</time>
      </trkpt>
      <trkpt lat="46.64056" lon="1.34488">
        <ele>34.41</ele>
        <time>2022-07-26T16:35:10.000Z</time>
      </trkpt>
      <trkpt lat="46.64063" lon="1.34465">
        <ele>35.36</ele>
        <time>2022-07-26T16:35:16.000Z</time>
      </trkpt>
      <trkpt lat="46.64066" lon="1.34448">
        <ele>36.9</ele>
        <time>2022-07-26T16:35:21.000Z</time>
      </trkpt>
      <trkpt lat="46.64068" lon="1.34433">
        <ele>39.96</ele>
        <time>2022-07-26T16:35:56.000Z</time>
      </trkpt>
      <trkpt lat="46.64072" lon="1.34412">
        <ele>40.08</ele>
        <time>2022-07-26T16:36:01.000Z</time>
      </trkpt>
      <trkpt lat="46.64076" lon="1.34385">
        <ele>40.93</ele>
        <time>2022-07-26T16:36:05.486Z</time>
      </trkpt>
      <trkpt lat="46.6408" lon="1.34366">
        <ele>43.88</ele>
        <time>2022-07-26T16:36:10.000Z</time>
      </trkpt>
      <trkpt lat="46.64086" lon="1.34331">
        <ele>43.89</ele>
        <time>2022-07-26T16:36:14.669Z</time>
      </trkpt>
      <trkpt lat="46.6409" lon="1.34313">
        <ele>43.23</ele>
        <time>2022-07-26T16:36:19.000Z</time>
      </trkpt>
      <trkpt lat="46.64096" lon="1.34282">
        <ele>42.6</ele>
        <time>2022-07-26T16:36:24.000Z</time>
      </trkpt>
      <trkpt lat="46.64106" lon="1.34251">
        <ele>40.75</ele>
        <time>2022-07-26T16:36:30.000Z</time>
      </trkpt>
      <trkpt lat="46.64113" lon="1.34223">
        <ele>40.5</ele>
        <time>2022-07-26T16:36:35.000Z</time>
      </trkpt>
      <trkpt lat="46.64122" lon="1.34188">
        <ele>41.93</ele>
        <time>2022-07-26T16:36:39.308Z</time>
      </trkpt>
      <trkpt lat="46.64129" lon="1.34164">
        <ele>44.05</ele>
        <time>2022-07-26T16:36:43.608Z</time>
      </trkpt>
      <trkpt lat="46.64136" lon="1.34136">
        <ele>45.15</ele>
        <time>2022-07-26T16:36:48.230Z</time>
      </trkpt>
      <trkpt lat="46.64143" lon="1.34119">
        <ele>44.51</ele>
        <time>2022-07-26T16:36:53.000Z</time>
      </trkpt>
      <trkpt lat="46.64155" lon="1.34088">
        <ele>42.51</ele>
        <time>2022-07-26T16:36:59.000Z</time>
      </trkpt>
      <trkpt lat="46.64165" lon="1.34063">
        <ele>42.54</ele>
        <time>2022-07-26T16:37:04.000Z</time>
      </trkpt>
      <trkpt lat="46.64172" lon="1.34045">
        <ele>41.99</ele>
        <time>2022-07-26T16:37:09.000Z</time>
      </trkpt>
      <trkpt lat="46.6417" lon="1.3403">
        <ele>42.54</ele>
        <time>2022-07-26T16:37:15.526Z</time>
      </trkpt>
      <trkpt lat="46.64162" lon="1.34016">
        <ele>41.25</ele>
        <time>2022-07-26T16:37:20.000Z</time>
      </trkpt>
      <trkpt lat="46.64159" lon="1.34001">
        <ele>39.88</ele>
        <time>2022-07-26T16:37:25.000Z</time>
      </trkpt>
      <trkpt lat="46.64166" lon="1.33982">
        <ele>37.9</ele>
        <time>2022-07-26T16:37:29.109Z</time>
      </trkpt>
      <trkpt lat="46.64176" lon="1.33966">
        <ele>38.68</ele>
        <time>2022-07-26T16:37:33.611Z</time>
      </trkpt>
      <trkpt lat="46.64182" lon="1.33955">
        <ele>40.06</ele>
        <time>2022-07-26T16:37:38.000Z</time>
      </trkpt>
      <trkpt lat="46.64189" lon="1.33939">
        <ele>39.34</ele>
        <time>2022-07-26T16:37:42.490Z</time>
      </trkpt>
      <trkpt lat="46.64194" lon="1.33928">
        <ele>40.16</ele>
        <time>2022-07-26T16:37:48.000Z</time>
      </trkpt>
      <trkpt lat="46.64201" lon="1.33916">
        <ele>41.67</ele>
        <time>2022-07-26T16:37:55.000Z</time>
      </trkpt>
      <trkpt lat="46.64192" lon="1.33907">
        <ele>42.09</ele>
        <time>2022-07-26T16:38:02.000Z</time>
      </trkpt>
      <trkpt lat="46.64181" lon="1.33897">
        <ele>40.57</ele>
        <time>2022-07-26T16:38:07.000Z</time>
      </trkpt>
      <trkpt lat="46.64163" lon="1.33893">
        <ele>38.58</ele>
        <time>2022-07-26T16:38:13.000Z</time>
      </trkpt>
      <trkpt lat="46.64151" lon="1.33888">
        <ele>37.35</ele>
        <time>2022-07-26T16:38:17.472Z</time>
      </trkpt>
      <trkpt lat="46.64149" lon="1.33874">
        <ele>40.39</ele>
        <time>2022-07-26T16:42:45.000Z</time>
      </trkpt>
      <trkpt lat="46.64149" lon="1.33856">
        <ele>40.18</ele>
        <time>2022-07-26T16:42:49.046Z</time>
      </trkpt>
      <trkpt lat="46.64148" lon="1.33842">
        <ele>40.8</ele>
        <time>2022-07-26T16:42:55.000Z</time>
      </trkpt>
      <trkpt lat="46.64148" lon="1.33827">
        <ele>41.15</ele>
        <time>2022-07-26T16:43:00.000Z</time>
      </trkpt>
      <trkpt lat="46.64148" lon="1.33812">
        <ele>41.84</ele>
        <time>2022-07-26T16:43:04.450Z</time>
      </trkpt>
      <trkpt lat="46.64148" lon="1.33798">
        <ele>42.48</ele>
        <time>2022-07-26T16:43:11.000Z</time>
      </trkpt>
      <trkpt lat="46.6415" lon="1.33783">
        <ele>42.47</ele>
        <time>2022-07-26T16:43:17.000Z</time>
      </trkpt>
      <trkpt lat="46.6415" lon="1.33768">
        <ele>41.96</ele>
        <time>2022-07-26T16:43:23.000Z</time>
      </trkpt>
      <trkpt lat="46.64152" lon="1.33755">
        <ele>42.2</ele>
        <time>2022-07-26T16:43:27.174Z</time>
      </trkpt>
      <trkpt lat="46.64153" lon="1.3374">
        <ele>43.63</ele>
        <time>2022-07-26T16:43:36.000Z</time>
      </trkpt>
      <trkpt lat="46.64153" lon="1.33726">
        <ele>44.88</ele>
        <time>2022-07-26T16:43:41.106Z</time>
      </trkpt>
      <trkpt lat="46.64154" lon="1.33713">
        <ele>45.5</ele>
        <time>2022-07-26T16:43:49.000Z</time>
      </trkpt>
      <trkpt lat="46.64155" lon="1.33697">
        <ele>45.39</ele>
        <time>2022-07-26T16:43:54.286Z</time>
      </trkpt>
      <trkpt lat="46.64156" lon="1.33681">
        <ele>44.86</ele>
        <time>2022-07-26T16:44:01.727Z</time>
      </trkpt>
      <trkpt lat="46.64157" lon="1.33666">
        <ele>45.06</ele>
        <time>2022-07-26T16:44:09.106Z</time>
      </trkpt>
      <trkpt lat="46.64158" lon="1.33652">
        <ele>45.35</ele>
        <time>2022-07-26T16:44:15.569Z</time>
      </trkpt>
      <trkpt lat="46.64159" lon="1.33636">
        <ele>45.78</ele>
        <time>2022-07-26T16:44:24.000Z</time>
      </trkpt>
      <trkpt lat="46.6416" lon="1.33621">
        <ele>45.22</ele>
        <time>2022-07-26T16:44:31.000Z</time>
      </trkpt>
      <trkpt lat="46.64161" lon="1.33608">
        <ele>44.76</ele>
        <time>2022-07-26T16:44:35.546Z</time>
      </trkpt>
      <trkpt lat="46.64162" lon="1.33595">
        <ele>44.48</ele>
        <time>2022-07-26T16:44:41.405Z</time>
      </trkpt>
      <trkpt lat="46.64163" lon="1.33581">
        <ele>44.16</ele>
        <time>2022-07-26T16:44:47.447Z</time>
      </trkpt>
      <trkpt lat="46.64163" lon="1.33568">
        <ele>44.26</ele>
        <time>2022-07-26T16:44:53.509Z</time>
      </trkpt>
      <trkpt lat="46.64162" lon="1.33555">
        <ele>44.74</ele>
        <time>2022-07-26T16:44:59.509Z</time>
      </trkpt>
      <trkpt lat="46.64161" lon="1.33541">
        <ele>45.12</ele>
        <time>2022-07-26T16:45:07.000Z</time>
      </trkpt>
      <trkpt lat="46.6416" lon="1.33523">
        <ele>44.84</ele>
        <time>2022-07-26T16:45:14.000Z</time>
      </trkpt>
      <trkpt lat="46.64161" lon="1.33507">
        <ele>45.29</ele>
        <time>2022-07-26T16:45:21.000Z</time>
      </trkpt>
      <trkpt lat="46.64161" lon="1.33493">
        <ele>45.86</ele>
        <time>2022-07-26T16:45:25.486Z</time>
      </trkpt>
      <trkpt lat="46.64162" lon="1.33479">
        <ele>45.69</ele>
        <time>2022-07-26T16:45:32.424Z</time>
      </trkpt>
      <trkpt lat="46.64163" lon="1.33466">
        <ele>45.56</ele>
        <time>2022-07-26T16:45:37.710Z</time>
      </trkpt>
      <trkpt lat="46.6416" lon="1.33453">
        <ele>45.46</ele>
        <time>2022-07-26T16:45:43.127Z</time>
      </trkpt>
      <trkpt lat="46.64157" lon="1.33441">
        <ele>44.87</ele>
        <time>2022-07-26T16:52:51.000Z</time>
      </trkpt>
      <trkpt lat="46.64156" lon="1.33427">
        <ele>44.63</ele>
        <time>2022-07-26T16:52:58.000Z</time>
      </trkpt>
      <trkpt lat="46.64157" lon="1.33412">
        <ele>41.8</ele>
        <time>2022-07-26T16:53:02.024Z</time>
      </trkpt>
      <trkpt lat="46.64157" lon="1.33396">
        <ele>37.11</ele>
        <time>2022-07-26T16:53:09.000Z</time>
      </trkpt>
      <trkpt lat="46.64157" lon="1.33383">
        <ele>33.31</ele>
        <time>2022-07-26T16:53:13.370Z</time>
      </trkpt>
      <trkpt lat="46.64159" lon="1.33367">
        <ele>33.92</ele>
        <time>2022-07-26T16:53:19.451Z</time>
      </trkpt>
      <trkpt lat="46.64162" lon="1.33353">
        <ele>33.96</ele>
        <time>2022-07-26T16:53:25.410Z</time>
      </trkpt>
      <trkpt lat="46.64164" lon="1.33339">
        <ele>34.28</ele>
        <time>2022-07-26T16:53:31.291Z</time>
      </trkpt>
      <trkpt lat="46.64166" lon="1.33326">
        <ele>35.28</ele>
        <time>2022-07-26T16:53:37.152Z</time>
      </trkpt>
      <trkpt lat="46.64168" lon="1.33312">
        <ele>35.44</ele>
        <time>2022-07-26T16:53:45.000Z</time>
      </trkpt>
      <trkpt lat="46.64171" lon="1.33298">
        <ele>36.88</ele>
        <time>2022-07-26T16:53:50.148Z</time>
      </trkpt>
      <trkpt lat="46.64173" lon="1.33286">
        <ele>38.66</ele>
        <time>2022-07-26T16:53:55.272Z</time>
      </trkpt>
      <trkpt lat="46.64176" lon="1.33271">
        <ele>41.86</ele>
        <time>2022-07-26T16:54:03.000Z</time>
      </trkpt>
      <trkpt lat="46.64179" lon="1.33257">
        <ele>43.71</ele>
        <time>2022-07-26T16:54:09.000Z</time>
      </trkpt>
      <trkpt lat="46.64181" lon="1.33243">
        <ele>45.01</ele>
        <time>2022-07-26T16:54:13.264Z</time>
      </trkpt>
      <trkpt lat="46.64184" lon="1.3323">
        <ele>45.89</ele>
        <time>2022-07-26T16:54:21.349Z</time>
      </trkpt>
      <trkpt lat="46.64187" lon="1.33216">
        <ele>45.28</ele>
        <time>2022-07-26T16:54:30.000Z</time>
      </trkpt>
      <trkpt lat="46.6419" lon="1.33203">
        <ele>45.46</ele>
        <time>2022-07-26T16:54:34.651Z</time>
      </trkpt>
      <trkpt lat="46.64193" lon="1.33189">
        <ele>46.09</ele>
        <time>2022-07-26T16:54:42.000Z</time>
      </trkpt>
      <trkpt lat="46.64197" lon="1.33174">
        <ele>46.09</ele>
        <time>2022-07-26T16:54:48.000Z</time>
      </trkpt>
      <trkpt lat="46.64201" lon="1.33161">
        <ele>46.54</ele>
        <time>2022-07-26T16:54:53.368Z</time>
      </trkpt>
      <trkpt lat="46.64205" lon="1.33148">
        <ele>46.39</ele>
        <time>2022-07-26T16:55:01.000Z</time>
      </trkpt>
      <trkpt lat="46.6421" lon="1.33132">
        <ele>46.49</ele>
        <time>2022-07-26T16:55:08.000Z</time>
      </trkpt>
      <trkpt lat="46.64214" lon="1.33117">
        <ele>47.01</ele>
        <time>2022-07-26T16:55:14.309Z</time>
      </trkpt>
      <trkpt lat="46.64219" lon="1.33104">
        <ele>47.46</ele>
        <time>2022-07-26T16:55:22.000Z</time>
      </trkpt>
      <trkpt lat="46.64224" lon="1.33092">
        <ele>47.27</ele>
        <time>2022-07-26T16:55:30.000Z</time>
      </trkpt>
      <trkpt lat="46.64233" lon="1.33084">
        <ele>47.43</ele>
        <time>2022-07-26T16:55:40.000Z</time>
      </trkpt>
      <trkpt lat="46.64243" lon="1.33086">
        <ele>46.09</ele>
        <time>2022-07-26T16:55:45.000Z</time>
      </trkpt>
      <trkpt lat="46.64255" lon="1.33088">
        <ele>45.36</ele>
        <time>2022-07-26T16:55:50.568Z</time>
      </trkpt>
      <trkpt lat="46.64264" lon="1.33091">
        <ele>44.81</ele>
        <time>2022-07-26T16:55:56.267Z</time>
      </trkpt>
      <trkpt lat="46.64273" lon="1.33094">
        <ele>44.44</ele>
        <time>2022-07-26T16:56:02.000Z</time>
      </trkpt>
      <trkpt lat="46.64284" lon="1.33096">
        <ele>44.19</ele>
        <time>2022-07-26T16:56:07.000Z</time>
      </trkpt>
      <trkpt lat="46.64295" lon="1.33098">
        <ele>44.46</ele>
        <time>2022-07-26T16:56:11.350Z</time>
      </trkpt>
      <trkpt lat="46.64306" lon="1.33099">
        <ele>44.74</ele>
        <time>2022-07-26T16:56:16.364Z</time>
      </trkpt>
      <trkpt lat="46.64316" lon="1.331">
        <ele>44.75</ele>
        <time>2022-07-26T16:56:23.000Z</time>
      </trkpt>
      <trkpt lat="46.64325" lon="1.33102">
        <ele>44.73</ele>
        <time>2022-07-26T16:56:28.000Z</time>
      </trkpt>
      <trkpt lat="46.64337" lon="1.33104">
        <ele>44.03</ele>
        <time>2022-07-26T16:56:34.000Z</time>
      </trkpt>
      <trkpt lat="46.64351" lon="1.33106">
        <ele>43.55</ele>
        <time>2022-07-26T16:56:38.524Z</time>
      </trkpt>
      <trkpt lat="46.6436" lon="1.33105">
        <ele>45.11</ele>
        <time>2022-07-26T16:56:44.304Z</time>
      </trkpt>
      <trkpt lat="46.64362" lon="1.33089">
        <ele>47.23</ele>
        <time>2022-07-26T16:56:52.000Z</time>
      </trkpt>
      <trkpt lat="46.64366" lon="1.33076">
        <ele>48.06</ele>
        <time>2022-07-26T16:57:10.444Z</time>
      </trkpt>
      <trkpt lat="46.64368" lon="1.33062">
        <ele>48.5</ele>
        <time>2022-07-26T16:57:15.000Z</time>
      </trkpt>
      <trkpt lat="46.6437" lon="1.33038">
        <ele>47.39</ele>
        <time>2022-07-26T16:57:19.666Z</time>
      </trkpt>
      <trkpt lat="46.64372" lon="1.33021">
        <ele>47.79</ele>
        <time>2022-07-26T16:57:24.490Z</time>
      </trkpt>
      <trkpt lat="46.64374" lon="1.33005">
        <ele>47.7</ele>
        <time>2022-07-26T16:57:29.171Z</time>
      </trkpt>
      <trkpt lat="46.64376" lon="1.32988">
        <ele>47.82</ele>
        <time>2022-07-26T16:57:33.391Z</time>
      </trkpt>
      <trkpt lat="46.64378" lon="1.32972">
        <ele>48.94</ele>
        <time>2022-07-26T16:57:37.669Z</time>
      </trkpt>
      <trkpt lat="46.6438" lon="1.32955">
        <ele>48.59</ele>
        <time>2022-07-26T16:57:43.000Z</time>
      </trkpt>
      <trkpt lat="46.64382" lon="1.32937">
        <ele>47.07</ele>
        <time>2022-07-26T16:57:48.000Z</time>
      </trkpt>
      <trkpt lat="46.64383" lon="1.32918">
        <ele>46.72</ele>
        <time>2022-07-26T16:57:53.000Z</time>
      </trkpt>
      <trkpt lat="46.64383" lon="1.329">
        <ele>46.83</ele>
        <time>2022-07-26T16:57:58.000Z</time>
      </trkpt>
      <trkpt lat="46.64383" lon="1.32878">
        <ele>47.48</ele>
        <time>2022-07-26T16:58:02.289Z</time>
      </trkpt>
      <trkpt lat="46.64383" lon="1.32862">
        <ele>47.81</ele>
        <time>2022-07-26T16:58:08.000Z</time>
      </trkpt>
      <trkpt lat="46.64381" lon="1.32843">
        <ele>48.57</ele>
        <time>2022-07-26T16:58:12.126Z</time>
      </trkpt>
      <trkpt lat="46.6438" lon="1.32825">
        <ele>48.33</ele>
        <time>2022-07-26T16:58:18.000Z</time>
      </trkpt>
      <trkpt lat="46.64381" lon="1.32803">
        <ele>49.33</ele>
        <time>2022-07-26T16:58:22.366Z</time>
      </trkpt>
      <trkpt lat="46.64382" lon="1.32789">
        <ele>50.06</ele>
        <time>2022-07-26T16:58:26.624Z</time>
      </trkpt>
      <trkpt lat="46.64383" lon="1.3277">
        <ele>49.7</ele>
        <time>2022-07-26T16:58:31.530Z</time>
      </trkpt>
      <trkpt lat="46.64385" lon="1.32755">
        <ele>49.95</ele>
        <time>2022-07-26T16:58:36.432Z</time>
      </trkpt>
      <trkpt lat="46.64387" lon="1.32738">
        <ele>49.87</ele>
        <time>2022-07-26T16:58:42.523Z</time>
      </trkpt>
      <trkpt lat="46.6439" lon="1.32725">
        <ele>49.9</ele>
        <time>2022-07-26T16:58:47.649Z</time>
      </trkpt>
      <trkpt lat="46.64399" lon="1.32719">
        <ele>50.92</ele>
        <time>2022-07-26T17:00:24.000Z</time>
      </trkpt>
      <trkpt lat="46.64412" lon="1.32721">
        <ele>52.56</ele>
        <time>2022-07-26T17:00:31.570Z</time>
      </trkpt>
      <trkpt lat="46.64408" lon="1.32734">
        <ele>51.22</ele>
        <time>2022-07-26T17:00:52.000Z</time>
      </trkpt>
      <trkpt lat="46.64407" lon="1.32757">
        <ele>50.2</ele>
        <time>2022-07-26T17:00:58.000Z</time>
      </trkpt>
      <trkpt lat="46.64405" lon="1.32778">
        <ele>49.18</ele>
        <time>2022-07-26T17:01:03.000Z</time>
      </trkpt>
      <trkpt lat="46.64404" lon="1.32795">
        <ele>47.65</ele>
        <time>2022-07-26T17:01:08.000Z</time>
      </trkpt>
      <trkpt lat="46.64402" lon="1.3282">
        <ele>46.58</ele>
        <time>2022-07-26T17:01:13.000Z</time>
      </trkpt>
      <trkpt lat="46.64399" lon="1.32843">
        <ele>46.75</ele>
        <time>2022-07-26T17:01:18.000Z</time>
      </trkpt>
      <trkpt lat="46.64396" lon="1.32869">
        <ele>45.38</ele>
        <time>2022-07-26T17:01:22.411Z</time>
      </trkpt>
      <trkpt lat="46.64395" lon="1.32893">
        <ele>42.82</ele>
        <time>2022-07-26T17:01:28.000Z</time>
      </trkpt>
      <trkpt lat="46.64394" lon="1.32926">
        <ele>41.5</ele>
        <time>2022-07-26T17:01:32.410Z</time>
      </trkpt>
      <trkpt lat="46.64392" lon="1.32943">
        <ele>42.14</ele>
        <time>2022-07-26T17:01:37.000Z</time>
      </trkpt>
      <trkpt lat="46.64389" lon="1.32971">
        <ele>42.42</ele>
        <time>2022-07-26T17:01:41.190Z</time>
      </trkpt>
      <trkpt lat="46.64386" lon="1.32998">
        <ele>44.31</ele>
        <time>2022-07-26T17:01:45.651Z</time>
      </trkpt>
      <trkpt lat="46.64381" lon="1.33024">
        <ele>46.32</ele>
        <time>2022-07-26T17:01:52.000Z</time>
      </trkpt>
      <trkpt lat="46.64379" lon="1.33047">
        <ele>46.62</ele>
        <time>2022-07-26T17:01:57.000Z</time>
      </trkpt>
      <trkpt lat="46.64377" lon="1.33078">
        <ele>45.29</ele>
        <time>2022-07-26T17:02:01.589Z</time>
      </trkpt>
      <trkpt lat="46.64374" lon="1.331">
        <ele>45.73</ele>
        <time>2022-07-26T17:02:07.000Z</time>
      </trkpt>
      <trkpt lat="46.64373" lon="1.33128">
        <ele>44.48</ele>
        <time>2022-07-26T17:02:11.549Z</time>
      </trkpt>
      <trkpt lat="46.64372" lon="1.33157">
        <ele>44.43</ele>
        <time>2022-07-26T17:02:16.352Z</time>
      </trkpt>
      <trkpt lat="46.64371" lon="1.33179">
        <ele>43.32</ele>
        <time>2022-07-26T17:02:22.000Z</time>
      </trkpt>
      <trkpt lat="46.64368" lon="1.33211">
        <ele>40.63</ele>
        <time>2022-07-26T17:02:26.533Z</time>
      </trkpt>
      <trkpt lat="46.64365" lon="1.3324">
        <ele>38.97</ele>
        <time>2022-07-26T17:02:31.752Z</time>
      </trkpt>
      <trkpt lat="46.64363" lon="1.33255">
        <ele>35.96</ele>
        <time>2022-07-26T17:02:36.000Z</time>
      </trkpt>
      <trkpt lat="46.64356" lon="1.33294">
        <ele>35.51</ele>
        <time>2022-07-26T17:02:41.000Z</time>
      </trkpt>
      <trkpt lat="46.6435" lon="1.33327">
        <ele>38.71</ele>
        <time>2022-07-26T17:02:46.000Z</time>
      </trkpt>
      <trkpt lat="46.64344" lon="1.33358">
        <ele>41.89</ele>
        <time>2022-07-26T17:02:51.000Z</time>
      </trkpt>
      <trkpt lat="46.64338" lon="1.33395">
        <ele>44.48</ele>
        <time>2022-07-26T17:02:55.184Z</time>
      </trkpt>
      <trkpt lat="46.64333" lon="1.33419">
        <ele>45.28</ele>
        <time>2022-07-26T17:03:01.000Z</time>
      </trkpt>
      <trkpt lat="46.6433" lon="1.33448">
        <ele>44.27</ele>
        <time>2022-07-26T17:03:05.405Z</time>
      </trkpt>
      <trkpt lat="46.64327" lon="1.33472">
        <ele>42.34</ele>
        <time>2022-07-26T17:03:10.438Z</time>
      </trkpt>
      <trkpt lat="46.64325" lon="1.33491">
        <ele>38.81</ele>
        <time>2022-07-26T17:03:15.000Z</time>
      </trkpt>
      <trkpt lat="46.64321" lon="1.33524">
        <ele>36.8</ele>
        <time>2022-07-26T17:03:19.400Z</time>
      </trkpt>
      <trkpt lat="46.64317" lon="1.33552">
        <ele>35.12</ele>
        <time>2022-07-26T17:03:25.000Z</time>
      </trkpt>
      <trkpt lat="46.64313" lon="1.33582">
        <ele>34</ele>
        <time>2022-07-26T17:03:30.000Z</time>
      </trkpt>
      <trkpt lat="46.64308" lon="1.33613">
        <ele>32.32</ele>
        <time>2022-07-26T17:03:35.000Z</time>
      </trkpt>
      <trkpt lat="46.64301" lon="1.33643">
        <ele>31.69</ele>
        <time>2022-07-26T17:03:40.000Z</time>
      </trkpt>
      <trkpt lat="46.64295" lon="1.33671">
        <ele>32.99</ele>
        <time>2022-07-26T17:03:45.000Z</time>
      </trkpt>
      <trkpt lat="46.64289" lon="1.33699">
        <ele>31.32</ele>
        <time>2022-07-26T17:03:50.000Z</time>
      </trkpt>
      <trkpt lat="46.6428" lon="1.33738">
        <ele>31.36</ele>
        <time>2022-07-26T17:03:56.000Z</time>
      </trkpt>
      <trkpt lat="46.6427" lon="1.3377">
        <ele>32.93</ele>
        <time>2022-07-26T17:04:00.282Z</time>
      </trkpt>
      <trkpt lat="46.64263" lon="1.33792">
        <ele>32.76</ele>
        <time>2022-07-26T17:04:06.000Z</time>
      </trkpt>
      <trkpt lat="46.64252" lon="1.33827">
        <ele>35.24</ele>
        <time>2022-07-26T17:04:12.000Z</time>
      </trkpt>
      <trkpt lat="46.64241" lon="1.33856">
        <ele>38.02</ele>
        <time>2022-07-26T17:04:17.000Z</time>
      </trkpt>
      <trkpt lat="46.64231" lon="1.33884">
        <ele>40.19</ele>
        <time>2022-07-26T17:04:22.000Z</time>
      </trkpt>
      <trkpt lat="46.64223" lon="1.33908">
        <ele>40.89</ele>
        <time>2022-07-26T17:04:27.000Z</time>
      </trkpt>
      <trkpt lat="46.64214" lon="1.33931">
        <ele>41.8</ele>
        <time>2022-07-26T17:04:32.000Z</time>
      </trkpt>
      <trkpt lat="46.64205" lon="1.33957">
        <ele>44.36</ele>
        <time>2022-07-26T17:04:37.000Z</time>
      </trkpt>
      <trkpt lat="46.64194" lon="1.33987">
        <ele>44.79</ele>
        <time>2022-07-26T17:04:41.284Z</time>
      </trkpt>
      <trkpt lat="46.64184" lon="1.34008">
        <ele>44.71</ele>
        <time>2022-07-26T17:04:45.424Z</time>
      </trkpt>
      <trkpt lat="46.64177" lon="1.34026">
        <ele>46.72</ele>
        <time>2022-07-26T17:04:51.000Z</time>
      </trkpt>
      <trkpt lat="46.64177" lon="1.34042">
        <ele>48.23</ele>
        <time>2022-07-26T17:05:18.000Z</time>
      </trkpt>
      <trkpt lat="46.64169" lon="1.34063">
        <ele>46.89</ele>
        <time>2022-07-26T17:05:23.000Z</time>
      </trkpt>
      <trkpt lat="46.64159" lon="1.3409">
        <ele>46.93</ele>
        <time>2022-07-26T17:05:29.000Z</time>
      </trkpt>
      <trkpt lat="46.64152" lon="1.34116">
        <ele>46.46</ele>
        <time>2022-07-26T17:05:34.000Z</time>
      </trkpt>
      <trkpt lat="46.64145" lon="1.34142">
        <ele>47.71</ele>
        <time>2022-07-26T17:05:39.000Z</time>
      </trkpt>
      <trkpt lat="46.64137" lon="1.34173">
        <ele>47.09</ele>
        <time>2022-07-26T17:05:45.000Z</time>
      </trkpt>
      <trkpt lat="46.64131" lon="1.34199">
        <ele>45.84</ele>
        <time>2022-07-26T17:05:50.000Z</time>
      </trkpt>
      <trkpt lat="46.64126" lon="1.34221">
        <ele>45.42</ele>
        <time>2022-07-26T17:05:55.000Z</time>
      </trkpt>
      <trkpt lat="46.64121" lon="1.34245">
        <ele>45.59</ele>
        <time>2022-07-26T17:06:00.000Z</time>
      </trkpt>
      <trkpt lat="46.64116" lon="1.34268">
        <ele>45.43</ele>
        <time>2022-07-26T17:06:05.000Z</time>
      </trkpt>
      <trkpt lat="46.64111" lon="1.3429">
        <ele>46.69</ele>
        <time>2022-07-26T17:06:10.000Z</time>
      </trkpt>
      <trkpt lat="46.64106" lon="1.34311">
        <ele>47.42</ele>
        <time>2022-07-26T17:06:15.000Z</time>
      </trkpt>
      <trkpt lat="46.64101" lon="1.34334">
        <ele>48.24</ele>
        <time>2022-07-26T17:06:20.000Z</time>
      </trkpt>
      <trkpt lat="46.64097" lon="1.34356">
        <ele>48.03</ele>
        <time>2022-07-26T17:06:25.000Z</time>
      </trkpt>
      <trkpt lat="46.64092" lon="1.34378">
        <ele>47.45</ele>
        <time>2022-07-26T17:06:30.000Z</time>
      </trkpt>
      <trkpt lat="46.64086" lon="1.34404">
        <ele>46.84</ele>
        <time>2022-07-26T17:06:35.000Z</time>
      </trkpt>
      <trkpt lat="46.64081" lon="1.3443">
        <ele>43.78</ele>
        <time>2022-07-26T17:06:40.000Z</time>
      </trkpt>
      <trkpt lat="46.64074" lon="1.34457">
        <ele>43.16</ele>
        <time>2022-07-26T17:06:45.000Z</time>
      </trkpt>
      <trkpt lat="46.64064" lon="1.3449">
        <ele>43.31</ele>
        <time>2022-07-26T17:06:51.000Z</time>
      </trkpt>
      <trkpt lat="46.64057" lon="1.34516">
        <ele>42.96</ele>
        <time>2022-07-26T17:06:56.000Z</time>
      </trkpt>
      <trkpt lat="46.64046" lon="1.34541">
        <ele>44.11</ele>
        <time>2022-07-26T17:07:01.000Z</time>
      </trkpt>
      <trkpt lat="46.64039" lon="1.34557">
        <ele>46.14</ele>
        <time>2022-07-26T17:07:06.000Z</time>
      </trkpt>
      <trkpt lat="46.64046" lon="1.34567">
        <ele>46.96</ele>
        <time>2022-07-26T17:07:18.000Z</time>
      </trkpt>
      <trkpt lat="46.64052" lon="1.34577">
        <ele>47.93</ele>
        <time>2022-07-26T17:07:27.523Z</time>
      </trkpt>
      <trkpt lat="46.64057" lon="1.3459">
        <ele>49.59</ele>
        <time>2022-07-26T17:08:46.398Z</time>
      </trkpt>
      <trkpt lat="46.64061" lon="1.34607">
        <ele>50.28</ele>
        <time>2022-07-26T17:08:51.000Z</time>
      </trkpt>
      <trkpt lat="46.64067" lon="1.3462">
        <ele>51.3</ele>
        <time>2022-07-26T17:08:56.000Z</time>
      </trkpt>
      <trkpt lat="46.64072" lon="1.34633">
        <ele>52.03</ele>
        <time>2022-07-26T17:09:00.445Z</time>
      </trkpt>
      <trkpt lat="46.64077" lon="1.34651">
        <ele>51.93</ele>
        <time>2022-07-26T17:09:10.686Z</time>
      </trkpt>
      <trkpt lat="46.64083" lon="1.34665">
        <ele>54</ele>
        <time>2022-07-26T17:09:25.000Z</time>
      </trkpt>
      <trkpt lat="46.64086" lon="1.34681">
        <ele>54.65</ele>
        <time>2022-07-26T17:09:30.000Z</time>
      </trkpt>
      <trkpt lat="46.64086" lon="1.34694">
        <ele>54.76</ele>
        <time>2022-07-26T17:09:40.000Z</time>
      </trkpt>
      <trkpt lat="46.64091" lon="1.34705">
        <ele>59.07</ele>
        <time>2022-07-26T17:13:26.000Z</time>
      </trkpt>
      <trkpt lat="46.64092" lon="1.3472">
        <ele>60.03</ele>
        <time>2022-07-26T17:15:20.081Z</time>
      </trkpt>
      <trkpt lat="46.6409" lon="1.34734">
        <ele>59.77</ele>
        <time>2022-07-26T17:15:28.468Z</time>
      </trkpt>
      <trkpt lat="46.6409" lon="1.34748">
        <ele>59.51</ele>
        <time>2022-07-26T17:15:35.000Z</time>
      </trkpt>
      <trkpt lat="46.64089" lon="1.34763">
        <ele>58.56</ele>
        <time>2022-07-26T17:15:41.000Z</time>
      </trkpt>
      <trkpt lat="46.6409" lon="1.34778">
        <ele>57.91</ele>
        <time>2022-07-26T17:15:45.419Z</time>
      </trkpt>
      <trkpt lat="46.64093" lon="1.34791">
        <ele>56.37</ele>
        <time>2022-07-26T17:15:50.505Z</time>
      </trkpt>
      <trkpt lat="46.64099" lon="1.34802">
        <ele>53.89</ele>
        <time>2022-07-26T17:15:55.388Z</time>
      </trkpt>
      <trkpt lat="46.64105" lon="1.34811">
        <ele>51.16</ele>
        <time>2022-07-26T17:16:20.000Z</time>
      </trkpt>
      <trkpt lat="46.64114" lon="1.34814">
        <ele>52.96</ele>
        <time>2022-07-26T17:16:37.000Z</time>
      </trkpt>
      <trkpt lat="46.64116" lon="1.34827">
        <ele>57.16</ele>
        <time>2022-07-26T17:18:47.000Z</time>
      </trkpt>
      <trkpt lat="46.64117" lon="1.34831">
        <ele>57.16</ele>
        <time>2022-07-26T17:19:38.000Z</time>
      </trkpt>
    </trkseg>
  </trk>
</gpx>